<?xml version='1.0' encoding='UTF-8'?><gpx version="1.1" creator="JPX - https://github.com/jenetics/jpx" xmlns="http://www.topografix.com/GPX/1/1"><trk><trkseg><trkpt lat="40.8938723" lon="14.2878167"><ele>80.0</ele><time>2026-04-23T10:53:25.588Z</time></trkpt><trkpt lat="40.8939346" lon="14.2878514"><ele>80.0</ele><time>2026-04-23T10:53:30Z</time></trkpt><trkpt lat="40.893882" lon="14.287907"><ele>80.0</ele><time>2026-04-23T10:54:11.391Z</time></trkpt><trkpt lat="40.8938341" lon="14.2878426"><ele>80.0</ele><time>2026-04-23T11:01:04.68Z</time></trkpt><trkpt lat="40.8937688" lon="14.2879089"><ele>80.0</ele><time>2026-04-23T11:01:15.117Z</time></trkpt><trkpt lat="40.8937067" lon="14.287837"><ele>80.0</ele><time>2026-04-23T11:01:21.872Z</time></trkpt><trkpt lat="40.8937006" lon="14.2877508"><ele>80.0</ele><time>2026-04-23T11:01:26.812Z</time></trkpt><trkpt lat="40.8937084" lon="14.287668"><ele>80.0</ele><time>2026-04-23T11:01:32.862Z</time></trkpt><trkpt lat="40.8936945" lon="14.2875757"><ele>80.0</ele><time>2026-04-23T11:01:37.904Z</time></trkpt><trkpt lat="40.8936292" lon="14.2875204"><ele>80.0</ele><time>2026-04-23T11:01:40.828Z</time></trkpt><trkpt lat="40.8937239" lon="14.2872549"><ele>80.0</ele><time>2026-04-23T11:01:42.843Z</time></trkpt><trkpt lat="40.8937617" lon="14.2870567"><ele>80.0</ele><time>2026-04-23T11:01:43.779Z</time></trkpt><trkpt lat="40.89376" lon="14.286955"><ele>80.0</ele><time>2026-04-23T11:01:45.779Z</time></trkpt><trkpt lat="40.893715" lon="14.28683"><ele>80.0</ele><time>2026-04-23T11:01:47.777Z</time></trkpt><trkpt lat="40.89367" lon="14.2867283"><ele>80.0</ele><time>2026-04-23T11:01:49.777Z</time></trkpt><trkpt lat="40.8936283" lon="14.28663"><ele>80.0</ele><time>2026-04-23T11:01:51.777Z</time></trkpt><trkpt lat="40.8935883" lon="14.2865333"><ele>80.0</ele><time>2026-04-23T11:01:53.777Z</time></trkpt><trkpt lat="40.8935533" lon="14.2864317"><ele>80.16666666666667</ele><time>2026-04-23T11:01:55.777Z</time></trkpt><trkpt lat="40.8935217" lon="14.28634"><ele>80.33333333333334</ele><time>2026-04-23T11:01:57.778Z</time></trkpt><trkpt lat="40.8934967" lon="14.2862467"><ele>80.5</ele><time>2026-04-23T11:02:00.778Z</time></trkpt><trkpt lat="40.8934317" lon="14.2861683"><ele>80.66666666666667</ele><time>2026-04-23T11:02:03.779Z</time></trkpt><trkpt lat="40.8934117" lon="14.28608"><ele>80.83333333333333</ele><time>2026-04-23T11:02:05.777Z</time></trkpt><trkpt lat="40.8933833" lon="14.2859883"><ele>81.0</ele><time>2026-04-23T11:02:07.777Z</time></trkpt><trkpt lat="40.893335" lon="14.2858967"><ele>81.16666666666667</ele><time>2026-04-23T11:02:09.777Z</time></trkpt><trkpt lat="40.8932967" lon="14.2857867"><ele>81.33333333333333</ele><time>2026-04-23T11:02:11.78Z</time></trkpt><trkpt lat="40.8932567" lon="14.2856817"><ele>81.5</ele><time>2026-04-23T11:02:13.777Z</time></trkpt><trkpt lat="40.8932117" lon="14.2855833"><ele>81.66666666666666</ele><time>2026-04-23T11:02:15.78Z</time></trkpt><trkpt lat="40.8931767" lon="14.2854767"><ele>81.83333333333333</ele><time>2026-04-23T11:02:17.778Z</time></trkpt><trkpt lat="40.893145" lon="14.2853733"><ele>82.0</ele><time>2026-04-23T11:02:19.777Z</time></trkpt><trkpt lat="40.8931083" lon="14.28528"><ele>82.6</ele><time>2026-04-23T11:02:21.777Z</time></trkpt><trkpt lat="40.8930667" lon="14.2851767"><ele>83.19999999999999</ele><time>2026-04-23T11:02:23.777Z</time></trkpt><trkpt lat="40.8930183" lon="14.2850683"><ele>83.8</ele><time>2026-04-23T11:02:25.777Z</time></trkpt><trkpt lat="40.8929717" lon="14.2849767"><ele>84.4</ele><time>2026-04-23T11:02:27.777Z</time></trkpt><trkpt lat="40.8929033" lon="14.284875"><ele>85.0</ele><time>2026-04-23T11:02:29.777Z</time></trkpt><trkpt lat="40.8928433" lon="14.2847683"><ele>85.2</ele><time>2026-04-23T11:02:31.778Z</time></trkpt><trkpt lat="40.8927883" lon="14.2846683"><ele>85.4</ele><time>2026-04-23T11:02:33.777Z</time></trkpt><trkpt lat="40.8927467" lon="14.2845483"><ele>85.6</ele><time>2026-04-23T11:02:35.777Z</time></trkpt><trkpt lat="40.8927033" lon="14.2844533"><ele>85.8</ele><time>2026-04-23T11:02:37.777Z</time></trkpt><trkpt lat="40.8926367" lon="14.2843533"><ele>86.0</ele><time>2026-04-23T11:02:39.777Z</time></trkpt><trkpt lat="40.8925683" lon="14.28425"><ele>85.8</ele><time>2026-04-23T11:02:41.777Z</time></trkpt><trkpt lat="40.8924967" lon="14.2841267"><ele>85.6</ele><time>2026-04-23T11:02:43.778Z</time></trkpt><trkpt lat="40.8924167" lon="14.2840333"><ele>85.4</ele><time>2026-04-23T11:02:45.777Z</time></trkpt><trkpt lat="40.8923567" lon="14.2839517"><ele>85.2</ele><time>2026-04-23T11:02:47.778Z</time></trkpt><trkpt lat="40.8922983" lon="14.283855"><ele>85.0</ele><time>2026-04-23T11:02:49.777Z</time></trkpt><trkpt lat="40.8922383" lon="14.2837383"><ele>85.0</ele><time>2026-04-23T11:02:51.778Z</time></trkpt><trkpt lat="40.892165" lon="14.2836383"><ele>85.0</ele><time>2026-04-23T11:02:53.777Z</time></trkpt><trkpt lat="40.892095" lon="14.2835467"><ele>85.0</ele><time>2026-04-23T11:02:55.778Z</time></trkpt><trkpt lat="40.8920133" lon="14.283465"><ele>85.0</ele><time>2026-04-23T11:02:57.777Z</time></trkpt><trkpt lat="40.8919267" lon="14.283395"><ele>85.0</ele><time>2026-04-23T11:02:59.777Z</time></trkpt><trkpt lat="40.8918283" lon="14.2833233"><ele>84.8</ele><time>2026-04-23T11:03:01.777Z</time></trkpt><trkpt lat="40.8917383" lon="14.283255"><ele>84.6</ele><time>2026-04-23T11:03:03.777Z</time></trkpt><trkpt lat="40.8916533" lon="14.283185"><ele>84.4</ele><time>2026-04-23T11:03:05.777Z</time></trkpt><trkpt lat="40.891565" lon="14.2831033"><ele>84.2</ele><time>2026-04-23T11:03:07.777Z</time></trkpt><trkpt lat="40.8914617" lon="14.283075"><ele>84.0</ele><time>2026-04-23T11:03:09.777Z</time></trkpt><trkpt lat="40.8913783" lon="14.2830167"><ele>84.6</ele><time>2026-04-23T11:03:11.777Z</time></trkpt><trkpt lat="40.8913017" lon="14.2829633"><ele>85.2</ele><time>2026-04-23T11:03:13.778Z</time></trkpt><trkpt lat="40.89122" lon="14.28292"><ele>85.8</ele><time>2026-04-23T11:03:15.777Z</time></trkpt><trkpt lat="40.8911317" lon="14.2828767"><ele>86.39999999999999</ele><time>2026-04-23T11:03:17.778Z</time></trkpt><trkpt lat="40.8910417" lon="14.2828317"><ele>87.0</ele><time>2026-04-23T11:03:19.776Z</time></trkpt><trkpt lat="40.890955" lon="14.2827817"><ele>87.19999999999999</ele><time>2026-04-23T11:03:21.776Z</time></trkpt><trkpt lat="40.8908667" lon="14.282735"><ele>87.4</ele><time>2026-04-23T11:03:23.777Z</time></trkpt><trkpt lat="40.8907667" lon="14.2827083"><ele>87.6</ele><time>2026-04-23T11:03:25.778Z</time></trkpt><trkpt lat="40.8906633" lon="14.2826933"><ele>87.80000000000001</ele><time>2026-04-23T11:03:27.777Z</time></trkpt><trkpt lat="40.890555" lon="14.2826833"><ele>88.0</ele><time>2026-04-23T11:03:29.776Z</time></trkpt><trkpt lat="40.8904483" lon="14.2826783"><ele>88.0</ele><time>2026-04-23T11:03:31.777Z</time></trkpt><trkpt lat="40.8903367" lon="14.282675"><ele>88.0</ele><time>2026-04-23T11:03:33.776Z</time></trkpt><trkpt lat="40.890225" lon="14.28266"><ele>88.0</ele><time>2026-04-23T11:03:35.776Z</time></trkpt><trkpt lat="40.89012" lon="14.2826683"><ele>88.0</ele><time>2026-04-23T11:03:37.777Z</time></trkpt><trkpt lat="40.8900167" lon="14.282665"><ele>88.0</ele><time>2026-04-23T11:03:39.775Z</time></trkpt><trkpt lat="40.8899033" lon="14.2826583"><ele>87.33333333333333</ele><time>2026-04-23T11:03:41.777Z</time></trkpt><trkpt lat="40.889795" lon="14.282645"><ele>86.66666666666666</ele><time>2026-04-23T11:03:43.776Z</time></trkpt><trkpt lat="40.8897267" lon="14.282605"><ele>86.0</ele><time>2026-04-23T11:03:45.775Z</time></trkpt><trkpt lat="40.8897117" lon="14.2825133"><ele>85.33333333333333</ele><time>2026-04-23T11:03:48.776Z</time></trkpt><trkpt lat="40.8897983" lon="14.2824533"><ele>84.66666666666667</ele><time>2026-04-23T11:03:50.775Z</time></trkpt><trkpt lat="40.8898567" lon="14.2823967"><ele>84.0</ele><time>2026-04-23T11:03:52.775Z</time></trkpt><trkpt lat="40.8899383" lon="14.2823467"><ele>84.0</ele><time>2026-04-23T11:03:54.775Z</time></trkpt><trkpt lat="40.8899983" lon="14.28229"><ele>84.0</ele><time>2026-04-23T11:03:56.775Z</time></trkpt><trkpt lat="40.89006" lon="14.2822333"><ele>84.0</ele><time>2026-04-23T11:03:58.775Z</time></trkpt><trkpt lat="40.8901283" lon="14.2821867"><ele>84.0</ele><time>2026-04-23T11:04:00.776Z</time></trkpt><trkpt lat="40.8902067" lon="14.28213"><ele>84.0</ele><time>2026-04-23T11:04:02.776Z</time></trkpt><trkpt lat="40.89023" lon="14.282045"><ele>84.0</ele><time>2026-04-23T11:04:04.775Z</time></trkpt><trkpt lat="40.89022" lon="14.281945"><ele>84.16666666666667</ele><time>2026-04-23T11:04:06.775Z</time></trkpt><trkpt lat="40.8902017" lon="14.2818483"><ele>84.33333333333333</ele><time>2026-04-23T11:04:08.776Z</time></trkpt><trkpt lat="40.89017" lon="14.28175"><ele>84.5</ele><time>2026-04-23T11:04:10.775Z</time></trkpt><trkpt lat="40.8901383" lon="14.2816517"><ele>84.66666666666666</ele><time>2026-04-23T11:04:12.776Z</time></trkpt><trkpt lat="40.890105" lon="14.2815633"><ele>84.83333333333333</ele><time>2026-04-23T11:04:14.775Z</time></trkpt><trkpt lat="40.8900617" lon="14.2814883"><ele>85.0</ele><time>2026-04-23T11:04:16.776Z</time></trkpt><trkpt lat="40.8900183" lon="14.281415"><ele>85.0</ele><time>2026-04-23T11:04:18.775Z</time></trkpt><trkpt lat="40.8899833" lon="14.2813433"><ele>85.0</ele><time>2026-04-23T11:04:20.775Z</time></trkpt><trkpt lat="40.8899717" lon="14.2812517"><ele>85.0</ele><time>2026-04-23T11:04:23.775Z</time></trkpt><trkpt lat="40.889985" lon="14.2811483"><ele>85.0</ele><time>2026-04-23T11:04:27.775Z</time></trkpt><trkpt lat="40.89004" lon="14.2810867"><ele>85.0</ele><time>2026-04-23T11:04:29.775Z</time></trkpt><trkpt lat="40.8900933" lon="14.28104"><ele>85.0</ele><time>2026-04-23T11:04:31.776Z</time></trkpt><trkpt lat="40.8901533" lon="14.2809867"><ele>85.0</ele><time>2026-04-23T11:04:33.776Z</time></trkpt><trkpt lat="40.8902317" lon="14.2809317"><ele>85.0</ele><time>2026-04-23T11:04:35.775Z</time></trkpt><trkpt lat="40.8903017" lon="14.2808767"><ele>85.0</ele><time>2026-04-23T11:04:37.775Z</time></trkpt><trkpt lat="40.8903583" lon="14.2808117"><ele>85.0</ele><time>2026-04-23T11:04:39.775Z</time></trkpt><trkpt lat="40.89043" lon="14.2807383"><ele>85.0</ele><time>2026-04-23T11:04:41.775Z</time></trkpt><trkpt lat="40.8904983" lon="14.2806783"><ele>85.0</ele><time>2026-04-23T11:04:43.776Z</time></trkpt><trkpt lat="40.89057" lon="14.2806217"><ele>85.0</ele><time>2026-04-23T11:04:45.775Z</time></trkpt><trkpt lat="40.8906433" lon="14.280555"><ele>85.2</ele><time>2026-04-23T11:04:47.776Z</time></trkpt><trkpt lat="40.8907133" lon="14.2804867"><ele>85.4</ele><time>2026-04-23T11:04:49.775Z</time></trkpt><trkpt lat="40.89078" lon="14.2804217"><ele>85.6</ele><time>2026-04-23T11:04:51.775Z</time></trkpt><trkpt lat="40.8908567" lon="14.2803467"><ele>85.8</ele><time>2026-04-23T11:04:53.775Z</time></trkpt><trkpt lat="40.8909333" lon="14.2802733"><ele>86.0</ele><time>2026-04-23T11:04:55.776Z</time></trkpt><trkpt lat="40.89101" lon="14.2802017"><ele>86.19999999999999</ele><time>2026-04-23T11:04:57.776Z</time></trkpt><trkpt lat="40.8910817" lon="14.2801283"><ele>86.39999999999999</ele><time>2026-04-23T11:04:59.776Z</time></trkpt><trkpt lat="40.89115" lon="14.2800467"><ele>86.6</ele><time>2026-04-23T11:05:01.776Z</time></trkpt><trkpt lat="40.89123" lon="14.2799833"><ele>86.8</ele><time>2026-04-23T11:05:03.775Z</time></trkpt><trkpt lat="40.891315" lon="14.2799283"><ele>87.0</ele><time>2026-04-23T11:05:05.775Z</time></trkpt><trkpt lat="40.8913867" lon="14.27985"><ele>87.6</ele><time>2026-04-23T11:05:07.775Z</time></trkpt><trkpt lat="40.8914583" lon="14.2797633"><ele>88.19999999999999</ele><time>2026-04-23T11:05:09.775Z</time></trkpt><trkpt lat="40.89154" lon="14.279685"><ele>88.8</ele><time>2026-04-23T11:05:11.775Z</time></trkpt><trkpt lat="40.891615" lon="14.2796017"><ele>89.4</ele><time>2026-04-23T11:05:13.775Z</time></trkpt><trkpt lat="40.8917" lon="14.2795283"><ele>90.0</ele><time>2026-04-23T11:05:15.775Z</time></trkpt><trkpt lat="40.8917883" lon="14.2794567"><ele>90.0</ele><time>2026-04-23T11:05:17.775Z</time></trkpt><trkpt lat="40.8918267" lon="14.27939"><ele>90.0</ele><time>2026-04-23T11:05:19.776Z</time></trkpt><trkpt lat="40.89181" lon="14.27929"><ele>90.0</ele><time>2026-04-23T11:05:22.777Z</time></trkpt><trkpt lat="40.8917533" lon="14.2792367"><ele>90.0</ele><time>2026-04-23T11:05:24.776Z</time></trkpt><trkpt lat="40.8916667" lon="14.279185"><ele>90.0</ele><time>2026-04-23T11:05:26.776Z</time></trkpt><trkpt lat="40.89158" lon="14.2791333"><ele>90.0</ele><time>2026-04-23T11:05:28.775Z</time></trkpt><trkpt lat="40.8915117" lon="14.2790717"><ele>90.0</ele><time>2026-04-23T11:05:30.776Z</time></trkpt><trkpt lat="40.891425" lon="14.27901"><ele>90.0</ele><time>2026-04-23T11:05:32.776Z</time></trkpt><trkpt lat="40.8913433" lon="14.2789567"><ele>90.0</ele><time>2026-04-23T11:05:34.776Z</time></trkpt><trkpt lat="40.8912517" lon="14.2789033"><ele>90.0</ele><time>2026-04-23T11:05:36.775Z</time></trkpt><trkpt lat="40.8911517" lon="14.278855"><ele>90.0</ele><time>2026-04-23T11:05:38.775Z</time></trkpt><trkpt lat="40.89106" lon="14.2788117"><ele>90.6</ele><time>2026-04-23T11:05:40.775Z</time></trkpt><trkpt lat="40.8909683" lon="14.2787667"><ele>91.2</ele><time>2026-04-23T11:05:42.776Z</time></trkpt><trkpt lat="40.8908717" lon="14.2787333"><ele>91.80000000000001</ele><time>2026-04-23T11:05:44.775Z</time></trkpt><trkpt lat="40.8907767" lon="14.278695"><ele>92.4</ele><time>2026-04-23T11:05:46.776Z</time></trkpt><trkpt lat="40.8906767" lon="14.2786567"><ele>93.0</ele><time>2026-04-23T11:05:48.776Z</time></trkpt><trkpt lat="40.890585" lon="14.2786183"><ele>93.0</ele><time>2026-04-23T11:05:50.775Z</time></trkpt><trkpt lat="40.8904967" lon="14.2785717"><ele>93.0</ele><time>2026-04-23T11:05:52.777Z</time></trkpt><trkpt lat="40.8904083" lon="14.27851"><ele>93.0</ele><time>2026-04-23T11:05:54.776Z</time></trkpt><trkpt lat="40.89033" lon="14.2784383"><ele>93.0</ele><time>2026-04-23T11:05:56.775Z</time></trkpt><trkpt lat="40.89025" lon="14.278355"><ele>93.0</ele><time>2026-04-23T11:05:58.777Z</time></trkpt><trkpt lat="40.8901267" lon="14.2782933"><ele>92.80000000000001</ele><time>2026-04-23T11:06:00.777Z</time></trkpt><trkpt lat="40.8900267" lon="14.2782183"><ele>92.6</ele><time>2026-04-23T11:06:02.777Z</time></trkpt><trkpt lat="40.889935" lon="14.278155"><ele>92.4</ele><time>2026-04-23T11:06:04.777Z</time></trkpt><trkpt lat="40.8898417" lon="14.278095"><ele>92.19999999999999</ele><time>2026-04-23T11:06:06.779Z</time></trkpt><trkpt lat="40.8897867" lon="14.2780417"><ele>92.0</ele><time>2026-04-23T11:06:08.778Z</time></trkpt><trkpt lat="40.889715" lon="14.27798"><ele>92.0</ele><time>2026-04-23T11:06:10.78Z</time></trkpt><trkpt lat="40.88963" lon="14.2779333"><ele>92.0</ele><time>2026-04-23T11:06:12.778Z</time></trkpt><trkpt lat="40.8895483" lon="14.27789"><ele>92.0</ele><time>2026-04-23T11:06:14.78Z</time></trkpt><trkpt lat="40.889455" lon="14.2778533"><ele>92.0</ele><time>2026-04-23T11:06:16.779Z</time></trkpt><trkpt lat="40.8893583" lon="14.2778217"><ele>92.0</ele><time>2026-04-23T11:06:18.779Z</time></trkpt><trkpt lat="40.8892683" lon="14.2777883"><ele>91.6</ele><time>2026-04-23T11:06:20.778Z</time></trkpt><trkpt lat="40.8891633" lon="14.27776"><ele>91.19999999999999</ele><time>2026-04-23T11:06:22.779Z</time></trkpt><trkpt lat="40.88906" lon="14.2777233"><ele>90.8</ele><time>2026-04-23T11:06:24.779Z</time></trkpt><trkpt lat="40.88896" lon="14.27769"><ele>90.4</ele><time>2026-04-23T11:06:26.78Z</time></trkpt><trkpt lat="40.8888617" lon="14.2776367"><ele>90.0</ele><time>2026-04-23T11:06:28.78Z</time></trkpt><trkpt lat="40.88877" lon="14.2775817"><ele>90.0</ele><time>2026-04-23T11:06:30.779Z</time></trkpt><trkpt lat="40.888685" lon="14.2775233"><ele>90.0</ele><time>2026-04-23T11:06:32.779Z</time></trkpt><trkpt lat="40.8886017" lon="14.2774533"><ele>90.0</ele><time>2026-04-23T11:06:34.78Z</time></trkpt><trkpt lat="40.8885233" lon="14.2773867"><ele>90.0</ele><time>2026-04-23T11:06:36.777Z</time></trkpt><trkpt lat="40.8884433" lon="14.2773167"><ele>90.0</ele><time>2026-04-23T11:06:38.779Z</time></trkpt><trkpt lat="40.8883633" lon="14.2772367"><ele>90.0</ele><time>2026-04-23T11:06:40.78Z</time></trkpt><trkpt lat="40.8882817" lon="14.2771617"><ele>90.0</ele><time>2026-04-23T11:06:42.778Z</time></trkpt><trkpt lat="40.8881933" lon="14.2771083"><ele>90.0</ele><time>2026-04-23T11:06:44.78Z</time></trkpt><trkpt lat="40.8881017" lon="14.277055"><ele>90.0</ele><time>2026-04-23T11:06:46.779Z</time></trkpt><trkpt lat="40.8880117" lon="14.2769883"><ele>90.0</ele><time>2026-04-23T11:06:48.781Z</time></trkpt><trkpt lat="40.8879233" lon="14.2769167"><ele>90.0</ele><time>2026-04-23T11:06:50.779Z</time></trkpt><trkpt lat="40.8878317" lon="14.2768567"><ele>90.0</ele><time>2026-04-23T11:06:52.779Z</time></trkpt><trkpt lat="40.887735" lon="14.2767967"><ele>90.0</ele><time>2026-04-23T11:06:54.779Z</time></trkpt><trkpt lat="40.8876317" lon="14.2767433"><ele>90.0</ele><time>2026-04-23T11:06:56.78Z</time></trkpt><trkpt lat="40.8875317" lon="14.2766917"><ele>90.0</ele><time>2026-04-23T11:06:58.78Z</time></trkpt><trkpt lat="40.887455" lon="14.2766567"><ele>90.0</ele><time>2026-04-23T11:07:00.779Z</time></trkpt><trkpt lat="40.8873933" lon="14.2766267"><ele>90.0</ele><time>2026-04-23T11:07:04.781Z</time></trkpt><trkpt lat="40.8873217" lon="14.2765533"><ele>90.0</ele><time>2026-04-23T11:07:08.779Z</time></trkpt><trkpt lat="40.887255" lon="14.2765067"><ele>90.0</ele><time>2026-04-23T11:07:10.779Z</time></trkpt><trkpt lat="40.8871833" lon="14.2764617"><ele>90.0</ele><time>2026-04-23T11:07:12.779Z</time></trkpt><trkpt lat="40.8871133" lon="14.27641"><ele>90.0</ele><time>2026-04-23T11:07:14.781Z</time></trkpt><trkpt lat="40.88704" lon="14.27635"><ele>90.0</ele><time>2026-04-23T11:07:16.781Z</time></trkpt><trkpt lat="40.88696" lon="14.2762917"><ele>90.0</ele><time>2026-04-23T11:07:18.778Z</time></trkpt><trkpt lat="40.8868717" lon="14.2762317"><ele>90.0</ele><time>2026-04-23T11:07:20.778Z</time></trkpt><trkpt lat="40.88678" lon="14.27617"><ele>90.0</ele><time>2026-04-23T11:07:22.781Z</time></trkpt><trkpt lat="40.8866933" lon="14.2761017"><ele>90.0</ele><time>2026-04-23T11:07:24.779Z</time></trkpt><trkpt lat="40.886605" lon="14.2760333"><ele>90.0</ele><time>2026-04-23T11:07:26.779Z</time></trkpt><trkpt lat="40.8865133" lon="14.2759633"><ele>90.0</ele><time>2026-04-23T11:07:28.779Z</time></trkpt><trkpt lat="40.8864267" lon="14.275895"><ele>90.0</ele><time>2026-04-23T11:07:30.78Z</time></trkpt><trkpt lat="40.8863383" lon="14.275825"><ele>90.0</ele><time>2026-04-23T11:07:32.778Z</time></trkpt><trkpt lat="40.8862517" lon="14.275755"><ele>90.0</ele><time>2026-04-23T11:07:34.78Z</time></trkpt><trkpt lat="40.886175" lon="14.275685"><ele>90.0</ele><time>2026-04-23T11:07:36.779Z</time></trkpt><trkpt lat="40.8860983" lon="14.2756117"><ele>90.0</ele><time>2026-04-23T11:07:38.779Z</time></trkpt><trkpt lat="40.88602" lon="14.2755283"><ele>90.0</ele><time>2026-04-23T11:07:40.777Z</time></trkpt><trkpt lat="40.8859433" lon="14.275455"><ele>90.0</ele><time>2026-04-23T11:07:42.779Z</time></trkpt><trkpt lat="40.8858633" lon="14.2753817"><ele>90.0</ele><time>2026-04-23T11:07:44.777Z</time></trkpt><trkpt lat="40.8857867" lon="14.2752917"><ele>90.33333333333333</ele><time>2026-04-23T11:07:46.779Z</time></trkpt><trkpt lat="40.885705" lon="14.2752367"><ele>90.66666666666667</ele><time>2026-04-23T11:07:48.781Z</time></trkpt><trkpt lat="40.8856233" lon="14.2751733"><ele>91.0</ele><time>2026-04-23T11:07:50.776Z</time></trkpt><trkpt lat="40.88555" lon="14.27511"><ele>91.33333333333334</ele><time>2026-04-23T11:07:52.779Z</time></trkpt><trkpt lat="40.88548" lon="14.2750533"><ele>91.66666666666667</ele><time>2026-04-23T11:07:54.78Z</time></trkpt><trkpt lat="40.885405" lon="14.2750067"><ele>92.0</ele><time>2026-04-23T11:07:56.775Z</time></trkpt><trkpt lat="40.8853267" lon="14.27494"><ele>92.0</ele><time>2026-04-23T11:07:58.785Z</time></trkpt><trkpt lat="40.8852233" lon="14.2748733"><ele>92.0</ele><time>2026-04-23T11:08:00.776Z</time></trkpt><trkpt lat="40.88513" lon="14.2748117"><ele>92.0</ele><time>2026-04-23T11:08:02.775Z</time></trkpt><trkpt lat="40.8850567" lon="14.2747283"><ele>92.0</ele><time>2026-04-23T11:08:04.776Z</time></trkpt><trkpt lat="40.8849783" lon="14.2746483"><ele>92.0</ele><time>2026-04-23T11:08:06.775Z</time></trkpt><trkpt lat="40.8848967" lon="14.27456"><ele>91.8</ele><time>2026-04-23T11:08:08.776Z</time></trkpt><trkpt lat="40.8848217" lon="14.2744717"><ele>91.6</ele><time>2026-04-23T11:08:10.775Z</time></trkpt><trkpt lat="40.8847333" lon="14.2743933"><ele>91.39999999999999</ele><time>2026-04-23T11:08:12.776Z</time></trkpt><trkpt lat="40.884645" lon="14.2743067"><ele>91.19999999999999</ele><time>2026-04-23T11:08:14.776Z</time></trkpt><trkpt lat="40.8845633" lon="14.274225"><ele>91.0</ele><time>2026-04-23T11:08:16.775Z</time></trkpt><trkpt lat="40.8844833" lon="14.2741383"><ele>91.0</ele><time>2026-04-23T11:08:18.775Z</time></trkpt><trkpt lat="40.8843967" lon="14.2740567"><ele>91.0</ele><time>2026-04-23T11:08:20.775Z</time></trkpt><trkpt lat="40.8843017" lon="14.2739767"><ele>91.0</ele><time>2026-04-23T11:08:22.777Z</time></trkpt><trkpt lat="40.8842217" lon="14.2738767"><ele>91.0</ele><time>2026-04-23T11:08:24.783Z</time></trkpt><trkpt lat="40.8841333" lon="14.2737867"><ele>91.0</ele><time>2026-04-23T11:08:26.776Z</time></trkpt><trkpt lat="40.884045" lon="14.2736933"><ele>91.6</ele><time>2026-04-23T11:08:28.78Z</time></trkpt><trkpt lat="40.8839533" lon="14.273605"><ele>92.19999999999999</ele><time>2026-04-23T11:08:30.777Z</time></trkpt><trkpt lat="40.883865" lon="14.2735167"><ele>92.80000000000001</ele><time>2026-04-23T11:08:32.778Z</time></trkpt><trkpt lat="40.8837817" lon="14.2734183"><ele>93.4</ele><time>2026-04-23T11:08:34.776Z</time></trkpt><trkpt lat="40.8836917" lon="14.2733317"><ele>94.0</ele><time>2026-04-23T11:08:36.776Z</time></trkpt><trkpt lat="40.8836" lon="14.2732433"><ele>94.0</ele><time>2026-04-23T11:08:38.776Z</time></trkpt><trkpt lat="40.8835117" lon="14.2731517"><ele>94.0</ele><time>2026-04-23T11:08:40.776Z</time></trkpt><trkpt lat="40.883425" lon="14.2730567"><ele>94.0</ele><time>2026-04-23T11:08:42.775Z</time></trkpt><trkpt lat="40.8833467" lon="14.272965"><ele>94.0</ele><time>2026-04-23T11:08:44.776Z</time></trkpt><trkpt lat="40.8832683" lon="14.27288"><ele>94.0</ele><time>2026-04-23T11:08:46.777Z</time></trkpt><trkpt lat="40.8831817" lon="14.2727933"><ele>94.4</ele><time>2026-04-23T11:08:48.777Z</time></trkpt><trkpt lat="40.883095" lon="14.2727"><ele>94.80000000000001</ele><time>2026-04-23T11:08:50.776Z</time></trkpt><trkpt lat="40.8830017" lon="14.272615"><ele>95.19999999999999</ele><time>2026-04-23T11:08:52.776Z</time></trkpt><trkpt lat="40.8829083" lon="14.2725317"><ele>95.6</ele><time>2026-04-23T11:08:54.775Z</time></trkpt><trkpt lat="40.8828533" lon="14.27249"><ele>96.0</ele><time>2026-04-23T11:08:55.776Z</time></trkpt><trkpt lat="40.882755" lon="14.272405"><ele>96.0</ele><time>2026-04-23T11:08:57.777Z</time></trkpt><trkpt lat="40.8826633" lon="14.2723117"><ele>96.0</ele><time>2026-04-23T11:08:59.777Z</time></trkpt><trkpt lat="40.8825783" lon="14.2722183"><ele>96.0</ele><time>2026-04-23T11:09:01.775Z</time></trkpt><trkpt lat="40.8825" lon="14.2721"><ele>96.0</ele><time>2026-04-23T11:09:03.775Z</time></trkpt><trkpt lat="40.882425" lon="14.2719917"><ele>95.19999999999999</ele><time>2026-04-23T11:09:05.776Z</time></trkpt><trkpt lat="40.882365" lon="14.271875"><ele>94.39999999999999</ele><time>2026-04-23T11:09:07.777Z</time></trkpt><trkpt lat="40.882325" lon="14.2717433"><ele>93.6</ele><time>2026-04-23T11:09:09.776Z</time></trkpt><trkpt lat="40.882265" lon="14.2716167"><ele>92.8</ele><time>2026-04-23T11:09:11.776Z</time></trkpt><trkpt lat="40.8821683" lon="14.2715433"><ele>92.0</ele><time>2026-04-23T11:09:13.776Z</time></trkpt><trkpt lat="40.882075" lon="14.2715233"><ele>92.0</ele><time>2026-04-23T11:09:15.776Z</time></trkpt><trkpt lat="40.88197" lon="14.27154"><ele>92.0</ele><time>2026-04-23T11:09:17.777Z</time></trkpt><trkpt lat="40.8818633" lon="14.27149"><ele>92.0</ele><time>2026-04-23T11:09:19.776Z</time></trkpt><trkpt lat="40.8818117" lon="14.2714417"><ele>92.0</ele><time>2026-04-23T11:09:20.776Z</time></trkpt><trkpt lat="40.8817117" lon="14.271345"><ele>92.0</ele><time>2026-04-23T11:09:22.776Z</time></trkpt><trkpt lat="40.8816183" lon="14.2712433"><ele>92.14285714285715</ele><time>2026-04-23T11:09:24.775Z</time></trkpt><trkpt lat="40.8815667" lon="14.271195"><ele>92.28571428571428</ele><time>2026-04-23T11:09:25.776Z</time></trkpt><trkpt lat="40.8815017" lon="14.2711533"><ele>92.42857142857143</ele><time>2026-04-23T11:09:26.775Z</time></trkpt><trkpt lat="40.8814367" lon="14.2711167"><ele>92.57142857142858</ele><time>2026-04-23T11:09:27.775Z</time></trkpt><trkpt lat="40.8813583" lon="14.2710933"><ele>92.71428571428572</ele><time>2026-04-23T11:09:28.776Z</time></trkpt><trkpt lat="40.8812767" lon="14.2710733"><ele>92.85714285714286</ele><time>2026-04-23T11:09:29.776Z</time></trkpt><trkpt lat="40.8812" lon="14.271055"><ele>93.0</ele><time>2026-04-23T11:09:30.775Z</time></trkpt><trkpt lat="40.8811233" lon="14.2710367"><ele>93.0</ele><time>2026-04-23T11:09:31.776Z</time></trkpt><trkpt lat="40.8810417" lon="14.2710267"><ele>93.0</ele><time>2026-04-23T11:09:32.776Z</time></trkpt><trkpt lat="40.8809633" lon="14.2710133"><ele>93.0</ele><time>2026-04-23T11:09:33.776Z</time></trkpt><trkpt lat="40.8808883" lon="14.271"><ele>93.0</ele><time>2026-04-23T11:09:34.775Z</time></trkpt><trkpt lat="40.88081" lon="14.2709867"><ele>93.0</ele><time>2026-04-23T11:09:35.777Z</time></trkpt><trkpt lat="40.8807283" lon="14.270975"><ele>93.0</ele><time>2026-04-23T11:09:36.775Z</time></trkpt><trkpt lat="40.880655" lon="14.2709633"><ele>92.83333333333333</ele><time>2026-04-23T11:09:37.777Z</time></trkpt><trkpt lat="40.88059" lon="14.27095"><ele>92.66666666666667</ele><time>2026-04-23T11:09:38.776Z</time></trkpt><trkpt lat="40.8805267" lon="14.2709417"><ele>92.5</ele><time>2026-04-23T11:09:39.775Z</time></trkpt><trkpt lat="40.8804167" lon="14.2709233"><ele>92.33333333333334</ele><time>2026-04-23T11:09:41.776Z</time></trkpt><trkpt lat="40.8803217" lon="14.2709183"><ele>92.16666666666667</ele><time>2026-04-23T11:09:43.776Z</time></trkpt><trkpt lat="40.88023" lon="14.2709"><ele>92.0</ele><time>2026-04-23T11:09:45.775Z</time></trkpt><trkpt lat="40.8801567" lon="14.2708983"><ele>91.33333333333334</ele><time>2026-04-23T11:09:47.776Z</time></trkpt><trkpt lat="40.8800433" lon="14.270885"><ele>90.66666666666667</ele><time>2026-04-23T11:09:56.777Z</time></trkpt><trkpt lat="40.8799783" lon="14.270875"><ele>90.0</ele><time>2026-04-23T11:09:58.776Z</time></trkpt><trkpt lat="40.8799067" lon="14.2708717"><ele>89.33333333333333</ele><time>2026-04-23T11:10:00.776Z</time></trkpt><trkpt lat="40.879825" lon="14.2708883"><ele>88.66666666666666</ele><time>2026-04-23T11:10:02.778Z</time></trkpt><trkpt lat="40.8797467" lon="14.2708833"><ele>88.0</ele><time>2026-04-23T11:10:04.775Z</time></trkpt><trkpt lat="40.8796717" lon="14.270835"><ele>88.0</ele><time>2026-04-23T11:10:07.776Z</time></trkpt><trkpt lat="40.8796083" lon="14.2708"><ele>88.0</ele><time>2026-04-23T11:10:10.776Z</time></trkpt><trkpt lat="40.8795433" lon="14.27079"><ele>88.0</ele><time>2026-04-23T11:10:12.776Z</time></trkpt><trkpt lat="40.879475" lon="14.270775"><ele>88.0</ele><time>2026-04-23T11:10:15.775Z</time></trkpt><trkpt lat="40.8794083" lon="14.2707483"><ele>88.0</ele><time>2026-04-23T11:10:21.777Z</time></trkpt><trkpt lat="40.8793333" lon="14.270745"><ele>88.0</ele><time>2026-04-23T11:10:23.776Z</time></trkpt><trkpt lat="40.8792583" lon="14.27073"><ele>88.0</ele><time>2026-04-23T11:10:25.778Z</time></trkpt><trkpt lat="40.87915" lon="14.2707017"><ele>87.60000000000001</ele><time>2026-04-23T11:10:27.776Z</time></trkpt><trkpt lat="40.879035" lon="14.2706717"><ele>87.2</ele><time>2026-04-23T11:10:29.776Z</time></trkpt><trkpt lat="40.878905" lon="14.2706533"><ele>86.8</ele><time>2026-04-23T11:10:31.776Z</time></trkpt><trkpt lat="40.8788383" lon="14.2706433"><ele>86.4</ele><time>2026-04-23T11:10:32.776Z</time></trkpt><trkpt lat="40.8787717" lon="14.2706267"><ele>86.0</ele><time>2026-04-23T11:10:33.775Z</time></trkpt><trkpt lat="40.8787033" lon="14.2706083"><ele>87.0</ele><time>2026-04-23T11:10:34.775Z</time></trkpt><trkpt lat="40.87863" lon="14.270595"><ele>88.0</ele><time>2026-04-23T11:10:35.776Z</time></trkpt><trkpt lat="40.8785483" lon="14.2705867"><ele>89.0</ele><time>2026-04-23T11:10:36.777Z</time></trkpt><trkpt lat="40.8784683" lon="14.2705667"><ele>90.0</ele><time>2026-04-23T11:10:37.775Z</time></trkpt><trkpt lat="40.878385" lon="14.2705433"><ele>91.0</ele><time>2026-04-23T11:10:38.777Z</time></trkpt><trkpt lat="40.8783" lon="14.270525"><ele>92.0</ele><time>2026-04-23T11:10:39.775Z</time></trkpt><trkpt lat="40.8782133" lon="14.2705133"><ele>92.19999999999999</ele><time>2026-04-23T11:10:40.776Z</time></trkpt><trkpt lat="40.8781233" lon="14.2705017"><ele>92.4</ele><time>2026-04-23T11:10:41.776Z</time></trkpt><trkpt lat="40.8780333" lon="14.270485"><ele>92.6</ele><time>2026-04-23T11:10:42.776Z</time></trkpt><trkpt lat="40.8779383" lon="14.2704683"><ele>92.80000000000001</ele><time>2026-04-23T11:10:43.776Z</time></trkpt><trkpt lat="40.87784" lon="14.2704517"><ele>93.0</ele><time>2026-04-23T11:10:44.777Z</time></trkpt><trkpt lat="40.8777417" lon="14.270435"><ele>93.0</ele><time>2026-04-23T11:10:45.776Z</time></trkpt><trkpt lat="40.87764" lon="14.2704167"><ele>93.0</ele><time>2026-04-23T11:10:46.778Z</time></trkpt><trkpt lat="40.8775417" lon="14.2704017"><ele>93.0</ele><time>2026-04-23T11:10:47.776Z</time></trkpt><trkpt lat="40.87744" lon="14.2703917"><ele>93.0</ele><time>2026-04-23T11:10:48.779Z</time></trkpt><trkpt lat="40.8773367" lon="14.270375"><ele>93.0</ele><time>2026-04-23T11:10:49.776Z</time></trkpt><trkpt lat="40.8772333" lon="14.270365"><ele>91.60000000000001</ele><time>2026-04-23T11:10:50.776Z</time></trkpt><trkpt lat="40.8771283" lon="14.270355"><ele>90.2</ele><time>2026-04-23T11:10:51.776Z</time></trkpt><trkpt lat="40.8770233" lon="14.2703383"><ele>88.8</ele><time>2026-04-23T11:10:52.776Z</time></trkpt><trkpt lat="40.876915" lon="14.27032"><ele>87.4</ele><time>2026-04-23T11:10:53.776Z</time></trkpt><trkpt lat="40.8768" lon="14.2703067"><ele>86.0</ele><time>2026-04-23T11:10:54.776Z</time></trkpt><trkpt lat="40.8766883" lon="14.27029"><ele>84.0</ele><time>2026-04-23T11:10:55.778Z</time></trkpt><trkpt lat="40.8765833" lon="14.2702717"><ele>82.0</ele><time>2026-04-23T11:10:56.775Z</time></trkpt><trkpt lat="40.8764783" lon="14.27026"><ele>80.0</ele><time>2026-04-23T11:10:57.776Z</time></trkpt><trkpt lat="40.87638" lon="14.27024"><ele>78.0</ele><time>2026-04-23T11:10:58.776Z</time></trkpt><trkpt lat="40.87628" lon="14.2702317"><ele>76.0</ele><time>2026-04-23T11:10:59.776Z</time></trkpt><trkpt lat="40.87619" lon="14.2702133"><ele>76.0</ele><time>2026-04-23T11:11:00.776Z</time></trkpt><trkpt lat="40.8761083" lon="14.2702083"><ele>76.0</ele><time>2026-04-23T11:11:01.777Z</time></trkpt><trkpt lat="40.8760367" lon="14.2702017"><ele>76.0</ele><time>2026-04-23T11:11:02.775Z</time></trkpt><trkpt lat="40.8759633" lon="14.27019"><ele>76.0</ele><time>2026-04-23T11:11:03.776Z</time></trkpt><trkpt lat="40.87589" lon="14.27018"><ele>76.0</ele><time>2026-04-23T11:11:04.776Z</time></trkpt><trkpt lat="40.8758133" lon="14.2701767"><ele>76.0</ele><time>2026-04-23T11:11:05.777Z</time></trkpt><trkpt lat="40.8757317" lon="14.2701767"><ele>74.83333333333333</ele><time>2026-04-23T11:11:06.776Z</time></trkpt><trkpt lat="40.8756483" lon="14.2701733"><ele>73.66666666666666</ele><time>2026-04-23T11:11:07.776Z</time></trkpt><trkpt lat="40.875565" lon="14.27017"><ele>72.5</ele><time>2026-04-23T11:11:08.776Z</time></trkpt><trkpt lat="40.8754767" lon="14.27017"><ele>71.33333333333333</ele><time>2026-04-23T11:11:09.775Z</time></trkpt><trkpt lat="40.87539" lon="14.2701733"><ele>70.16666666666667</ele><time>2026-04-23T11:11:10.776Z</time></trkpt><trkpt lat="40.8753" lon="14.2701833"><ele>69.0</ele><time>2026-04-23T11:11:11.777Z</time></trkpt><trkpt lat="40.8752117" lon="14.2701967"><ele>69.0</ele><time>2026-04-23T11:11:12.776Z</time></trkpt><trkpt lat="40.8751233" lon="14.2702133"><ele>69.0</ele><time>2026-04-23T11:11:13.776Z</time></trkpt><trkpt lat="40.8750317" lon="14.2702283"><ele>69.0</ele><time>2026-04-23T11:11:14.776Z</time></trkpt><trkpt lat="40.87494" lon="14.2702533"><ele>69.0</ele><time>2026-04-23T11:11:15.777Z</time></trkpt><trkpt lat="40.8748467" lon="14.2702783"><ele>69.0</ele><time>2026-04-23T11:11:16.776Z</time></trkpt><trkpt lat="40.8747533" lon="14.27031"><ele>68.0</ele><time>2026-04-23T11:11:17.776Z</time></trkpt><trkpt lat="40.8746567" lon="14.2703433"><ele>67.0</ele><time>2026-04-23T11:11:18.777Z</time></trkpt><trkpt lat="40.8745617" lon="14.2703817"><ele>66.0</ele><time>2026-04-23T11:11:19.776Z</time></trkpt><trkpt lat="40.8744667" lon="14.2704067"><ele>65.0</ele><time>2026-04-23T11:11:20.776Z</time></trkpt><trkpt lat="40.8743767" lon="14.27043"><ele>64.0</ele><time>2026-04-23T11:11:21.777Z</time></trkpt><trkpt lat="40.87429" lon="14.27046"><ele>63.33333333333333</ele><time>2026-04-23T11:11:22.776Z</time></trkpt><trkpt lat="40.8742083" lon="14.270495"><ele>62.666666666666664</ele><time>2026-04-23T11:11:23.776Z</time></trkpt><trkpt lat="40.8741283" lon="14.27052"><ele>62.0</ele><time>2026-04-23T11:11:24.777Z</time></trkpt><trkpt lat="40.874045" lon="14.2705433"><ele>61.33333333333333</ele><time>2026-04-23T11:11:25.777Z</time></trkpt><trkpt lat="40.8739617" lon="14.2705717"><ele>60.666666666666664</ele><time>2026-04-23T11:11:26.778Z</time></trkpt><trkpt lat="40.873885" lon="14.2706"><ele>60.0</ele><time>2026-04-23T11:11:27.776Z</time></trkpt><trkpt lat="40.87381" lon="14.2706233"><ele>60.0</ele><time>2026-04-23T11:11:28.776Z</time></trkpt><trkpt lat="40.8737367" lon="14.2706467"><ele>60.0</ele><time>2026-04-23T11:11:29.776Z</time></trkpt><trkpt lat="40.8736617" lon="14.27066"><ele>60.0</ele><time>2026-04-23T11:11:30.777Z</time></trkpt><trkpt lat="40.87358" lon="14.2706583"><ele>60.0</ele><time>2026-04-23T11:11:31.777Z</time></trkpt><trkpt lat="40.873495" lon="14.2706517"><ele>60.0</ele><time>2026-04-23T11:11:32.776Z</time></trkpt><trkpt lat="40.8734067" lon="14.2706233"><ele>60.0</ele><time>2026-04-23T11:11:33.776Z</time></trkpt><trkpt lat="40.87332" lon="14.270585"><ele>59.5</ele><time>2026-04-23T11:11:34.777Z</time></trkpt><trkpt lat="40.8732333" lon="14.2705417"><ele>59.0</ele><time>2026-04-23T11:11:35.776Z</time></trkpt><trkpt lat="40.8731517" lon="14.2704917"><ele>58.5</ele><time>2026-04-23T11:11:36.776Z</time></trkpt><trkpt lat="40.8730767" lon="14.2704433"><ele>58.0</ele><time>2026-04-23T11:11:37.776Z</time></trkpt><trkpt lat="40.87301" lon="14.2703983"><ele>57.5</ele><time>2026-04-23T11:11:38.777Z</time></trkpt><trkpt lat="40.8729533" lon="14.2703517"><ele>57.0</ele><time>2026-04-23T11:11:39.775Z</time></trkpt><trkpt lat="40.87284" lon="14.270275"><ele>57.0</ele><time>2026-04-23T11:11:41.778Z</time></trkpt><trkpt lat="40.8727383" lon="14.270205"><ele>57.0</ele><time>2026-04-23T11:11:43.776Z</time></trkpt><trkpt lat="40.8726617" lon="14.2701433"><ele>57.0</ele><time>2026-04-23T11:11:46.776Z</time></trkpt><trkpt lat="40.87261" lon="14.2700867"><ele>57.0</ele><time>2026-04-23T11:11:48.777Z</time></trkpt><trkpt lat="40.87253" lon="14.2700217"><ele>57.0</ele><time>2026-04-23T11:11:50.776Z</time></trkpt><trkpt lat="40.872425" lon="14.269955"><ele>55.57142857142857</ele><time>2026-04-23T11:11:52.776Z</time></trkpt><trkpt lat="40.87236" lon="14.269925"><ele>54.14285714285714</ele><time>2026-04-23T11:11:53.777Z</time></trkpt><trkpt lat="40.872295" lon="14.2698833"><ele>52.71428571428571</ele><time>2026-04-23T11:11:54.776Z</time></trkpt><trkpt lat="40.87224" lon="14.2698267"><ele>51.285714285714285</ele><time>2026-04-23T11:11:55.776Z</time></trkpt><trkpt lat="40.8721833" lon="14.2697683"><ele>49.857142857142854</ele><time>2026-04-23T11:11:56.776Z</time></trkpt><trkpt lat="40.872125" lon="14.2697017"><ele>48.42857142857143</ele><time>2026-04-23T11:11:57.777Z</time></trkpt><trkpt lat="40.8720667" lon="14.2696333"><ele>47.0</ele><time>2026-04-23T11:11:58.777Z</time></trkpt><trkpt lat="40.8720033" lon="14.2695667"><ele>47.0</ele><time>2026-04-23T11:11:59.776Z</time></trkpt><trkpt lat="40.8719383" lon="14.2695"><ele>47.0</ele><time>2026-04-23T11:12:00.776Z</time></trkpt><trkpt lat="40.871875" lon="14.2694317"><ele>47.0</ele><time>2026-04-23T11:12:01.776Z</time></trkpt><trkpt lat="40.8718067" lon="14.269365"><ele>47.0</ele><time>2026-04-23T11:12:02.776Z</time></trkpt><trkpt lat="40.8717383" lon="14.269295"><ele>47.0</ele><time>2026-04-23T11:12:03.775Z</time></trkpt><trkpt lat="40.8716633" lon="14.2692267"><ele>47.0</ele><time>2026-04-23T11:12:04.776Z</time></trkpt><trkpt lat="40.8715883" lon="14.2691583"><ele>46.0</ele><time>2026-04-23T11:12:05.776Z</time></trkpt><trkpt lat="40.8715067" lon="14.2691"><ele>45.0</ele><time>2026-04-23T11:12:06.776Z</time></trkpt><trkpt lat="40.8714233" lon="14.2690467"><ele>44.0</ele><time>2026-04-23T11:12:07.777Z</time></trkpt><trkpt lat="40.8713433" lon="14.2689933"><ele>43.0</ele><time>2026-04-23T11:12:08.776Z</time></trkpt><trkpt lat="40.871265" lon="14.2689383"><ele>42.0</ele><time>2026-04-23T11:12:09.776Z</time></trkpt><trkpt lat="40.871185" lon="14.2688883"><ele>42.0</ele><time>2026-04-23T11:12:10.776Z</time></trkpt><trkpt lat="40.871105" lon="14.2688367"><ele>42.0</ele><time>2026-04-23T11:12:11.776Z</time></trkpt><trkpt lat="40.8710267" lon="14.2687817"><ele>42.0</ele><time>2026-04-23T11:12:12.778Z</time></trkpt><trkpt lat="40.8709467" lon="14.2687333"><ele>42.0</ele><time>2026-04-23T11:12:13.776Z</time></trkpt><trkpt lat="40.870865" lon="14.268685"><ele>42.0</ele><time>2026-04-23T11:12:14.777Z</time></trkpt><trkpt lat="40.8707833" lon="14.2686383"><ele>42.0</ele><time>2026-04-23T11:12:15.776Z</time></trkpt><trkpt lat="40.8707" lon="14.2685983"><ele>41.4</ele><time>2026-04-23T11:12:16.776Z</time></trkpt><trkpt lat="40.8706167" lon="14.2685517"><ele>40.800000000000004</ele><time>2026-04-23T11:12:17.777Z</time></trkpt><trkpt lat="40.8705317" lon="14.2685133"><ele>40.2</ele><time>2026-04-23T11:12:18.778Z</time></trkpt><trkpt lat="40.8704433" lon="14.2684767"><ele>39.6</ele><time>2026-04-23T11:12:19.776Z</time></trkpt><trkpt lat="40.8703567" lon="14.26844"><ele>39.0</ele><time>2026-04-23T11:12:20.776Z</time></trkpt><trkpt lat="40.8702717" lon="14.2684033"><ele>39.0</ele><time>2026-04-23T11:12:21.776Z</time></trkpt><trkpt lat="40.8701883" lon="14.2683667"><ele>39.0</ele><time>2026-04-23T11:12:22.778Z</time></trkpt><trkpt lat="40.870105" lon="14.268335"><ele>39.0</ele><time>2026-04-23T11:12:23.777Z</time></trkpt><trkpt lat="40.87002" lon="14.2683133"><ele>39.0</ele><time>2026-04-23T11:12:24.776Z</time></trkpt><trkpt lat="40.869935" lon="14.268285"><ele>39.0</ele><time>2026-04-23T11:12:25.776Z</time></trkpt><trkpt lat="40.8698517" lon="14.2682533"><ele>39.0</ele><time>2026-04-23T11:12:26.776Z</time></trkpt><trkpt lat="40.8697717" lon="14.268225"><ele>38.833333333333336</ele><time>2026-04-23T11:12:27.776Z</time></trkpt><trkpt lat="40.8696983" lon="14.268195"><ele>38.666666666666664</ele><time>2026-04-23T11:12:28.777Z</time></trkpt><trkpt lat="40.8696133" lon="14.2681633"><ele>38.5</ele><time>2026-04-23T11:12:29.776Z</time></trkpt><trkpt lat="40.869535" lon="14.26812"><ele>38.33333333333333</ele><time>2026-04-23T11:12:30.776Z</time></trkpt><trkpt lat="40.8694533" lon="14.268085"><ele>38.166666666666664</ele><time>2026-04-23T11:12:31.776Z</time></trkpt><trkpt lat="40.8693667" lon="14.2680617"><ele>38.0</ele><time>2026-04-23T11:12:32.776Z</time></trkpt><trkpt lat="40.8692883" lon="14.2680417"><ele>38.166666666666664</ele><time>2026-04-23T11:12:33.783Z</time></trkpt><trkpt lat="40.8692117" lon="14.2680283"><ele>38.33333333333333</ele><time>2026-04-23T11:12:34.776Z</time></trkpt><trkpt lat="40.869135" lon="14.2680233"><ele>38.5</ele><time>2026-04-23T11:12:35.776Z</time></trkpt><trkpt lat="40.869065" lon="14.2680183"><ele>38.666666666666664</ele><time>2026-04-23T11:12:36.777Z</time></trkpt><trkpt lat="40.8689983" lon="14.2680133"><ele>38.833333333333336</ele><time>2026-04-23T11:12:37.777Z</time></trkpt><trkpt lat="40.8688733" lon="14.2680183"><ele>39.0</ele><time>2026-04-23T11:12:39.777Z</time></trkpt><trkpt lat="40.86875" lon="14.2680067"><ele>39.0</ele><time>2026-04-23T11:12:41.776Z</time></trkpt><trkpt lat="40.868685" lon="14.26801"><ele>39.0</ele><time>2026-04-23T11:12:42.776Z</time></trkpt><trkpt lat="40.8685633" lon="14.2680367"><ele>39.0</ele><time>2026-04-23T11:12:44.776Z</time></trkpt><trkpt lat="40.8684483" lon="14.268055"><ele>39.0</ele><time>2026-04-23T11:12:46.776Z</time></trkpt><trkpt lat="40.86833" lon="14.2680967"><ele>39.0</ele><time>2026-04-23T11:12:48.776Z</time></trkpt><trkpt lat="40.86822" lon="14.2681483"><ele>38.0</ele><time>2026-04-23T11:12:50.776Z</time></trkpt><trkpt lat="40.8681133" lon="14.2681967"><ele>37.0</ele><time>2026-04-23T11:12:52.776Z</time></trkpt><trkpt lat="40.8680117" lon="14.268245"><ele>36.0</ele><time>2026-04-23T11:12:54.779Z</time></trkpt><trkpt lat="40.8679017" lon="14.2682983"><ele>35.0</ele><time>2026-04-23T11:12:56.776Z</time></trkpt><trkpt lat="40.8677817" lon="14.268335"><ele>35.0</ele><time>2026-04-23T11:12:58.775Z</time></trkpt><trkpt lat="40.8676683" lon="14.2683783"><ele>35.0</ele><time>2026-04-23T11:13:00.775Z</time></trkpt><trkpt lat="40.8675483" lon="14.2684133"><ele>35.0</ele><time>2026-04-23T11:13:02.775Z</time></trkpt><trkpt lat="40.867425" lon="14.2684583"><ele>35.0</ele><time>2026-04-23T11:13:04.775Z</time></trkpt><trkpt lat="40.86736" lon="14.2684817"><ele>35.0</ele><time>2026-04-23T11:13:05.775Z</time></trkpt><trkpt lat="40.8672933" lon="14.268505"><ele>35.166666666666664</ele><time>2026-04-23T11:13:06.775Z</time></trkpt><trkpt lat="40.8672233" lon="14.2685317"><ele>35.33333333333333</ele><time>2026-04-23T11:13:07.775Z</time></trkpt><trkpt lat="40.8671517" lon="14.2685667"><ele>35.5</ele><time>2026-04-23T11:13:08.775Z</time></trkpt><trkpt lat="40.8670767" lon="14.268615"><ele>35.666666666666664</ele><time>2026-04-23T11:13:09.775Z</time></trkpt><trkpt lat="40.8670067" lon="14.2686433"><ele>35.833333333333336</ele><time>2026-04-23T11:13:10.776Z</time></trkpt><trkpt lat="40.8669383" lon="14.2686733"><ele>36.0</ele><time>2026-04-23T11:13:11.775Z</time></trkpt><trkpt lat="40.866865" lon="14.2687017"><ele>36.00000000000001</ele><time>2026-04-23T11:13:12.775Z</time></trkpt><trkpt lat="40.8667933" lon="14.2687317"><ele>36.0</ele><time>2026-04-23T11:13:13.775Z</time></trkpt><trkpt lat="40.8667267" lon="14.26876"><ele>36.0</ele><time>2026-04-23T11:13:14.775Z</time></trkpt><trkpt lat="40.8666633" lon="14.2687833"><ele>36.0</ele><time>2026-04-23T11:13:15.775Z</time></trkpt><trkpt lat="40.8665983" lon="14.2688083"><ele>36.0</ele><time>2026-04-23T11:13:16.777Z</time></trkpt><trkpt lat="40.8665333" lon="14.26883"><ele>36.00000000000001</ele><time>2026-04-23T11:13:17.779Z</time></trkpt><trkpt lat="40.8664683" lon="14.26885"><ele>36.0</ele><time>2026-04-23T11:13:18.775Z</time></trkpt><trkpt lat="40.86635" lon="14.26888"><ele>35.8</ele><time>2026-04-23T11:13:20.775Z</time></trkpt><trkpt lat="40.8662317" lon="14.2689067"><ele>35.6</ele><time>2026-04-23T11:13:22.775Z</time></trkpt><trkpt lat="40.8661683" lon="14.268925"><ele>35.4</ele><time>2026-04-23T11:13:23.776Z</time></trkpt><trkpt lat="40.86605" lon="14.2689683"><ele>35.2</ele><time>2026-04-23T11:13:25.775Z</time></trkpt><trkpt lat="40.8659367" lon="14.269015"><ele>35.0</ele><time>2026-04-23T11:13:27.775Z</time></trkpt><trkpt lat="40.8658233" lon="14.2690533"><ele>33.6</ele><time>2026-04-23T11:13:29.775Z</time></trkpt><trkpt lat="40.8657133" lon="14.2690667"><ele>32.2</ele><time>2026-04-23T11:13:31.775Z</time></trkpt><trkpt lat="40.8655983" lon="14.2690583"><ele>30.799999999999997</ele><time>2026-04-23T11:13:33.775Z</time></trkpt><trkpt lat="40.8654933" lon="14.2690233"><ele>29.4</ele><time>2026-04-23T11:13:35.776Z</time></trkpt><trkpt lat="40.865405" lon="14.2689733"><ele>28.0</ele><time>2026-04-23T11:13:37.775Z</time></trkpt><trkpt lat="40.8653267" lon="14.2689133"><ele>28.0</ele><time>2026-04-23T11:13:39.775Z</time></trkpt><trkpt lat="40.8652483" lon="14.2688283"><ele>27.999999999999996</ele><time>2026-04-23T11:13:41.775Z</time></trkpt><trkpt lat="40.8651683" lon="14.268725"><ele>27.999999999999996</ele><time>2026-04-23T11:13:43.776Z</time></trkpt><trkpt lat="40.8650817" lon="14.2686017"><ele>28.0</ele><time>2026-04-23T11:13:45.775Z</time></trkpt><trkpt lat="40.865035" lon="14.2685433"><ele>28.0</ele><time>2026-04-23T11:13:46.775Z</time></trkpt><trkpt lat="40.8649833" lon="14.2684867"><ele>28.142857142857142</ele><time>2026-04-23T11:13:47.775Z</time></trkpt><trkpt lat="40.8649333" lon="14.2684283"><ele>28.285714285714285</ele><time>2026-04-23T11:13:48.777Z</time></trkpt><trkpt lat="40.86488" lon="14.2683733"><ele>28.42857142857143</ele><time>2026-04-23T11:13:49.775Z</time></trkpt><trkpt lat="40.8648317" lon="14.2683133"><ele>28.571428571428573</ele><time>2026-04-23T11:13:50.775Z</time></trkpt><trkpt lat="40.864785" lon="14.268255"><ele>28.714285714285715</ele><time>2026-04-23T11:13:51.78Z</time></trkpt><trkpt lat="40.8647383" lon="14.2681933"><ele>28.85714285714286</ele><time>2026-04-23T11:13:52.776Z</time></trkpt><trkpt lat="40.864695" lon="14.2681317"><ele>29.000000000000004</ele><time>2026-04-23T11:13:53.775Z</time></trkpt><trkpt lat="40.8646483" lon="14.268075"><ele>28.6</ele><time>2026-04-23T11:13:54.777Z</time></trkpt><trkpt lat="40.864555" lon="14.2679683"><ele>28.2</ele><time>2026-04-23T11:13:56.775Z</time></trkpt><trkpt lat="40.864475" lon="14.2678783"><ele>27.800000000000004</ele><time>2026-04-23T11:13:58.775Z</time></trkpt><trkpt lat="40.864415" lon="14.26779"><ele>27.400000000000002</ele><time>2026-04-23T11:14:00.777Z</time></trkpt><trkpt lat="40.8643433" lon="14.26771"><ele>27.0</ele><time>2026-04-23T11:14:02.777Z</time></trkpt><trkpt lat="40.86426" lon="14.2676233"><ele>27.0</ele><time>2026-04-23T11:14:04.775Z</time></trkpt><trkpt lat="40.8641717" lon="14.2675217"><ele>27.000000000000004</ele><time>2026-04-23T11:14:06.775Z</time></trkpt><trkpt lat="40.8641217" lon="14.2674683"><ele>27.000000000000004</ele><time>2026-04-23T11:14:07.776Z</time></trkpt><trkpt lat="40.8640283" lon="14.2673533"><ele>27.0</ele><time>2026-04-23T11:14:09.775Z</time></trkpt><trkpt lat="40.8639467" lon="14.2672467"><ele>27.0</ele><time>2026-04-23T11:14:11.776Z</time></trkpt><trkpt lat="40.8638633" lon="14.2671417"><ele>27.5</ele><time>2026-04-23T11:14:13.778Z</time></trkpt><trkpt lat="40.863775" lon="14.2670417"><ele>28.0</ele><time>2026-04-23T11:14:15.776Z</time></trkpt><trkpt lat="40.8636883" lon="14.26694"><ele>28.5</ele><time>2026-04-23T11:14:17.775Z</time></trkpt><trkpt lat="40.863595" lon="14.26684"><ele>29.0</ele><time>2026-04-23T11:14:19.775Z</time></trkpt><trkpt lat="40.8635" lon="14.266725"><ele>29.000000000000004</ele><time>2026-04-23T11:14:21.776Z</time></trkpt><trkpt lat="40.8634467" lon="14.26667"><ele>29.0</ele><time>2026-04-23T11:14:22.775Z</time></trkpt><trkpt lat="40.8633967" lon="14.2666117"><ele>29.000000000000004</ele><time>2026-04-23T11:14:23.775Z</time></trkpt><trkpt lat="40.86335" lon="14.2665533"><ele>29.000000000000004</ele><time>2026-04-23T11:14:24.775Z</time></trkpt><trkpt lat="40.8633" lon="14.2664867"><ele>29.0</ele><time>2026-04-23T11:14:25.775Z</time></trkpt><trkpt lat="40.8632533" lon="14.2664217"><ele>29.000000000000004</ele><time>2026-04-23T11:14:26.776Z</time></trkpt><trkpt lat="40.8632117" lon="14.2663583"><ele>29.000000000000004</ele><time>2026-04-23T11:14:27.775Z</time></trkpt><trkpt lat="40.8631633" lon="14.2663017"><ele>29.0</ele><time>2026-04-23T11:14:28.776Z</time></trkpt><trkpt lat="40.8631167" lon="14.26624"><ele>29.0</ele><time>2026-04-23T11:14:29.775Z</time></trkpt><trkpt lat="40.8630717" lon="14.26618"><ele>29.0</ele><time>2026-04-23T11:14:30.776Z</time></trkpt><trkpt lat="40.8629733" lon="14.2660833"><ele>29.0</ele><time>2026-04-23T11:14:32.777Z</time></trkpt><trkpt lat="40.862875" lon="14.26599"><ele>29.0</ele><time>2026-04-23T11:14:34.777Z</time></trkpt><trkpt lat="40.8627767" lon="14.2658967"><ele>28.999999999999996</ele><time>2026-04-23T11:14:36.777Z</time></trkpt><trkpt lat="40.8626883" lon="14.26578"><ele>29.0</ele><time>2026-04-23T11:14:38.777Z</time></trkpt><trkpt lat="40.862645" lon="14.2657133"><ele>29.0</ele><time>2026-04-23T11:14:39.775Z</time></trkpt><trkpt lat="40.8625967" lon="14.2656483"><ele>29.0</ele><time>2026-04-23T11:14:40.776Z</time></trkpt><trkpt lat="40.8625483" lon="14.265585"><ele>28.999999999999996</ele><time>2026-04-23T11:14:41.777Z</time></trkpt><trkpt lat="40.8624967" lon="14.2655267"><ele>29.0</ele><time>2026-04-23T11:14:42.776Z</time></trkpt><trkpt lat="40.8624483" lon="14.2654667"><ele>29.142857142857146</ele><time>2026-04-23T11:14:43.776Z</time></trkpt><trkpt lat="40.8624" lon="14.2654083"><ele>29.285714285714285</ele><time>2026-04-23T11:14:44.776Z</time></trkpt><trkpt lat="40.8623533" lon="14.2653517"><ele>29.42857142857143</ele><time>2026-04-23T11:14:45.775Z</time></trkpt><trkpt lat="40.8623033" lon="14.265295"><ele>29.571428571428573</ele><time>2026-04-23T11:14:46.775Z</time></trkpt><trkpt lat="40.8622517" lon="14.2652367"><ele>29.714285714285715</ele><time>2026-04-23T11:14:47.776Z</time></trkpt><trkpt lat="40.8622" lon="14.2651783"><ele>29.857142857142858</ele><time>2026-04-23T11:14:48.775Z</time></trkpt><trkpt lat="40.86215" lon="14.2651167"><ele>30.0</ele><time>2026-04-23T11:14:49.775Z</time></trkpt><trkpt lat="40.8621017" lon="14.2650567"><ele>30.0</ele><time>2026-04-23T11:14:50.775Z</time></trkpt><trkpt lat="40.8620517" lon="14.2650033"><ele>30.0</ele><time>2026-04-23T11:14:51.775Z</time></trkpt><trkpt lat="40.862" lon="14.2649483"><ele>30.0</ele><time>2026-04-23T11:14:52.776Z</time></trkpt><trkpt lat="40.8619517" lon="14.2648933"><ele>30.0</ele><time>2026-04-23T11:14:53.777Z</time></trkpt><trkpt lat="40.8618533" lon="14.264795"><ele>30.0</ele><time>2026-04-23T11:14:55.776Z</time></trkpt><trkpt lat="40.86176" lon="14.2647033"><ele>30.0</ele><time>2026-04-23T11:14:57.776Z</time></trkpt><trkpt lat="40.8616717" lon="14.2646083"><ele>30.4</ele><time>2026-04-23T11:14:59.776Z</time></trkpt><trkpt lat="40.861585" lon="14.2645133"><ele>30.8</ele><time>2026-04-23T11:15:01.777Z</time></trkpt><trkpt lat="40.8615" lon="14.2644183"><ele>31.200000000000003</ele><time>2026-04-23T11:15:03.776Z</time></trkpt><trkpt lat="40.8614233" lon="14.2643083"><ele>31.6</ele><time>2026-04-23T11:15:05.776Z</time></trkpt><trkpt lat="40.86135" lon="14.2642"><ele>32.0</ele><time>2026-04-23T11:15:07.777Z</time></trkpt><trkpt lat="40.8612617" lon="14.2640933"><ele>32.0</ele><time>2026-04-23T11:15:09.776Z</time></trkpt><trkpt lat="40.8611817" lon="14.26399"><ele>32.0</ele><time>2026-04-23T11:15:11.775Z</time></trkpt><trkpt lat="40.861105" lon="14.2638983"><ele>32.0</ele><time>2026-04-23T11:15:13.776Z</time></trkpt><trkpt lat="40.861025" lon="14.2638133"><ele>32.0</ele><time>2026-04-23T11:15:15.775Z</time></trkpt><trkpt lat="40.8609467" lon="14.2637367"><ele>32.0</ele><time>2026-04-23T11:15:17.775Z</time></trkpt><trkpt lat="40.8608817" lon="14.2636633"><ele>32.4</ele><time>2026-04-23T11:15:19.775Z</time></trkpt><trkpt lat="40.8608117" lon="14.2635967"><ele>32.800000000000004</ele><time>2026-04-23T11:15:21.776Z</time></trkpt><trkpt lat="40.860725" lon="14.263535"><ele>33.2</ele><time>2026-04-23T11:15:23.778Z</time></trkpt><trkpt lat="40.860655" lon="14.2634617"><ele>33.6</ele><time>2026-04-23T11:15:25.775Z</time></trkpt><trkpt lat="40.8605767" lon="14.2633833"><ele>34.0</ele><time>2026-04-23T11:15:27.775Z</time></trkpt><trkpt lat="40.860495" lon="14.2633017"><ele>34.0</ele><time>2026-04-23T11:15:29.776Z</time></trkpt><trkpt lat="40.8604133" lon="14.2632183"><ele>34.0</ele><time>2026-04-23T11:15:31.777Z</time></trkpt><trkpt lat="40.8603233" lon="14.26313"><ele>34.0</ele><time>2026-04-23T11:15:33.775Z</time></trkpt><trkpt lat="40.8602383" lon="14.2630283"><ele>34.0</ele><time>2026-04-23T11:15:35.776Z</time></trkpt><trkpt lat="40.860145" lon="14.2629467"><ele>34.0</ele><time>2026-04-23T11:15:37.777Z</time></trkpt><trkpt lat="40.8600533" lon="14.2628633"><ele>33.8</ele><time>2026-04-23T11:15:39.777Z</time></trkpt><trkpt lat="40.8599733" lon="14.262775"><ele>33.599999999999994</ele><time>2026-04-23T11:15:41.776Z</time></trkpt><trkpt lat="40.85989" lon="14.2626867"><ele>33.4</ele><time>2026-04-23T11:15:43.777Z</time></trkpt><trkpt lat="40.8598067" lon="14.2625917"><ele>33.199999999999996</ele><time>2026-04-23T11:15:45.775Z</time></trkpt><trkpt lat="40.8597283" lon="14.2624833"><ele>33.0</ele><time>2026-04-23T11:15:47.775Z</time></trkpt><trkpt lat="40.8596583" lon="14.2623683"><ele>34.0</ele><time>2026-04-23T11:15:49.776Z</time></trkpt><trkpt lat="40.859585" lon="14.2622617"><ele>35.0</ele><time>2026-04-23T11:15:51.776Z</time></trkpt><trkpt lat="40.8595183" lon="14.2621617"><ele>36.0</ele><time>2026-04-23T11:15:53.775Z</time></trkpt><trkpt lat="40.8594417" lon="14.2620617"><ele>37.0</ele><time>2026-04-23T11:15:55.776Z</time></trkpt><trkpt lat="40.8593617" lon="14.26197"><ele>38.0</ele><time>2026-04-23T11:15:57.775Z</time></trkpt><trkpt lat="40.8593" lon="14.2618717"><ele>37.6</ele><time>2026-04-23T11:15:59.776Z</time></trkpt><trkpt lat="40.8592317" lon="14.2617817"><ele>37.199999999999996</ele><time>2026-04-23T11:16:01.776Z</time></trkpt><trkpt lat="40.85915" lon="14.2616933"><ele>36.8</ele><time>2026-04-23T11:16:03.775Z</time></trkpt><trkpt lat="40.8590767" lon="14.2615983"><ele>36.4</ele><time>2026-04-23T11:16:05.776Z</time></trkpt><trkpt lat="40.8590117" lon="14.2614933"><ele>36.0</ele><time>2026-04-23T11:16:07.777Z</time></trkpt><trkpt lat="40.8589583" lon="14.261385"><ele>37.2</ele><time>2026-04-23T11:16:09.776Z</time></trkpt><trkpt lat="40.8589033" lon="14.2612783"><ele>38.400000000000006</ele><time>2026-04-23T11:16:11.776Z</time></trkpt><trkpt lat="40.8588367" lon="14.2611833"><ele>39.6</ele><time>2026-04-23T11:16:13.776Z</time></trkpt><trkpt lat="40.8587567" lon="14.2611083"><ele>40.800000000000004</ele><time>2026-04-23T11:16:15.775Z</time></trkpt><trkpt lat="40.8586783" lon="14.2610083"><ele>42.0</ele><time>2026-04-23T11:16:17.775Z</time></trkpt><trkpt lat="40.858605" lon="14.2608967"><ele>42.0</ele><time>2026-04-23T11:16:19.778Z</time></trkpt><trkpt lat="40.8585333" lon="14.2607917"><ele>42.0</ele><time>2026-04-23T11:16:21.776Z</time></trkpt><trkpt lat="40.858465" lon="14.260685"><ele>42.0</ele><time>2026-04-23T11:16:23.775Z</time></trkpt><trkpt lat="40.8583917" lon="14.2605633"><ele>42.0</ele><time>2026-04-23T11:16:25.776Z</time></trkpt><trkpt lat="40.8583133" lon="14.26044"><ele>40.75</ele><time>2026-04-23T11:16:27.776Z</time></trkpt><trkpt lat="40.8582233" lon="14.260335"><ele>39.5</ele><time>2026-04-23T11:16:29.776Z</time></trkpt><trkpt lat="40.8581367" lon="14.260235"><ele>38.25</ele><time>2026-04-23T11:16:31.778Z</time></trkpt><trkpt lat="40.85805" lon="14.2601383"><ele>37.0</ele><time>2026-04-23T11:16:33.775Z</time></trkpt><trkpt lat="40.8579833" lon="14.260035"><ele>37.0</ele><time>2026-04-23T11:16:35.777Z</time></trkpt><trkpt lat="40.857915" lon="14.2599433"><ele>37.0</ele><time>2026-04-23T11:16:37.776Z</time></trkpt><trkpt lat="40.8578617" lon="14.2598667"><ele>37.0</ele><time>2026-04-23T11:16:39.775Z</time></trkpt><trkpt lat="40.85781" lon="14.2597983"><ele>37.0</ele><time>2026-04-23T11:16:41.775Z</time></trkpt><trkpt lat="40.85776" lon="14.2597217"><ele>37.0</ele><time>2026-04-23T11:16:43.776Z</time></trkpt><trkpt lat="40.85771" lon="14.2596467"><ele>37.0</ele><time>2026-04-23T11:16:45.775Z</time></trkpt><trkpt lat="40.8576667" lon="14.25957"><ele>37.333333333333336</ele><time>2026-04-23T11:16:47.775Z</time></trkpt><trkpt lat="40.857615" lon="14.25949"><ele>37.66666666666667</ele><time>2026-04-23T11:16:49.776Z</time></trkpt><trkpt lat="40.8575767" lon="14.2593983"><ele>38.0</ele><time>2026-04-23T11:16:51.776Z</time></trkpt><trkpt lat="40.8575117" lon="14.2593217"><ele>38.333333333333336</ele><time>2026-04-23T11:16:53.776Z</time></trkpt><trkpt lat="40.8574617" lon="14.2592317"><ele>38.666666666666664</ele><time>2026-04-23T11:16:56.775Z</time></trkpt><trkpt lat="40.8574133" lon="14.2591533"><ele>39.0</ele><time>2026-04-23T11:16:59.778Z</time></trkpt><trkpt lat="40.8573583" lon="14.2590633"><ele>39.0</ele><time>2026-04-23T11:17:02.775Z</time></trkpt><trkpt lat="40.8573067" lon="14.25899"><ele>39.0</ele><time>2026-04-23T11:17:05.775Z</time></trkpt><trkpt lat="40.8572567" lon="14.2589133"><ele>39.0</ele><time>2026-04-23T11:17:08.775Z</time></trkpt><trkpt lat="40.8571983" lon="14.25881"><ele>39.0</ele><time>2026-04-23T11:17:11.776Z</time></trkpt><trkpt lat="40.857145" lon="14.2587383"><ele>39.0</ele><time>2026-04-23T11:17:13.776Z</time></trkpt><trkpt lat="40.85709" lon="14.2586733"><ele>39.0</ele><time>2026-04-23T11:17:15.776Z</time></trkpt><trkpt lat="40.8570267" lon="14.258605"><ele>39.5</ele><time>2026-04-23T11:17:17.775Z</time></trkpt><trkpt lat="40.8569733" lon="14.2585333"><ele>40.0</ele><time>2026-04-23T11:17:19.775Z</time></trkpt><trkpt lat="40.8569233" lon="14.2584617"><ele>40.5</ele><time>2026-04-23T11:17:21.775Z</time></trkpt><trkpt lat="40.8568733" lon="14.25839"><ele>41.0</ele><time>2026-04-23T11:17:23.776Z</time></trkpt><trkpt lat="40.8568367" lon="14.2583083"><ele>41.5</ele><time>2026-04-23T11:17:25.775Z</time></trkpt><trkpt lat="40.8567883" lon="14.2582033"><ele>42.0</ele><time>2026-04-23T11:17:32.776Z</time></trkpt><trkpt lat="40.8567433" lon="14.2581433"><ele>42.166666666666664</ele><time>2026-04-23T11:17:37.776Z</time></trkpt><trkpt lat="40.8566433" lon="14.2580583"><ele>42.333333333333336</ele><time>2026-04-23T11:17:48.775Z</time></trkpt><trkpt lat="40.856575" lon="14.258005"><ele>42.5</ele><time>2026-04-23T11:17:51.777Z</time></trkpt><trkpt lat="40.8565383" lon="14.2579317"><ele>42.66666666666667</ele><time>2026-04-23T11:17:53.775Z</time></trkpt><trkpt lat="40.8564817" lon="14.2578683"><ele>42.833333333333336</ele><time>2026-04-23T11:17:55.777Z</time></trkpt><trkpt lat="40.856435" lon="14.257795"><ele>43.0</ele><time>2026-04-23T11:17:57.778Z</time></trkpt><trkpt lat="40.8563867" lon="14.2577217"><ele>43.00000000000001</ele><time>2026-04-23T11:17:59.776Z</time></trkpt><trkpt lat="40.8563333" lon="14.2576517"><ele>43.0</ele><time>2026-04-23T11:18:01.777Z</time></trkpt><trkpt lat="40.8562833" lon="14.2575867"><ele>43.0</ele><time>2026-04-23T11:18:03.779Z</time></trkpt><trkpt lat="40.85624" lon="14.257525"><ele>43.0</ele><time>2026-04-23T11:18:05.776Z</time></trkpt><trkpt lat="40.8561967" lon="14.2574617"><ele>43.0</ele><time>2026-04-23T11:18:07.776Z</time></trkpt><trkpt lat="40.8561367" lon="14.2573917"><ele>43.00000000000001</ele><time>2026-04-23T11:18:09.775Z</time></trkpt><trkpt lat="40.8560833" lon="14.2573083"><ele>43.0</ele><time>2026-04-23T11:18:11.776Z</time></trkpt><trkpt lat="40.8560433" lon="14.2572383"><ele>43.333333333333336</ele><time>2026-04-23T11:18:13.776Z</time></trkpt><trkpt lat="40.8559917" lon="14.2571533"><ele>43.66666666666667</ele><time>2026-04-23T11:18:16.776Z</time></trkpt><trkpt lat="40.8559433" lon="14.2570517"><ele>44.0</ele><time>2026-04-23T11:18:19.776Z</time></trkpt><trkpt lat="40.8559167" lon="14.25696"><ele>44.333333333333336</ele><time>2026-04-23T11:18:21.777Z</time></trkpt><trkpt lat="40.8558883" lon="14.256865"><ele>44.666666666666664</ele><time>2026-04-23T11:18:23.776Z</time></trkpt><trkpt lat="40.855855" lon="14.2567833"><ele>45.0</ele><time>2026-04-23T11:18:25.776Z</time></trkpt><trkpt lat="40.85582" lon="14.2566883"><ele>45.0</ele><time>2026-04-23T11:18:27.775Z</time></trkpt><trkpt lat="40.8557717" lon="14.2565983"><ele>45.0</ele><time>2026-04-23T11:18:29.776Z</time></trkpt><trkpt lat="40.8557283" lon="14.256525"><ele>45.0</ele><time>2026-04-23T11:18:31.776Z</time></trkpt><trkpt lat="40.855695" lon="14.2564417"><ele>45.0</ele><time>2026-04-23T11:18:34.776Z</time></trkpt><trkpt lat="40.8556533" lon="14.2563783"><ele>45.0</ele><time>2026-04-23T11:18:38.775Z</time></trkpt><trkpt lat="40.85561" lon="14.2562817"><ele>45.0</ele><time>2026-04-23T11:18:41.776Z</time></trkpt><trkpt lat="40.8555733" lon="14.2562117"><ele>45.0</ele><time>2026-04-23T11:18:43.776Z</time></trkpt><trkpt lat="40.8555433" lon="14.2561333"><ele>45.0</ele><time>2026-04-23T11:18:45.779Z</time></trkpt><trkpt lat="40.855505" lon="14.25605"><ele>45.0</ele><time>2026-04-23T11:18:47.777Z</time></trkpt><trkpt lat="40.8554667" lon="14.2559317"><ele>45.0</ele><time>2026-04-23T11:18:50.775Z</time></trkpt><trkpt lat="40.85543" lon="14.2558467"><ele>45.0</ele><time>2026-04-23T11:18:52.777Z</time></trkpt><trkpt lat="40.85539" lon="14.2557567"><ele>45.0</ele><time>2026-04-23T11:18:54.777Z</time></trkpt><trkpt lat="40.8553467" lon="14.2556567"><ele>45.0</ele><time>2026-04-23T11:18:56.776Z</time></trkpt><trkpt lat="40.8552983" lon="14.2555617"><ele>45.4</ele><time>2026-04-23T11:18:58.776Z</time></trkpt><trkpt lat="40.855255" lon="14.2554633"><ele>45.8</ele><time>2026-04-23T11:19:00.776Z</time></trkpt><trkpt lat="40.8552083" lon="14.2553583"><ele>46.2</ele><time>2026-04-23T11:19:02.776Z</time></trkpt><trkpt lat="40.8551633" lon="14.255245"><ele>46.6</ele><time>2026-04-23T11:19:04.775Z</time></trkpt><trkpt lat="40.855105" lon="14.2551333"><ele>47.0</ele><time>2026-04-23T11:19:06.776Z</time></trkpt><trkpt lat="40.8550567" lon="14.2550117"><ele>47.25</ele><time>2026-04-23T11:19:08.776Z</time></trkpt><trkpt lat="40.8550167" lon="14.2548783"><ele>47.5</ele><time>2026-04-23T11:19:10.776Z</time></trkpt><trkpt lat="40.8549667" lon="14.254745"><ele>47.75</ele><time>2026-04-23T11:19:12.776Z</time></trkpt><trkpt lat="40.8549217" lon="14.254605"><ele>48.0</ele><time>2026-04-23T11:19:14.777Z</time></trkpt><trkpt lat="40.854875" lon="14.2544633"><ele>48.0</ele><time>2026-04-23T11:19:16.776Z</time></trkpt><trkpt lat="40.8548233" lon="14.25433"><ele>48.0</ele><time>2026-04-23T11:19:18.776Z</time></trkpt><trkpt lat="40.8547717" lon="14.2541917"><ele>48.0</ele><time>2026-04-23T11:19:20.776Z</time></trkpt><trkpt lat="40.854715" lon="14.25406"><ele>48.0</ele><time>2026-04-23T11:19:22.776Z</time></trkpt><trkpt lat="40.8546633" lon="14.2539283"><ele>48.599999999999994</ele><time>2026-04-23T11:19:24.776Z</time></trkpt><trkpt lat="40.8546067" lon="14.253795"><ele>49.199999999999996</ele><time>2026-04-23T11:19:26.775Z</time></trkpt><trkpt lat="40.8545517" lon="14.253665"><ele>49.8</ele><time>2026-04-23T11:19:28.776Z</time></trkpt><trkpt lat="40.8544967" lon="14.2535383"><ele>50.4</ele><time>2026-04-23T11:19:30.776Z</time></trkpt><trkpt lat="40.8544333" lon="14.2534217"><ele>51.0</ele><time>2026-04-23T11:19:32.778Z</time></trkpt><trkpt lat="40.8543833" lon="14.253305"><ele>51.0</ele><time>2026-04-23T11:19:34.777Z</time></trkpt><trkpt lat="40.85433" lon="14.2531917"><ele>51.0</ele><time>2026-04-23T11:19:36.775Z</time></trkpt><trkpt lat="40.85427" lon="14.2530883"><ele>51.0</ele><time>2026-04-23T11:19:38.777Z</time></trkpt><trkpt lat="40.8542083" lon="14.252995"><ele>51.0</ele><time>2026-04-23T11:19:40.776Z</time></trkpt><trkpt lat="40.854145" lon="14.2528933"><ele>51.0</ele><time>2026-04-23T11:19:42.777Z</time></trkpt><trkpt lat="40.8540817" lon="14.2527983"><ele>51.0</ele><time>2026-04-23T11:19:44.776Z</time></trkpt><trkpt lat="40.854015" lon="14.2527133"><ele>51.0</ele><time>2026-04-23T11:19:46.776Z</time></trkpt><trkpt lat="40.8539533" lon="14.2526233"><ele>51.0</ele><time>2026-04-23T11:19:48.776Z</time></trkpt><trkpt lat="40.8538933" lon="14.252525"><ele>51.0</ele><time>2026-04-23T11:19:50.785Z</time></trkpt><trkpt lat="40.8538383" lon="14.2524367"><ele>51.0</ele><time>2026-04-23T11:19:52.777Z</time></trkpt><trkpt lat="40.8537917" lon="14.2523617"><ele>51.0</ele><time>2026-04-23T11:19:54.777Z</time></trkpt><trkpt lat="40.8537517" lon="14.2522883"><ele>51.0</ele><time>2026-04-23T11:19:56.776Z</time></trkpt><trkpt lat="40.8537083" lon="14.2522067"><ele>51.0</ele><time>2026-04-23T11:19:59.776Z</time></trkpt><trkpt lat="40.8536717" lon="14.2521367"><ele>51.0</ele><time>2026-04-23T11:20:44.779Z</time></trkpt><trkpt lat="40.853625" lon="14.252055"><ele>51.0</ele><time>2026-04-23T11:20:47.777Z</time></trkpt><trkpt lat="40.85358" lon="14.25198"><ele>51.0</ele><time>2026-04-23T11:20:49.778Z</time></trkpt><trkpt lat="40.853525" lon="14.2519033"><ele>51.0</ele><time>2026-04-23T11:20:51.777Z</time></trkpt><trkpt lat="40.853475" lon="14.2518267"><ele>51.0</ele><time>2026-04-23T11:20:53.778Z</time></trkpt><trkpt lat="40.8534317" lon="14.251745"><ele>52.666666666666664</ele><time>2026-04-23T11:20:55.776Z</time></trkpt><trkpt lat="40.853385" lon="14.2516533"><ele>54.33333333333333</ele><time>2026-04-23T11:20:57.776Z</time></trkpt><trkpt lat="40.8533333" lon="14.251575"><ele>56.0</ele><time>2026-04-23T11:20:59.777Z</time></trkpt><trkpt lat="40.853295" lon="14.2514783"><ele>57.666666666666664</ele><time>2026-04-23T11:21:01.777Z</time></trkpt><trkpt lat="40.8532717" lon="14.2513883"><ele>59.33333333333333</ele><time>2026-04-23T11:21:03.776Z</time></trkpt><trkpt lat="40.8532533" lon="14.25129"><ele>61.0</ele><time>2026-04-23T11:21:05.778Z</time></trkpt><trkpt lat="40.8532233" lon="14.251195"><ele>62.166666666666664</ele><time>2026-04-23T11:21:07.776Z</time></trkpt><trkpt lat="40.8531883" lon="14.251105"><ele>63.33333333333333</ele><time>2026-04-23T11:21:09.776Z</time></trkpt><trkpt lat="40.85316" lon="14.2510117"><ele>64.5</ele><time>2026-04-23T11:21:11.777Z</time></trkpt><trkpt lat="40.8531333" lon="14.2509183"><ele>65.66666666666667</ele><time>2026-04-23T11:21:13.776Z</time></trkpt><trkpt lat="40.8530967" lon="14.250825"><ele>66.83333333333334</ele><time>2026-04-23T11:21:15.775Z</time></trkpt><trkpt lat="40.853075" lon="14.2507117"><ele>68.0</ele><time>2026-04-23T11:21:17.777Z</time></trkpt><trkpt lat="40.853055" lon="14.25061"><ele>68.66666666666667</ele><time>2026-04-23T11:21:19.775Z</time></trkpt><trkpt lat="40.8530417" lon="14.2504933"><ele>69.33333333333334</ele><time>2026-04-23T11:21:21.775Z</time></trkpt><trkpt lat="40.853035" lon="14.25038"><ele>70.0</ele><time>2026-04-23T11:21:23.776Z</time></trkpt><trkpt lat="40.8530233" lon="14.2502667"><ele>70.66666666666667</ele><time>2026-04-23T11:21:25.775Z</time></trkpt><trkpt lat="40.85301" lon="14.2501483"><ele>71.33333333333333</ele><time>2026-04-23T11:21:27.776Z</time></trkpt><trkpt lat="40.8529867" lon="14.250055"><ele>72.0</ele><time>2026-04-23T11:21:29.777Z</time></trkpt><trkpt lat="40.8529483" lon="14.249955"><ele>72.0</ele><time>2026-04-23T11:21:32.776Z</time></trkpt><trkpt lat="40.8529067" lon="14.24985"><ele>72.0</ele><time>2026-04-23T11:21:35.776Z</time></trkpt><trkpt lat="40.8529267" lon="14.24976"><ele>72.0</ele><time>2026-04-23T11:21:38.775Z</time></trkpt><trkpt lat="40.85298" lon="14.2496867"><ele>72.0</ele><time>2026-04-23T11:21:41.776Z</time></trkpt><trkpt lat="40.853045" lon="14.2496433"><ele>72.0</ele><time>2026-04-23T11:21:43.776Z</time></trkpt><trkpt lat="40.8531133" lon="14.2496117"><ele>72.0</ele><time>2026-04-23T11:21:45.776Z</time></trkpt><trkpt lat="40.853195" lon="14.24959"><ele>72.33333333333333</ele><time>2026-04-23T11:21:47.776Z</time></trkpt><trkpt lat="40.853275" lon="14.2495617"><ele>72.66666666666667</ele><time>2026-04-23T11:21:49.777Z</time></trkpt><trkpt lat="40.853355" lon="14.2495333"><ele>73.0</ele><time>2026-04-23T11:21:51.776Z</time></trkpt><trkpt lat="40.8534333" lon="14.2495017"><ele>73.33333333333334</ele><time>2026-04-23T11:21:53.776Z</time></trkpt><trkpt lat="40.8535033" lon="14.249455"><ele>73.66666666666667</ele><time>2026-04-23T11:21:55.776Z</time></trkpt><trkpt lat="40.853555" lon="14.2493917"><ele>74.0</ele><time>2026-04-23T11:21:57.775Z</time></trkpt><trkpt lat="40.8535967" lon="14.2492767"><ele>74.0</ele><time>2026-04-23T11:22:00.775Z</time></trkpt><trkpt lat="40.85362" lon="14.2491933"><ele>74.0</ele><time>2026-04-23T11:22:02.775Z</time></trkpt><trkpt lat="40.85364" lon="14.2490867"><ele>74.0</ele><time>2026-04-23T11:22:05.775Z</time></trkpt><trkpt lat="40.853665" lon="14.249005"><ele>74.0</ele><time>2026-04-23T11:22:08.777Z</time></trkpt><trkpt lat="40.8537133" lon="14.24892"><ele>74.0</ele><time>2026-04-23T11:22:11.776Z</time></trkpt><trkpt lat="40.85375" lon="14.248815"><ele>74.0</ele><time>2026-04-23T11:22:14.776Z</time></trkpt><trkpt lat="40.8537733" lon="14.2487017"><ele>75.0</ele><time>2026-04-23T11:22:17.777Z</time></trkpt><trkpt lat="40.853815" lon="14.2485983"><ele>76.0</ele><time>2026-04-23T11:22:20.775Z</time></trkpt><trkpt lat="40.8538417" lon="14.2484983"><ele>77.0</ele><time>2026-04-23T11:22:23.776Z</time></trkpt><trkpt lat="40.853885" lon="14.2484067"><ele>78.0</ele><time>2026-04-23T11:22:26.777Z</time></trkpt><trkpt lat="40.8539317" lon="14.2483283"><ele>79.0</ele><time>2026-04-23T11:22:29.776Z</time></trkpt><trkpt lat="40.8539933" lon="14.2482583"><ele>80.0</ele><time>2026-04-23T11:22:32.775Z</time></trkpt><trkpt lat="40.8540267" lon="14.2481833"><ele>80.0</ele><time>2026-04-23T11:22:34.776Z</time></trkpt><trkpt lat="40.8540517" lon="14.2481017"><ele>80.0</ele><time>2026-04-23T11:22:36.775Z</time></trkpt><trkpt lat="40.8540717" lon="14.2479817"><ele>80.0</ele><time>2026-04-23T11:22:39.775Z</time></trkpt><trkpt lat="40.8540633" lon="14.2478867"><ele>80.0</ele><time>2026-04-23T11:22:41.777Z</time></trkpt><trkpt lat="40.8540683" lon="14.24777"><ele>80.0</ele><time>2026-04-23T11:22:44.776Z</time></trkpt><trkpt lat="40.8540733" lon="14.2476617"><ele>80.0</ele><time>2026-04-23T11:22:47.778Z</time></trkpt><trkpt lat="40.8540733" lon="14.2475767"><ele>80.0</ele><time>2026-04-23T11:22:49.777Z</time></trkpt><trkpt lat="40.8540767" lon="14.24748"><ele>80.0</ele><time>2026-04-23T11:22:51.775Z</time></trkpt><trkpt lat="40.85409" lon="14.2473883"><ele>80.0</ele><time>2026-04-23T11:22:53.777Z</time></trkpt><trkpt lat="40.8541283" lon="14.2472717"><ele>80.0</ele><time>2026-04-23T11:22:56.778Z</time></trkpt><trkpt lat="40.8541567" lon="14.24719"><ele>80.0</ele><time>2026-04-23T11:22:58.776Z</time></trkpt><trkpt lat="40.854185" lon="14.247105"><ele>80.0</ele><time>2026-04-23T11:23:00.777Z</time></trkpt><trkpt lat="40.854205" lon="14.2470217"><ele>80.0</ele><time>2026-04-23T11:23:02.777Z</time></trkpt><trkpt lat="40.85423" lon="14.246915"><ele>80.83333333333334</ele><time>2026-04-23T11:23:05.777Z</time></trkpt><trkpt lat="40.854245" lon="14.24681"><ele>81.66666666666667</ele><time>2026-04-23T11:23:08.776Z</time></trkpt><trkpt lat="40.8542383" lon="14.246685"><ele>82.5</ele><time>2026-04-23T11:23:11.776Z</time></trkpt><trkpt lat="40.8542067" lon="14.2465883"><ele>83.33333333333333</ele><time>2026-04-23T11:23:14.775Z</time></trkpt><trkpt lat="40.8541517" lon="14.24652"><ele>84.16666666666666</ele><time>2026-04-23T11:23:16.775Z</time></trkpt><trkpt lat="40.8541083" lon="14.2464517"><ele>85.0</ele><time>2026-04-23T11:23:18.776Z</time></trkpt><trkpt lat="40.8540567" lon="14.246395"><ele>86.66666666666666</ele><time>2026-04-23T11:23:20.776Z</time></trkpt><trkpt lat="40.85399" lon="14.2463217"><ele>88.33333333333333</ele><time>2026-04-23T11:23:23.776Z</time></trkpt><trkpt lat="40.853915" lon="14.2462767"><ele>90.0</ele><time>2026-04-23T11:23:26.775Z</time></trkpt><trkpt lat="40.8538333" lon="14.2462233"><ele>91.66666666666667</ele><time>2026-04-23T11:23:29.777Z</time></trkpt><trkpt lat="40.853765" lon="14.2462"><ele>93.33333333333334</ele><time>2026-04-23T11:23:31.777Z</time></trkpt><trkpt lat="40.8536933" lon="14.24618"><ele>95.0</ele><time>2026-04-23T11:23:33.775Z</time></trkpt><trkpt lat="40.8536267" lon="14.2461633"><ele>95.0</ele><time>2026-04-23T11:23:35.777Z</time></trkpt><trkpt lat="40.853565" lon="14.2461467"><ele>95.0</ele><time>2026-04-23T11:23:37.776Z</time></trkpt><trkpt lat="40.8534917" lon="14.2461083"><ele>95.0</ele><time>2026-04-23T11:23:40.776Z</time></trkpt><trkpt lat="40.853405" lon="14.2460783"><ele>95.0</ele><time>2026-04-23T11:23:43.776Z</time></trkpt><trkpt lat="40.8533367" lon="14.2460633"><ele>95.0</ele><time>2026-04-23T11:23:45.779Z</time></trkpt><trkpt lat="40.85326" lon="14.2460133"><ele>95.0</ele><time>2026-04-23T11:23:48.776Z</time></trkpt><trkpt lat="40.8531733" lon="14.245975"><ele>94.83333333333334</ele><time>2026-04-23T11:23:51.775Z</time></trkpt><trkpt lat="40.85311" lon="14.2459367"><ele>94.66666666666667</ele><time>2026-04-23T11:23:53.777Z</time></trkpt><trkpt lat="40.8530517" lon="14.245905"><ele>94.5</ele><time>2026-04-23T11:23:55.778Z</time></trkpt><trkpt lat="40.8529767" lon="14.2458433"><ele>94.33333333333333</ele><time>2026-04-23T11:23:58.777Z</time></trkpt><trkpt lat="40.852935" lon="14.2457367"><ele>94.16666666666666</ele><time>2026-04-23T11:24:01.776Z</time></trkpt><trkpt lat="40.8529133" lon="14.24561"><ele>94.0</ele><time>2026-04-23T11:24:04.776Z</time></trkpt><trkpt lat="40.8529083" lon="14.24551"><ele>94.83333333333333</ele><time>2026-04-23T11:24:06.776Z</time></trkpt><trkpt lat="40.852885" lon="14.24543"><ele>95.66666666666666</ele><time>2026-04-23T11:24:08.776Z</time></trkpt><trkpt lat="40.8528433" lon="14.2453567"><ele>96.5</ele><time>2026-04-23T11:24:10.777Z</time></trkpt><trkpt lat="40.8528167" lon="14.24528"><ele>97.33333333333333</ele><time>2026-04-23T11:24:12.775Z</time></trkpt><trkpt lat="40.8527767" lon="14.2451733"><ele>98.16666666666667</ele><time>2026-04-23T11:24:15.775Z</time></trkpt><trkpt lat="40.8527567" lon="14.2450583"><ele>99.0</ele><time>2026-04-23T11:24:18.776Z</time></trkpt><trkpt lat="40.852735" lon="14.24496"><ele>99.0</ele><time>2026-04-23T11:24:21.775Z</time></trkpt><trkpt lat="40.8527117" lon="14.2448583"><ele>99.0</ele><time>2026-04-23T11:24:24.776Z</time></trkpt><trkpt lat="40.852705" lon="14.2447717"><ele>99.0</ele><time>2026-04-23T11:24:26.776Z</time></trkpt><trkpt lat="40.8526917" lon="14.24469"><ele>99.0</ele><time>2026-04-23T11:24:28.777Z</time></trkpt><trkpt lat="40.85267" lon="14.2445783"><ele>99.0</ele><time>2026-04-23T11:24:31.777Z</time></trkpt><trkpt lat="40.8526433" lon="14.2444733"><ele>99.0</ele><time>2026-04-23T11:24:34.778Z</time></trkpt><trkpt lat="40.8526183" lon="14.2443667"><ele>99.0</ele><time>2026-04-23T11:24:37.776Z</time></trkpt><trkpt lat="40.8526017" lon="14.2442833"><ele>99.0</ele><time>2026-04-23T11:24:39.778Z</time></trkpt><trkpt lat="40.8525667" lon="14.2441833"><ele>99.0</ele><time>2026-04-23T11:24:42.779Z</time></trkpt><trkpt lat="40.8525317" lon="14.24408"><ele>99.0</ele><time>2026-04-23T11:24:45.78Z</time></trkpt><trkpt lat="40.8524967" lon="14.244005"><ele>99.0</ele><time>2026-04-23T11:24:48.776Z</time></trkpt><trkpt lat="40.8524517" lon="14.2439283"><ele>99.0</ele><time>2026-04-23T11:24:52.776Z</time></trkpt><trkpt lat="40.8523967" lon="14.2438417"><ele>100.0</ele><time>2026-04-23T11:24:56.777Z</time></trkpt><trkpt lat="40.8523283" lon="14.24377"><ele>101.0</ele><time>2026-04-23T11:24:59.777Z</time></trkpt><trkpt lat="40.8522817" lon="14.2436817"><ele>102.0</ele><time>2026-04-23T11:25:02.776Z</time></trkpt><trkpt lat="40.8522167" lon="14.2436033"><ele>103.0</ele><time>2026-04-23T11:25:05.776Z</time></trkpt><trkpt lat="40.8521567" lon="14.2435267"><ele>104.0</ele><time>2026-04-23T11:25:08.776Z</time></trkpt><trkpt lat="40.8521183" lon="14.2434533"><ele>105.0</ele><time>2026-04-23T11:25:10.777Z</time></trkpt><trkpt lat="40.8520867" lon="14.2433783"><ele>105.0</ele><time>2026-04-23T11:25:12.777Z</time></trkpt><trkpt lat="40.85202" lon="14.2432917"><ele>105.0</ele><time>2026-04-23T11:25:15.776Z</time></trkpt><trkpt lat="40.851955" lon="14.2432383"><ele>105.0</ele><time>2026-04-23T11:25:17.776Z</time></trkpt><trkpt lat="40.8518917" lon="14.24315"><ele>105.0</ele><time>2026-04-23T11:25:20.777Z</time></trkpt><trkpt lat="40.8518417" lon="14.2430833"><ele>105.0</ele><time>2026-04-23T11:25:22.779Z</time></trkpt><trkpt lat="40.85179" lon="14.24303"><ele>105.0</ele><time>2026-04-23T11:25:24.775Z</time></trkpt><trkpt lat="40.8517417" lon="14.242925"><ele>106.0</ele><time>2026-04-23T11:25:27.776Z</time></trkpt><trkpt lat="40.8517117" lon="14.24282"><ele>107.0</ele><time>2026-04-23T11:25:30.777Z</time></trkpt><trkpt lat="40.8516817" lon="14.2427333"><ele>108.0</ele><time>2026-04-23T11:25:33.777Z</time></trkpt><trkpt lat="40.8516533" lon="14.242655"><ele>109.0</ele><time>2026-04-23T11:25:36.777Z</time></trkpt><trkpt lat="40.8516217" lon="14.2425783"><ele>110.0</ele><time>2026-04-23T11:25:40.776Z</time></trkpt><trkpt lat="40.85157" lon="14.2424833"><ele>111.0</ele><time>2026-04-23T11:25:44.776Z</time></trkpt><trkpt lat="40.8515467" lon="14.24239"><ele>111.5</ele><time>2026-04-23T11:25:47.777Z</time></trkpt><trkpt lat="40.85155" lon="14.242285"><ele>112.0</ele><time>2026-04-23T11:25:51.776Z</time></trkpt><trkpt lat="40.851565" lon="14.24218"><ele>112.5</ele><time>2026-04-23T11:25:54.776Z</time></trkpt><trkpt lat="40.8515717" lon="14.2420667"><ele>113.0</ele><time>2026-04-23T11:25:57.775Z</time></trkpt><trkpt lat="40.8515917" lon="14.2419617"><ele>113.5</ele><time>2026-04-23T11:26:00.777Z</time></trkpt><trkpt lat="40.8516167" lon="14.241855"><ele>114.0</ele><time>2026-04-23T11:26:03.777Z</time></trkpt><trkpt lat="40.851625" lon="14.2417567"><ele>114.0</ele><time>2026-04-23T11:26:06.777Z</time></trkpt><trkpt lat="40.8516283" lon="14.241655"><ele>114.0</ele><time>2026-04-23T11:26:09.776Z</time></trkpt><trkpt lat="40.8516367" lon="14.2415517"><ele>114.0</ele><time>2026-04-23T11:26:12.776Z</time></trkpt><trkpt lat="40.8516333" lon="14.2414633"><ele>114.0</ele><time>2026-04-23T11:26:15.776Z</time></trkpt><trkpt lat="40.8516367" lon="14.2413517"><ele>114.0</ele><time>2026-04-23T11:26:18.777Z</time></trkpt><trkpt lat="40.8516633" lon="14.2412733"><ele>114.0</ele><time>2026-04-23T11:26:20.778Z</time></trkpt><trkpt lat="40.851685" lon="14.2411633"><ele>114.5</ele><time>2026-04-23T11:26:23.778Z</time></trkpt><trkpt lat="40.8517083" lon="14.2410633"><ele>115.0</ele><time>2026-04-23T11:26:26.778Z</time></trkpt><trkpt lat="40.8517283" lon="14.24096"><ele>115.5</ele><time>2026-04-23T11:26:30.778Z</time></trkpt><trkpt lat="40.8517267" lon="14.240865"><ele>116.0</ele><time>2026-04-23T11:26:33.778Z</time></trkpt><trkpt lat="40.8517283" lon="14.2407767"><ele>116.5</ele><time>2026-04-23T11:26:36.777Z</time></trkpt><trkpt lat="40.8517417" lon="14.24067"><ele>117.0</ele><time>2026-04-23T11:26:39.775Z</time></trkpt><trkpt lat="40.8517283" lon="14.2405667"><ele>117.0</ele><time>2026-04-23T11:26:42.778Z</time></trkpt><trkpt lat="40.851735" lon="14.2404733"><ele>117.00000000000001</ele><time>2026-04-23T11:26:45.776Z</time></trkpt><trkpt lat="40.8517317" lon="14.2403767"><ele>117.0</ele><time>2026-04-23T11:26:48.778Z</time></trkpt><trkpt lat="40.8517217" lon="14.2402683"><ele>117.0</ele><time>2026-04-23T11:26:51.776Z</time></trkpt><trkpt lat="40.8517433" lon="14.240185"><ele>117.00000000000001</ele><time>2026-04-23T11:26:54.776Z</time></trkpt><trkpt lat="40.851755" lon="14.2400867"><ele>117.0</ele><time>2026-04-23T11:26:57.776Z</time></trkpt><trkpt lat="40.8517683" lon="14.2399967"><ele>117.0</ele><time>2026-04-23T11:27:00.777Z</time></trkpt><trkpt lat="40.8517833" lon="14.2399017"><ele>118.83333333333333</ele><time>2026-04-23T11:27:03.778Z</time></trkpt><trkpt lat="40.851815" lon="14.2398033"><ele>120.66666666666666</ele><time>2026-04-23T11:27:06.778Z</time></trkpt><trkpt lat="40.85182" lon="14.2396933"><ele>122.5</ele><time>2026-04-23T11:27:09.779Z</time></trkpt><trkpt lat="40.8518467" lon="14.2395867"><ele>124.33333333333333</ele><time>2026-04-23T11:27:12.78Z</time></trkpt><trkpt lat="40.85185" lon="14.2395033"><ele>126.16666666666666</ele><time>2026-04-23T11:27:15.779Z</time></trkpt><trkpt lat="40.85187" lon="14.2394083"><ele>128.0</ele><time>2026-04-23T11:27:18.78Z</time></trkpt><trkpt lat="40.8519217" lon="14.2393217"><ele>128.33333333333331</ele><time>2026-04-23T11:27:20.779Z</time></trkpt><trkpt lat="40.8519517" lon="14.2392217"><ele>128.66666666666666</ele><time>2026-04-23T11:27:23.778Z</time></trkpt><trkpt lat="40.8519783" lon="14.2391183"><ele>129.0</ele><time>2026-04-23T11:27:26.779Z</time></trkpt><trkpt lat="40.851995" lon="14.2390117"><ele>129.33333333333334</ele><time>2026-04-23T11:27:29.778Z</time></trkpt><trkpt lat="40.8520067" lon="14.2389017"><ele>129.66666666666669</ele><time>2026-04-23T11:27:32.778Z</time></trkpt><trkpt lat="40.8520083" lon="14.2388083"><ele>130.0</ele><time>2026-04-23T11:27:35.78Z</time></trkpt><trkpt lat="40.8519817" lon="14.238725"><ele>130.66666666666669</ele><time>2026-04-23T11:27:38.778Z</time></trkpt><trkpt lat="40.85197" lon="14.2386317"><ele>131.33333333333334</ele><time>2026-04-23T11:27:41.778Z</time></trkpt><trkpt lat="40.8519717" lon="14.2385167"><ele>132.0</ele><time>2026-04-23T11:27:44.778Z</time></trkpt><trkpt lat="40.8519667" lon="14.2384083"><ele>132.66666666666666</ele><time>2026-04-23T11:27:47.779Z</time></trkpt><trkpt lat="40.85196" lon="14.2383033"><ele>133.33333333333331</ele><time>2026-04-23T11:27:50.779Z</time></trkpt><trkpt lat="40.851945" lon="14.2381767"><ele>134.0</ele><time>2026-04-23T11:27:53.783Z</time></trkpt><trkpt lat="40.8519267" lon="14.2380917"><ele>135.16666666666666</ele><time>2026-04-23T11:27:55.783Z</time></trkpt><trkpt lat="40.8519083" lon="14.2380083"><ele>136.33333333333331</ele><time>2026-04-23T11:27:57.781Z</time></trkpt><trkpt lat="40.851885" lon="14.2378917"><ele>137.5</ele><time>2026-04-23T11:28:00.781Z</time></trkpt><trkpt lat="40.8518633" lon="14.237775"><ele>138.66666666666666</ele><time>2026-04-23T11:28:03.781Z</time></trkpt><trkpt lat="40.8518383" lon="14.2376667"><ele>139.83333333333334</ele><time>2026-04-23T11:28:06.782Z</time></trkpt><trkpt lat="40.8518233" lon="14.2375583"><ele>141.0</ele><time>2026-04-23T11:28:09.785Z</time></trkpt><trkpt lat="40.851805" lon="14.237445"><ele>141.5</ele><time>2026-04-23T11:28:12.779Z</time></trkpt><trkpt lat="40.851765" lon="14.2373383"><ele>142.0</ele><time>2026-04-23T11:28:15.779Z</time></trkpt><trkpt lat="40.851715" lon="14.2372483"><ele>142.5</ele><time>2026-04-23T11:28:18.78Z</time></trkpt><trkpt lat="40.851675" lon="14.23715"><ele>143.0</ele><time>2026-04-23T11:28:21.778Z</time></trkpt><trkpt lat="40.85164" lon="14.237035"><ele>143.5</ele><time>2026-04-23T11:28:24.781Z</time></trkpt><trkpt lat="40.85159" lon="14.2369333"><ele>144.0</ele><time>2026-04-23T11:28:27.777Z</time></trkpt><trkpt lat="40.85155" lon="14.2368233"><ele>145.33333333333334</ele><time>2026-04-23T11:28:30.779Z</time></trkpt><trkpt lat="40.8515117" lon="14.23673"><ele>146.66666666666666</ele><time>2026-04-23T11:28:33.778Z</time></trkpt><trkpt lat="40.851495" lon="14.23663"><ele>148.0</ele><time>2026-04-23T11:28:36.779Z</time></trkpt><trkpt lat="40.851475" lon="14.2365233"><ele>149.33333333333331</ele><time>2026-04-23T11:28:39.779Z</time></trkpt><trkpt lat="40.85144" lon="14.236415"><ele>150.66666666666666</ele><time>2026-04-23T11:28:42.777Z</time></trkpt><trkpt lat="40.8514033" lon="14.2363017"><ele>152.0</ele><time>2026-04-23T11:28:45.778Z</time></trkpt><trkpt lat="40.8513583" lon="14.2361967"><ele>153.5</ele><time>2026-04-23T11:28:48.779Z</time></trkpt><trkpt lat="40.8513117" lon="14.2360983"><ele>155.0</ele><time>2026-04-23T11:28:51.777Z</time></trkpt><trkpt lat="40.8512733" lon="14.235995"><ele>156.5</ele><time>2026-04-23T11:28:54.777Z</time></trkpt><trkpt lat="40.851235" lon="14.23589"><ele>158.0</ele><time>2026-04-23T11:28:57.778Z</time></trkpt><trkpt lat="40.8511967" lon="14.2357817"><ele>159.5</ele><time>2026-04-23T11:29:00.777Z</time></trkpt><trkpt lat="40.8511517" lon="14.2356783"><ele>161.0</ele><time>2026-04-23T11:29:03.778Z</time></trkpt><trkpt lat="40.8511017" lon="14.235575"><ele>161.16666666666666</ele><time>2026-04-23T11:29:06.777Z</time></trkpt><trkpt lat="40.8510717" lon="14.2354933"><ele>161.33333333333331</ele><time>2026-04-23T11:29:08.778Z</time></trkpt><trkpt lat="40.851035" lon="14.2354083"><ele>161.5</ele><time>2026-04-23T11:29:10.782Z</time></trkpt><trkpt lat="40.8509917" lon="14.2353233"><ele>161.66666666666666</ele><time>2026-04-23T11:29:12.777Z</time></trkpt><trkpt lat="40.850935" lon="14.23524"><ele>161.83333333333334</ele><time>2026-04-23T11:29:14.778Z</time></trkpt><trkpt lat="40.8508817" lon="14.2351483"><ele>162.0</ele><time>2026-04-23T11:29:16.779Z</time></trkpt><trkpt lat="40.8508133" lon="14.2350667"><ele>162.8</ele><time>2026-04-23T11:29:18.78Z</time></trkpt><trkpt lat="40.85074" lon="14.23498"><ele>163.6</ele><time>2026-04-23T11:29:20.78Z</time></trkpt><trkpt lat="40.8506683" lon="14.23489"><ele>164.4</ele><time>2026-04-23T11:29:22.777Z</time></trkpt><trkpt lat="40.8505833" lon="14.23481"><ele>165.20000000000002</ele><time>2026-04-23T11:29:24.779Z</time></trkpt><trkpt lat="40.8505" lon="14.234745"><ele>166.0</ele><time>2026-04-23T11:29:26.778Z</time></trkpt><trkpt lat="40.8504367" lon="14.2346983"><ele>166.5</ele><time>2026-04-23T11:29:28.778Z</time></trkpt><trkpt lat="40.85038" lon="14.23464"><ele>167.0</ele><time>2026-04-23T11:29:30.78Z</time></trkpt><trkpt lat="40.8503267" lon="14.234545"><ele>167.5</ele><time>2026-04-23T11:29:32.778Z</time></trkpt><trkpt lat="40.8502483" lon="14.2344667"><ele>168.0</ele><time>2026-04-23T11:29:34.779Z</time></trkpt><trkpt lat="40.8501617" lon="14.2344117"><ele>168.5</ele><time>2026-04-23T11:29:36.779Z</time></trkpt><trkpt lat="40.8500717" lon="14.2343767"><ele>169.0</ele><time>2026-04-23T11:29:38.778Z</time></trkpt><trkpt lat="40.8499783" lon="14.2343433"><ele>169.2</ele><time>2026-04-23T11:29:40.778Z</time></trkpt><trkpt lat="40.8498867" lon="14.2343017"><ele>169.39999999999998</ele><time>2026-04-23T11:29:42.779Z</time></trkpt><trkpt lat="40.84981" lon="14.2342317"><ele>169.6</ele><time>2026-04-23T11:29:44.78Z</time></trkpt><trkpt lat="40.849715" lon="14.2341967"><ele>169.8</ele><time>2026-04-23T11:29:46.78Z</time></trkpt><trkpt lat="40.8496133" lon="14.23418"><ele>170.0</ele><time>2026-04-23T11:29:48.781Z</time></trkpt><trkpt lat="40.84951" lon="14.2341733"><ele>170.0</ele><time>2026-04-23T11:29:50.777Z</time></trkpt><trkpt lat="40.8494033" lon="14.2341767"><ele>170.0</ele><time>2026-04-23T11:29:52.779Z</time></trkpt><trkpt lat="40.849285" lon="14.2341933"><ele>170.0</ele><time>2026-04-23T11:29:54.78Z</time></trkpt><trkpt lat="40.8491783" lon="14.2341983"><ele>170.0</ele><time>2026-04-23T11:29:56.779Z</time></trkpt><trkpt lat="40.849085" lon="14.234205"><ele>170.0</ele><time>2026-04-23T11:29:58.779Z</time></trkpt><trkpt lat="40.84899" lon="14.2342067"><ele>171.0</ele><time>2026-04-23T11:30:00.779Z</time></trkpt><trkpt lat="40.8488883" lon="14.234195"><ele>172.0</ele><time>2026-04-23T11:30:02.779Z</time></trkpt><trkpt lat="40.8487767" lon="14.2341917"><ele>173.0</ele><time>2026-04-23T11:30:04.777Z</time></trkpt><trkpt lat="40.8486733" lon="14.23415"><ele>174.0</ele><time>2026-04-23T11:30:06.779Z</time></trkpt><trkpt lat="40.8485867" lon="14.23408"><ele>175.0</ele><time>2026-04-23T11:30:08.779Z</time></trkpt><trkpt lat="40.848525" lon="14.2339717"><ele>174.4</ele><time>2026-04-23T11:30:10.778Z</time></trkpt><trkpt lat="40.8484733" lon="14.2338433"><ele>173.8</ele><time>2026-04-23T11:30:12.78Z</time></trkpt><trkpt lat="40.8484383" lon="14.2337067"><ele>173.2</ele><time>2026-04-23T11:30:14.781Z</time></trkpt><trkpt lat="40.8484083" lon="14.2335717"><ele>172.6</ele><time>2026-04-23T11:30:16.78Z</time></trkpt><trkpt lat="40.8483833" lon="14.2334367"><ele>172.0</ele><time>2026-04-23T11:30:18.78Z</time></trkpt><trkpt lat="40.8483517" lon="14.2333167"><ele>172.8</ele><time>2026-04-23T11:30:20.779Z</time></trkpt><trkpt lat="40.8483117" lon="14.23319"><ele>173.6</ele><time>2026-04-23T11:30:22.78Z</time></trkpt><trkpt lat="40.8482483" lon="14.2330767"><ele>174.4</ele><time>2026-04-23T11:30:24.78Z</time></trkpt><trkpt lat="40.8481983" lon="14.232965"><ele>175.20000000000002</ele><time>2026-04-23T11:30:26.779Z</time></trkpt><trkpt lat="40.84816" lon="14.2328533"><ele>176.0</ele><time>2026-04-23T11:30:28.778Z</time></trkpt><trkpt lat="40.8481383" lon="14.232735"><ele>176.0</ele><time>2026-04-23T11:30:30.777Z</time></trkpt><trkpt lat="40.84811" lon="14.23262"><ele>176.0</ele><time>2026-04-23T11:30:32.779Z</time></trkpt><trkpt lat="40.8480717" lon="14.23251"><ele>176.0</ele><time>2026-04-23T11:30:34.778Z</time></trkpt><trkpt lat="40.8480383" lon="14.2323967"><ele>176.0</ele><time>2026-04-23T11:30:36.778Z</time></trkpt><trkpt lat="40.8480067" lon="14.2322867"><ele>176.0</ele><time>2026-04-23T11:30:38.779Z</time></trkpt><trkpt lat="40.8479683" lon="14.23218"><ele>176.60000000000002</ele><time>2026-04-23T11:30:40.779Z</time></trkpt><trkpt lat="40.847935" lon="14.2320733"><ele>177.2</ele><time>2026-04-23T11:30:42.778Z</time></trkpt><trkpt lat="40.8478917" lon="14.2319667"><ele>177.8</ele><time>2026-04-23T11:30:44.779Z</time></trkpt><trkpt lat="40.8478467" lon="14.2318567"><ele>178.39999999999998</ele><time>2026-04-23T11:30:46.779Z</time></trkpt><trkpt lat="40.8477967" lon="14.2317433"><ele>179.0</ele><time>2026-04-23T11:30:48.78Z</time></trkpt><trkpt lat="40.84775" lon="14.23163"><ele>179.0</ele><time>2026-04-23T11:30:50.78Z</time></trkpt><trkpt lat="40.8477083" lon="14.231515"><ele>179.0</ele><time>2026-04-23T11:30:52.78Z</time></trkpt><trkpt lat="40.847675" lon="14.2313967"><ele>179.0</ele><time>2026-04-23T11:30:54.778Z</time></trkpt><trkpt lat="40.84763" lon="14.2313033"><ele>179.0</ele><time>2026-04-23T11:30:56.781Z</time></trkpt><trkpt lat="40.8475883" lon="14.2311933"><ele>179.0</ele><time>2026-04-23T11:30:58.778Z</time></trkpt><trkpt lat="40.8475467" lon="14.2310717"><ele>179.2</ele><time>2026-04-23T11:31:00.779Z</time></trkpt><trkpt lat="40.847525" lon="14.23096"><ele>179.39999999999998</ele><time>2026-04-23T11:31:02.78Z</time></trkpt><trkpt lat="40.847485" lon="14.2308217"><ele>179.6</ele><time>2026-04-23T11:31:04.78Z</time></trkpt><trkpt lat="40.8474483" lon="14.2306917"><ele>179.8</ele><time>2026-04-23T11:31:06.78Z</time></trkpt><trkpt lat="40.8474067" lon="14.2305783"><ele>180.0</ele><time>2026-04-23T11:31:08.78Z</time></trkpt><trkpt lat="40.8473567" lon="14.2304667"><ele>180.0</ele><time>2026-04-23T11:31:10.78Z</time></trkpt><trkpt lat="40.847305" lon="14.2303617"><ele>180.0</ele><time>2026-04-23T11:31:12.78Z</time></trkpt><trkpt lat="40.8472567" lon="14.2302567"><ele>180.0</ele><time>2026-04-23T11:31:14.78Z</time></trkpt><trkpt lat="40.8472217" lon="14.2301367"><ele>180.0</ele><time>2026-04-23T11:31:16.782Z</time></trkpt><trkpt lat="40.8471967" lon="14.230025"><ele>180.0</ele><time>2026-04-23T11:31:18.782Z</time></trkpt><trkpt lat="40.84718" lon="14.2299217"><ele>180.0</ele><time>2026-04-23T11:31:20.78Z</time></trkpt><trkpt lat="40.8471767" lon="14.2298383"><ele>180.0</ele><time>2026-04-23T11:31:22.781Z</time></trkpt><trkpt lat="40.8471883" lon="14.229755"><ele>180.0</ele><time>2026-04-23T11:31:24.779Z</time></trkpt><trkpt lat="40.8472" lon="14.2296683"><ele>180.0</ele><time>2026-04-23T11:31:26.779Z</time></trkpt><trkpt lat="40.8472233" lon="14.2295833"><ele>180.0</ele><time>2026-04-23T11:31:28.777Z</time></trkpt><trkpt lat="40.8472417" lon="14.2295033"><ele>180.0</ele><time>2026-04-23T11:31:30.779Z</time></trkpt><trkpt lat="40.8472617" lon="14.2294233"><ele>180.0</ele><time>2026-04-23T11:31:32.78Z</time></trkpt><trkpt lat="40.8472817" lon="14.2293433"><ele>180.0</ele><time>2026-04-23T11:31:34.778Z</time></trkpt><trkpt lat="40.8473017" lon="14.2292267"><ele>180.0</ele><time>2026-04-23T11:31:37.779Z</time></trkpt><trkpt lat="40.8473133" lon="14.229135"><ele>180.0</ele><time>2026-04-23T11:31:39.778Z</time></trkpt><trkpt lat="40.847325" lon="14.2290383"><ele>180.0</ele><time>2026-04-23T11:31:41.779Z</time></trkpt><trkpt lat="40.84734" lon="14.2289517"><ele>180.0</ele><time>2026-04-23T11:31:43.78Z</time></trkpt><trkpt lat="40.84737" lon="14.228865"><ele>180.0</ele><time>2026-04-23T11:31:45.779Z</time></trkpt><trkpt lat="40.8473867" lon="14.2287567"><ele>180.33333333333334</ele><time>2026-04-23T11:31:48.779Z</time></trkpt><trkpt lat="40.84733" lon="14.22868"><ele>180.66666666666666</ele><time>2026-04-23T11:31:52.779Z</time></trkpt><trkpt lat="40.8472617" lon="14.2287"><ele>181.0</ele><time>2026-04-23T11:31:55.781Z</time></trkpt><trkpt lat="40.8471617" lon="14.2287483"><ele>181.33333333333331</ele><time>2026-04-23T11:31:58.78Z</time></trkpt><trkpt lat="40.8470767" lon="14.22878"><ele>181.66666666666666</ele><time>2026-04-23T11:32:00.779Z</time></trkpt><trkpt lat="40.8469967" lon="14.2287933"><ele>182.0</ele><time>2026-04-23T11:32:02.78Z</time></trkpt><trkpt lat="40.8469283" lon="14.2287917"><ele>182.0</ele><time>2026-04-23T11:32:04.779Z</time></trkpt><trkpt lat="40.8468583" lon="14.2287967"><ele>182.0</ele><time>2026-04-23T11:32:06.78Z</time></trkpt><trkpt lat="40.846785" lon="14.2288"><ele>182.0</ele><time>2026-04-23T11:32:08.779Z</time></trkpt><trkpt lat="40.8467133" lon="14.2288167"><ele>182.0</ele><time>2026-04-23T11:32:10.779Z</time></trkpt><trkpt lat="40.8466317" lon="14.2288333"><ele>182.0</ele><time>2026-04-23T11:32:13.781Z</time></trkpt><trkpt lat="40.8465517" lon="14.2288467"><ele>182.0</ele><time>2026-04-23T11:32:16.78Z</time></trkpt><trkpt lat="40.84647" lon="14.2288617"><ele>182.8</ele><time>2026-04-23T11:32:19.78Z</time></trkpt><trkpt lat="40.8463967" lon="14.2288517"><ele>183.6</ele><time>2026-04-23T11:32:21.779Z</time></trkpt><trkpt lat="40.8462967" lon="14.2288517"><ele>184.4</ele><time>2026-04-23T11:32:23.779Z</time></trkpt><trkpt lat="40.8461967" lon="14.2288683"><ele>185.20000000000002</ele><time>2026-04-23T11:32:25.78Z</time></trkpt><trkpt lat="40.8461033" lon="14.22888"><ele>186.0</ele><time>2026-04-23T11:32:27.78Z</time></trkpt><trkpt lat="40.8460167" lon="14.22889"><ele>185.33333333333334</ele><time>2026-04-23T11:32:29.777Z</time></trkpt><trkpt lat="40.8459283" lon="14.228905"><ele>184.66666666666666</ele><time>2026-04-23T11:32:31.78Z</time></trkpt><trkpt lat="40.8458533" lon="14.22892"><ele>184.0</ele><time>2026-04-23T11:32:33.779Z</time></trkpt><trkpt lat="40.8457683" lon="14.2289267"><ele>183.33333333333331</ele><time>2026-04-23T11:32:35.779Z</time></trkpt><trkpt lat="40.84568" lon="14.22894"><ele>182.66666666666666</ele><time>2026-04-23T11:32:37.781Z</time></trkpt><trkpt lat="40.8455933" lon="14.2289383"><ele>182.0</ele><time>2026-04-23T11:32:39.779Z</time></trkpt><trkpt lat="40.8455117" lon="14.22895"><ele>182.0</ele><time>2026-04-23T11:32:41.78Z</time></trkpt><trkpt lat="40.845425" lon="14.2289567"><ele>182.0</ele><time>2026-04-23T11:32:43.781Z</time></trkpt><trkpt lat="40.8453333" lon="14.228965"><ele>182.0</ele><time>2026-04-23T11:32:45.779Z</time></trkpt><trkpt lat="40.8452433" lon="14.22898"><ele>182.0</ele><time>2026-04-23T11:32:47.78Z</time></trkpt><trkpt lat="40.84514" lon="14.228975"><ele>182.0</ele><time>2026-04-23T11:32:49.78Z</time></trkpt><trkpt lat="40.84505" lon="14.2289733"><ele>183.33333333333331</ele><time>2026-04-23T11:32:51.779Z</time></trkpt><trkpt lat="40.8449733" lon="14.22898"><ele>184.66666666666666</ele><time>2026-04-23T11:32:53.78Z</time></trkpt><trkpt lat="40.8448933" lon="14.228995"><ele>186.0</ele><time>2026-04-23T11:32:55.781Z</time></trkpt><trkpt lat="40.8448167" lon="14.22901"><ele>187.33333333333334</ele><time>2026-04-23T11:32:57.781Z</time></trkpt><trkpt lat="40.8447433" lon="14.229025"><ele>188.66666666666669</ele><time>2026-04-23T11:32:59.779Z</time></trkpt><trkpt lat="40.8446567" lon="14.2290333"><ele>190.0</ele><time>2026-04-23T11:33:02.781Z</time></trkpt><trkpt lat="40.8446" lon="14.22907"><ele>190.0</ele><time>2026-04-23T11:33:04.78Z</time></trkpt><trkpt lat="40.844575" lon="14.2291817"><ele>190.0</ele><time>2026-04-23T11:33:06.779Z</time></trkpt><trkpt lat="40.8445833" lon="14.2292883"><ele>190.0</ele><time>2026-04-23T11:33:08.78Z</time></trkpt><trkpt lat="40.8445933" lon="14.2293967"><ele>190.0</ele><time>2026-04-23T11:33:10.777Z</time></trkpt><trkpt lat="40.8445933" lon="14.2294983"><ele>190.0</ele><time>2026-04-23T11:33:12.78Z</time></trkpt><trkpt lat="40.844595" lon="14.229605"><ele>190.0</ele><time>2026-04-23T11:33:14.779Z</time></trkpt><trkpt lat="40.8445867" lon="14.22971"><ele>190.0</ele><time>2026-04-23T11:33:16.779Z</time></trkpt><trkpt lat="40.8445983" lon="14.22981"><ele>190.0</ele><time>2026-04-23T11:33:18.78Z</time></trkpt><trkpt lat="40.8446083" lon="14.2299133"><ele>190.0</ele><time>2026-04-23T11:33:20.78Z</time></trkpt><trkpt lat="40.8446133" lon="14.2300133"><ele>190.0</ele><time>2026-04-23T11:33:22.78Z</time></trkpt><trkpt lat="40.844625" lon="14.2301167"><ele>190.0</ele><time>2026-04-23T11:33:24.78Z</time></trkpt><trkpt lat="40.844645" lon="14.2302167"><ele>190.0</ele><time>2026-04-23T11:33:26.781Z</time></trkpt><trkpt lat="40.84466" lon="14.23033"><ele>190.0</ele><time>2026-04-23T11:33:28.78Z</time></trkpt><trkpt lat="40.8446783" lon="14.2304417"><ele>190.0</ele><time>2026-04-23T11:33:30.78Z</time></trkpt><trkpt lat="40.8446833" lon="14.2305567"><ele>190.0</ele><time>2026-04-23T11:33:32.779Z</time></trkpt><trkpt lat="40.8446917" lon="14.2306683"><ele>190.0</ele><time>2026-04-23T11:33:34.78Z</time></trkpt><trkpt lat="40.8447133" lon="14.23078"><ele>190.0</ele><time>2026-04-23T11:33:36.781Z</time></trkpt><trkpt lat="40.8447383" lon="14.2308917"><ele>190.0</ele><time>2026-04-23T11:33:38.779Z</time></trkpt><trkpt lat="40.8447683" lon="14.2310067"><ele>191.0</ele><time>2026-04-23T11:33:40.78Z</time></trkpt><trkpt lat="40.8447817" lon="14.231115"><ele>192.0</ele><time>2026-04-23T11:33:42.778Z</time></trkpt><trkpt lat="40.8447933" lon="14.231215"><ele>193.0</ele><time>2026-04-23T11:33:44.78Z</time></trkpt><trkpt lat="40.8447967" lon="14.2313033"><ele>194.0</ele><time>2026-04-23T11:33:46.78Z</time></trkpt><trkpt lat="40.84482" lon="14.231415"><ele>194.99999999999997</ele><time>2026-04-23T11:33:49.779Z</time></trkpt><trkpt lat="40.8448317" lon="14.231505"><ele>196.0</ele><time>2026-04-23T11:33:53.781Z</time></trkpt><trkpt lat="40.8448283" lon="14.2316067"><ele>197.33333333333331</ele><time>2026-04-23T11:33:59.78Z</time></trkpt><trkpt lat="40.8448133" lon="14.2317167"><ele>198.66666666666666</ele><time>2026-04-23T11:34:02.779Z</time></trkpt><trkpt lat="40.8448117" lon="14.2318233"><ele>200.0</ele><time>2026-04-23T11:34:05.779Z</time></trkpt><trkpt lat="40.8448283" lon="14.2319367"><ele>201.33333333333331</ele><time>2026-04-23T11:34:08.779Z</time></trkpt><trkpt lat="40.84486" lon="14.2320433"><ele>202.66666666666666</ele><time>2026-04-23T11:34:11.779Z</time></trkpt><trkpt lat="40.844875" lon="14.2321617"><ele>204.0</ele><time>2026-04-23T11:34:14.779Z</time></trkpt><trkpt lat="40.84489" lon="14.2322783"><ele>205.16666666666666</ele><time>2026-04-23T11:34:17.779Z</time></trkpt><trkpt lat="40.8449017" lon="14.232395"><ele>206.33333333333331</ele><time>2026-04-23T11:34:20.778Z</time></trkpt><trkpt lat="40.8448983" lon="14.2324783"><ele>207.5</ele><time>2026-04-23T11:34:23.779Z</time></trkpt><trkpt lat="40.8448083" lon="14.2325217"><ele>208.66666666666666</ele><time>2026-04-23T11:34:30.78Z</time></trkpt><trkpt lat="40.8447033" lon="14.2325383"><ele>209.83333333333331</ele><time>2026-04-23T11:34:40.78Z</time></trkpt><trkpt lat="40.844635" lon="14.23256"><ele>211.0</ele><time>2026-04-23T11:34:43.781Z</time></trkpt><trkpt lat="40.8445567" lon="14.2325733"><ele>210.99999999999997</ele><time>2026-04-23T11:34:46.779Z</time></trkpt><trkpt lat="40.844485" lon="14.2326117"><ele>211.0</ele><time>2026-04-23T11:34:55.78Z</time></trkpt><trkpt lat="40.8444517" lon="14.2326883"><ele>211.0</ele><time>2026-04-23T11:34:58.779Z</time></trkpt><trkpt lat="40.8444" lon="14.2327517"><ele>211.0</ele><time>2026-04-23T11:35:01.78Z</time></trkpt><trkpt lat="40.8443483" lon="14.23281"><ele>210.99999999999997</ele><time>2026-04-23T11:35:04.778Z</time></trkpt><trkpt lat="40.844275" lon="14.2328"><ele>211.0</ele><time>2026-04-23T11:35:07.779Z</time></trkpt><trkpt lat="40.844175" lon="14.2328217"><ele>211.28571428571428</ele><time>2026-04-23T11:35:10.78Z</time></trkpt><trkpt lat="40.8441167" lon="14.2328583"><ele>211.57142857142858</ele><time>2026-04-23T11:35:12.779Z</time></trkpt><trkpt lat="40.844095" lon="14.232975"><ele>211.85714285714283</ele><time>2026-04-23T11:35:15.779Z</time></trkpt><trkpt lat="40.8440883" lon="14.2330633"><ele>212.14285714285714</ele><time>2026-04-23T11:35:17.779Z</time></trkpt><trkpt lat="40.8440883" lon="14.2331617"><ele>212.42857142857142</ele><time>2026-04-23T11:35:19.779Z</time></trkpt><trkpt lat="40.8440983" lon="14.2332617"><ele>212.7142857142857</ele><time>2026-04-23T11:35:21.778Z</time></trkpt><trkpt lat="40.844105" lon="14.2333517"><ele>213.0</ele><time>2026-04-23T11:35:23.779Z</time></trkpt><trkpt lat="40.844115" lon="14.23345"><ele>213.83333333333334</ele><time>2026-04-23T11:35:25.778Z</time></trkpt><trkpt lat="40.8441267" lon="14.2335483"><ele>214.66666666666669</ele><time>2026-04-23T11:35:27.779Z</time></trkpt><trkpt lat="40.8441233" lon="14.233645"><ele>215.5</ele><time>2026-04-23T11:35:29.78Z</time></trkpt><trkpt lat="40.8440667" lon="14.2337217"><ele>216.33333333333334</ele><time>2026-04-23T11:35:31.78Z</time></trkpt><trkpt lat="40.843995" lon="14.2337633"><ele>217.16666666666669</ele><time>2026-04-23T11:35:33.779Z</time></trkpt><trkpt lat="40.8439133" lon="14.2337917"><ele>218.0</ele><time>2026-04-23T11:35:35.779Z</time></trkpt><trkpt lat="40.8438367" lon="14.2338183"><ele>218.0</ele><time>2026-04-23T11:35:37.78Z</time></trkpt><trkpt lat="40.843745" lon="14.23381"><ele>218.0</ele><time>2026-04-23T11:35:39.781Z</time></trkpt><trkpt lat="40.8436383" lon="14.2338117"><ele>218.0</ele><time>2026-04-23T11:35:41.78Z</time></trkpt><trkpt lat="40.8435433" lon="14.2338217"><ele>218.0</ele><time>2026-04-23T11:35:43.78Z</time></trkpt><trkpt lat="40.8434617" lon="14.2338217"><ele>218.0</ele><time>2026-04-23T11:35:45.779Z</time></trkpt><trkpt lat="40.84338" lon="14.2338233"><ele>217.33333333333334</ele><time>2026-04-23T11:35:47.78Z</time></trkpt><trkpt lat="40.8432967" lon="14.2338183"><ele>216.66666666666669</ele><time>2026-04-23T11:35:49.782Z</time></trkpt><trkpt lat="40.8432067" lon="14.2338317"><ele>216.0</ele><time>2026-04-23T11:35:51.78Z</time></trkpt><trkpt lat="40.8431183" lon="14.2338583"><ele>215.33333333333331</ele><time>2026-04-23T11:35:53.781Z</time></trkpt><trkpt lat="40.8430333" lon="14.233865"><ele>214.66666666666666</ele><time>2026-04-23T11:35:55.78Z</time></trkpt><trkpt lat="40.842955" lon="14.233915"><ele>214.0</ele><time>2026-04-23T11:35:57.779Z</time></trkpt><trkpt lat="40.842925" lon="14.2340167"><ele>213.83333333333331</ele><time>2026-04-23T11:35:59.78Z</time></trkpt><trkpt lat="40.8429183" lon="14.2341217"><ele>213.66666666666666</ele><time>2026-04-23T11:36:01.781Z</time></trkpt><trkpt lat="40.84292" lon="14.2342217"><ele>213.5</ele><time>2026-04-23T11:36:03.78Z</time></trkpt><trkpt lat="40.8429283" lon="14.2343283"><ele>213.33333333333331</ele><time>2026-04-23T11:36:05.78Z</time></trkpt><trkpt lat="40.8429367" lon="14.234425"><ele>213.16666666666666</ele><time>2026-04-23T11:36:07.78Z</time></trkpt><trkpt lat="40.84294" lon="14.23451"><ele>213.0</ele><time>2026-04-23T11:36:09.779Z</time></trkpt><trkpt lat="40.8429417" lon="14.2346167"><ele>213.0</ele><time>2026-04-23T11:36:12.78Z</time></trkpt><trkpt lat="40.842945" lon="14.2347333"><ele>213.0</ele><time>2026-04-23T11:36:16.78Z</time></trkpt><trkpt lat="40.842955" lon="14.2348367"><ele>213.0</ele><time>2026-04-23T11:36:19.78Z</time></trkpt><trkpt lat="40.8429617" lon="14.23493"><ele>213.0</ele><time>2026-04-23T11:36:22.779Z</time></trkpt><trkpt lat="40.8429667" lon="14.23503"><ele>213.0</ele><time>2026-04-23T11:36:25.78Z</time></trkpt><trkpt lat="40.8429733" lon="14.2351283"><ele>213.0</ele><time>2026-04-23T11:36:28.779Z</time></trkpt><trkpt lat="40.8429767" lon="14.2352317"><ele>213.85714285714283</ele><time>2026-04-23T11:36:31.78Z</time></trkpt><trkpt lat="40.8430033" lon="14.2353133"><ele>214.71428571428572</ele><time>2026-04-23T11:36:34.779Z</time></trkpt><trkpt lat="40.8430767" lon="14.2353467"><ele>215.57142857142856</ele><time>2026-04-23T11:36:37.781Z</time></trkpt><trkpt lat="40.8431433" lon="14.235325"><ele>216.42857142857142</ele><time>2026-04-23T11:36:40.777Z</time></trkpt><trkpt lat="40.8432117" lon="14.2353367"><ele>217.28571428571428</ele><time>2026-04-23T11:36:45.781Z</time></trkpt><trkpt lat="40.84328" lon="14.2353133"><ele>218.14285714285714</ele><time>2026-04-23T11:36:49.78Z</time></trkpt><trkpt lat="40.8433533" lon="14.2353517"><ele>219.0</ele><time>2026-04-23T11:36:52.778Z</time></trkpt><trkpt lat="40.8434067" lon="14.2353967"><ele>219.0</ele><time>2026-04-23T11:36:55.78Z</time></trkpt><trkpt lat="40.8434617" lon="14.2354517"><ele>219.0</ele><time>2026-04-23T11:36:57.78Z</time></trkpt><trkpt lat="40.8435167" lon="14.2355333"><ele>219.0</ele><time>2026-04-23T11:37:00.78Z</time></trkpt><trkpt lat="40.8435217" lon="14.2356283"><ele>219.0</ele><time>2026-04-23T11:37:04.779Z</time></trkpt><trkpt lat="40.8434733" lon="14.235685"><ele>219.0</ele><time>2026-04-23T11:37:06.78Z</time></trkpt><trkpt lat="40.8434033" lon="14.2357383"><ele>219.0</ele><time>2026-04-23T11:37:08.78Z</time></trkpt><trkpt lat="40.8433267" lon="14.2357833"><ele>220.14285714285717</ele><time>2026-04-23T11:37:10.779Z</time></trkpt><trkpt lat="40.84326" lon="14.23584"><ele>221.28571428571428</ele><time>2026-04-23T11:37:12.78Z</time></trkpt><trkpt lat="40.8432117" lon="14.2359317"><ele>222.42857142857144</ele><time>2026-04-23T11:37:15.78Z</time></trkpt><trkpt lat="40.8432183" lon="14.2360167"><ele>223.57142857142858</ele><time>2026-04-23T11:37:17.778Z</time></trkpt><trkpt lat="40.843245" lon="14.2360967"><ele>224.71428571428572</ele><time>2026-04-23T11:37:19.78Z</time></trkpt><trkpt lat="40.8432867" lon="14.2361683"><ele>225.85714285714286</ele><time>2026-04-23T11:37:21.78Z</time></trkpt><trkpt lat="40.843345" lon="14.2362467"><ele>227.0</ele><time>2026-04-23T11:37:23.78Z</time></trkpt><trkpt lat="40.8433817" lon="14.2363217"><ele>227.00000000000003</ele><time>2026-04-23T11:37:25.779Z</time></trkpt><trkpt lat="40.8434217" lon="14.2363933"><ele>227.0</ele><time>2026-04-23T11:37:27.78Z</time></trkpt><trkpt lat="40.8434583" lon="14.2364633"><ele>227.0</ele><time>2026-04-23T11:37:29.779Z</time></trkpt><trkpt lat="40.8434967" lon="14.236535"><ele>227.0</ele><time>2026-04-23T11:37:31.781Z</time></trkpt><trkpt lat="40.8435383" lon="14.23663"><ele>227.00000000000003</ele><time>2026-04-23T11:37:34.78Z</time></trkpt><trkpt lat="40.8435433" lon="14.236755"><ele>227.0</ele><time>2026-04-23T11:37:37.781Z</time></trkpt><trkpt lat="40.8435767" lon="14.2368567"><ele>227.66666666666669</ele><time>2026-04-23T11:37:40.78Z</time></trkpt><trkpt lat="40.8436317" lon="14.236945"><ele>228.33333333333334</ele><time>2026-04-23T11:37:43.78Z</time></trkpt><trkpt lat="40.843685" lon="14.2369933"><ele>229.0</ele><time>2026-04-23T11:37:45.78Z</time></trkpt><trkpt lat="40.843745" lon="14.2370417"><ele>229.66666666666669</ele><time>2026-04-23T11:37:48.78Z</time></trkpt><trkpt lat="40.84381" lon="14.2370617"><ele>230.33333333333334</ele><time>2026-04-23T11:37:51.78Z</time></trkpt><trkpt lat="40.843895" lon="14.237075"><ele>231.0</ele><time>2026-04-23T11:37:55.779Z</time></trkpt><trkpt lat="40.8439833" lon="14.2370817"><ele>231.0</ele><time>2026-04-23T11:37:58.78Z</time></trkpt><trkpt lat="40.8440633" lon="14.23708"><ele>231.0</ele><time>2026-04-23T11:38:01.779Z</time></trkpt><trkpt lat="40.84414" lon="14.2371017"><ele>231.0</ele><time>2026-04-23T11:38:04.779Z</time></trkpt><trkpt lat="40.8442017" lon="14.237155"><ele>231.0</ele><time>2026-04-23T11:38:06.779Z</time></trkpt><trkpt lat="40.8442617" lon="14.23722"><ele>231.0</ele><time>2026-04-23T11:38:08.779Z</time></trkpt><trkpt lat="40.8443133" lon="14.2372983"><ele>231.0</ele><time>2026-04-23T11:38:10.78Z</time></trkpt><trkpt lat="40.84436" lon="14.237375"><ele>231.66666666666666</ele><time>2026-04-23T11:38:12.779Z</time></trkpt><trkpt lat="40.8444083" lon="14.23744"><ele>232.33333333333331</ele><time>2026-04-23T11:38:14.778Z</time></trkpt><trkpt lat="40.8444617" lon="14.2375117"><ele>233.0</ele><time>2026-04-23T11:38:16.776Z</time></trkpt><trkpt lat="40.844535" lon="14.23759"><ele>233.66666666666666</ele><time>2026-04-23T11:38:19.78Z</time></trkpt><trkpt lat="40.8445933" lon="14.2376617"><ele>234.33333333333331</ele><time>2026-04-23T11:38:21.776Z</time></trkpt><trkpt lat="40.84465" lon="14.237745"><ele>235.0</ele><time>2026-04-23T11:38:23.779Z</time></trkpt><trkpt lat="40.8447083" lon="14.2378083"><ele>235.0</ele><time>2026-04-23T11:38:25.781Z</time></trkpt><trkpt lat="40.8447817" lon="14.2378733"><ele>235.0</ele><time>2026-04-23T11:38:27.778Z</time></trkpt><trkpt lat="40.84487" lon="14.23795"><ele>235.0</ele><time>2026-04-23T11:38:29.779Z</time></trkpt><trkpt lat="40.844955" lon="14.2380217"><ele>235.0</ele><time>2026-04-23T11:38:31.78Z</time></trkpt><trkpt lat="40.845015" lon="14.2380983"><ele>235.0</ele><time>2026-04-23T11:38:33.779Z</time></trkpt><trkpt lat="40.8450833" lon="14.2381817"><ele>235.0</ele><time>2026-04-23T11:38:35.778Z</time></trkpt><trkpt lat="40.8451567" lon="14.23827"><ele>235.0</ele><time>2026-04-23T11:38:37.779Z</time></trkpt><trkpt lat="40.8451917" lon="14.2383867"><ele>235.0</ele><time>2026-04-23T11:38:39.776Z</time></trkpt><trkpt lat="40.84516" lon="14.2385167"><ele>235.0</ele><time>2026-04-23T11:38:41.777Z</time></trkpt><trkpt lat="40.8451133" lon="14.2386617"><ele>235.0</ele><time>2026-04-23T11:38:43.779Z</time></trkpt><trkpt lat="40.845085" lon="14.238745"><ele>234.99999999999997</ele><time>2026-04-23T11:38:44.78Z</time></trkpt><trkpt lat="40.845055" lon="14.2388333"><ele>235.0</ele><time>2026-04-23T11:38:45.78Z</time></trkpt><trkpt lat="40.8450167" lon="14.238925"><ele>235.0</ele><time>2026-04-23T11:38:46.778Z</time></trkpt><trkpt lat="40.8449733" lon="14.2390183"><ele>235.0</ele><time>2026-04-23T11:38:47.779Z</time></trkpt><trkpt lat="40.84493" lon="14.2391117"><ele>234.99999999999997</ele><time>2026-04-23T11:38:48.778Z</time></trkpt><trkpt lat="40.8448817" lon="14.2392083"><ele>235.0</ele><time>2026-04-23T11:38:49.779Z</time></trkpt><trkpt lat="40.844835" lon="14.2393083"><ele>232.83333333333331</ele><time>2026-04-23T11:38:50.779Z</time></trkpt><trkpt lat="40.844785" lon="14.2394117"><ele>230.66666666666666</ele><time>2026-04-23T11:38:51.78Z</time></trkpt><trkpt lat="40.8447333" lon="14.2395083"><ele>228.5</ele><time>2026-04-23T11:38:52.779Z</time></trkpt><trkpt lat="40.8446817" lon="14.23959"><ele>226.33333333333331</ele><time>2026-04-23T11:38:53.779Z</time></trkpt><trkpt lat="40.84464" lon="14.2396533"><ele>224.16666666666666</ele><time>2026-04-23T11:38:54.778Z</time></trkpt><trkpt lat="40.8445667" lon="14.2397533"><ele>222.0</ele><time>2026-04-23T11:38:56.779Z</time></trkpt><trkpt lat="40.8445183" lon="14.2398283"><ele>219.33333333333334</ele><time>2026-04-23T11:38:58.778Z</time></trkpt><trkpt lat="40.844485" lon="14.2399217"><ele>216.66666666666669</ele><time>2026-04-23T11:39:01.778Z</time></trkpt><trkpt lat="40.8444667" lon="14.240005"><ele>214.0</ele><time>2026-04-23T11:39:04.778Z</time></trkpt><trkpt lat="40.8444467" lon="14.2400967"><ele>211.33333333333334</ele><time>2026-04-23T11:39:08.779Z</time></trkpt><trkpt lat="40.844405" lon="14.2401633"><ele>208.66666666666669</ele><time>2026-04-23T11:39:26.778Z</time></trkpt><trkpt lat="40.8443467" lon="14.240265"><ele>206.0</ele><time>2026-04-23T11:39:29.778Z</time></trkpt><trkpt lat="40.8443017" lon="14.2403417"><ele>205.66666666666669</ele><time>2026-04-23T11:39:31.78Z</time></trkpt><trkpt lat="40.8442433" lon="14.24042"><ele>205.33333333333334</ele><time>2026-04-23T11:39:34.779Z</time></trkpt><trkpt lat="40.844185" lon="14.240515"><ele>205.0</ele><time>2026-04-23T11:39:37.778Z</time></trkpt><trkpt lat="40.8441517" lon="14.2406167"><ele>204.66666666666669</ele><time>2026-04-23T11:39:40.777Z</time></trkpt><trkpt lat="40.8440967" lon="14.2407017"><ele>204.33333333333334</ele><time>2026-04-23T11:39:43.779Z</time></trkpt><trkpt lat="40.8440233" lon="14.2407617"><ele>204.0</ele><time>2026-04-23T11:39:46.777Z</time></trkpt><trkpt lat="40.8439567" lon="14.2408383"><ele>204.0</ele><time>2026-04-23T11:39:49.778Z</time></trkpt><trkpt lat="40.84393" lon="14.2409517"><ele>204.0</ele><time>2026-04-23T11:39:52.778Z</time></trkpt><trkpt lat="40.843975" lon="14.2410433"><ele>204.0</ele><time>2026-04-23T11:39:55.779Z</time></trkpt><trkpt lat="40.844035" lon="14.2410117"><ele>204.0</ele><time>2026-04-23T11:39:59.777Z</time></trkpt><trkpt lat="40.8439683" lon="14.2409217"><ele>204.0</ele><time>2026-04-23T11:41:45.777Z</time></trkpt><trkpt lat="40.8440033" lon="14.2408233"><ele>204.0</ele><time>2026-04-23T11:41:48.776Z</time></trkpt><trkpt lat="40.844045" lon="14.24073"><ele>204.33333333333334</ele><time>2026-04-23T11:41:51.778Z</time></trkpt><trkpt lat="40.844075" lon="14.2406283"><ele>204.66666666666669</ele><time>2026-04-23T11:41:54.776Z</time></trkpt><trkpt lat="40.84412" lon="14.2405033"><ele>205.0</ele><time>2026-04-23T11:41:57.777Z</time></trkpt><trkpt lat="40.8441683" lon="14.2404383"><ele>205.33333333333334</ele><time>2026-04-23T11:41:59.777Z</time></trkpt><trkpt lat="40.84423" lon="14.2403583"><ele>205.66666666666669</ele><time>2026-04-23T11:42:02.776Z</time></trkpt><trkpt lat="40.84427" lon="14.2402733"><ele>206.0</ele><time>2026-04-23T11:42:05.776Z</time></trkpt><trkpt lat="40.8443267" lon="14.240195"><ele>205.99999999999997</ele><time>2026-04-23T11:42:09.776Z</time></trkpt><trkpt lat="40.8443733" lon="14.240115"><ele>206.0</ele><time>2026-04-23T11:42:13.778Z</time></trkpt><trkpt lat="40.8444067" lon="14.2400417"><ele>206.0</ele><time>2026-04-23T11:42:16.776Z</time></trkpt><trkpt lat="40.8444467" lon="14.239965"><ele>206.0</ele><time>2026-04-23T11:42:19.776Z</time></trkpt><trkpt lat="40.844475" lon="14.2398733"><ele>206.0</ele><time>2026-04-23T11:42:22.777Z</time></trkpt><trkpt lat="40.8445067" lon="14.23978"><ele>205.99999999999997</ele><time>2026-04-23T11:42:25.776Z</time></trkpt><trkpt lat="40.84456" lon="14.2396917"><ele>206.0</ele><time>2026-04-23T11:42:28.776Z</time></trkpt><trkpt lat="40.8446217" lon="14.2395967"><ele>208.66666666666669</ele><time>2026-04-23T11:42:31.778Z</time></trkpt><trkpt lat="40.84467" lon="14.2395133"><ele>211.33333333333334</ele><time>2026-04-23T11:42:34.777Z</time></trkpt><trkpt lat="40.8447183" lon="14.2394383"><ele>214.0</ele><time>2026-04-23T11:42:37.779Z</time></trkpt><trkpt lat="40.8447683" lon="14.2393533"><ele>216.66666666666669</ele><time>2026-04-23T11:42:41.777Z</time></trkpt><trkpt lat="40.84481" lon="14.2392767"><ele>219.33333333333334</ele><time>2026-04-23T11:42:44.777Z</time></trkpt><trkpt lat="40.8448633" lon="14.2391983"><ele>222.0</ele><time>2026-04-23T11:42:47.777Z</time></trkpt><trkpt lat="40.8449067" lon="14.239125"><ele>222.0</ele><time>2026-04-23T11:42:50.777Z</time></trkpt><trkpt lat="40.8449433" lon="14.2390417"><ele>222.0</ele><time>2026-04-23T11:42:53.777Z</time></trkpt><trkpt lat="40.8449733" lon="14.23895"><ele>222.0</ele><time>2026-04-23T11:42:56.777Z</time></trkpt><trkpt lat="40.8450083" lon="14.2388567"><ele>222.0</ele><time>2026-04-23T11:42:59.776Z</time></trkpt><trkpt lat="40.8450433" lon="14.238755"><ele>222.0</ele><time>2026-04-23T11:43:02.777Z</time></trkpt><trkpt lat="40.84507" lon="14.238655"><ele>222.0</ele><time>2026-04-23T11:43:05.777Z</time></trkpt><trkpt lat="40.8450983" lon="14.23855"><ele>221.83333333333334</ele><time>2026-04-23T11:43:08.776Z</time></trkpt><trkpt lat="40.8451267" lon="14.23845"><ele>221.66666666666669</ele><time>2026-04-23T11:43:11.777Z</time></trkpt><trkpt lat="40.8451633" lon="14.23834"><ele>221.5</ele><time>2026-04-23T11:43:14.777Z</time></trkpt><trkpt lat="40.84519" lon="14.2382567"><ele>221.33333333333334</ele><time>2026-04-23T11:43:16.777Z</time></trkpt><trkpt lat="40.845225" lon="14.2381683"><ele>221.16666666666669</ele><time>2026-04-23T11:43:18.777Z</time></trkpt><trkpt lat="40.8452667" lon="14.2380833"><ele>221.0</ele><time>2026-04-23T11:43:20.776Z</time></trkpt><trkpt lat="40.84532" lon="14.237985"><ele>222.50000000000003</ele><time>2026-04-23T11:43:22.776Z</time></trkpt><trkpt lat="40.8453567" lon="14.237875"><ele>224.0</ele><time>2026-04-23T11:43:24.779Z</time></trkpt><trkpt lat="40.8453983" lon="14.2377833"><ele>225.5</ele><time>2026-04-23T11:43:26.778Z</time></trkpt><trkpt lat="40.84544" lon="14.237705"><ele>227.0</ele><time>2026-04-23T11:43:28.776Z</time></trkpt><trkpt lat="40.84549" lon="14.2376317"><ele>228.50000000000003</ele><time>2026-04-23T11:43:30.777Z</time></trkpt><trkpt lat="40.8455333" lon="14.2375617"><ele>230.0</ele><time>2026-04-23T11:43:32.786Z</time></trkpt><trkpt lat="40.845585" lon="14.2375083"><ele>229.99999999999997</ele><time>2026-04-23T11:43:34.776Z</time></trkpt><trkpt lat="40.8456433" lon="14.23746"><ele>230.0</ele><time>2026-04-23T11:43:36.777Z</time></trkpt><trkpt lat="40.8457017" lon="14.23737"><ele>229.99999999999997</ele><time>2026-04-23T11:43:39.777Z</time></trkpt><trkpt lat="40.845735" lon="14.2372983"><ele>229.99999999999997</ele><time>2026-04-23T11:43:41.778Z</time></trkpt><trkpt lat="40.8457667" lon="14.2372233"><ele>230.0</ele><time>2026-04-23T11:43:43.777Z</time></trkpt><trkpt lat="40.8458" lon="14.23715"><ele>229.99999999999997</ele><time>2026-04-23T11:43:45.776Z</time></trkpt><trkpt lat="40.8458283" lon="14.237075"><ele>229.99999999999997</ele><time>2026-04-23T11:43:47.777Z</time></trkpt><trkpt lat="40.845855" lon="14.2369967"><ele>229.83333333333334</ele><time>2026-04-23T11:43:49.777Z</time></trkpt><trkpt lat="40.8458883" lon="14.236915"><ele>229.66666666666669</ele><time>2026-04-23T11:43:51.777Z</time></trkpt><trkpt lat="40.8459283" lon="14.2368033"><ele>229.5</ele><time>2026-04-23T11:43:54.778Z</time></trkpt><trkpt lat="40.8459633" lon="14.23673"><ele>229.33333333333331</ele><time>2026-04-23T11:43:56.776Z</time></trkpt><trkpt lat="40.8459917" lon="14.2366367"><ele>229.16666666666666</ele><time>2026-04-23T11:43:58.782Z</time></trkpt><trkpt lat="40.84606" lon="14.2365467"><ele>229.0</ele><time>2026-04-23T11:44:00.779Z</time></trkpt><trkpt lat="40.8461467" lon="14.236435"><ele>226.33333333333331</ele><time>2026-04-23T11:44:02.776Z</time></trkpt><trkpt lat="40.8462233" lon="14.2363433"><ele>223.66666666666666</ele><time>2026-04-23T11:44:04.776Z</time></trkpt><trkpt lat="40.8462767" lon="14.2362883"><ele>221.0</ele><time>2026-04-23T11:44:06.777Z</time></trkpt><trkpt lat="40.84634" lon="14.2362117"><ele>218.33333333333331</ele><time>2026-04-23T11:44:09.777Z</time></trkpt><trkpt lat="40.846325" lon="14.2363117"><ele>215.66666666666666</ele><time>2026-04-23T11:44:23.777Z</time></trkpt><trkpt lat="40.8463017" lon="14.23639"><ele>213.0</ele><time>2026-04-23T11:44:26.777Z</time></trkpt><trkpt lat="40.8462483" lon="14.2364567"><ele>214.0</ele><time>2026-04-23T11:44:30.776Z</time></trkpt><trkpt lat="40.8462083" lon="14.23656"><ele>215.0</ele><time>2026-04-23T11:44:34.777Z</time></trkpt><trkpt lat="40.8461817" lon="14.2366417"><ele>216.0</ele><time>2026-04-23T11:44:37.777Z</time></trkpt><trkpt lat="40.8461217" lon="14.23661"><ele>217.0</ele><time>2026-04-23T11:44:40.777Z</time></trkpt><trkpt lat="40.846045" lon="14.236565"><ele>218.0</ele><time>2026-04-23T11:44:42.778Z</time></trkpt><trkpt lat="40.84595" lon="14.236525"><ele>219.0</ele><time>2026-04-23T11:44:44.777Z</time></trkpt><trkpt lat="40.845875" lon="14.2364667"><ele>219.79999999999998</ele><time>2026-04-23T11:44:46.777Z</time></trkpt><trkpt lat="40.8457833" lon="14.2364217"><ele>220.59999999999997</ele><time>2026-04-23T11:44:48.779Z</time></trkpt><trkpt lat="40.8457117" lon="14.23636"><ele>221.4</ele><time>2026-04-23T11:44:50.776Z</time></trkpt><trkpt lat="40.8456367" lon="14.23631"><ele>222.2</ele><time>2026-04-23T11:44:52.777Z</time></trkpt><trkpt lat="40.8455583" lon="14.2362483"><ele>223.0</ele><time>2026-04-23T11:44:54.777Z</time></trkpt><trkpt lat="40.8454583" lon="14.2361933"><ele>223.0</ele><time>2026-04-23T11:44:56.778Z</time></trkpt><trkpt lat="40.84536" lon="14.2361383"><ele>223.0</ele><time>2026-04-23T11:44:58.777Z</time></trkpt><trkpt lat="40.8452717" lon="14.236065"><ele>223.0</ele><time>2026-04-23T11:45:00.777Z</time></trkpt><trkpt lat="40.8451933" lon="14.2359867"><ele>223.0</ele><time>2026-04-23T11:45:02.779Z</time></trkpt><trkpt lat="40.84511" lon="14.2359233"><ele>223.0</ele><time>2026-04-23T11:45:04.777Z</time></trkpt><trkpt lat="40.845035" lon="14.2358483"><ele>223.66666666666666</ele><time>2026-04-23T11:45:06.776Z</time></trkpt><trkpt lat="40.8449917" lon="14.2357533"><ele>224.33333333333331</ele><time>2026-04-23T11:45:08.777Z</time></trkpt><trkpt lat="40.84493" lon="14.2357017"><ele>225.0</ele><time>2026-04-23T11:45:10.776Z</time></trkpt><trkpt lat="40.8448533" lon="14.235675"><ele>225.66666666666669</ele><time>2026-04-23T11:45:12.783Z</time></trkpt><trkpt lat="40.8447617" lon="14.2356383"><ele>226.33333333333334</ele><time>2026-04-23T11:45:14.78Z</time></trkpt><trkpt lat="40.8446717" lon="14.2356283"><ele>227.0</ele><time>2026-04-23T11:45:16.777Z</time></trkpt><trkpt lat="40.8445683" lon="14.2356067"><ele>227.00000000000003</ele><time>2026-04-23T11:45:18.778Z</time></trkpt><trkpt lat="40.8445033" lon="14.235615"><ele>227.0</ele><time>2026-04-23T11:45:19.778Z</time></trkpt><trkpt lat="40.8443983" lon="14.235635"><ele>227.0</ele><time>2026-04-23T11:45:21.778Z</time></trkpt><trkpt lat="40.84432" lon="14.23568"><ele>227.0</ele><time>2026-04-23T11:45:23.777Z</time></trkpt><trkpt lat="40.8442133" lon="14.2356983"><ele>227.00000000000003</ele><time>2026-04-23T11:45:25.777Z</time></trkpt><trkpt lat="40.844135" lon="14.2357167"><ele>227.0</ele><time>2026-04-23T11:45:27.778Z</time></trkpt><trkpt lat="40.8440667" lon="14.23574"><ele>227.50000000000003</ele><time>2026-04-23T11:45:30.777Z</time></trkpt><trkpt lat="40.843985" lon="14.23578"><ele>228.0</ele><time>2026-04-23T11:45:34.777Z</time></trkpt><trkpt lat="40.8439133" lon="14.2357933"><ele>228.5</ele><time>2026-04-23T11:45:38.778Z</time></trkpt><trkpt lat="40.8438383" lon="14.2357817"><ele>229.0</ele><time>2026-04-23T11:45:41.777Z</time></trkpt><trkpt lat="40.8437567" lon="14.235805"><ele>229.50000000000003</ele><time>2026-04-23T11:45:44.776Z</time></trkpt><trkpt lat="40.8436683" lon="14.2357783"><ele>230.0</ele><time>2026-04-23T11:45:46.777Z</time></trkpt><trkpt lat="40.8435933" lon="14.2357067"><ele>228.6</ele><time>2026-04-23T11:45:48.777Z</time></trkpt><trkpt lat="40.8435067" lon="14.235605"><ele>227.2</ele><time>2026-04-23T11:45:50.776Z</time></trkpt><trkpt lat="40.84344" lon="14.2354933"><ele>225.8</ele><time>2026-04-23T11:45:52.777Z</time></trkpt><trkpt lat="40.8434017" lon="14.2353767"><ele>224.4</ele><time>2026-04-23T11:45:54.777Z</time></trkpt><trkpt lat="40.8434117" lon="14.2352283"><ele>223.0</ele><time>2026-04-23T11:45:56.778Z</time></trkpt><trkpt lat="40.8434433" lon="14.2351417"><ele>222.99999999999997</ele><time>2026-04-23T11:45:57.778Z</time></trkpt><trkpt lat="40.8435017" lon="14.2350583"><ele>223.0</ele><time>2026-04-23T11:45:58.777Z</time></trkpt><trkpt lat="40.8435683" lon="14.2349817"><ele>223.0</ele><time>2026-04-23T11:45:59.78Z</time></trkpt><trkpt lat="40.8436333" lon="14.2349067"><ele>223.0</ele><time>2026-04-23T11:46:00.779Z</time></trkpt><trkpt lat="40.843715" lon="14.2348617"><ele>222.99999999999997</ele><time>2026-04-23T11:46:01.778Z</time></trkpt><trkpt lat="40.843775" lon="14.2348133"><ele>223.0</ele><time>2026-04-23T11:46:02.778Z</time></trkpt><trkpt lat="40.8438433" lon="14.234775"><ele>222.66666666666666</ele><time>2026-04-23T11:46:03.777Z</time></trkpt><trkpt lat="40.8439117" lon="14.2347617"><ele>222.33333333333331</ele><time>2026-04-23T11:46:04.778Z</time></trkpt><trkpt lat="40.8440017" lon="14.2347583"><ele>222.0</ele><time>2026-04-23T11:46:06.776Z</time></trkpt><trkpt lat="40.8440683" lon="14.2347583"><ele>221.66666666666669</ele><time>2026-04-23T11:46:08.775Z</time></trkpt><trkpt lat="40.8441533" lon="14.2347733"><ele>221.33333333333334</ele><time>2026-04-23T11:46:11.776Z</time></trkpt><trkpt lat="40.8442533" lon="14.2347983"><ele>221.0</ele><time>2026-04-23T11:46:14.776Z</time></trkpt><trkpt lat="40.84435" lon="14.2347867"><ele>221.0</ele><time>2026-04-23T11:46:16.777Z</time></trkpt><trkpt lat="40.8444483" lon="14.2347567"><ele>221.00000000000003</ele><time>2026-04-23T11:46:18.776Z</time></trkpt><trkpt lat="40.8445417" lon="14.2347"><ele>221.00000000000003</ele><time>2026-04-23T11:46:20.776Z</time></trkpt><trkpt lat="40.8446533" lon="14.2346383"><ele>221.0</ele><time>2026-04-23T11:46:22.778Z</time></trkpt><trkpt lat="40.84475" lon="14.2345583"><ele>221.0</ele><time>2026-04-23T11:46:24.776Z</time></trkpt><trkpt lat="40.844825" lon="14.2344583"><ele>221.0</ele><time>2026-04-23T11:46:26.775Z</time></trkpt><trkpt lat="40.844875" lon="14.2343417"><ele>221.00000000000003</ele><time>2026-04-23T11:46:28.775Z</time></trkpt><trkpt lat="40.8448917" lon="14.2341933"><ele>221.00000000000003</ele><time>2026-04-23T11:46:30.775Z</time></trkpt><trkpt lat="40.8449083" lon="14.2340617"><ele>221.0</ele><time>2026-04-23T11:46:32.775Z</time></trkpt><trkpt lat="40.844925" lon="14.2339567"><ele>221.0</ele><time>2026-04-23T11:46:34.775Z</time></trkpt><trkpt lat="40.8449283" lon="14.2338683"><ele>219.8</ele><time>2026-04-23T11:46:36.774Z</time></trkpt><trkpt lat="40.8448917" lon="14.2337767"><ele>218.60000000000002</ele><time>2026-04-23T11:46:38.775Z</time></trkpt><trkpt lat="40.8448167" lon="14.233685"><ele>217.4</ele><time>2026-04-23T11:46:40.776Z</time></trkpt><trkpt lat="40.8447283" lon="14.233645"><ele>216.2</ele><time>2026-04-23T11:46:42.775Z</time></trkpt><trkpt lat="40.8446233" lon="14.2336"><ele>215.0</ele><time>2026-04-23T11:46:44.776Z</time></trkpt><trkpt lat="40.8445183" lon="14.233605"><ele>215.00000000000003</ele><time>2026-04-23T11:46:46.774Z</time></trkpt><trkpt lat="40.8444417" lon="14.2336117"><ele>215.0</ele><time>2026-04-23T11:46:47.775Z</time></trkpt><trkpt lat="40.8443233" lon="14.2336417"><ele>215.0</ele><time>2026-04-23T11:46:49.776Z</time></trkpt><trkpt lat="40.844255" lon="14.23371"><ele>215.0</ele><time>2026-04-23T11:46:51.775Z</time></trkpt><trkpt lat="40.8441917" lon="14.233745"><ele>215.00000000000003</ele><time>2026-04-23T11:46:53.776Z</time></trkpt><trkpt lat="40.844115" lon="14.2337067"><ele>215.0</ele><time>2026-04-23T11:46:55.777Z</time></trkpt><trkpt lat="40.844035" lon="14.23361"><ele>214.66666666666669</ele><time>2026-04-23T11:46:57.777Z</time></trkpt><trkpt lat="40.844" lon="14.23344"><ele>214.33333333333334</ele><time>2026-04-23T11:46:59.776Z</time></trkpt><trkpt lat="40.8439683" lon="14.2333117"><ele>214.0</ele><time>2026-04-23T11:47:01.776Z</time></trkpt><trkpt lat="40.8439533" lon="14.2332267"><ele>213.66666666666669</ele><time>2026-04-23T11:47:02.775Z</time></trkpt><trkpt lat="40.8439417" lon="14.2331317"><ele>213.33333333333334</ele><time>2026-04-23T11:47:03.775Z</time></trkpt><trkpt lat="40.8439367" lon="14.23304"><ele>213.0</ele><time>2026-04-23T11:47:04.775Z</time></trkpt><trkpt lat="40.8439483" lon="14.2329483"><ele>213.0</ele><time>2026-04-23T11:47:05.776Z</time></trkpt><trkpt lat="40.84396" lon="14.2327967"><ele>213.0</ele><time>2026-04-23T11:47:07.775Z</time></trkpt><trkpt lat="40.84395" lon="14.2326617"><ele>213.0</ele><time>2026-04-23T11:47:09.776Z</time></trkpt><trkpt lat="40.8439367" lon="14.232535"><ele>213.0</ele><time>2026-04-23T11:47:11.775Z</time></trkpt><trkpt lat="40.8439433" lon="14.2323967"><ele>213.0</ele><time>2026-04-23T11:47:13.775Z</time></trkpt><trkpt lat="40.8439433" lon="14.23227"><ele>211.5</ele><time>2026-04-23T11:47:15.775Z</time></trkpt><trkpt lat="40.8439233" lon="14.2321683"><ele>210.0</ele><time>2026-04-23T11:47:18.775Z</time></trkpt><trkpt lat="40.8439333" lon="14.232055"><ele>208.5</ele><time>2026-04-23T11:47:22.775Z</time></trkpt><trkpt lat="40.843935" lon="14.2319633"><ele>207.0</ele><time>2026-04-23T11:47:24.775Z</time></trkpt><trkpt lat="40.8439417" lon="14.2318517"><ele>205.5</ele><time>2026-04-23T11:47:26.776Z</time></trkpt><trkpt lat="40.84394" lon="14.2317167"><ele>204.0</ele><time>2026-04-23T11:47:28.775Z</time></trkpt><trkpt lat="40.84389" lon="14.2316133"><ele>204.0</ele><time>2026-04-23T11:47:30.776Z</time></trkpt><trkpt lat="40.8438567" lon="14.2315"><ele>204.0</ele><time>2026-04-23T11:47:32.775Z</time></trkpt><trkpt lat="40.8438267" lon="14.2313933"><ele>204.0</ele><time>2026-04-23T11:47:34.775Z</time></trkpt><trkpt lat="40.843815" lon="14.2312717"><ele>204.0</ele><time>2026-04-23T11:47:36.777Z</time></trkpt><trkpt lat="40.8438183" lon="14.2311417"><ele>204.0</ele><time>2026-04-23T11:47:38.775Z</time></trkpt><trkpt lat="40.8438083" lon="14.2310267"><ele>203.33333333333334</ele><time>2026-04-23T11:47:40.775Z</time></trkpt><trkpt lat="40.8438033" lon="14.230925"><ele>202.66666666666669</ele><time>2026-04-23T11:47:42.775Z</time></trkpt><trkpt lat="40.8438033" lon="14.2308117"><ele>202.0</ele><time>2026-04-23T11:47:46.775Z</time></trkpt><trkpt lat="40.8437667" lon="14.230715"><ele>201.33333333333334</ele><time>2026-04-23T11:47:48.775Z</time></trkpt><trkpt lat="40.8437667" lon="14.2306183"><ele>200.66666666666669</ele><time>2026-04-23T11:47:50.775Z</time></trkpt><trkpt lat="40.843765" lon="14.2305167"><ele>200.0</ele><time>2026-04-23T11:47:52.778Z</time></trkpt><trkpt lat="40.8437467" lon="14.2304217"><ele>199.16666666666669</ele><time>2026-04-23T11:47:54.775Z</time></trkpt><trkpt lat="40.8437167" lon="14.2303117"><ele>198.33333333333334</ele><time>2026-04-23T11:47:56.775Z</time></trkpt><trkpt lat="40.843695" lon="14.23018"><ele>197.5</ele><time>2026-04-23T11:47:58.775Z</time></trkpt><trkpt lat="40.843675" lon="14.2300783"><ele>196.66666666666669</ele><time>2026-04-23T11:48:00.776Z</time></trkpt><trkpt lat="40.843645" lon="14.2299983"><ele>195.83333333333334</ele><time>2026-04-23T11:48:02.776Z</time></trkpt><trkpt lat="40.8436133" lon="14.2298817"><ele>195.0</ele><time>2026-04-23T11:48:04.775Z</time></trkpt><trkpt lat="40.8436067" lon="14.229755"><ele>194.33333333333334</ele><time>2026-04-23T11:48:06.776Z</time></trkpt><trkpt lat="40.8435917" lon="14.2296217"><ele>193.66666666666666</ele><time>2026-04-23T11:48:08.775Z</time></trkpt><trkpt lat="40.843595" lon="14.2295233"><ele>193.0</ele><time>2026-04-23T11:48:10.775Z</time></trkpt><trkpt lat="40.8436067" lon="14.2294367"><ele>192.33333333333331</ele><time>2026-04-23T11:48:12.775Z</time></trkpt><trkpt lat="40.8436317" lon="14.2293317"><ele>191.66666666666666</ele><time>2026-04-23T11:48:14.775Z</time></trkpt><trkpt lat="40.8436333" lon="14.2292217"><ele>191.0</ele><time>2026-04-23T11:48:16.775Z</time></trkpt><trkpt lat="40.8436517" lon="14.2291017"><ele>190.8</ele><time>2026-04-23T11:48:18.775Z</time></trkpt><trkpt lat="40.8436533" lon="14.2289567"><ele>190.60000000000002</ele><time>2026-04-23T11:48:20.776Z</time></trkpt><trkpt lat="40.8436383" lon="14.22883"><ele>190.4</ele><time>2026-04-23T11:48:22.775Z</time></trkpt><trkpt lat="40.843635" lon="14.228735"><ele>190.2</ele><time>2026-04-23T11:48:24.775Z</time></trkpt><trkpt lat="40.8436217" lon="14.2285983"><ele>190.0</ele><time>2026-04-23T11:48:26.775Z</time></trkpt><trkpt lat="40.8436" lon="14.2285083"><ele>190.0</ele><time>2026-04-23T11:48:29.775Z</time></trkpt><trkpt lat="40.843595" lon="14.2284167"><ele>190.0</ele><time>2026-04-23T11:48:32.775Z</time></trkpt><trkpt lat="40.843545" lon="14.2283533"><ele>190.0</ele><time>2026-04-23T11:48:35.776Z</time></trkpt><trkpt lat="40.8434933" lon="14.228275"><ele>190.0</ele><time>2026-04-23T11:48:38.776Z</time></trkpt><trkpt lat="40.8434633" lon="14.22818"><ele>190.0</ele><time>2026-04-23T11:48:40.775Z</time></trkpt><trkpt lat="40.8434383" lon="14.2280567"><ele>190.0</ele><time>2026-04-23T11:48:42.775Z</time></trkpt><trkpt lat="40.84343" lon="14.2279217"><ele>190.5</ele><time>2026-04-23T11:48:44.775Z</time></trkpt><trkpt lat="40.843435" lon="14.2278333"><ele>191.0</ele><time>2026-04-23T11:48:45.775Z</time></trkpt><trkpt lat="40.8434367" lon="14.2277483"><ele>191.5</ele><time>2026-04-23T11:48:46.775Z</time></trkpt><trkpt lat="40.8434267" lon="14.2275883"><ele>192.0</ele><time>2026-04-23T11:48:48.775Z</time></trkpt><trkpt lat="40.8434217" lon="14.227495"><ele>192.49999999999997</ele><time>2026-04-23T11:48:49.775Z</time></trkpt><trkpt lat="40.843415" lon="14.2274067"><ele>193.0</ele><time>2026-04-23T11:48:50.775Z</time></trkpt><trkpt lat="40.8434083" lon="14.2273217"><ele>191.99999999999997</ele><time>2026-04-23T11:48:51.776Z</time></trkpt><trkpt lat="40.8433783" lon="14.2272183"><ele>191.0</ele><time>2026-04-23T11:48:52.775Z</time></trkpt><trkpt lat="40.8433617" lon="14.2271283"><ele>190.0</ele><time>2026-04-23T11:48:53.775Z</time></trkpt><trkpt lat="40.8433667" lon="14.227015"><ele>189.0</ele><time>2026-04-23T11:48:54.775Z</time></trkpt><trkpt lat="40.843355" lon="14.2269267"><ele>188.0</ele><time>2026-04-23T11:48:55.777Z</time></trkpt><trkpt lat="40.8433433" lon="14.22683"><ele>187.0</ele><time>2026-04-23T11:48:56.775Z</time></trkpt><trkpt lat="40.8433233" lon="14.2267417"><ele>187.0</ele><time>2026-04-23T11:48:57.775Z</time></trkpt><trkpt lat="40.8432717" lon="14.226605"><ele>187.0</ele><time>2026-04-23T11:48:59.775Z</time></trkpt><trkpt lat="40.8432317" lon="14.2264817"><ele>187.0</ele><time>2026-04-23T11:49:01.777Z</time></trkpt><trkpt lat="40.8432067" lon="14.2263433"><ele>187.0</ele><time>2026-04-23T11:49:03.775Z</time></trkpt><trkpt lat="40.843215" lon="14.2262467"><ele>187.0</ele><time>2026-04-23T11:49:05.775Z</time></trkpt><trkpt lat="40.8432467" lon="14.22613"><ele>186.0</ele><time>2026-04-23T11:49:08.776Z</time></trkpt><trkpt lat="40.8432667" lon="14.2260033"><ele>185.0</ele><time>2026-04-23T11:49:11.775Z</time></trkpt><trkpt lat="40.8432567" lon="14.2259"><ele>184.0</ele><time>2026-04-23T11:49:13.776Z</time></trkpt><trkpt lat="40.8432717" lon="14.22577"><ele>183.0</ele><time>2026-04-23T11:49:15.776Z</time></trkpt><trkpt lat="40.843265" lon="14.225635"><ele>182.0</ele><time>2026-04-23T11:49:17.776Z</time></trkpt><trkpt lat="40.8432567" lon="14.2255217"><ele>182.0</ele><time>2026-04-23T11:49:19.775Z</time></trkpt><trkpt lat="40.8432883" lon="14.22544"><ele>182.0</ele><time>2026-04-23T11:49:22.775Z</time></trkpt><trkpt lat="40.8433233" lon="14.22533"><ele>182.0</ele><time>2026-04-23T11:49:24.776Z</time></trkpt><trkpt lat="40.8433333" lon="14.2252417"><ele>182.0</ele><time>2026-04-23T11:49:26.776Z</time></trkpt><trkpt lat="40.8433333" lon="14.22513"><ele>182.0</ele><time>2026-04-23T11:49:28.776Z</time></trkpt><trkpt lat="40.8433067" lon="14.2250117"><ele>182.0</ele><time>2026-04-23T11:49:30.776Z</time></trkpt><trkpt lat="40.8432783" lon="14.2248867"><ele>182.8</ele><time>2026-04-23T11:49:32.775Z</time></trkpt><trkpt lat="40.8432583" lon="14.2247567"><ele>183.6</ele><time>2026-04-23T11:49:34.775Z</time></trkpt><trkpt lat="40.8432417" lon="14.2246183"><ele>184.4</ele><time>2026-04-23T11:49:36.776Z</time></trkpt><trkpt lat="40.8432317" lon="14.2244683"><ele>185.20000000000002</ele><time>2026-04-23T11:49:38.776Z</time></trkpt><trkpt lat="40.8432067" lon="14.2243917"><ele>186.0</ele><time>2026-04-23T11:49:39.775Z</time></trkpt><trkpt lat="40.8431583" lon="14.22431"><ele>186.0</ele><time>2026-04-23T11:49:40.775Z</time></trkpt><trkpt lat="40.843135" lon="14.22423"><ele>186.0</ele><time>2026-04-23T11:49:41.777Z</time></trkpt><trkpt lat="40.84313" lon="14.22412"><ele>186.0</ele><time>2026-04-23T11:49:43.777Z</time></trkpt><trkpt lat="40.8430917" lon="14.2240133"><ele>186.0</ele><time>2026-04-23T11:49:45.775Z</time></trkpt><trkpt lat="40.8430617" lon="14.2239017"><ele>186.0</ele><time>2026-04-23T11:49:47.776Z</time></trkpt><trkpt lat="40.8430367" lon="14.2237717"><ele>186.0</ele><time>2026-04-23T11:49:49.775Z</time></trkpt><trkpt lat="40.843025" lon="14.2236233"><ele>186.60000000000002</ele><time>2026-04-23T11:49:51.775Z</time></trkpt><trkpt lat="40.8429917" lon="14.2234767"><ele>187.2</ele><time>2026-04-23T11:49:53.776Z</time></trkpt><trkpt lat="40.8429533" lon="14.223325"><ele>187.8</ele><time>2026-04-23T11:49:55.776Z</time></trkpt><trkpt lat="40.8429367" lon="14.2231917"><ele>188.39999999999998</ele><time>2026-04-23T11:49:57.776Z</time></trkpt><trkpt lat="40.8429033" lon="14.2230617"><ele>189.0</ele><time>2026-04-23T11:49:59.775Z</time></trkpt><trkpt lat="40.8429133" lon="14.222915"><ele>189.0</ele><time>2026-04-23T11:50:01.777Z</time></trkpt><trkpt lat="40.8429267" lon="14.2227817"><ele>189.0</ele><time>2026-04-23T11:50:03.776Z</time></trkpt><trkpt lat="40.842915" lon="14.222665"><ele>189.0</ele><time>2026-04-23T11:50:05.776Z</time></trkpt><trkpt lat="40.8428867" lon="14.2225717"><ele>189.0</ele><time>2026-04-23T11:50:07.775Z</time></trkpt><trkpt lat="40.842875" lon="14.22248"><ele>189.0</ele><time>2026-04-23T11:50:09.776Z</time></trkpt><trkpt lat="40.8428917" lon="14.22239"><ele>189.0</ele><time>2026-04-23T11:50:10.775Z</time></trkpt><trkpt lat="40.8429033" lon="14.2223067"><ele>189.0</ele><time>2026-04-23T11:50:11.775Z</time></trkpt><trkpt lat="40.8429017" lon="14.22218"><ele>189.0</ele><time>2026-04-23T11:50:13.776Z</time></trkpt><trkpt lat="40.842905" lon="14.222055"><ele>189.0</ele><time>2026-04-23T11:50:15.775Z</time></trkpt><trkpt lat="40.8429133" lon="14.22192"><ele>189.0</ele><time>2026-04-23T11:50:17.776Z</time></trkpt><trkpt lat="40.8429083" lon="14.2217917"><ele>189.0</ele><time>2026-04-23T11:50:19.776Z</time></trkpt><trkpt lat="40.8428717" lon="14.221685"><ele>189.0</ele><time>2026-04-23T11:50:21.775Z</time></trkpt><trkpt lat="40.8427933" lon="14.2216133"><ele>189.0</ele><time>2026-04-23T11:50:23.775Z</time></trkpt><trkpt lat="40.842825" lon="14.2214883"><ele>189.0</ele><time>2026-04-23T11:50:25.78Z</time></trkpt><trkpt lat="40.8428317" lon="14.221345"><ele>189.0</ele><time>2026-04-23T11:50:27.775Z</time></trkpt><trkpt lat="40.8428333" lon="14.2212067"><ele>189.0</ele><time>2026-04-23T11:50:29.778Z</time></trkpt><trkpt lat="40.842815" lon="14.2211"><ele>189.39999999999998</ele><time>2026-04-23T11:50:31.777Z</time></trkpt><trkpt lat="40.8428033" lon="14.2209867"><ele>189.8</ele><time>2026-04-23T11:50:33.776Z</time></trkpt><trkpt lat="40.8428117" lon="14.2208733"><ele>190.2</ele><time>2026-04-23T11:50:35.775Z</time></trkpt><trkpt lat="40.8428167" lon="14.220745"><ele>190.60000000000002</ele><time>2026-04-23T11:50:37.776Z</time></trkpt><trkpt lat="40.8428083" lon="14.2206167"><ele>191.0</ele><time>2026-04-23T11:50:39.775Z</time></trkpt><trkpt lat="40.842785" lon="14.2204917"><ele>189.5</ele><time>2026-04-23T11:50:41.775Z</time></trkpt><trkpt lat="40.8427683" lon="14.2203383"><ele>188.0</ele><time>2026-04-23T11:50:43.777Z</time></trkpt><trkpt lat="40.8427367" lon="14.2202"><ele>186.5</ele><time>2026-04-23T11:50:45.775Z</time></trkpt><trkpt lat="40.8426883" lon="14.2200717"><ele>185.0</ele><time>2026-04-23T11:50:47.776Z</time></trkpt><trkpt lat="40.84263" lon="14.21994"><ele>185.0</ele><time>2026-04-23T11:50:49.775Z</time></trkpt><trkpt lat="40.842565" lon="14.2198233"><ele>185.0</ele><time>2026-04-23T11:50:51.776Z</time></trkpt><trkpt lat="40.8425067" lon="14.2197033"><ele>185.0</ele><time>2026-04-23T11:50:53.776Z</time></trkpt><trkpt lat="40.84244" lon="14.2195867"><ele>185.0</ele><time>2026-04-23T11:50:55.776Z</time></trkpt><trkpt lat="40.8423733" lon="14.2194717"><ele>185.0</ele><time>2026-04-23T11:50:57.776Z</time></trkpt><trkpt lat="40.8423167" lon="14.219365"><ele>183.2</ele><time>2026-04-23T11:50:59.777Z</time></trkpt><trkpt lat="40.8422683" lon="14.21924"><ele>181.4</ele><time>2026-04-23T11:51:01.776Z</time></trkpt><trkpt lat="40.8422083" lon="14.219115"><ele>179.60000000000002</ele><time>2026-04-23T11:51:03.775Z</time></trkpt><trkpt lat="40.8421217" lon="14.2190683"><ele>177.8</ele><time>2026-04-23T11:51:05.776Z</time></trkpt><trkpt lat="40.8420333" lon="14.2190167"><ele>176.0</ele><time>2026-04-23T11:51:07.779Z</time></trkpt><trkpt lat="40.841975" lon="14.2189783"><ele>173.60000000000002</ele><time>2026-04-23T11:51:09.776Z</time></trkpt><trkpt lat="40.8419033" lon="14.2188917"><ele>171.2</ele><time>2026-04-23T11:51:12.777Z</time></trkpt><trkpt lat="40.8418517" lon="14.218815"><ele>168.8</ele><time>2026-04-23T11:51:14.776Z</time></trkpt><trkpt lat="40.8417817" lon="14.218725"><ele>166.39999999999998</ele><time>2026-04-23T11:51:16.775Z</time></trkpt><trkpt lat="40.84172" lon="14.2186117"><ele>164.0</ele><time>2026-04-23T11:51:18.775Z</time></trkpt><trkpt lat="40.8416467" lon="14.2184933"><ele>167.39999999999998</ele><time>2026-04-23T11:51:20.776Z</time></trkpt><trkpt lat="40.8416033" lon="14.21835"><ele>170.8</ele><time>2026-04-23T11:51:22.776Z</time></trkpt><trkpt lat="40.841575" lon="14.2182183"><ele>174.2</ele><time>2026-04-23T11:51:24.775Z</time></trkpt><trkpt lat="40.8415467" lon="14.218085"><ele>177.60000000000002</ele><time>2026-04-23T11:51:26.775Z</time></trkpt><trkpt lat="40.8415083" lon="14.2179467"><ele>181.0</ele><time>2026-04-23T11:51:28.775Z</time></trkpt><trkpt lat="40.8414917" lon="14.2178633"><ele>181.0</ele><time>2026-04-23T11:51:29.775Z</time></trkpt><trkpt lat="40.84149" lon="14.2177733"><ele>181.0</ele><time>2026-04-23T11:51:30.776Z</time></trkpt><trkpt lat="40.8414317" lon="14.2176217"><ele>181.0</ele><time>2026-04-23T11:51:32.775Z</time></trkpt><trkpt lat="40.8413883" lon="14.2175483"><ele>181.0</ele><time>2026-04-23T11:51:33.776Z</time></trkpt><trkpt lat="40.84133" lon="14.2174967"><ele>181.0</ele><time>2026-04-23T11:51:34.776Z</time></trkpt><trkpt lat="40.8412567" lon="14.2174717"><ele>181.0</ele><time>2026-04-23T11:51:35.778Z</time></trkpt><trkpt lat="40.8411683" lon="14.2174583"><ele>181.0</ele><time>2026-04-23T11:51:36.776Z</time></trkpt><trkpt lat="40.8410983" lon="14.21744"><ele>181.0</ele><time>2026-04-23T11:51:37.776Z</time></trkpt><trkpt lat="40.8410233" lon="14.21744"><ele>181.0</ele><time>2026-04-23T11:51:38.776Z</time></trkpt><trkpt lat="40.8409467" lon="14.2174417"><ele>181.0</ele><time>2026-04-23T11:51:39.775Z</time></trkpt><trkpt lat="40.84087" lon="14.2174583"><ele>181.0</ele><time>2026-04-23T11:51:40.775Z</time></trkpt><trkpt lat="40.8407967" lon="14.21747"><ele>181.0</ele><time>2026-04-23T11:51:41.78Z</time></trkpt><trkpt lat="40.8407333" lon="14.2174883"><ele>181.0</ele><time>2026-04-23T11:51:42.776Z</time></trkpt><trkpt lat="40.8406617" lon="14.2175517"><ele>180.5</ele><time>2026-04-23T11:51:44.776Z</time></trkpt><trkpt lat="40.8406017" lon="14.2175983"><ele>180.0</ele><time>2026-04-23T11:51:46.776Z</time></trkpt><trkpt lat="40.8405217" lon="14.21763"><ele>179.5</ele><time>2026-04-23T11:51:48.776Z</time></trkpt><trkpt lat="40.8404333" lon="14.2176783"><ele>179.0</ele><time>2026-04-23T11:51:50.776Z</time></trkpt><trkpt lat="40.840325" lon="14.2177367"><ele>178.5</ele><time>2026-04-23T11:51:52.776Z</time></trkpt><trkpt lat="40.840265" lon="14.21777"><ele>178.0</ele><time>2026-04-23T11:51:53.777Z</time></trkpt><trkpt lat="40.8401317" lon="14.2178017"><ele>176.60000000000002</ele><time>2026-04-23T11:51:55.776Z</time></trkpt><trkpt lat="40.8400367" lon="14.21779"><ele>175.20000000000002</ele><time>2026-04-23T11:51:56.776Z</time></trkpt><trkpt lat="40.8399533" lon="14.21778"><ele>173.8</ele><time>2026-04-23T11:51:57.776Z</time></trkpt><trkpt lat="40.8398833" lon="14.2177667"><ele>172.4</ele><time>2026-04-23T11:51:58.776Z</time></trkpt><trkpt lat="40.839815" lon="14.2177433"><ele>171.0</ele><time>2026-04-23T11:51:59.776Z</time></trkpt><trkpt lat="40.8396733" lon="14.217695"><ele>171.0</ele><time>2026-04-23T11:52:01.777Z</time></trkpt><trkpt lat="40.8395933" lon="14.2176633"><ele>171.0</ele><time>2026-04-23T11:52:02.776Z</time></trkpt><trkpt lat="40.8395183" lon="14.2176167"><ele>171.0</ele><time>2026-04-23T11:52:03.777Z</time></trkpt><trkpt lat="40.8394383" lon="14.2175467"><ele>171.0</ele><time>2026-04-23T11:52:04.776Z</time></trkpt><trkpt lat="40.83937" lon="14.2174717"><ele>171.0</ele><time>2026-04-23T11:52:05.777Z</time></trkpt><trkpt lat="40.8393133" lon="14.2174033"><ele>171.0</ele><time>2026-04-23T11:52:06.775Z</time></trkpt><trkpt lat="40.8392533" lon="14.217335"><ele>170.33333333333334</ele><time>2026-04-23T11:52:07.776Z</time></trkpt><trkpt lat="40.839195" lon="14.2172617"><ele>169.66666666666666</ele><time>2026-04-23T11:52:08.776Z</time></trkpt><trkpt lat="40.8391383" lon="14.2171917"><ele>169.0</ele><time>2026-04-23T11:52:09.776Z</time></trkpt><trkpt lat="40.8390833" lon="14.217115"><ele>168.33333333333331</ele><time>2026-04-23T11:52:10.776Z</time></trkpt><trkpt lat="40.8390317" lon="14.2170367"><ele>167.66666666666666</ele><time>2026-04-23T11:52:11.776Z</time></trkpt><trkpt lat="40.8389833" lon="14.21696"><ele>167.0</ele><time>2026-04-23T11:52:12.777Z</time></trkpt><trkpt lat="40.83893" lon="14.2168867"><ele>167.0</ele><time>2026-04-23T11:52:13.777Z</time></trkpt><trkpt lat="40.8388783" lon="14.2168133"><ele>167.0</ele><time>2026-04-23T11:52:14.776Z</time></trkpt><trkpt lat="40.838835" lon="14.2167317"><ele>167.0</ele><time>2026-04-23T11:52:15.775Z</time></trkpt><trkpt lat="40.8387917" lon="14.2166517"><ele>167.0</ele><time>2026-04-23T11:52:16.776Z</time></trkpt><trkpt lat="40.838755" lon="14.2165633"><ele>167.0</ele><time>2026-04-23T11:52:17.776Z</time></trkpt><trkpt lat="40.838715" lon="14.2164783"><ele>167.0</ele><time>2026-04-23T11:52:18.776Z</time></trkpt><trkpt lat="40.8386683" lon="14.2163933"><ele>166.66666666666666</ele><time>2026-04-23T11:52:19.777Z</time></trkpt><trkpt lat="40.8386267" lon="14.2163117"><ele>166.33333333333331</ele><time>2026-04-23T11:52:20.779Z</time></trkpt><trkpt lat="40.8385867" lon="14.2162283"><ele>166.0</ele><time>2026-04-23T11:52:21.775Z</time></trkpt><trkpt lat="40.83855" lon="14.2161433"><ele>165.66666666666666</ele><time>2026-04-23T11:52:22.779Z</time></trkpt><trkpt lat="40.838515" lon="14.2160717"><ele>165.33333333333334</ele><time>2026-04-23T11:52:23.777Z</time></trkpt><trkpt lat="40.8384483" lon="14.21595"><ele>165.0</ele><time>2026-04-23T11:52:25.776Z</time></trkpt><trkpt lat="40.8383983" lon="14.2158433"><ele>164.5</ele><time>2026-04-23T11:52:27.776Z</time></trkpt><trkpt lat="40.838345" lon="14.2157433"><ele>164.0</ele><time>2026-04-23T11:52:29.776Z</time></trkpt><trkpt lat="40.838285" lon="14.2156767"><ele>163.5</ele><time>2026-04-23T11:52:31.776Z</time></trkpt><trkpt lat="40.8382367" lon="14.21561"><ele>163.0</ele><time>2026-04-23T11:52:33.778Z</time></trkpt><trkpt lat="40.8381917" lon="14.2155333"><ele>162.5</ele><time>2026-04-23T11:52:35.776Z</time></trkpt><trkpt lat="40.8381767" lon="14.2154283"><ele>162.0</ele><time>2026-04-23T11:52:38.775Z</time></trkpt><trkpt lat="40.8381567" lon="14.215335"><ele>161.66666666666666</ele><time>2026-04-23T11:52:40.776Z</time></trkpt><trkpt lat="40.8381283" lon="14.2152333"><ele>161.33333333333334</ele><time>2026-04-23T11:52:42.776Z</time></trkpt><trkpt lat="40.83811" lon="14.21512"><ele>161.0</ele><time>2026-04-23T11:52:44.776Z</time></trkpt><trkpt lat="40.8380983" lon="14.2149933"><ele>160.66666666666669</ele><time>2026-04-23T11:52:46.776Z</time></trkpt><trkpt lat="40.83811" lon="14.2149033"><ele>160.33333333333334</ele><time>2026-04-23T11:52:48.776Z</time></trkpt><trkpt lat="40.8381133" lon="14.2148033"><ele>160.0</ele><time>2026-04-23T11:52:53.776Z</time></trkpt><trkpt lat="40.83808" lon="14.21472"><ele>159.4</ele><time>2026-04-23T11:52:56.775Z</time></trkpt><trkpt lat="40.838055" lon="14.214635"><ele>158.8</ele><time>2026-04-23T11:52:58.776Z</time></trkpt><trkpt lat="40.838035" lon="14.2145267"><ele>158.2</ele><time>2026-04-23T11:53:00.775Z</time></trkpt><trkpt lat="40.838035" lon="14.2143983"><ele>157.6</ele><time>2026-04-23T11:53:02.776Z</time></trkpt><trkpt lat="40.8380133" lon="14.2142683"><ele>157.0</ele><time>2026-04-23T11:53:04.776Z</time></trkpt><trkpt lat="40.8379883" lon="14.2141417"><ele>157.0</ele><time>2026-04-23T11:53:06.777Z</time></trkpt><trkpt lat="40.8379617" lon="14.21402"><ele>157.0</ele><time>2026-04-23T11:53:08.776Z</time></trkpt><trkpt lat="40.837935" lon="14.2139033"><ele>157.0</ele><time>2026-04-23T11:53:10.778Z</time></trkpt><trkpt lat="40.83791" lon="14.2137933"><ele>157.0</ele><time>2026-04-23T11:53:12.777Z</time></trkpt><trkpt lat="40.8378667" lon="14.213675"><ele>157.0</ele><time>2026-04-23T11:53:14.776Z</time></trkpt><trkpt lat="40.8378433" lon="14.2135583"><ele>156.83333333333334</ele><time>2026-04-23T11:53:16.776Z</time></trkpt><trkpt lat="40.837805" lon="14.2134617"><ele>156.66666666666669</ele><time>2026-04-23T11:53:18.775Z</time></trkpt><trkpt lat="40.8377467" lon="14.2133833"><ele>156.5</ele><time>2026-04-23T11:53:20.777Z</time></trkpt><trkpt lat="40.8376717" lon="14.21332"><ele>156.33333333333334</ele><time>2026-04-23T11:53:22.777Z</time></trkpt><trkpt lat="40.8375817" lon="14.213295"><ele>156.16666666666666</ele><time>2026-04-23T11:53:24.776Z</time></trkpt><trkpt lat="40.8375083" lon="14.2132567"><ele>156.0</ele><time>2026-04-23T11:53:26.776Z</time></trkpt><trkpt lat="40.8374267" lon="14.21324"><ele>156.5</ele><time>2026-04-23T11:53:28.776Z</time></trkpt><trkpt lat="40.8373517" lon="14.2132283"><ele>157.0</ele><time>2026-04-23T11:53:30.776Z</time></trkpt><trkpt lat="40.837265" lon="14.213225"><ele>157.5</ele><time>2026-04-23T11:53:32.776Z</time></trkpt><trkpt lat="40.8371917" lon="14.21322"><ele>158.0</ele><time>2026-04-23T11:53:34.777Z</time></trkpt><trkpt lat="40.8371033" lon="14.2131967"><ele>158.5</ele><time>2026-04-23T11:53:36.776Z</time></trkpt><trkpt lat="40.8370117" lon="14.213185"><ele>159.0</ele><time>2026-04-23T11:53:38.776Z</time></trkpt><trkpt lat="40.836925" lon="14.2131817"><ele>159.0</ele><time>2026-04-23T11:53:40.776Z</time></trkpt><trkpt lat="40.836855" lon="14.21321"><ele>159.0</ele><time>2026-04-23T11:53:42.775Z</time></trkpt><trkpt lat="40.83678" lon="14.2132367"><ele>159.0</ele><time>2026-04-23T11:53:44.775Z</time></trkpt><trkpt lat="40.83671" lon="14.2132617"><ele>159.0</ele><time>2026-04-23T11:53:46.776Z</time></trkpt><trkpt lat="40.83664" lon="14.2132967"><ele>159.0</ele><time>2026-04-23T11:53:48.776Z</time></trkpt><trkpt lat="40.8365633" lon="14.2133417"><ele>159.0</ele><time>2026-04-23T11:53:50.775Z</time></trkpt><trkpt lat="40.8364867" lon="14.2133917"><ele>160.5</ele><time>2026-04-23T11:53:52.775Z</time></trkpt><trkpt lat="40.8364067" lon="14.2134367"><ele>162.0</ele><time>2026-04-23T11:53:54.776Z</time></trkpt><trkpt lat="40.8363317" lon="14.213495"><ele>163.5</ele><time>2026-04-23T11:53:56.778Z</time></trkpt><trkpt lat="40.836265" lon="14.2135467"><ele>165.0</ele><time>2026-04-23T11:53:58.775Z</time></trkpt><trkpt lat="40.836195" lon="14.2135767"><ele>166.5</ele><time>2026-04-23T11:54:00.776Z</time></trkpt><trkpt lat="40.8361317" lon="14.2136033"><ele>168.0</ele><time>2026-04-23T11:54:02.776Z</time></trkpt><trkpt lat="40.8360683" lon="14.2136167"><ele>168.0</ele><time>2026-04-23T11:54:04.775Z</time></trkpt><trkpt lat="40.8360067" lon="14.21359"><ele>168.0</ele><time>2026-04-23T11:54:06.775Z</time></trkpt><trkpt lat="40.835945" lon="14.213545"><ele>168.0</ele><time>2026-04-23T11:54:08.775Z</time></trkpt><trkpt lat="40.835845" lon="14.2134483"><ele>168.0</ele><time>2026-04-23T11:54:11.776Z</time></trkpt><trkpt lat="40.8357833" lon="14.2133817"><ele>168.0</ele><time>2026-04-23T11:54:13.777Z</time></trkpt><trkpt lat="40.8357383" lon="14.2133033"><ele>168.0</ele><time>2026-04-23T11:54:15.777Z</time></trkpt><trkpt lat="40.8356967" lon="14.2132167"><ele>169.66666666666666</ele><time>2026-04-23T11:54:18.775Z</time></trkpt><trkpt lat="40.8356567" lon="14.2131417"><ele>171.33333333333334</ele><time>2026-04-23T11:54:22.776Z</time></trkpt><trkpt lat="40.8356167" lon="14.2130683"><ele>173.0</ele><time>2026-04-23T11:54:42.781Z</time></trkpt><trkpt lat="40.8356217" lon="14.21298"><ele>174.66666666666669</ele><time>2026-04-23T11:54:46.777Z</time></trkpt><trkpt lat="40.835645" lon="14.2128367"><ele>176.33333333333334</ele><time>2026-04-23T11:55:08.776Z</time></trkpt><trkpt lat="40.8356567" lon="14.212725"><ele>178.0</ele><time>2026-04-23T11:55:11.775Z</time></trkpt><trkpt lat="40.835675" lon="14.2126333"><ele>178.0</ele><time>2026-04-23T11:55:13.776Z</time></trkpt><trkpt lat="40.835695" lon="14.212535"><ele>178.0</ele><time>2026-04-23T11:55:15.775Z</time></trkpt><trkpt lat="40.8357083" lon="14.2124167"><ele>178.0</ele><time>2026-04-23T11:55:18.777Z</time></trkpt><trkpt lat="40.83572" lon="14.2123283"><ele>178.0</ele><time>2026-04-23T11:55:20.779Z</time></trkpt><trkpt lat="40.8357317" lon="14.21223"><ele>178.0</ele><time>2026-04-23T11:55:22.777Z</time></trkpt><trkpt lat="40.8357417" lon="14.2121417"><ele>178.0</ele><time>2026-04-23T11:55:24.776Z</time></trkpt><trkpt lat="40.8357417" lon="14.212015"><ele>178.16666666666669</ele><time>2026-04-23T11:55:27.775Z</time></trkpt><trkpt lat="40.8357467" lon="14.21192"><ele>178.33333333333334</ele><time>2026-04-23T11:55:29.775Z</time></trkpt><trkpt lat="40.8357633" lon="14.2118383"><ele>178.5</ele><time>2026-04-23T11:55:31.777Z</time></trkpt><trkpt lat="40.8357667" lon="14.2117483"><ele>178.66666666666666</ele><time>2026-04-23T11:55:33.776Z</time></trkpt><trkpt lat="40.835745" lon="14.21165"><ele>178.83333333333331</ele><time>2026-04-23T11:55:37.777Z</time></trkpt><trkpt lat="40.83568" lon="14.2115667"><ele>179.0</ele><time>2026-04-23T11:55:39.776Z</time></trkpt><trkpt lat="40.8356167" lon="14.2114817"><ele>179.0</ele><time>2026-04-23T11:55:41.776Z</time></trkpt><trkpt lat="40.8355217" lon="14.2114333"><ele>179.0</ele><time>2026-04-23T11:55:43.775Z</time></trkpt><trkpt lat="40.8354433" lon="14.2113767"><ele>179.0</ele><time>2026-04-23T11:55:45.775Z</time></trkpt><trkpt lat="40.8353517" lon="14.211315"><ele>179.0</ele><time>2026-04-23T11:55:47.777Z</time></trkpt><trkpt lat="40.835265" lon="14.211275"><ele>179.0</ele><time>2026-04-23T11:55:49.777Z</time></trkpt><trkpt lat="40.8351667" lon="14.211225"><ele>179.0</ele><time>2026-04-23T11:55:51.775Z</time></trkpt><trkpt lat="40.8350683" lon="14.2111833"><ele>179.0</ele><time>2026-04-23T11:55:53.776Z</time></trkpt><trkpt lat="40.8349733" lon="14.211125"><ele>179.0</ele><time>2026-04-23T11:55:55.775Z</time></trkpt><trkpt lat="40.8348617" lon="14.2110883"><ele>179.0</ele><time>2026-04-23T11:55:57.775Z</time></trkpt><trkpt lat="40.8347483" lon="14.2110633"><ele>179.0</ele><time>2026-04-23T11:55:59.775Z</time></trkpt><trkpt lat="40.8346333" lon="14.211065"><ele>179.0</ele><time>2026-04-23T11:56:01.775Z</time></trkpt><trkpt lat="40.8345" lon="14.2110717"><ele>179.0</ele><time>2026-04-23T11:56:03.775Z</time></trkpt><trkpt lat="40.8343717" lon="14.2110717"><ele>179.0</ele><time>2026-04-23T11:56:05.775Z</time></trkpt><trkpt lat="40.834305" lon="14.211065"><ele>179.0</ele><time>2026-04-23T11:56:06.776Z</time></trkpt><trkpt lat="40.8342333" lon="14.2110667"><ele>179.0</ele><time>2026-04-23T11:56:07.776Z</time></trkpt><trkpt lat="40.834155" lon="14.211085"><ele>178.5</ele><time>2026-04-23T11:56:08.775Z</time></trkpt><trkpt lat="40.8340833" lon="14.2111067"><ele>178.0</ele><time>2026-04-23T11:56:09.777Z</time></trkpt><trkpt lat="40.8340033" lon="14.2110567"><ele>177.5</ele><time>2026-04-23T11:56:10.775Z</time></trkpt><trkpt lat="40.8339283" lon="14.211085"><ele>177.0</ele><time>2026-04-23T11:56:11.776Z</time></trkpt><trkpt lat="40.8338517" lon="14.2111183"><ele>176.5</ele><time>2026-04-23T11:56:12.779Z</time></trkpt><trkpt lat="40.8337817" lon="14.2111417"><ele>176.0</ele><time>2026-04-23T11:56:13.776Z</time></trkpt><trkpt lat="40.8337117" lon="14.2111767"><ele>176.0</ele><time>2026-04-23T11:56:14.776Z</time></trkpt><trkpt lat="40.833645" lon="14.2112217"><ele>176.0</ele><time>2026-04-23T11:56:15.776Z</time></trkpt><trkpt lat="40.8335733" lon="14.21127"><ele>176.0</ele><time>2026-04-23T11:56:16.775Z</time></trkpt><trkpt lat="40.8334967" lon="14.2113183"><ele>176.0</ele><time>2026-04-23T11:56:17.776Z</time></trkpt><trkpt lat="40.8334283" lon="14.2113583"><ele>176.0</ele><time>2026-04-23T11:56:18.775Z</time></trkpt><trkpt lat="40.8333583" lon="14.211395"><ele>176.0</ele><time>2026-04-23T11:56:19.775Z</time></trkpt><trkpt lat="40.8332883" lon="14.2114433"><ele>175.66666666666666</ele><time>2026-04-23T11:56:20.775Z</time></trkpt><trkpt lat="40.8332183" lon="14.21149"><ele>175.33333333333331</ele><time>2026-04-23T11:56:21.775Z</time></trkpt><trkpt lat="40.8331483" lon="14.2115317"><ele>175.0</ele><time>2026-04-23T11:56:22.775Z</time></trkpt><trkpt lat="40.8330767" lon="14.2115683"><ele>174.66666666666666</ele><time>2026-04-23T11:56:23.782Z</time></trkpt><trkpt lat="40.8330067" lon="14.2115983"><ele>174.33333333333334</ele><time>2026-04-23T11:56:24.776Z</time></trkpt><trkpt lat="40.8329333" lon="14.211625"><ele>174.0</ele><time>2026-04-23T11:56:25.775Z</time></trkpt><trkpt lat="40.832855" lon="14.2116783"><ele>174.0</ele><time>2026-04-23T11:56:26.776Z</time></trkpt><trkpt lat="40.8327733" lon="14.2117233"><ele>174.0</ele><time>2026-04-23T11:56:27.775Z</time></trkpt><trkpt lat="40.8327" lon="14.2117717"><ele>174.0</ele><time>2026-04-23T11:56:28.776Z</time></trkpt><trkpt lat="40.8326317" lon="14.2118117"><ele>174.0</ele><time>2026-04-23T11:56:29.776Z</time></trkpt><trkpt lat="40.8325617" lon="14.2118533"><ele>174.0</ele><time>2026-04-23T11:56:30.776Z</time></trkpt><trkpt lat="40.8324867" lon="14.211895"><ele>174.0</ele><time>2026-04-23T11:56:31.776Z</time></trkpt><trkpt lat="40.8324083" lon="14.211935"><ele>173.16666666666666</ele><time>2026-04-23T11:56:32.776Z</time></trkpt><trkpt lat="40.832335" lon="14.2119783"><ele>172.33333333333334</ele><time>2026-04-23T11:56:33.775Z</time></trkpt><trkpt lat="40.8322667" lon="14.2120233"><ele>171.5</ele><time>2026-04-23T11:56:34.776Z</time></trkpt><trkpt lat="40.832195" lon="14.2120633"><ele>170.66666666666669</ele><time>2026-04-23T11:56:35.775Z</time></trkpt><trkpt lat="40.8321167" lon="14.2121067"><ele>169.83333333333334</ele><time>2026-04-23T11:56:36.775Z</time></trkpt><trkpt lat="40.8320417" lon="14.2121517"><ele>169.0</ele><time>2026-04-23T11:56:37.776Z</time></trkpt><trkpt lat="40.8319717" lon="14.2121983"><ele>169.0</ele><time>2026-04-23T11:56:38.776Z</time></trkpt><trkpt lat="40.8319017" lon="14.2122367"><ele>169.0</ele><time>2026-04-23T11:56:39.777Z</time></trkpt><trkpt lat="40.8318283" lon="14.212275"><ele>169.0</ele><time>2026-04-23T11:56:40.776Z</time></trkpt><trkpt lat="40.8317567" lon="14.2123133"><ele>169.0</ele><time>2026-04-23T11:56:41.777Z</time></trkpt><trkpt lat="40.8316917" lon="14.2123533"><ele>169.0</ele><time>2026-04-23T11:56:42.775Z</time></trkpt><trkpt lat="40.8316233" lon="14.2123917"><ele>169.0</ele><time>2026-04-23T11:56:43.776Z</time></trkpt><trkpt lat="40.83155" lon="14.2124317"><ele>169.16666666666669</ele><time>2026-04-23T11:56:44.776Z</time></trkpt><trkpt lat="40.83148" lon="14.21247"><ele>169.33333333333334</ele><time>2026-04-23T11:56:45.775Z</time></trkpt><trkpt lat="40.8314033" lon="14.2125083"><ele>169.5</ele><time>2026-04-23T11:56:46.775Z</time></trkpt><trkpt lat="40.8313333" lon="14.2125467"><ele>169.66666666666666</ele><time>2026-04-23T11:56:47.775Z</time></trkpt><trkpt lat="40.8312617" lon="14.2125883"><ele>169.83333333333331</ele><time>2026-04-23T11:56:48.776Z</time></trkpt><trkpt lat="40.8311917" lon="14.2126283"><ele>170.0</ele><time>2026-04-23T11:56:49.775Z</time></trkpt><trkpt lat="40.8311217" lon="14.2126633"><ele>170.0</ele><time>2026-04-23T11:56:50.775Z</time></trkpt><trkpt lat="40.8310567" lon="14.2126933"><ele>170.0</ele><time>2026-04-23T11:56:51.775Z</time></trkpt><trkpt lat="40.8309517" lon="14.2127483"><ele>170.0</ele><time>2026-04-23T11:56:53.775Z</time></trkpt><trkpt lat="40.8308467" lon="14.2127833"><ele>170.0</ele><time>2026-04-23T11:56:55.777Z</time></trkpt><trkpt lat="40.8307417" lon="14.2127983"><ele>170.0</ele><time>2026-04-23T11:56:57.775Z</time></trkpt><trkpt lat="40.8306167" lon="14.212815"><ele>170.16666666666666</ele><time>2026-04-23T11:56:59.776Z</time></trkpt><trkpt lat="40.830485" lon="14.2128283"><ele>170.33333333333331</ele><time>2026-04-23T11:57:01.776Z</time></trkpt><trkpt lat="40.8304067" lon="14.212825"><ele>170.5</ele><time>2026-04-23T11:57:02.778Z</time></trkpt><trkpt lat="40.8303333" lon="14.21282"><ele>170.66666666666666</ele><time>2026-04-23T11:57:03.776Z</time></trkpt><trkpt lat="40.8302683" lon="14.2128167"><ele>170.83333333333334</ele><time>2026-04-23T11:57:04.782Z</time></trkpt><trkpt lat="40.830195" lon="14.21282"><ele>171.0</ele><time>2026-04-23T11:57:05.78Z</time></trkpt><trkpt lat="40.8301133" lon="14.2128233"><ele>169.83333333333334</ele><time>2026-04-23T11:57:06.775Z</time></trkpt><trkpt lat="40.8300317" lon="14.21282"><ele>168.66666666666666</ele><time>2026-04-23T11:57:07.776Z</time></trkpt><trkpt lat="40.829965" lon="14.2128183"><ele>167.5</ele><time>2026-04-23T11:57:08.778Z</time></trkpt><trkpt lat="40.8298967" lon="14.2128383"><ele>166.33333333333331</ele><time>2026-04-23T11:57:09.775Z</time></trkpt><trkpt lat="40.8298317" lon="14.2128517"><ele>165.16666666666666</ele><time>2026-04-23T11:57:10.776Z</time></trkpt><trkpt lat="40.8297683" lon="14.212865"><ele>164.0</ele><time>2026-04-23T11:57:11.776Z</time></trkpt><trkpt lat="40.8296533" lon="14.2129033"><ele>164.0</ele><time>2026-04-23T11:57:13.776Z</time></trkpt><trkpt lat="40.8295333" lon="14.2129417"><ele>164.0</ele><time>2026-04-23T11:57:15.775Z</time></trkpt><trkpt lat="40.82947" lon="14.2129617"><ele>164.0</ele><time>2026-04-23T11:57:16.775Z</time></trkpt><trkpt lat="40.8293983" lon="14.2129717"><ele>164.0</ele><time>2026-04-23T11:57:17.777Z</time></trkpt><trkpt lat="40.8293183" lon="14.2129767"><ele>164.0</ele><time>2026-04-23T11:57:18.775Z</time></trkpt><trkpt lat="40.829235" lon="14.2129717"><ele>164.0</ele><time>2026-04-23T11:57:19.775Z</time></trkpt><trkpt lat="40.8291517" lon="14.2129517"><ele>163.83333333333331</ele><time>2026-04-23T11:57:20.775Z</time></trkpt><trkpt lat="40.8290617" lon="14.212925"><ele>163.66666666666666</ele><time>2026-04-23T11:57:21.776Z</time></trkpt><trkpt lat="40.8289783" lon="14.2129033"><ele>163.5</ele><time>2026-04-23T11:57:22.776Z</time></trkpt><trkpt lat="40.8288983" lon="14.2128733"><ele>163.33333333333334</ele><time>2026-04-23T11:57:23.776Z</time></trkpt><trkpt lat="40.8288167" lon="14.2128467"><ele>163.16666666666669</ele><time>2026-04-23T11:57:24.776Z</time></trkpt><trkpt lat="40.8287417" lon="14.2128217"><ele>163.0</ele><time>2026-04-23T11:57:25.776Z</time></trkpt><trkpt lat="40.82866" lon="14.2127917"><ele>163.0</ele><time>2026-04-23T11:57:26.775Z</time></trkpt><trkpt lat="40.82858" lon="14.2127667"><ele>163.0</ele><time>2026-04-23T11:57:27.775Z</time></trkpt><trkpt lat="40.8285" lon="14.2127383"><ele>163.0</ele><time>2026-04-23T11:57:28.775Z</time></trkpt><trkpt lat="40.8284183" lon="14.212725"><ele>163.0</ele><time>2026-04-23T11:57:29.775Z</time></trkpt><trkpt lat="40.828335" lon="14.212705"><ele>163.0</ele><time>2026-04-23T11:57:30.776Z</time></trkpt><trkpt lat="40.828255" lon="14.212685"><ele>163.0</ele><time>2026-04-23T11:57:31.776Z</time></trkpt><trkpt lat="40.8281783" lon="14.2126767"><ele>161.66666666666669</ele><time>2026-04-23T11:57:32.776Z</time></trkpt><trkpt lat="40.8280983" lon="14.2126767"><ele>160.33333333333334</ele><time>2026-04-23T11:57:33.775Z</time></trkpt><trkpt lat="40.828015" lon="14.2126683"><ele>159.0</ele><time>2026-04-23T11:57:34.775Z</time></trkpt><trkpt lat="40.8279317" lon="14.2126583"><ele>157.66666666666666</ele><time>2026-04-23T11:57:35.776Z</time></trkpt><trkpt lat="40.827845" lon="14.2126383"><ele>156.33333333333331</ele><time>2026-04-23T11:57:36.775Z</time></trkpt><trkpt lat="40.8277633" lon="14.2126233"><ele>155.0</ele><time>2026-04-23T11:57:37.776Z</time></trkpt><trkpt lat="40.8276767" lon="14.2126067"><ele>154.83333333333331</ele><time>2026-04-23T11:57:38.775Z</time></trkpt><trkpt lat="40.82759" lon="14.212595"><ele>154.66666666666666</ele><time>2026-04-23T11:57:39.777Z</time></trkpt><trkpt lat="40.827505" lon="14.2125833"><ele>154.5</ele><time>2026-04-23T11:57:40.776Z</time></trkpt><trkpt lat="40.8274167" lon="14.21257"><ele>154.33333333333334</ele><time>2026-04-23T11:57:41.777Z</time></trkpt><trkpt lat="40.82733" lon="14.2125533"><ele>154.16666666666669</ele><time>2026-04-23T11:57:42.776Z</time></trkpt><trkpt lat="40.827245" lon="14.2125267"><ele>154.0</ele><time>2026-04-23T11:57:43.777Z</time></trkpt><trkpt lat="40.827165" lon="14.2124867"><ele>154.0</ele><time>2026-04-23T11:57:44.777Z</time></trkpt><trkpt lat="40.8270833" lon="14.2124433"><ele>154.0</ele><time>2026-04-23T11:57:45.775Z</time></trkpt><trkpt lat="40.827005" lon="14.2124017"><ele>154.0</ele><time>2026-04-23T11:57:46.777Z</time></trkpt><trkpt lat="40.82692" lon="14.21236"><ele>154.0</ele><time>2026-04-23T11:57:47.776Z</time></trkpt><trkpt lat="40.8268417" lon="14.2123117"><ele>154.0</ele><time>2026-04-23T11:57:48.777Z</time></trkpt><trkpt lat="40.82676" lon="14.2122717"><ele>154.0</ele><time>2026-04-23T11:57:49.776Z</time></trkpt><trkpt lat="40.8266733" lon="14.21224"><ele>154.83333333333334</ele><time>2026-04-23T11:57:50.777Z</time></trkpt><trkpt lat="40.8265867" lon="14.2122267"><ele>155.66666666666669</ele><time>2026-04-23T11:57:51.777Z</time></trkpt><trkpt lat="40.826495" lon="14.212235"><ele>156.5</ele><time>2026-04-23T11:57:52.775Z</time></trkpt><trkpt lat="40.826415" lon="14.2122567"><ele>157.33333333333334</ele><time>2026-04-23T11:57:53.776Z</time></trkpt><trkpt lat="40.8263467" lon="14.2122917"><ele>158.16666666666666</ele><time>2026-04-23T11:57:54.779Z</time></trkpt><trkpt lat="40.82628" lon="14.21233"><ele>159.0</ele><time>2026-04-23T11:57:55.776Z</time></trkpt><trkpt lat="40.8262183" lon="14.2123683"><ele>159.0</ele><time>2026-04-23T11:57:56.775Z</time></trkpt><trkpt lat="40.826155" lon="14.2124083"><ele>159.0</ele><time>2026-04-23T11:57:57.776Z</time></trkpt><trkpt lat="40.82609" lon="14.212445"><ele>159.0</ele><time>2026-04-23T11:57:58.777Z</time></trkpt><trkpt lat="40.82603" lon="14.2124767"><ele>159.0</ele><time>2026-04-23T11:57:59.776Z</time></trkpt><trkpt lat="40.8259683" lon="14.2125033"><ele>159.0</ele><time>2026-04-23T11:58:00.776Z</time></trkpt><trkpt lat="40.8258967" lon="14.21251"><ele>159.0</ele><time>2026-04-23T11:58:01.777Z</time></trkpt><trkpt lat="40.8258217" lon="14.2125183"><ele>159.0</ele><time>2026-04-23T11:58:02.775Z</time></trkpt><trkpt lat="40.8257583" lon="14.21252"><ele>159.5</ele><time>2026-04-23T11:58:03.776Z</time></trkpt><trkpt lat="40.8256817" lon="14.21249"><ele>160.0</ele><time>2026-04-23T11:58:04.776Z</time></trkpt><trkpt lat="40.8256067" lon="14.2124383"><ele>160.5</ele><time>2026-04-23T11:58:05.776Z</time></trkpt><trkpt lat="40.8255417" lon="14.2123817"><ele>161.0</ele><time>2026-04-23T11:58:06.777Z</time></trkpt><trkpt lat="40.8254817" lon="14.21233"><ele>161.5</ele><time>2026-04-23T11:58:07.777Z</time></trkpt><trkpt lat="40.825425" lon="14.2122667"><ele>162.0</ele><time>2026-04-23T11:58:08.775Z</time></trkpt><trkpt lat="40.8253733" lon="14.212205"><ele>162.28571428571428</ele><time>2026-04-23T11:58:09.776Z</time></trkpt><trkpt lat="40.8253233" lon="14.2121433"><ele>162.57142857142856</ele><time>2026-04-23T11:58:10.775Z</time></trkpt><trkpt lat="40.8252733" lon="14.2120783"><ele>162.85714285714283</ele><time>2026-04-23T11:58:11.776Z</time></trkpt><trkpt lat="40.8252217" lon="14.2120183"><ele>163.14285714285714</ele><time>2026-04-23T11:58:12.776Z</time></trkpt><trkpt lat="40.82517" lon="14.211955"><ele>163.42857142857142</ele><time>2026-04-23T11:58:13.776Z</time></trkpt><trkpt lat="40.8251133" lon="14.2119033"><ele>163.7142857142857</ele><time>2026-04-23T11:58:14.776Z</time></trkpt><trkpt lat="40.8250617" lon="14.2118483"><ele>164.0</ele><time>2026-04-23T11:58:15.776Z</time></trkpt><trkpt lat="40.8250083" lon="14.2117917"><ele>163.85714285714283</ele><time>2026-04-23T11:58:16.776Z</time></trkpt><trkpt lat="40.8249567" lon="14.211735"><ele>163.71428571428572</ele><time>2026-04-23T11:58:17.776Z</time></trkpt><trkpt lat="40.8249" lon="14.21168"><ele>163.57142857142856</ele><time>2026-04-23T11:58:18.775Z</time></trkpt><trkpt lat="40.824845" lon="14.211625"><ele>163.42857142857142</ele><time>2026-04-23T11:58:19.776Z</time></trkpt><trkpt lat="40.82479" lon="14.2115683"><ele>163.28571428571428</ele><time>2026-04-23T11:58:20.776Z</time></trkpt><trkpt lat="40.8247383" lon="14.2115083"><ele>163.14285714285714</ele><time>2026-04-23T11:58:21.776Z</time></trkpt><trkpt lat="40.8246883" lon="14.2114517"><ele>163.0</ele><time>2026-04-23T11:58:22.775Z</time></trkpt><trkpt lat="40.824635" lon="14.2113967"><ele>163.0</ele><time>2026-04-23T11:58:23.777Z</time></trkpt><trkpt lat="40.8245867" lon="14.2113433"><ele>163.0</ele><time>2026-04-23T11:58:24.776Z</time></trkpt><trkpt lat="40.824535" lon="14.2112917"><ele>163.0</ele><time>2026-04-23T11:58:25.775Z</time></trkpt><trkpt lat="40.8244883" lon="14.2112333"><ele>163.0</ele><time>2026-04-23T11:58:26.775Z</time></trkpt><trkpt lat="40.8243917" lon="14.2111317"><ele>163.0</ele><time>2026-04-23T11:58:28.776Z</time></trkpt><trkpt lat="40.8242867" lon="14.2110433"><ele>163.0</ele><time>2026-04-23T11:58:30.777Z</time></trkpt><trkpt lat="40.8241883" lon="14.2109483"><ele>163.0</ele><time>2026-04-23T11:58:32.776Z</time></trkpt><trkpt lat="40.8240833" lon="14.2108517"><ele>163.0</ele><time>2026-04-23T11:58:34.776Z</time></trkpt><trkpt lat="40.8239833" lon="14.2107517"><ele>163.0</ele><time>2026-04-23T11:58:36.777Z</time></trkpt><trkpt lat="40.823935" lon="14.2106983"><ele>163.0</ele><time>2026-04-23T11:58:37.776Z</time></trkpt><trkpt lat="40.8238417" lon="14.2105967"><ele>163.0</ele><time>2026-04-23T11:58:39.775Z</time></trkpt><trkpt lat="40.8237333" lon="14.210515"><ele>163.2</ele><time>2026-04-23T11:58:41.779Z</time></trkpt><trkpt lat="40.8236333" lon="14.210425"><ele>163.4</ele><time>2026-04-23T11:58:43.776Z</time></trkpt><trkpt lat="40.8235383" lon="14.2103433"><ele>163.6</ele><time>2026-04-23T11:58:45.775Z</time></trkpt><trkpt lat="40.82345" lon="14.2102667"><ele>163.79999999999998</ele><time>2026-04-23T11:58:47.776Z</time></trkpt><trkpt lat="40.8233633" lon="14.210185"><ele>164.0</ele><time>2026-04-23T11:58:49.776Z</time></trkpt><trkpt lat="40.8232783" lon="14.2100967"><ele>164.75</ele><time>2026-04-23T11:58:51.778Z</time></trkpt><trkpt lat="40.8231933" lon="14.210005"><ele>165.5</ele><time>2026-04-23T11:58:53.776Z</time></trkpt><trkpt lat="40.823095" lon="14.2099183"><ele>166.25</ele><time>2026-04-23T11:58:55.778Z</time></trkpt><trkpt lat="40.82299" lon="14.209845"><ele>167.0</ele><time>2026-04-23T11:58:57.776Z</time></trkpt><trkpt lat="40.82289" lon="14.209765"><ele>167.2</ele><time>2026-04-23T11:58:59.776Z</time></trkpt><trkpt lat="40.8227883" lon="14.209685"><ele>167.39999999999998</ele><time>2026-04-23T11:59:01.776Z</time></trkpt><trkpt lat="40.8227" lon="14.2095967"><ele>167.60000000000002</ele><time>2026-04-23T11:59:03.776Z</time></trkpt><trkpt lat="40.8226067" lon="14.209515"><ele>167.8</ele><time>2026-04-23T11:59:05.776Z</time></trkpt><trkpt lat="40.82252" lon="14.209435"><ele>168.0</ele><time>2026-04-23T11:59:07.778Z</time></trkpt><trkpt lat="40.8224467" lon="14.209325"><ele>168.0</ele><time>2026-04-23T11:59:09.776Z</time></trkpt><trkpt lat="40.8223867" lon="14.2092033"><ele>168.0</ele><time>2026-04-23T11:59:11.777Z</time></trkpt><trkpt lat="40.822325" lon="14.2090833"><ele>168.0</ele><time>2026-04-23T11:59:13.777Z</time></trkpt><trkpt lat="40.8222683" lon="14.2089633"><ele>168.0</ele><time>2026-04-23T11:59:15.776Z</time></trkpt><trkpt lat="40.8222133" lon="14.2088383"><ele>168.0</ele><time>2026-04-23T11:59:17.781Z</time></trkpt><trkpt lat="40.8221517" lon="14.2087183"><ele>168.0</ele><time>2026-04-23T11:59:19.776Z</time></trkpt><trkpt lat="40.82209" lon="14.2086117"><ele>168.0</ele><time>2026-04-23T11:59:21.775Z</time></trkpt><trkpt lat="40.8220367" lon="14.208495"><ele>168.0</ele><time>2026-04-23T11:59:23.778Z</time></trkpt><trkpt lat="40.8219833" lon="14.2083767"><ele>168.0</ele><time>2026-04-23T11:59:25.777Z</time></trkpt><trkpt lat="40.82193" lon="14.20826"><ele>168.0</ele><time>2026-04-23T11:59:27.776Z</time></trkpt><trkpt lat="40.821875" lon="14.2081417"><ele>168.2</ele><time>2026-04-23T11:59:29.777Z</time></trkpt><trkpt lat="40.8218383" lon="14.208005"><ele>168.4</ele><time>2026-04-23T11:59:31.776Z</time></trkpt><trkpt lat="40.8217983" lon="14.2078667"><ele>168.6</ele><time>2026-04-23T11:59:33.778Z</time></trkpt><trkpt lat="40.821755" lon="14.20772"><ele>168.79999999999998</ele><time>2026-04-23T11:59:35.776Z</time></trkpt><trkpt lat="40.821705" lon="14.2075933"><ele>169.0</ele><time>2026-04-23T11:59:37.776Z</time></trkpt><trkpt lat="40.821665" lon="14.2074783"><ele>169.0</ele><time>2026-04-23T11:59:39.776Z</time></trkpt><trkpt lat="40.82163" lon="14.2073683"><ele>169.0</ele><time>2026-04-23T11:59:41.776Z</time></trkpt><trkpt lat="40.8215983" lon="14.2072533"><ele>169.0</ele><time>2026-04-23T11:59:43.777Z</time></trkpt><trkpt lat="40.82157" lon="14.2071467"><ele>169.0</ele><time>2026-04-23T11:59:45.776Z</time></trkpt><trkpt lat="40.821535" lon="14.2070383"><ele>169.0</ele><time>2026-04-23T11:59:47.776Z</time></trkpt><trkpt lat="40.8215067" lon="14.2069233"><ele>169.0</ele><time>2026-04-23T11:59:49.776Z</time></trkpt><trkpt lat="40.821465" lon="14.2068183"><ele>168.5</ele><time>2026-04-23T11:59:51.776Z</time></trkpt><trkpt lat="40.8214017" lon="14.2067133"><ele>168.0</ele><time>2026-04-23T11:59:53.776Z</time></trkpt><trkpt lat="40.8213583" lon="14.206615"><ele>167.5</ele><time>2026-04-23T11:59:55.776Z</time></trkpt><trkpt lat="40.8213083" lon="14.20653"><ele>167.0</ele><time>2026-04-23T11:59:57.777Z</time></trkpt><trkpt lat="40.8212567" lon="14.20644"><ele>166.5</ele><time>2026-04-23T11:59:59.776Z</time></trkpt><trkpt lat="40.8212" lon="14.2063583"><ele>166.0</ele><time>2026-04-23T12:00:01.776Z</time></trkpt><trkpt lat="40.8211333" lon="14.2062683"><ele>167.20000000000002</ele><time>2026-04-23T12:00:03.775Z</time></trkpt><trkpt lat="40.8210683" lon="14.2061767"><ele>168.4</ele><time>2026-04-23T12:00:05.776Z</time></trkpt><trkpt lat="40.8209983" lon="14.2060767"><ele>169.6</ele><time>2026-04-23T12:00:07.777Z</time></trkpt><trkpt lat="40.8209183" lon="14.2059867"><ele>170.8</ele><time>2026-04-23T12:00:09.775Z</time></trkpt><trkpt lat="40.8208383" lon="14.2059"><ele>172.0</ele><time>2026-04-23T12:00:11.776Z</time></trkpt><trkpt lat="40.8207567" lon="14.205825"><ele>172.0</ele><time>2026-04-23T12:00:13.777Z</time></trkpt><trkpt lat="40.820685" lon="14.2057417"><ele>172.0</ele><time>2026-04-23T12:00:15.776Z</time></trkpt><trkpt lat="40.8206183" lon="14.2056567"><ele>172.0</ele><time>2026-04-23T12:00:17.776Z</time></trkpt><trkpt lat="40.8205367" lon="14.2055983"><ele>172.0</ele><time>2026-04-23T12:00:19.776Z</time></trkpt><trkpt lat="40.8204783" lon="14.2054933"><ele>172.0</ele><time>2026-04-23T12:00:21.776Z</time></trkpt><trkpt lat="40.8204067" lon="14.205405"><ele>172.6</ele><time>2026-04-23T12:00:23.777Z</time></trkpt><trkpt lat="40.8203267" lon="14.20534"><ele>173.2</ele><time>2026-04-23T12:00:25.777Z</time></trkpt><trkpt lat="40.82025" lon="14.205265"><ele>173.8</ele><time>2026-04-23T12:00:27.776Z</time></trkpt><trkpt lat="40.8201783" lon="14.20518"><ele>174.4</ele><time>2026-04-23T12:00:29.776Z</time></trkpt><trkpt lat="40.820105" lon="14.2051"><ele>175.0</ele><time>2026-04-23T12:00:31.777Z</time></trkpt><trkpt lat="40.8200317" lon="14.2050167"><ele>175.0</ele><time>2026-04-23T12:00:33.775Z</time></trkpt><trkpt lat="40.819965" lon="14.2049367"><ele>175.0</ele><time>2026-04-23T12:00:35.776Z</time></trkpt><trkpt lat="40.8198983" lon="14.2048467"><ele>175.0</ele><time>2026-04-23T12:00:37.776Z</time></trkpt><trkpt lat="40.81982" lon="14.2047783"><ele>175.0</ele><time>2026-04-23T12:00:39.776Z</time></trkpt><trkpt lat="40.8197533" lon="14.2047"><ele>175.0</ele><time>2026-04-23T12:00:41.776Z</time></trkpt><trkpt lat="40.81969" lon="14.2046133"><ele>174.5</ele><time>2026-04-23T12:00:43.776Z</time></trkpt><trkpt lat="40.8196317" lon="14.2045417"><ele>174.0</ele><time>2026-04-23T12:00:45.776Z</time></trkpt><trkpt lat="40.819575" lon="14.204465"><ele>173.5</ele><time>2026-04-23T12:00:47.776Z</time></trkpt><trkpt lat="40.8195133" lon="14.20438"><ele>173.0</ele><time>2026-04-23T12:00:49.776Z</time></trkpt><trkpt lat="40.81946" lon="14.204285"><ele>172.5</ele><time>2026-04-23T12:00:51.776Z</time></trkpt><trkpt lat="40.819405" lon="14.2041917"><ele>172.0</ele><time>2026-04-23T12:00:53.777Z</time></trkpt><trkpt lat="40.8193517" lon="14.20409"><ele>174.0</ele><time>2026-04-23T12:00:55.776Z</time></trkpt><trkpt lat="40.819295" lon="14.20399"><ele>176.0</ele><time>2026-04-23T12:00:57.777Z</time></trkpt><trkpt lat="40.8192417" lon="14.2038783"><ele>178.0</ele><time>2026-04-23T12:00:59.776Z</time></trkpt><trkpt lat="40.8191817" lon="14.20378"><ele>180.0</ele><time>2026-04-23T12:01:01.775Z</time></trkpt><trkpt lat="40.8191317" lon="14.2036733"><ele>182.0</ele><time>2026-04-23T12:01:03.776Z</time></trkpt><trkpt lat="40.8190817" lon="14.2035583"><ele>182.0</ele><time>2026-04-23T12:01:05.776Z</time></trkpt><trkpt lat="40.8190217" lon="14.2034683"><ele>182.0</ele><time>2026-04-23T12:01:07.776Z</time></trkpt><trkpt lat="40.8189517" lon="14.2033983"><ele>182.0</ele><time>2026-04-23T12:01:09.778Z</time></trkpt><trkpt lat="40.8188967" lon="14.2033133"><ele>182.0</ele><time>2026-04-23T12:01:11.775Z</time></trkpt><trkpt lat="40.81884" lon="14.2032233"><ele>182.0</ele><time>2026-04-23T12:01:13.775Z</time></trkpt><trkpt lat="40.818785" lon="14.20314"><ele>182.0</ele><time>2026-04-23T12:01:15.775Z</time></trkpt><trkpt lat="40.81873" lon="14.2030533"><ele>182.66666666666666</ele><time>2026-04-23T12:01:17.775Z</time></trkpt><trkpt lat="40.8186717" lon="14.20297"><ele>183.33333333333331</ele><time>2026-04-23T12:01:19.775Z</time></trkpt><trkpt lat="40.8186117" lon="14.202895"><ele>184.0</ele><time>2026-04-23T12:01:21.779Z</time></trkpt><trkpt lat="40.818555" lon="14.2028167"><ele>184.66666666666666</ele><time>2026-04-23T12:01:23.775Z</time></trkpt><trkpt lat="40.8184933" lon="14.20274"><ele>185.33333333333334</ele><time>2026-04-23T12:01:25.775Z</time></trkpt><trkpt lat="40.8184217" lon="14.2026617"><ele>186.0</ele><time>2026-04-23T12:01:27.775Z</time></trkpt><trkpt lat="40.8183433" lon="14.20259"><ele>186.0</ele><time>2026-04-23T12:01:29.775Z</time></trkpt><trkpt lat="40.8182683" lon="14.2025267"><ele>186.0</ele><time>2026-04-23T12:01:31.776Z</time></trkpt><trkpt lat="40.8182" lon="14.20245"><ele>186.0</ele><time>2026-04-23T12:01:33.776Z</time></trkpt><trkpt lat="40.8181317" lon="14.2023633"><ele>186.0</ele><time>2026-04-23T12:01:35.779Z</time></trkpt><trkpt lat="40.8180667" lon="14.2022867"><ele>186.0</ele><time>2026-04-23T12:01:37.775Z</time></trkpt><trkpt lat="40.8180033" lon="14.2022133"><ele>186.0</ele><time>2026-04-23T12:01:39.776Z</time></trkpt><trkpt lat="40.8179533" lon="14.202135"><ele>185.60000000000002</ele><time>2026-04-23T12:01:41.775Z</time></trkpt><trkpt lat="40.8178917" lon="14.20206"><ele>185.2</ele><time>2026-04-23T12:01:43.775Z</time></trkpt><trkpt lat="40.8178233" lon="14.2019833"><ele>184.8</ele><time>2026-04-23T12:01:45.775Z</time></trkpt><trkpt lat="40.8177683" lon="14.2018767"><ele>184.39999999999998</ele><time>2026-04-23T12:01:47.776Z</time></trkpt><trkpt lat="40.8177017" lon="14.2017633"><ele>184.0</ele><time>2026-04-23T12:01:49.776Z</time></trkpt><trkpt lat="40.8176233" lon="14.2016783"><ele>185.5</ele><time>2026-04-23T12:01:51.775Z</time></trkpt><trkpt lat="40.81754" lon="14.2016"><ele>187.0</ele><time>2026-04-23T12:01:53.775Z</time></trkpt><trkpt lat="40.81744" lon="14.2015217"><ele>188.5</ele><time>2026-04-23T12:01:55.775Z</time></trkpt><trkpt lat="40.8173483" lon="14.20142"><ele>190.0</ele><time>2026-04-23T12:01:57.777Z</time></trkpt><trkpt lat="40.817245" lon="14.2013433"><ele>190.4</ele><time>2026-04-23T12:01:59.779Z</time></trkpt><trkpt lat="40.8171333" lon="14.20126"><ele>190.8</ele><time>2026-04-23T12:02:01.78Z</time></trkpt><trkpt lat="40.8170383" lon="14.2011533"><ele>191.2</ele><time>2026-04-23T12:02:03.775Z</time></trkpt><trkpt lat="40.8169783" lon="14.20111"><ele>191.6</ele><time>2026-04-23T12:02:04.776Z</time></trkpt><trkpt lat="40.8169267" lon="14.2010583"><ele>192.0</ele><time>2026-04-23T12:02:05.776Z</time></trkpt><trkpt lat="40.816875" lon="14.2010033"><ele>191.99999999999997</ele><time>2026-04-23T12:02:06.776Z</time></trkpt><trkpt lat="40.8168233" lon="14.200945"><ele>192.0</ele><time>2026-04-23T12:02:07.777Z</time></trkpt><trkpt lat="40.81677" lon="14.200895"><ele>192.0</ele><time>2026-04-23T12:02:08.777Z</time></trkpt><trkpt lat="40.816715" lon="14.2008383"><ele>192.0</ele><time>2026-04-23T12:02:09.777Z</time></trkpt><trkpt lat="40.8166567" lon="14.20079"><ele>192.0</ele><time>2026-04-23T12:02:10.777Z</time></trkpt><trkpt lat="40.816595" lon="14.2007467"><ele>191.99999999999997</ele><time>2026-04-23T12:02:11.777Z</time></trkpt><trkpt lat="40.816535" lon="14.2007033"><ele>192.0</ele><time>2026-04-23T12:02:12.776Z</time></trkpt><trkpt lat="40.8164683" lon="14.2006783"><ele>192.0</ele><time>2026-04-23T12:02:13.777Z</time></trkpt><trkpt lat="40.8164017" lon="14.2006533"><ele>192.0</ele><time>2026-04-23T12:02:14.776Z</time></trkpt><trkpt lat="40.8163367" lon="14.2006233"><ele>192.0</ele><time>2026-04-23T12:02:15.778Z</time></trkpt><trkpt lat="40.8162733" lon="14.2005933"><ele>192.0</ele><time>2026-04-23T12:02:16.777Z</time></trkpt><trkpt lat="40.81621" lon="14.200565"><ele>192.0</ele><time>2026-04-23T12:02:17.776Z</time></trkpt><trkpt lat="40.8160983" lon="14.20052"><ele>192.0</ele><time>2026-04-23T12:02:19.777Z</time></trkpt><trkpt lat="40.8159867" lon="14.2004567"><ele>190.0</ele><time>2026-04-23T12:02:21.776Z</time></trkpt><trkpt lat="40.8158767" lon="14.20038"><ele>188.0</ele><time>2026-04-23T12:02:23.779Z</time></trkpt><trkpt lat="40.8158183" lon="14.20034"><ele>186.0</ele><time>2026-04-23T12:02:24.777Z</time></trkpt><trkpt lat="40.815755" lon="14.200305"><ele>184.0</ele><time>2026-04-23T12:02:25.777Z</time></trkpt><trkpt lat="40.81569" lon="14.2002683"><ele>182.0</ele><time>2026-04-23T12:02:26.777Z</time></trkpt><trkpt lat="40.8156233" lon="14.2002283"><ele>180.0</ele><time>2026-04-23T12:02:27.776Z</time></trkpt><trkpt lat="40.8155633" lon="14.200185"><ele>180.0</ele><time>2026-04-23T12:02:28.776Z</time></trkpt><trkpt lat="40.8154967" lon="14.2001417"><ele>180.0</ele><time>2026-04-23T12:02:29.776Z</time></trkpt><trkpt lat="40.81543" lon="14.2000967"><ele>180.0</ele><time>2026-04-23T12:02:30.776Z</time></trkpt><trkpt lat="40.8153583" lon="14.200055"><ele>180.0</ele><time>2026-04-23T12:02:31.778Z</time></trkpt><trkpt lat="40.8152933" lon="14.2000117"><ele>180.0</ele><time>2026-04-23T12:02:32.776Z</time></trkpt><trkpt lat="40.8152217" lon="14.199975"><ele>180.0</ele><time>2026-04-23T12:02:33.777Z</time></trkpt><trkpt lat="40.815145" lon="14.1999383"><ele>180.0</ele><time>2026-04-23T12:02:34.781Z</time></trkpt><trkpt lat="40.8150767" lon="14.1998983"><ele>180.0</ele><time>2026-04-23T12:02:35.78Z</time></trkpt><trkpt lat="40.8150133" lon="14.19986"><ele>180.0</ele><time>2026-04-23T12:02:36.776Z</time></trkpt><trkpt lat="40.81495" lon="14.19982"><ele>180.0</ele><time>2026-04-23T12:02:37.779Z</time></trkpt><trkpt lat="40.81489" lon="14.1997767"><ele>180.0</ele><time>2026-04-23T12:02:38.777Z</time></trkpt><trkpt lat="40.8148283" lon="14.1997333"><ele>180.0</ele><time>2026-04-23T12:02:39.777Z</time></trkpt><trkpt lat="40.8147683" lon="14.1996817"><ele>180.0</ele><time>2026-04-23T12:02:40.778Z</time></trkpt><trkpt lat="40.8147083" lon="14.19963"><ele>179.0</ele><time>2026-04-23T12:02:41.78Z</time></trkpt><trkpt lat="40.8146433" lon="14.1995817"><ele>178.0</ele><time>2026-04-23T12:02:42.777Z</time></trkpt><trkpt lat="40.814575" lon="14.1995433"><ele>177.0</ele><time>2026-04-23T12:02:43.778Z</time></trkpt><trkpt lat="40.8145133" lon="14.1994883"><ele>176.0</ele><time>2026-04-23T12:02:44.779Z</time></trkpt><trkpt lat="40.8144483" lon="14.1994417"><ele>175.0</ele><time>2026-04-23T12:02:45.777Z</time></trkpt><trkpt lat="40.8143817" lon="14.1993933"><ele>174.0</ele><time>2026-04-23T12:02:46.779Z</time></trkpt><trkpt lat="40.8143167" lon="14.19934"><ele>173.28571428571428</ele><time>2026-04-23T12:02:47.78Z</time></trkpt><trkpt lat="40.8142533" lon="14.1992883"><ele>172.57142857142858</ele><time>2026-04-23T12:02:48.778Z</time></trkpt><trkpt lat="40.8141883" lon="14.1992467"><ele>171.85714285714286</ele><time>2026-04-23T12:02:49.779Z</time></trkpt><trkpt lat="40.8141217" lon="14.1992033"><ele>171.14285714285714</ele><time>2026-04-23T12:02:50.78Z</time></trkpt><trkpt lat="40.8140483" lon="14.1991767"><ele>170.42857142857142</ele><time>2026-04-23T12:02:51.776Z</time></trkpt><trkpt lat="40.8139733" lon="14.199155"><ele>169.71428571428572</ele><time>2026-04-23T12:02:52.78Z</time></trkpt><trkpt lat="40.8139" lon="14.1991333"><ele>169.0</ele><time>2026-04-23T12:02:53.779Z</time></trkpt><trkpt lat="40.8138267" lon="14.1991117"><ele>169.0</ele><time>2026-04-23T12:02:54.777Z</time></trkpt><trkpt lat="40.8137567" lon="14.1990833"><ele>169.0</ele><time>2026-04-23T12:02:55.779Z</time></trkpt><trkpt lat="40.8136867" lon="14.19906"><ele>169.0</ele><time>2026-04-23T12:02:56.778Z</time></trkpt><trkpt lat="40.8136167" lon="14.1990483"><ele>169.0</ele><time>2026-04-23T12:02:57.776Z</time></trkpt><trkpt lat="40.8135467" lon="14.1990467"><ele>169.0</ele><time>2026-04-23T12:02:58.779Z</time></trkpt><trkpt lat="40.813475" lon="14.19905"><ele>169.0</ele><time>2026-04-23T12:02:59.779Z</time></trkpt><trkpt lat="40.8134017" lon="14.1990633"><ele>169.0</ele><time>2026-04-23T12:03:00.778Z</time></trkpt><trkpt lat="40.8133233" lon="14.1990667"><ele>170.16666666666669</ele><time>2026-04-23T12:03:01.78Z</time></trkpt><trkpt lat="40.813245" lon="14.1990683"><ele>171.33333333333334</ele><time>2026-04-23T12:03:02.779Z</time></trkpt><trkpt lat="40.8131667" lon="14.1990633"><ele>172.5</ele><time>2026-04-23T12:03:03.777Z</time></trkpt><trkpt lat="40.8130833" lon="14.1990583"><ele>173.66666666666666</ele><time>2026-04-23T12:03:04.779Z</time></trkpt><trkpt lat="40.8129967" lon="14.1990467"><ele>174.83333333333331</ele><time>2026-04-23T12:03:05.779Z</time></trkpt><trkpt lat="40.8129117" lon="14.1990333"><ele>176.0</ele><time>2026-04-23T12:03:06.777Z</time></trkpt><trkpt lat="40.8128283" lon="14.1990233"><ele>176.0</ele><time>2026-04-23T12:03:07.78Z</time></trkpt><trkpt lat="40.812745" lon="14.1990017"><ele>176.0</ele><time>2026-04-23T12:03:08.779Z</time></trkpt><trkpt lat="40.8126633" lon="14.1989733"><ele>176.0</ele><time>2026-04-23T12:03:09.776Z</time></trkpt><trkpt lat="40.8125767" lon="14.1989383"><ele>176.0</ele><time>2026-04-23T12:03:10.779Z</time></trkpt><trkpt lat="40.8124917" lon="14.19889"><ele>176.0</ele><time>2026-04-23T12:03:11.78Z</time></trkpt><trkpt lat="40.812405" lon="14.198845"><ele>176.0</ele><time>2026-04-23T12:03:12.778Z</time></trkpt><trkpt lat="40.8123183" lon="14.1987983"><ele>173.60000000000002</ele><time>2026-04-23T12:03:13.778Z</time></trkpt><trkpt lat="40.8122317" lon="14.1987433"><ele>171.2</ele><time>2026-04-23T12:03:14.778Z</time></trkpt><trkpt lat="40.8121483" lon="14.1986883"><ele>168.8</ele><time>2026-04-23T12:03:15.776Z</time></trkpt><trkpt lat="40.8120667" lon="14.1986317"><ele>166.39999999999998</ele><time>2026-04-23T12:03:16.778Z</time></trkpt><trkpt lat="40.8119833" lon="14.1985833"><ele>164.0</ele><time>2026-04-23T12:03:17.777Z</time></trkpt><trkpt lat="40.8119017" lon="14.198525"><ele>164.39999999999998</ele><time>2026-04-23T12:03:18.776Z</time></trkpt><trkpt lat="40.81182" lon="14.198465"><ele>164.8</ele><time>2026-04-23T12:03:19.777Z</time></trkpt><trkpt lat="40.8117417" lon="14.198405"><ele>165.2</ele><time>2026-04-23T12:03:20.778Z</time></trkpt><trkpt lat="40.8116567" lon="14.1983517"><ele>165.60000000000002</ele><time>2026-04-23T12:03:21.778Z</time></trkpt><trkpt lat="40.811575" lon="14.1983017"><ele>166.0</ele><time>2026-04-23T12:03:22.778Z</time></trkpt><trkpt lat="40.8114933" lon="14.19826"><ele>166.0</ele><time>2026-04-23T12:03:23.779Z</time></trkpt><trkpt lat="40.811415" lon="14.198215"><ele>166.0</ele><time>2026-04-23T12:03:24.778Z</time></trkpt><trkpt lat="40.8113433" lon="14.19817"><ele>166.0</ele><time>2026-04-23T12:03:25.778Z</time></trkpt><trkpt lat="40.8112733" lon="14.1981317"><ele>166.0</ele><time>2026-04-23T12:03:26.779Z</time></trkpt><trkpt lat="40.811205" lon="14.1981033"><ele>166.0</ele><time>2026-04-23T12:03:27.776Z</time></trkpt><trkpt lat="40.811135" lon="14.1980833"><ele>166.0</ele><time>2026-04-23T12:03:28.78Z</time></trkpt><trkpt lat="40.8110683" lon="14.1980667"><ele>166.0</ele><time>2026-04-23T12:03:29.779Z</time></trkpt><trkpt lat="40.811005" lon="14.19805"><ele>166.0</ele><time>2026-04-23T12:03:30.777Z</time></trkpt><trkpt lat="40.8108833" lon="14.1980217"><ele>166.0</ele><time>2026-04-23T12:03:32.779Z</time></trkpt><trkpt lat="40.81082" lon="14.19801"><ele>166.0</ele><time>2026-04-23T12:03:33.778Z</time></trkpt><trkpt lat="40.8106983" lon="14.1979917"><ele>166.0</ele><time>2026-04-23T12:03:35.778Z</time></trkpt><trkpt lat="40.8106333" lon="14.1979817"><ele>166.0</ele><time>2026-04-23T12:03:36.778Z</time></trkpt><trkpt lat="40.8105667" lon="14.19797"><ele>166.0</ele><time>2026-04-23T12:03:37.781Z</time></trkpt><trkpt lat="40.8105017" lon="14.197965"><ele>166.0</ele><time>2026-04-23T12:03:38.779Z</time></trkpt><trkpt lat="40.810435" lon="14.197955"><ele>166.0</ele><time>2026-04-23T12:03:39.779Z</time></trkpt><trkpt lat="40.81037" lon="14.1979417"><ele>166.0</ele><time>2026-04-23T12:03:40.779Z</time></trkpt><trkpt lat="40.8103033" lon="14.1979217"><ele>166.0</ele><time>2026-04-23T12:03:41.778Z</time></trkpt><trkpt lat="40.8102383" lon="14.1978817"><ele>166.0</ele><time>2026-04-23T12:03:42.78Z</time></trkpt><trkpt lat="40.8101783" lon="14.1978317"><ele>166.0</ele><time>2026-04-23T12:03:43.78Z</time></trkpt><trkpt lat="40.8101233" lon="14.197765"><ele>166.28571428571428</ele><time>2026-04-23T12:03:44.779Z</time></trkpt><trkpt lat="40.8100767" lon="14.1976867"><ele>166.57142857142858</ele><time>2026-04-23T12:03:45.779Z</time></trkpt><trkpt lat="40.8100367" lon="14.1976033"><ele>166.85714285714286</ele><time>2026-04-23T12:03:46.779Z</time></trkpt><trkpt lat="40.8100033" lon="14.1975133"><ele>167.14285714285714</ele><time>2026-04-23T12:03:47.778Z</time></trkpt><trkpt lat="40.809965" lon="14.197435"><ele>167.42857142857144</ele><time>2026-04-23T12:03:48.78Z</time></trkpt><trkpt lat="40.8099283" lon="14.1973567"><ele>167.71428571428572</ele><time>2026-04-23T12:03:49.78Z</time></trkpt><trkpt lat="40.809895" lon="14.1972817"><ele>168.0</ele><time>2026-04-23T12:03:50.778Z</time></trkpt><trkpt lat="40.80986" lon="14.1972083"><ele>167.16666666666666</ele><time>2026-04-23T12:03:51.779Z</time></trkpt><trkpt lat="40.8098233" lon="14.1971383"><ele>166.33333333333334</ele><time>2026-04-23T12:03:52.779Z</time></trkpt><trkpt lat="40.809785" lon="14.1970683"><ele>165.5</ele><time>2026-04-23T12:03:53.778Z</time></trkpt><trkpt lat="40.80975" lon="14.1969967"><ele>164.66666666666669</ele><time>2026-04-23T12:03:54.779Z</time></trkpt><trkpt lat="40.8097133" lon="14.1969267"><ele>163.83333333333334</ele><time>2026-04-23T12:03:55.78Z</time></trkpt><trkpt lat="40.809645" lon="14.196795"><ele>163.0</ele><time>2026-04-23T12:03:57.778Z</time></trkpt><trkpt lat="40.809575" lon="14.1966783"><ele>163.0</ele><time>2026-04-23T12:03:59.779Z</time></trkpt><trkpt lat="40.809505" lon="14.1965633"><ele>163.0</ele><time>2026-04-23T12:04:01.779Z</time></trkpt><trkpt lat="40.8094333" lon="14.1964317"><ele>163.0</ele><time>2026-04-23T12:04:03.779Z</time></trkpt><trkpt lat="40.8093483" lon="14.196325"><ele>163.0</ele><time>2026-04-23T12:04:05.779Z</time></trkpt><trkpt lat="40.80928" lon="14.1962067"><ele>163.4</ele><time>2026-04-23T12:04:07.78Z</time></trkpt><trkpt lat="40.8092167" lon="14.1960783"><ele>163.8</ele><time>2026-04-23T12:04:09.779Z</time></trkpt><trkpt lat="40.8091517" lon="14.1959683"><ele>164.2</ele><time>2026-04-23T12:04:11.779Z</time></trkpt><trkpt lat="40.809085" lon="14.19587"><ele>164.6</ele><time>2026-04-23T12:04:13.78Z</time></trkpt><trkpt lat="40.8090083" lon="14.1957633"><ele>165.0</ele><time>2026-04-23T12:04:15.777Z</time></trkpt><trkpt lat="40.80892" lon="14.1956517"><ele>165.0</ele><time>2026-04-23T12:04:17.776Z</time></trkpt><trkpt lat="40.8088267" lon="14.1955417"><ele>165.0</ele><time>2026-04-23T12:04:19.779Z</time></trkpt><trkpt lat="40.8087867" lon="14.1954683"><ele>165.0</ele><time>2026-04-23T12:04:20.777Z</time></trkpt><trkpt lat="40.8087467" lon="14.195395"><ele>165.0</ele><time>2026-04-23T12:04:21.779Z</time></trkpt><trkpt lat="40.8087117" lon="14.1953183"><ele>165.0</ele><time>2026-04-23T12:04:22.778Z</time></trkpt><trkpt lat="40.808695" lon="14.1952283"><ele>165.0</ele><time>2026-04-23T12:04:23.779Z</time></trkpt><trkpt lat="40.80867" lon="14.1951467"><ele>165.0</ele><time>2026-04-23T12:04:24.78Z</time></trkpt><trkpt lat="40.80865" lon="14.1950583"><ele>165.0</ele><time>2026-04-23T12:04:25.781Z</time></trkpt><trkpt lat="40.80862" lon="14.194975"><ele>165.0</ele><time>2026-04-23T12:04:26.777Z</time></trkpt><trkpt lat="40.8085967" lon="14.194885"><ele>165.0</ele><time>2026-04-23T12:04:27.779Z</time></trkpt><trkpt lat="40.80853" lon="14.194765"><ele>165.0</ele><time>2026-04-23T12:04:29.78Z</time></trkpt><trkpt lat="40.808485" lon="14.1947017"><ele>165.0</ele><time>2026-04-23T12:04:30.779Z</time></trkpt><trkpt lat="40.8084467" lon="14.19463"><ele>165.0</ele><time>2026-04-23T12:04:31.779Z</time></trkpt><trkpt lat="40.808405" lon="14.1945567"><ele>165.0</ele><time>2026-04-23T12:04:32.778Z</time></trkpt><trkpt lat="40.8083633" lon="14.19448"><ele>165.0</ele><time>2026-04-23T12:04:33.777Z</time></trkpt><trkpt lat="40.8083183" lon="14.1944067"><ele>165.0</ele><time>2026-04-23T12:04:34.778Z</time></trkpt><trkpt lat="40.8082733" lon="14.1943433"><ele>165.0</ele><time>2026-04-23T12:04:35.778Z</time></trkpt><trkpt lat="40.8081983" lon="14.1942283"><ele>165.0</ele><time>2026-04-23T12:04:37.779Z</time></trkpt><trkpt lat="40.8081367" lon="14.1941383"><ele>165.0</ele><time>2026-04-23T12:04:39.78Z</time></trkpt><trkpt lat="40.8080867" lon="14.1940567"><ele>165.0</ele><time>2026-04-23T12:04:41.778Z</time></trkpt><trkpt lat="40.8080283" lon="14.194"><ele>165.0</ele><time>2026-04-23T12:04:43.78Z</time></trkpt><trkpt lat="40.8079767" lon="14.1938633"><ele>165.0</ele><time>2026-04-23T12:05:26.776Z</time></trkpt><trkpt lat="40.807925" lon="14.1938033"><ele>165.0</ele><time>2026-04-23T12:05:30.776Z</time></trkpt><trkpt lat="40.8078567" lon="14.1937267"><ele>165.0</ele><time>2026-04-23T12:05:33.776Z</time></trkpt><trkpt lat="40.8077933" lon="14.1936617"><ele>164.16666666666666</ele><time>2026-04-23T12:05:35.776Z</time></trkpt><trkpt lat="40.8077367" lon="14.1935817"><ele>163.33333333333334</ele><time>2026-04-23T12:05:37.775Z</time></trkpt><trkpt lat="40.8076883" lon="14.1934867"><ele>162.5</ele><time>2026-04-23T12:05:39.775Z</time></trkpt><trkpt lat="40.8076367" lon="14.1933967"><ele>161.66666666666669</ele><time>2026-04-23T12:05:41.776Z</time></trkpt><trkpt lat="40.80758" lon="14.1933183"><ele>160.83333333333334</ele><time>2026-04-23T12:05:43.777Z</time></trkpt><trkpt lat="40.8075067" lon="14.19325"><ele>160.0</ele><time>2026-04-23T12:05:45.777Z</time></trkpt><trkpt lat="40.8074267" lon="14.1931817"><ele>158.33333333333334</ele><time>2026-04-23T12:05:47.78Z</time></trkpt><trkpt lat="40.80734" lon="14.1931317"><ele>156.66666666666669</ele><time>2026-04-23T12:05:49.777Z</time></trkpt><trkpt lat="40.807235" lon="14.1930833"><ele>155.0</ele><time>2026-04-23T12:05:51.776Z</time></trkpt><trkpt lat="40.807155" lon="14.1929933"><ele>153.33333333333334</ele><time>2026-04-23T12:05:53.776Z</time></trkpt><trkpt lat="40.8071133" lon="14.1929267"><ele>151.66666666666666</ele><time>2026-04-23T12:05:54.775Z</time></trkpt><trkpt lat="40.8070817" lon="14.1928533"><ele>150.0</ele><time>2026-04-23T12:05:55.777Z</time></trkpt><trkpt lat="40.8070517" lon="14.192765"><ele>149.99999999999997</ele><time>2026-04-23T12:05:56.775Z</time></trkpt><trkpt lat="40.80703" lon="14.1926817"><ele>150.0</ele><time>2026-04-23T12:05:57.779Z</time></trkpt><trkpt lat="40.8070083" lon="14.1925917"><ele>150.0</ele><time>2026-04-23T12:05:58.775Z</time></trkpt><trkpt lat="40.8069867" lon="14.1925033"><ele>150.0</ele><time>2026-04-23T12:05:59.776Z</time></trkpt><trkpt lat="40.8069683" lon="14.1924117"><ele>150.0</ele><time>2026-04-23T12:06:00.775Z</time></trkpt><trkpt lat="40.806955" lon="14.19231"><ele>149.99999999999997</ele><time>2026-04-23T12:06:01.777Z</time></trkpt><trkpt lat="40.8069383" lon="14.1922133"><ele>150.0</ele><time>2026-04-23T12:06:02.776Z</time></trkpt><trkpt lat="40.806925" lon="14.19213"><ele>151.0</ele><time>2026-04-23T12:06:03.776Z</time></trkpt><trkpt lat="40.8069117" lon="14.1919983"><ele>152.0</ele><time>2026-04-23T12:06:05.776Z</time></trkpt><trkpt lat="40.8068883" lon="14.1918867"><ele>153.0</ele><time>2026-04-23T12:06:07.776Z</time></trkpt><trkpt lat="40.80686" lon="14.1917767"><ele>154.0</ele><time>2026-04-23T12:06:09.775Z</time></trkpt><trkpt lat="40.80684" lon="14.19164"><ele>155.0</ele><time>2026-04-23T12:06:11.776Z</time></trkpt><trkpt lat="40.8068217" lon="14.1914867"><ele>155.0</ele><time>2026-04-23T12:06:13.776Z</time></trkpt><trkpt lat="40.8068067" lon="14.1914"><ele>155.0</ele><time>2026-04-23T12:06:14.776Z</time></trkpt><trkpt lat="40.8067933" lon="14.191315"><ele>155.0</ele><time>2026-04-23T12:06:15.775Z</time></trkpt><trkpt lat="40.806785" lon="14.1912233"><ele>155.0</ele><time>2026-04-23T12:06:16.775Z</time></trkpt><trkpt lat="40.806785" lon="14.1911233"><ele>155.0</ele><time>2026-04-23T12:06:17.776Z</time></trkpt><trkpt lat="40.8067867" lon="14.1910133"><ele>155.0</ele><time>2026-04-23T12:06:18.778Z</time></trkpt><trkpt lat="40.8067917" lon="14.1909067"><ele>155.0</ele><time>2026-04-23T12:06:19.776Z</time></trkpt><trkpt lat="40.806805" lon="14.1908"><ele>155.0</ele><time>2026-04-23T12:06:20.779Z</time></trkpt><trkpt lat="40.8068117" lon="14.1907"><ele>155.0</ele><time>2026-04-23T12:06:21.775Z</time></trkpt><trkpt lat="40.8068183" lon="14.1906033"><ele>155.0</ele><time>2026-04-23T12:06:22.777Z</time></trkpt><trkpt lat="40.8068267" lon="14.1905083"><ele>155.0</ele><time>2026-04-23T12:06:23.776Z</time></trkpt><trkpt lat="40.8068383" lon="14.1904183"><ele>155.0</ele><time>2026-04-23T12:06:24.775Z</time></trkpt><trkpt lat="40.8068517" lon="14.1903233"><ele>155.0</ele><time>2026-04-23T12:06:25.777Z</time></trkpt><trkpt lat="40.8068617" lon="14.1902383"><ele>155.0</ele><time>2026-04-23T12:06:26.778Z</time></trkpt><trkpt lat="40.8068733" lon="14.1901517"><ele>150.0</ele><time>2026-04-23T12:06:27.776Z</time></trkpt><trkpt lat="40.806885" lon="14.1900617"><ele>145.0</ele><time>2026-04-23T12:06:28.775Z</time></trkpt><trkpt lat="40.8068967" lon="14.18997"><ele>140.0</ele><time>2026-04-23T12:06:29.777Z</time></trkpt><trkpt lat="40.8069" lon="14.1898783"><ele>135.0</ele><time>2026-04-23T12:06:30.783Z</time></trkpt><trkpt lat="40.8069033" lon="14.1897767"><ele>130.0</ele><time>2026-04-23T12:06:31.776Z</time></trkpt><trkpt lat="40.8069033" lon="14.18968"><ele>125.0</ele><time>2026-04-23T12:06:32.776Z</time></trkpt><trkpt lat="40.8068983" lon="14.1895767"><ele>120.0</ele><time>2026-04-23T12:06:33.775Z</time></trkpt><trkpt lat="40.8068917" lon="14.1894633"><ele>118.66666666666667</ele><time>2026-04-23T12:06:34.775Z</time></trkpt><trkpt lat="40.80688" lon="14.18935"><ele>117.33333333333334</ele><time>2026-04-23T12:06:35.776Z</time></trkpt><trkpt lat="40.80687" lon="14.189245"><ele>116.0</ele><time>2026-04-23T12:06:36.775Z</time></trkpt><trkpt lat="40.80686" lon="14.189155"><ele>114.66666666666667</ele><time>2026-04-23T12:06:37.776Z</time></trkpt><trkpt lat="40.8068433" lon="14.189065"><ele>113.33333333333334</ele><time>2026-04-23T12:06:38.776Z</time></trkpt><trkpt lat="40.806825" lon="14.1889733"><ele>112.0</ele><time>2026-04-23T12:06:39.777Z</time></trkpt><trkpt lat="40.8068017" lon="14.18888"><ele>115.83333333333334</ele><time>2026-04-23T12:06:40.777Z</time></trkpt><trkpt lat="40.806775" lon="14.1887833"><ele>119.66666666666667</ele><time>2026-04-23T12:06:41.776Z</time></trkpt><trkpt lat="40.8067417" lon="14.18869"><ele>123.5</ele><time>2026-04-23T12:06:42.776Z</time></trkpt><trkpt lat="40.8066983" lon="14.1886017"><ele>127.33333333333334</ele><time>2026-04-23T12:06:43.777Z</time></trkpt><trkpt lat="40.80665" lon="14.1885217"><ele>131.16666666666666</ele><time>2026-04-23T12:06:44.776Z</time></trkpt><trkpt lat="40.8065983" lon="14.18845"><ele>135.0</ele><time>2026-04-23T12:06:45.776Z</time></trkpt><trkpt lat="40.8065433" lon="14.1883867"><ele>135.0</ele><time>2026-04-23T12:06:46.777Z</time></trkpt><trkpt lat="40.8064767" lon="14.18833"><ele>135.0</ele><time>2026-04-23T12:06:47.777Z</time></trkpt><trkpt lat="40.8064033" lon="14.188275"><ele>135.0</ele><time>2026-04-23T12:06:48.775Z</time></trkpt><trkpt lat="40.8063317" lon="14.18822"><ele>135.0</ele><time>2026-04-23T12:06:49.777Z</time></trkpt><trkpt lat="40.8062567" lon="14.18816"><ele>135.0</ele><time>2026-04-23T12:06:50.776Z</time></trkpt><trkpt lat="40.8061767" lon="14.1880933"><ele>135.0</ele><time>2026-04-23T12:06:51.775Z</time></trkpt><trkpt lat="40.8060967" lon="14.1880267"><ele>133.0</ele><time>2026-04-23T12:06:52.777Z</time></trkpt><trkpt lat="40.8060167" lon="14.1879533"><ele>131.0</ele><time>2026-04-23T12:06:53.777Z</time></trkpt><trkpt lat="40.80594" lon="14.1878717"><ele>129.0</ele><time>2026-04-23T12:06:54.775Z</time></trkpt><trkpt lat="40.8058567" lon="14.1877917"><ele>127.0</ele><time>2026-04-23T12:06:55.778Z</time></trkpt><trkpt lat="40.8057833" lon="14.187715"><ele>125.0</ele><time>2026-04-23T12:06:56.776Z</time></trkpt><trkpt lat="40.8057167" lon="14.187635"><ele>124.99999999999999</ele><time>2026-04-23T12:06:57.777Z</time></trkpt><trkpt lat="40.805655" lon="14.1875533"><ele>125.0</ele><time>2026-04-23T12:06:58.777Z</time></trkpt><trkpt lat="40.8055983" lon="14.187475"><ele>125.0</ele><time>2026-04-23T12:06:59.776Z</time></trkpt><trkpt lat="40.8055383" lon="14.1874017"><ele>125.0</ele><time>2026-04-23T12:07:00.775Z</time></trkpt><trkpt lat="40.8054867" lon="14.1873217"><ele>124.99999999999999</ele><time>2026-04-23T12:07:01.776Z</time></trkpt><trkpt lat="40.805435" lon="14.18724"><ele>125.0</ele><time>2026-04-23T12:07:02.776Z</time></trkpt><trkpt lat="40.8053867" lon="14.1871567"><ele>125.33333333333333</ele><time>2026-04-23T12:07:03.775Z</time></trkpt><trkpt lat="40.8053383" lon="14.18707"><ele>125.66666666666666</ele><time>2026-04-23T12:07:04.776Z</time></trkpt><trkpt lat="40.8052833" lon="14.1869817"><ele>126.0</ele><time>2026-04-23T12:07:05.777Z</time></trkpt><trkpt lat="40.80523" lon="14.18689"><ele>126.33333333333334</ele><time>2026-04-23T12:07:06.776Z</time></trkpt><trkpt lat="40.8051817" lon="14.186805"><ele>126.66666666666667</ele><time>2026-04-23T12:07:07.776Z</time></trkpt><trkpt lat="40.805135" lon="14.1867267"><ele>127.0</ele><time>2026-04-23T12:07:08.776Z</time></trkpt><trkpt lat="40.8050883" lon="14.186655"><ele>127.00000000000001</ele><time>2026-04-23T12:07:09.776Z</time></trkpt><trkpt lat="40.80504" lon="14.1865833"><ele>127.0</ele><time>2026-04-23T12:07:10.776Z</time></trkpt><trkpt lat="40.80499" lon="14.18651"><ele>127.0</ele><time>2026-04-23T12:07:11.776Z</time></trkpt><trkpt lat="40.8049383" lon="14.1864383"><ele>127.0</ele><time>2026-04-23T12:07:12.776Z</time></trkpt><trkpt lat="40.8048817" lon="14.1863733"><ele>127.00000000000001</ele><time>2026-04-23T12:07:13.776Z</time></trkpt><trkpt lat="40.804825" lon="14.1863017"><ele>127.0</ele><time>2026-04-23T12:07:14.775Z</time></trkpt><trkpt lat="40.804755" lon="14.1862283"><ele>123.83333333333334</ele><time>2026-04-23T12:07:15.775Z</time></trkpt><trkpt lat="40.8046783" lon="14.1861867"><ele>120.66666666666667</ele><time>2026-04-23T12:07:16.776Z</time></trkpt><trkpt lat="40.8045883" lon="14.186165"><ele>117.5</ele><time>2026-04-23T12:07:17.777Z</time></trkpt><trkpt lat="40.8044983" lon="14.186165"><ele>114.33333333333334</ele><time>2026-04-23T12:07:18.777Z</time></trkpt><trkpt lat="40.8044067" lon="14.1861767"><ele>111.16666666666667</ele><time>2026-04-23T12:07:19.777Z</time></trkpt><trkpt lat="40.804315" lon="14.1861967"><ele>108.0</ele><time>2026-04-23T12:07:20.775Z</time></trkpt><trkpt lat="40.80423" lon="14.18624"><ele>108.0</ele><time>2026-04-23T12:07:21.776Z</time></trkpt><trkpt lat="40.8041633" lon="14.1862817"><ele>108.0</ele><time>2026-04-23T12:07:22.776Z</time></trkpt><trkpt lat="40.8041" lon="14.1863383"><ele>108.0</ele><time>2026-04-23T12:07:23.776Z</time></trkpt><trkpt lat="40.8040433" lon="14.1863817"><ele>108.0</ele><time>2026-04-23T12:07:24.776Z</time></trkpt><trkpt lat="40.803985" lon="14.1864333"><ele>108.0</ele><time>2026-04-23T12:07:25.778Z</time></trkpt><trkpt lat="40.8039183" lon="14.1864867"><ele>108.0</ele><time>2026-04-23T12:07:26.778Z</time></trkpt><trkpt lat="40.803855" lon="14.1865467"><ele>108.0</ele><time>2026-04-23T12:07:27.777Z</time></trkpt><trkpt lat="40.8037917" lon="14.18661"><ele>110.33333333333333</ele><time>2026-04-23T12:07:28.776Z</time></trkpt><trkpt lat="40.8037433" lon="14.186675"><ele>112.66666666666666</ele><time>2026-04-23T12:07:29.777Z</time></trkpt><trkpt lat="40.803675" lon="14.1867833"><ele>115.0</ele><time>2026-04-23T12:07:31.776Z</time></trkpt><trkpt lat="40.80362" lon="14.1868617"><ele>117.33333333333333</ele><time>2026-04-23T12:07:33.775Z</time></trkpt><trkpt lat="40.8035883" lon="14.1869583"><ele>119.66666666666666</ele><time>2026-04-23T12:07:36.776Z</time></trkpt><trkpt lat="40.8036667" lon="14.1869733"><ele>122.0</ele><time>2026-04-23T12:07:40.776Z</time></trkpt><trkpt lat="40.80372" lon="14.1869283"><ele>121.99999999999999</ele><time>2026-04-23T12:07:43.778Z</time></trkpt><trkpt lat="40.8037633" lon="14.1868417"><ele>122.0</ele><time>2026-04-23T12:07:46.776Z</time></trkpt><trkpt lat="40.8037517" lon="14.1867283"><ele>122.0</ele><time>2026-04-23T12:07:49.777Z</time></trkpt><trkpt lat="40.8037" lon="14.1866567"><ele>122.0</ele><time>2026-04-23T12:07:51.777Z</time></trkpt><trkpt lat="40.8036233" lon="14.186575"><ele>121.99999999999999</ele><time>2026-04-23T12:07:53.776Z</time></trkpt><trkpt lat="40.8035517" lon="14.1864767"><ele>122.0</ele><time>2026-04-23T12:07:55.776Z</time></trkpt><trkpt lat="40.8034833" lon="14.18637"><ele>120.5</ele><time>2026-04-23T12:07:57.775Z</time></trkpt><trkpt lat="40.8034117" lon="14.1862667"><ele>119.0</ele><time>2026-04-23T12:07:59.776Z</time></trkpt><trkpt lat="40.8033333" lon="14.1861583"><ele>117.5</ele><time>2026-04-23T12:08:01.777Z</time></trkpt><trkpt lat="40.8032517" lon="14.1860433"><ele>116.0</ele><time>2026-04-23T12:08:03.776Z</time></trkpt><trkpt lat="40.80318" lon="14.1859317"><ele>115.99999999999999</ele><time>2026-04-23T12:08:05.777Z</time></trkpt><trkpt lat="40.803155" lon="14.1858133"><ele>116.0</ele><time>2026-04-23T12:08:07.779Z</time></trkpt><trkpt lat="40.8031433" lon="14.1857067"><ele>116.0</ele><time>2026-04-23T12:08:09.776Z</time></trkpt><trkpt lat="40.8031067" lon="14.185605"><ele>116.0</ele><time>2026-04-23T12:08:11.776Z</time></trkpt><trkpt lat="40.803055" lon="14.1855167"><ele>115.99999999999999</ele><time>2026-04-23T12:08:13.776Z</time></trkpt><trkpt lat="40.803015" lon="14.1854483"><ele>116.0</ele><time>2026-04-23T12:08:15.775Z</time></trkpt><trkpt lat="40.8029483" lon="14.1853683"><ele>116.49999999999999</ele><time>2026-04-23T12:08:18.776Z</time></trkpt><trkpt lat="40.8029117" lon="14.1853"><ele>117.0</ele><time>2026-04-23T12:08:20.776Z</time></trkpt><trkpt lat="40.802855" lon="14.18521"><ele>117.5</ele><time>2026-04-23T12:08:23.778Z</time></trkpt><trkpt lat="40.8028167" lon="14.18514"><ele>118.0</ele><time>2026-04-23T12:08:26.776Z</time></trkpt><trkpt lat="40.8027533" lon="14.1850817"><ele>118.49999999999999</ele><time>2026-04-23T12:08:32.777Z</time></trkpt><trkpt lat="40.8026983" lon="14.1850067"><ele>119.0</ele><time>2026-04-23T12:08:35.776Z</time></trkpt><trkpt lat="40.802625" lon="14.1849317"><ele>119.33333333333333</ele><time>2026-04-23T12:08:38.776Z</time></trkpt><trkpt lat="40.802575" lon="14.1848767"><ele>119.66666666666666</ele><time>2026-04-23T12:08:40.779Z</time></trkpt><trkpt lat="40.8025183" lon="14.1848217"><ele>120.0</ele><time>2026-04-23T12:08:42.776Z</time></trkpt><trkpt lat="40.8024517" lon="14.1847367"><ele>120.33333333333334</ele><time>2026-04-23T12:08:45.775Z</time></trkpt><trkpt lat="40.8024083" lon="14.184675"><ele>120.66666666666667</ele><time>2026-04-23T12:08:47.776Z</time></trkpt><trkpt lat="40.8023367" lon="14.1845933"><ele>121.0</ele><time>2026-04-23T12:08:50.776Z</time></trkpt><trkpt lat="40.8022683" lon="14.1845267"><ele>121.66666666666667</ele><time>2026-04-23T12:08:53.776Z</time></trkpt><trkpt lat="40.802215" lon="14.1844767"><ele>122.33333333333334</ele><time>2026-04-23T12:08:57.777Z</time></trkpt><trkpt lat="40.8021517" lon="14.1844317"><ele>123.0</ele><time>2026-04-23T12:09:00.776Z</time></trkpt><trkpt lat="40.8020933" lon="14.1843483"><ele>123.66666666666666</ele><time>2026-04-23T12:09:03.775Z</time></trkpt><trkpt lat="40.8020483" lon="14.18429"><ele>124.33333333333333</ele><time>2026-04-23T12:09:05.777Z</time></trkpt><trkpt lat="40.8020033" lon="14.184225"><ele>125.0</ele><time>2026-04-23T12:09:07.785Z</time></trkpt><trkpt lat="40.8019283" lon="14.18414"><ele>125.0</ele><time>2026-04-23T12:09:10.776Z</time></trkpt><trkpt lat="40.8018683" lon="14.184095"><ele>125.0</ele><time>2026-04-23T12:09:12.776Z</time></trkpt><trkpt lat="40.80182" lon="14.1840367"><ele>125.0</ele><time>2026-04-23T12:09:14.776Z</time></trkpt><trkpt lat="40.8017767" lon="14.183965"><ele>125.0</ele><time>2026-04-23T12:09:16.776Z</time></trkpt><trkpt lat="40.8017467" lon="14.1838833"><ele>125.0</ele><time>2026-04-23T12:09:18.776Z</time></trkpt><trkpt lat="40.8017067" lon="14.1838117"><ele>125.0</ele><time>2026-04-23T12:09:20.776Z</time></trkpt><trkpt lat="40.801655" lon="14.183745"><ele>125.0</ele><time>2026-04-23T12:09:22.777Z</time></trkpt><trkpt lat="40.801605" lon="14.1836833"><ele>125.57142857142857</ele><time>2026-04-23T12:09:24.776Z</time></trkpt><trkpt lat="40.8015533" lon="14.183625"><ele>126.14285714285714</ele><time>2026-04-23T12:09:26.777Z</time></trkpt><trkpt lat="40.8014967" lon="14.1835667"><ele>126.71428571428571</ele><time>2026-04-23T12:09:28.776Z</time></trkpt><trkpt lat="40.8014467" lon="14.1835017"><ele>127.28571428571428</ele><time>2026-04-23T12:09:30.777Z</time></trkpt><trkpt lat="40.8014067" lon="14.1834317"><ele>127.85714285714286</ele><time>2026-04-23T12:09:32.778Z</time></trkpt><trkpt lat="40.8013667" lon="14.1833533"><ele>128.42857142857142</ele><time>2026-04-23T12:09:34.775Z</time></trkpt><trkpt lat="40.8013283" lon="14.183275"><ele>129.0</ele><time>2026-04-23T12:09:36.776Z</time></trkpt><trkpt lat="40.801275" lon="14.1832117"><ele>129.7142857142857</ele><time>2026-04-23T12:09:38.775Z</time></trkpt><trkpt lat="40.8012233" lon="14.183145"><ele>130.42857142857142</ele><time>2026-04-23T12:09:40.775Z</time></trkpt><trkpt lat="40.8011783" lon="14.1830817"><ele>131.14285714285714</ele><time>2026-04-23T12:09:42.775Z</time></trkpt><trkpt lat="40.80113" lon="14.1830217"><ele>131.85714285714283</ele><time>2026-04-23T12:09:44.776Z</time></trkpt><trkpt lat="40.801085" lon="14.1829517"><ele>132.57142857142856</ele><time>2026-04-23T12:09:46.775Z</time></trkpt><trkpt lat="40.80104" lon="14.18288"><ele>133.28571428571428</ele><time>2026-04-23T12:09:48.775Z</time></trkpt><trkpt lat="40.8009933" lon="14.1828"><ele>134.0</ele><time>2026-04-23T12:09:50.776Z</time></trkpt><trkpt lat="40.800945" lon="14.1827333"><ele>134.0</ele><time>2026-04-23T12:09:52.775Z</time></trkpt><trkpt lat="40.8008917" lon="14.1826567"><ele>134.0</ele><time>2026-04-23T12:09:54.776Z</time></trkpt><trkpt lat="40.80084" lon="14.1825917"><ele>134.0</ele><time>2026-04-23T12:09:56.775Z</time></trkpt><trkpt lat="40.8007833" lon="14.18252"><ele>134.0</ele><time>2026-04-23T12:09:58.775Z</time></trkpt><trkpt lat="40.8007317" lon="14.1824467"><ele>134.0</ele><time>2026-04-23T12:10:00.775Z</time></trkpt><trkpt lat="40.8006833" lon="14.182385"><ele>134.0</ele><time>2026-04-23T12:10:02.777Z</time></trkpt><trkpt lat="40.8006417" lon="14.1823133"><ele>134.0</ele><time>2026-04-23T12:10:04.776Z</time></trkpt><trkpt lat="40.8005983" lon="14.18223"><ele>130.33333333333331</ele><time>2026-04-23T12:10:06.777Z</time></trkpt><trkpt lat="40.80055" lon="14.18214"><ele>126.66666666666666</ele><time>2026-04-23T12:10:08.775Z</time></trkpt><trkpt lat="40.8004967" lon="14.1820567"><ele>123.0</ele><time>2026-04-23T12:10:10.775Z</time></trkpt><trkpt lat="40.8004433" lon="14.1819683"><ele>119.33333333333334</ele><time>2026-04-23T12:10:12.775Z</time></trkpt><trkpt lat="40.8003867" lon="14.1818983"><ele>115.66666666666667</ele><time>2026-04-23T12:10:14.775Z</time></trkpt><trkpt lat="40.8003333" lon="14.1818383"><ele>112.0</ele><time>2026-04-23T12:10:16.775Z</time></trkpt><trkpt lat="40.800255" lon="14.181755"><ele>112.0</ele><time>2026-04-23T12:10:19.775Z</time></trkpt><trkpt lat="40.8001917" lon="14.1816883"><ele>112.0</ele><time>2026-04-23T12:10:22.775Z</time></trkpt><trkpt lat="40.8001267" lon="14.1816417"><ele>112.0</ele><time>2026-04-23T12:10:25.777Z</time></trkpt><trkpt lat="40.8000617" lon="14.1816017"><ele>112.0</ele><time>2026-04-23T12:10:29.775Z</time></trkpt><trkpt lat="40.8000133" lon="14.1816683"><ele>112.0</ele><time>2026-04-23T12:10:37.776Z</time></trkpt><trkpt lat="40.79995" lon="14.1817217"><ele>112.0</ele><time>2026-04-23T12:10:40.775Z</time></trkpt><trkpt lat="40.7998783" lon="14.18175"><ele>112.0</ele><time>2026-04-23T12:10:43.776Z</time></trkpt><trkpt lat="40.7998" lon="14.1817817"><ele>116.33333333333334</ele><time>2026-04-23T12:10:46.775Z</time></trkpt><trkpt lat="40.7997283" lon="14.1818067"><ele>120.66666666666667</ele><time>2026-04-23T12:10:49.776Z</time></trkpt><trkpt lat="40.7996417" lon="14.1818133"><ele>125.0</ele><time>2026-04-23T12:10:52.776Z</time></trkpt><trkpt lat="40.7995717" lon="14.18181"><ele>129.33333333333334</ele><time>2026-04-23T12:10:54.775Z</time></trkpt><trkpt lat="40.7994983" lon="14.1817933"><ele>133.66666666666666</ele><time>2026-04-23T12:10:56.775Z</time></trkpt><trkpt lat="40.7994267" lon="14.181775"><ele>138.0</ele><time>2026-04-23T12:10:58.776Z</time></trkpt><trkpt lat="40.79935" lon="14.181735"><ele>138.4</ele><time>2026-04-23T12:11:00.775Z</time></trkpt><trkpt lat="40.79927" lon="14.1817"><ele>138.8</ele><time>2026-04-23T12:11:02.775Z</time></trkpt><trkpt lat="40.7991883" lon="14.1816733"><ele>139.2</ele><time>2026-04-23T12:11:04.775Z</time></trkpt><trkpt lat="40.7990767" lon="14.1816233"><ele>139.6</ele><time>2026-04-23T12:11:06.775Z</time></trkpt><trkpt lat="40.7989567" lon="14.18157"><ele>140.0</ele><time>2026-04-23T12:11:08.775Z</time></trkpt><trkpt lat="40.7988967" lon="14.18154"><ele>139.57142857142858</ele><time>2026-04-23T12:11:09.776Z</time></trkpt><trkpt lat="40.7988367" lon="14.1815"><ele>139.14285714285714</ele><time>2026-04-23T12:11:10.775Z</time></trkpt><trkpt lat="40.7987767" lon="14.1814633"><ele>138.71428571428572</ele><time>2026-04-23T12:11:11.776Z</time></trkpt><trkpt lat="40.7987133" lon="14.1814283"><ele>138.28571428571428</ele><time>2026-04-23T12:11:12.776Z</time></trkpt><trkpt lat="40.798645" lon="14.1814017"><ele>137.85714285714286</ele><time>2026-04-23T12:11:13.775Z</time></trkpt><trkpt lat="40.7985817" lon="14.18138"><ele>137.42857142857144</ele><time>2026-04-23T12:11:14.775Z</time></trkpt><trkpt lat="40.7985133" lon="14.181375"><ele>137.0</ele><time>2026-04-23T12:11:15.775Z</time></trkpt><trkpt lat="40.7983933" lon="14.1814133"><ele>137.0</ele><time>2026-04-23T12:11:17.775Z</time></trkpt><trkpt lat="40.7982783" lon="14.1814767"><ele>137.0</ele><time>2026-04-23T12:11:19.775Z</time></trkpt><trkpt lat="40.79821" lon="14.181505"><ele>137.0</ele><time>2026-04-23T12:11:20.777Z</time></trkpt><trkpt lat="40.7981433" lon="14.18155"><ele>137.0</ele><time>2026-04-23T12:11:21.775Z</time></trkpt><trkpt lat="40.79809" lon="14.1816133"><ele>137.0</ele><time>2026-04-23T12:11:22.775Z</time></trkpt><trkpt lat="40.7980417" lon="14.1816683"><ele>137.0</ele><time>2026-04-23T12:11:23.775Z</time></trkpt><trkpt lat="40.7979767" lon="14.1817483"><ele>136.16666666666666</ele><time>2026-04-23T12:11:25.775Z</time></trkpt><trkpt lat="40.7978817" lon="14.1817467"><ele>135.33333333333331</ele><time>2026-04-23T12:11:36.775Z</time></trkpt><trkpt lat="40.7979633" lon="14.18179"><ele>134.5</ele><time>2026-04-23T12:11:55.776Z</time></trkpt><trkpt lat="40.797955" lon="14.1818883"><ele>133.66666666666666</ele><time>2026-04-23T12:12:18.775Z</time></trkpt><trkpt lat="40.7979183" lon="14.1819867"><ele>132.83333333333334</ele><time>2026-04-23T12:12:20.775Z</time></trkpt><trkpt lat="40.7979133" lon="14.1821167"><ele>132.0</ele><time>2026-04-23T12:12:22.775Z</time></trkpt><trkpt lat="40.7979333" lon="14.1822667"><ele>130.85714285714286</ele><time>2026-04-23T12:12:24.775Z</time></trkpt><trkpt lat="40.7979517" lon="14.18235"><ele>129.71428571428572</ele><time>2026-04-23T12:12:25.777Z</time></trkpt><trkpt lat="40.7979717" lon="14.18243"><ele>128.57142857142858</ele><time>2026-04-23T12:12:26.775Z</time></trkpt><trkpt lat="40.7980067" lon="14.1825067"><ele>127.42857142857143</ele><time>2026-04-23T12:12:27.775Z</time></trkpt><trkpt lat="40.7980517" lon="14.1825817"><ele>126.2857142857143</ele><time>2026-04-23T12:12:28.775Z</time></trkpt><trkpt lat="40.7981067" lon="14.1826467"><ele>125.14285714285715</ele><time>2026-04-23T12:12:29.775Z</time></trkpt><trkpt lat="40.7981683" lon="14.18271"><ele>124.0</ele><time>2026-04-23T12:12:30.776Z</time></trkpt><trkpt lat="40.7982333" lon="14.1827667"><ele>124.00000000000001</ele><time>2026-04-23T12:12:31.776Z</time></trkpt><trkpt lat="40.7983033" lon="14.1828217"><ele>124.0</ele><time>2026-04-23T12:12:32.775Z</time></trkpt><trkpt lat="40.7983733" lon="14.1828733"><ele>124.0</ele><time>2026-04-23T12:12:33.777Z</time></trkpt><trkpt lat="40.7984517" lon="14.1829183"><ele>124.0</ele><time>2026-04-23T12:12:34.775Z</time></trkpt><trkpt lat="40.7985367" lon="14.1829583"><ele>124.00000000000001</ele><time>2026-04-23T12:12:35.775Z</time></trkpt><trkpt lat="40.7986217" lon="14.1830017"><ele>124.0</ele><time>2026-04-23T12:12:36.776Z</time></trkpt><trkpt lat="40.7987083" lon="14.183045"><ele>123.2</ele><time>2026-04-23T12:12:37.775Z</time></trkpt><trkpt lat="40.7987933" lon="14.1830883"><ele>122.4</ele><time>2026-04-23T12:12:38.775Z</time></trkpt><trkpt lat="40.7988783" lon="14.1831317"><ele>121.6</ele><time>2026-04-23T12:12:39.777Z</time></trkpt><trkpt lat="40.7989617" lon="14.1831733"><ele>120.8</ele><time>2026-04-23T12:12:40.775Z</time></trkpt><trkpt lat="40.799045" lon="14.18322"><ele>120.0</ele><time>2026-04-23T12:12:41.776Z</time></trkpt><trkpt lat="40.7991283" lon="14.183275"><ele>120.0</ele><time>2026-04-23T12:12:42.775Z</time></trkpt><trkpt lat="40.799215" lon="14.183335"><ele>120.0</ele><time>2026-04-23T12:12:43.776Z</time></trkpt><trkpt lat="40.7993" lon="14.1833967"><ele>120.0</ele><time>2026-04-23T12:12:44.775Z</time></trkpt><trkpt lat="40.79938" lon="14.1834667"><ele>120.0</ele><time>2026-04-23T12:12:45.775Z</time></trkpt><trkpt lat="40.799455" lon="14.1835417"><ele>120.0</ele><time>2026-04-23T12:12:46.791Z</time></trkpt><trkpt lat="40.79953" lon="14.1836183"><ele>120.8</ele><time>2026-04-23T12:12:47.775Z</time></trkpt><trkpt lat="40.79961" lon="14.18369"><ele>121.6</ele><time>2026-04-23T12:12:48.776Z</time></trkpt><trkpt lat="40.7996883" lon="14.183755"><ele>122.4</ele><time>2026-04-23T12:12:49.775Z</time></trkpt><trkpt lat="40.79977" lon="14.1838217"><ele>123.2</ele><time>2026-04-23T12:12:50.775Z</time></trkpt><trkpt lat="40.7998533" lon="14.1838867"><ele>124.0</ele><time>2026-04-23T12:12:51.775Z</time></trkpt><trkpt lat="40.79994" lon="14.1839467"><ele>124.00000000000001</ele><time>2026-04-23T12:12:52.776Z</time></trkpt><trkpt lat="40.8000233" lon="14.1839967"><ele>124.0</ele><time>2026-04-23T12:12:53.776Z</time></trkpt><trkpt lat="40.8001033" lon="14.184045"><ele>124.0</ele><time>2026-04-23T12:12:54.776Z</time></trkpt><trkpt lat="40.8001733" lon="14.184095"><ele>124.0</ele><time>2026-04-23T12:12:55.776Z</time></trkpt><trkpt lat="40.8002367" lon="14.184145"><ele>124.00000000000001</ele><time>2026-04-23T12:12:56.775Z</time></trkpt><trkpt lat="40.8002967" lon="14.1842017"><ele>124.0</ele><time>2026-04-23T12:12:57.775Z</time></trkpt><trkpt lat="40.80035" lon="14.18426"><ele>124.0</ele><time>2026-04-23T12:12:58.775Z</time></trkpt><trkpt lat="40.8003867" lon="14.1843333"><ele>124.00000000000001</ele><time>2026-04-23T12:12:59.775Z</time></trkpt><trkpt lat="40.8004117" lon="14.1844167"><ele>124.0</ele><time>2026-04-23T12:13:00.776Z</time></trkpt><trkpt lat="40.8004233" lon="14.18451"><ele>124.0</ele><time>2026-04-23T12:13:01.776Z</time></trkpt><trkpt lat="40.8004217" lon="14.1846083"><ele>124.00000000000001</ele><time>2026-04-23T12:13:02.776Z</time></trkpt><trkpt lat="40.8004083" lon="14.18471"><ele>124.0</ele><time>2026-04-23T12:13:03.776Z</time></trkpt><trkpt lat="40.8003733" lon="14.18481"><ele>124.0</ele><time>2026-04-23T12:13:04.776Z</time></trkpt><trkpt lat="40.8003367" lon="14.1848983"><ele>122.66666666666667</ele><time>2026-04-23T12:13:05.776Z</time></trkpt><trkpt lat="40.8002783" lon="14.1849733"><ele>121.33333333333334</ele><time>2026-04-23T12:13:06.777Z</time></trkpt><trkpt lat="40.8002117" lon="14.1850383"><ele>120.0</ele><time>2026-04-23T12:13:07.776Z</time></trkpt><trkpt lat="40.8001233" lon="14.1850867"><ele>118.66666666666666</ele><time>2026-04-23T12:13:08.776Z</time></trkpt><trkpt lat="40.8000433" lon="14.1851367"><ele>117.33333333333333</ele><time>2026-04-23T12:13:09.775Z</time></trkpt><trkpt lat="40.7999667" lon="14.1851833"><ele>116.0</ele><time>2026-04-23T12:13:10.775Z</time></trkpt><trkpt lat="40.79989" lon="14.1852117"><ele>114.83333333333333</ele><time>2026-04-23T12:13:11.776Z</time></trkpt><trkpt lat="40.7998183" lon="14.1852517"><ele>113.66666666666666</ele><time>2026-04-23T12:13:12.775Z</time></trkpt><trkpt lat="40.799745" lon="14.1852983"><ele>112.5</ele><time>2026-04-23T12:13:13.775Z</time></trkpt><trkpt lat="40.7996683" lon="14.185345"><ele>111.33333333333334</ele><time>2026-04-23T12:13:14.775Z</time></trkpt><trkpt lat="40.799595" lon="14.1853917"><ele>110.16666666666667</ele><time>2026-04-23T12:13:15.775Z</time></trkpt><trkpt lat="40.7995233" lon="14.1854333"><ele>109.0</ele><time>2026-04-23T12:13:16.775Z</time></trkpt><trkpt lat="40.7994267" lon="14.1855167"><ele>109.0</ele><time>2026-04-23T12:13:18.776Z</time></trkpt><trkpt lat="40.799345" lon="14.1856267"><ele>109.0</ele><time>2026-04-23T12:13:20.776Z</time></trkpt><trkpt lat="40.799275" lon="14.1857517"><ele>109.0</ele><time>2026-04-23T12:13:22.775Z</time></trkpt><trkpt lat="40.79923" lon="14.1859033"><ele>109.0</ele><time>2026-04-23T12:13:24.775Z</time></trkpt><trkpt lat="40.7992083" lon="14.186045"><ele>106.33333333333334</ele><time>2026-04-23T12:13:26.776Z</time></trkpt><trkpt lat="40.799195" lon="14.1861517"><ele>103.66666666666667</ele><time>2026-04-23T12:13:28.776Z</time></trkpt><trkpt lat="40.799185" lon="14.186255"><ele>101.0</ele><time>2026-04-23T12:13:30.776Z</time></trkpt><trkpt lat="40.7991417" lon="14.1863183"><ele>98.33333333333334</ele><time>2026-04-23T12:13:54.775Z</time></trkpt><trkpt lat="40.7992117" lon="14.186285"><ele>95.66666666666667</ele><time>2026-04-23T12:13:59.777Z</time></trkpt><trkpt lat="40.7992133" lon="14.1861667"><ele>93.0</ele><time>2026-04-23T12:14:02.776Z</time></trkpt><trkpt lat="40.79922" lon="14.1860467"><ele>93.0</ele><time>2026-04-23T12:14:05.776Z</time></trkpt><trkpt lat="40.7992267" lon="14.1859233"><ele>93.0</ele><time>2026-04-23T12:14:08.775Z</time></trkpt><trkpt lat="40.79924" lon="14.185835"><ele>93.0</ele><time>2026-04-23T12:14:10.776Z</time></trkpt><trkpt lat="40.7992667" lon="14.1857417"><ele>93.0</ele><time>2026-04-23T12:14:12.776Z</time></trkpt><trkpt lat="40.799295" lon="14.185665"><ele>93.0</ele><time>2026-04-23T12:14:14.775Z</time></trkpt><trkpt lat="40.79935" lon="14.1855683"><ele>93.0</ele><time>2026-04-23T12:14:17.776Z</time></trkpt><trkpt lat="40.7994217" lon="14.1854967"><ele>95.66666666666667</ele><time>2026-04-23T12:14:20.776Z</time></trkpt><trkpt lat="40.7995" lon="14.1854233"><ele>98.33333333333334</ele><time>2026-04-23T12:14:23.776Z</time></trkpt><trkpt lat="40.7995733" lon="14.1853667"><ele>101.0</ele><time>2026-04-23T12:14:26.776Z</time></trkpt><trkpt lat="40.7996533" lon="14.1853133"><ele>103.66666666666667</ele><time>2026-04-23T12:14:29.775Z</time></trkpt><trkpt lat="40.799725" lon="14.1852633"><ele>106.33333333333334</ele><time>2026-04-23T12:14:32.775Z</time></trkpt><trkpt lat="40.7997833" lon="14.185205"><ele>109.0</ele><time>2026-04-23T12:14:35.776Z</time></trkpt><trkpt lat="40.7998183" lon="14.185135"><ele>109.0</ele><time>2026-04-23T12:14:38.776Z</time></trkpt><trkpt lat="40.79981" lon="14.1850383"><ele>109.0</ele><time>2026-04-23T12:14:42.778Z</time></trkpt><trkpt lat="40.7997417" lon="14.185005"><ele>109.0</ele><time>2026-04-23T12:14:44.777Z</time></trkpt><trkpt lat="40.7996617" lon="14.1849667"><ele>109.0</ele><time>2026-04-23T12:14:46.777Z</time></trkpt><trkpt lat="40.7995883" lon="14.1849383"><ele>109.0</ele><time>2026-04-23T12:14:48.775Z</time></trkpt><trkpt lat="40.7995233" lon="14.184945"><ele>109.0</ele><time>2026-04-23T12:14:50.776Z</time></trkpt><trkpt lat="40.7994533" lon="14.18498"><ele>109.0</ele><time>2026-04-23T12:14:53.776Z</time></trkpt><trkpt lat="40.7993833" lon="14.1850167"><ele>106.66666666666667</ele><time>2026-04-23T12:14:57.776Z</time></trkpt><trkpt lat="40.79932" lon="14.1850967"><ele>104.33333333333334</ele><time>2026-04-23T12:15:00.775Z</time></trkpt><trkpt lat="40.79924" lon="14.18513"><ele>102.0</ele><time>2026-04-23T12:15:02.775Z</time></trkpt><trkpt lat="40.7991517" lon="14.1851467"><ele>99.66666666666667</ele><time>2026-04-23T12:15:04.776Z</time></trkpt><trkpt lat="40.79907" lon="14.1851417"><ele>97.33333333333334</ele><time>2026-04-23T12:15:06.776Z</time></trkpt><trkpt lat="40.7989783" lon="14.1851383"><ele>95.0</ele><time>2026-04-23T12:15:08.776Z</time></trkpt><trkpt lat="40.7988833" lon="14.1851233"><ele>95.0</ele><time>2026-04-23T12:15:10.778Z</time></trkpt><trkpt lat="40.7987783" lon="14.1850833"><ele>95.0</ele><time>2026-04-23T12:15:12.775Z</time></trkpt><trkpt lat="40.798685" lon="14.1850483"><ele>95.0</ele><time>2026-04-23T12:15:14.776Z</time></trkpt><trkpt lat="40.798595" lon="14.1850333"><ele>95.0</ele><time>2026-04-23T12:15:16.776Z</time></trkpt><trkpt lat="40.7984783" lon="14.1850667"><ele>95.0</ele><time>2026-04-23T12:15:18.776Z</time></trkpt><trkpt lat="40.7984167" lon="14.1850883"><ele>93.2</ele><time>2026-04-23T12:15:19.777Z</time></trkpt><trkpt lat="40.798325" lon="14.1851133"><ele>91.4</ele><time>2026-04-23T12:15:21.776Z</time></trkpt><trkpt lat="40.7982267" lon="14.18515"><ele>89.6</ele><time>2026-04-23T12:15:23.779Z</time></trkpt><trkpt lat="40.79814" lon="14.1852283"><ele>87.8</ele><time>2026-04-23T12:15:25.776Z</time></trkpt><trkpt lat="40.7980633" lon="14.1853317"><ele>86.0</ele><time>2026-04-23T12:15:27.776Z</time></trkpt><trkpt lat="40.7980033" lon="14.1854567"><ele>86.0</ele><time>2026-04-23T12:15:29.776Z</time></trkpt><trkpt lat="40.7979333" lon="14.1855767"><ele>86.0</ele><time>2026-04-23T12:15:31.776Z</time></trkpt><trkpt lat="40.7978483" lon="14.1856733"><ele>86.0</ele><time>2026-04-23T12:15:33.777Z</time></trkpt><trkpt lat="40.7977667" lon="14.1857533"><ele>86.0</ele><time>2026-04-23T12:15:35.776Z</time></trkpt><trkpt lat="40.7977133" lon="14.185815"><ele>86.0</ele><time>2026-04-23T12:15:38.776Z</time></trkpt><trkpt lat="40.7976917" lon="14.1859183"><ele>85.71428571428572</ele><time>2026-04-23T12:15:42.776Z</time></trkpt><trkpt lat="40.7977033" lon="14.186015"><ele>85.42857142857143</ele><time>2026-04-23T12:15:46.775Z</time></trkpt><trkpt lat="40.797695" lon="14.1860983"><ele>85.14285714285714</ele><time>2026-04-23T12:15:51.776Z</time></trkpt><trkpt lat="40.7977383" lon="14.1860217"><ele>84.85714285714286</ele><time>2026-04-23T12:15:58.776Z</time></trkpt><trkpt lat="40.7977267" lon="14.1859267"><ele>84.57142857142857</ele><time>2026-04-23T12:16:02.777Z</time></trkpt><trkpt lat="40.7976383" lon="14.1859367"><ele>84.28571428571429</ele><time>2026-04-23T12:16:06.776Z</time></trkpt><trkpt lat="40.7975767" lon="14.185965"><ele>84.0</ele><time>2026-04-23T12:16:08.776Z</time></trkpt><trkpt lat="40.7974967" lon="14.1859967"><ele>82.0</ele><time>2026-04-23T12:16:10.776Z</time></trkpt><trkpt lat="40.797395" lon="14.1860267"><ele>80.0</ele><time>2026-04-23T12:16:12.777Z</time></trkpt><trkpt lat="40.7972883" lon="14.1860617"><ele>78.0</ele><time>2026-04-23T12:16:14.776Z</time></trkpt><trkpt lat="40.7971967" lon="14.1860767"><ele>76.0</ele><time>2026-04-23T12:16:16.776Z</time></trkpt><trkpt lat="40.7971067" lon="14.1860683"><ele>74.0</ele><time>2026-04-23T12:16:18.777Z</time></trkpt><trkpt lat="40.7970167" lon="14.1860667"><ele>74.0</ele><time>2026-04-23T12:16:20.776Z</time></trkpt><trkpt lat="40.79691" lon="14.1860117"><ele>74.0</ele><time>2026-04-23T12:16:22.776Z</time></trkpt><trkpt lat="40.796845" lon="14.18597"><ele>74.0</ele><time>2026-04-23T12:16:24.777Z</time></trkpt><trkpt lat="40.7967883" lon="14.1859317"><ele>74.0</ele><time>2026-04-23T12:16:26.777Z</time></trkpt><trkpt lat="40.7967283" lon="14.185885"><ele>74.0</ele><time>2026-04-23T12:16:28.776Z</time></trkpt><trkpt lat="40.7966633" lon="14.1858317"><ele>74.0</ele><time>2026-04-23T12:16:30.777Z</time></trkpt><trkpt lat="40.79659" lon="14.1857883"><ele>73.0</ele><time>2026-04-23T12:16:32.776Z</time></trkpt><trkpt lat="40.7965233" lon="14.1857167"><ele>72.0</ele><time>2026-04-23T12:16:35.776Z</time></trkpt><trkpt lat="40.7964567" lon="14.1856717"><ele>71.0</ele><time>2026-04-23T12:16:38.777Z</time></trkpt><trkpt lat="40.7964117" lon="14.185745"><ele>70.0</ele><time>2026-04-23T12:16:41.776Z</time></trkpt><trkpt lat="40.7964333" lon="14.1858233"><ele>69.0</ele><time>2026-04-23T12:16:43.779Z</time></trkpt><trkpt lat="40.796475" lon="14.185905"><ele>68.0</ele><time>2026-04-23T12:16:45.781Z</time></trkpt><trkpt lat="40.7964617" lon="14.1860133"><ele>68.0</ele><time>2026-04-23T12:16:48.776Z</time></trkpt><trkpt lat="40.7964183" lon="14.1860917"><ele>68.0</ele><time>2026-04-23T12:16:50.776Z</time></trkpt><trkpt lat="40.7963417" lon="14.18611"><ele>68.0</ele><time>2026-04-23T12:16:52.778Z</time></trkpt><trkpt lat="40.7962767" lon="14.1860783"><ele>68.0</ele><time>2026-04-23T12:16:54.776Z</time></trkpt><trkpt lat="40.7962083" lon="14.1859817"><ele>68.0</ele><time>2026-04-23T12:16:56.78Z</time></trkpt><trkpt lat="40.7961883" lon="14.185865"><ele>68.0</ele><time>2026-04-23T12:16:58.776Z</time></trkpt><trkpt lat="40.79618" lon="14.1857667"><ele>68.0</ele><time>2026-04-23T12:17:00.775Z</time></trkpt><trkpt lat="40.79619" lon="14.1856783"><ele>68.0</ele><time>2026-04-23T12:17:02.776Z</time></trkpt><trkpt lat="40.7962083" lon="14.1855983"><ele>68.0</ele><time>2026-04-23T12:17:04.775Z</time></trkpt><trkpt lat="40.7962733" lon="14.185535"><ele>68.0</ele><time>2026-04-23T12:17:07.775Z</time></trkpt><trkpt lat="40.7961883" lon="14.1855567"><ele>68.0</ele><time>2026-04-23T12:17:12.775Z</time></trkpt><trkpt lat="40.7961033" lon="14.1856667"><ele>68.0</ele><time>2026-04-23T12:17:15.775Z</time></trkpt><trkpt lat="40.796025" lon="14.1857367"><ele>67.99999999999999</ele><time>2026-04-23T12:17:17.775Z</time></trkpt><trkpt lat="40.795985" lon="14.185815"><ele>68.0</ele><time>2026-04-23T12:17:21.775Z</time></trkpt><trkpt lat="40.7959517" lon="14.1859067"><ele>68.0</ele><time>2026-04-23T12:17:25.775Z</time></trkpt><trkpt lat="40.795905" lon="14.18597"><ele>68.0</ele><time>2026-04-23T12:17:28.776Z</time></trkpt><trkpt lat="40.7958667" lon="14.1860367"><ele>68.0</ele><time>2026-04-23T12:17:31.775Z</time></trkpt><trkpt lat="40.79593" lon="14.185985"><ele>67.99999999999999</ele><time>2026-04-23T12:17:38.775Z</time></trkpt><trkpt lat="40.795985" lon="14.1859017"><ele>68.0</ele><time>2026-04-23T12:17:41.776Z</time></trkpt><trkpt lat="40.7960083" lon="14.1858183"><ele>68.0</ele><time>2026-04-23T12:17:43.775Z</time></trkpt><trkpt lat="40.7960217" lon="14.1857017"><ele>68.0</ele><time>2026-04-23T12:17:46.775Z</time></trkpt><trkpt lat="40.79603" lon="14.1856167"><ele>68.0</ele><time>2026-04-23T12:17:49.775Z</time></trkpt><trkpt lat="40.7960883" lon="14.1855533"><ele>68.0</ele><time>2026-04-23T12:17:53.775Z</time></trkpt><trkpt lat="40.7961467" lon="14.185515"><ele>68.0</ele><time>2026-04-23T12:17:55.776Z</time></trkpt><trkpt lat="40.7962117" lon="14.185475"><ele>68.0</ele><time>2026-04-23T12:17:57.775Z</time></trkpt><trkpt lat="40.7962917" lon="14.1854333"><ele>66.99999999999999</ele><time>2026-04-23T12:18:00.775Z</time></trkpt><trkpt lat="40.7963567" lon="14.1853867"><ele>66.0</ele><time>2026-04-23T12:18:05.775Z</time></trkpt><trkpt lat="40.7962917" lon="14.1853383"><ele>65.0</ele><time>2026-04-23T12:18:43.776Z</time></trkpt><trkpt lat="40.7962217" lon="14.1853383"><ele>63.99999999999999</ele><time>2026-04-23T12:18:46.775Z</time></trkpt><trkpt lat="40.7961483" lon="14.1853583"><ele>63.0</ele><time>2026-04-23T12:18:49.776Z</time></trkpt><trkpt lat="40.7960783" lon="14.1853617"><ele>61.99999999999999</ele><time>2026-04-23T12:18:51.775Z</time></trkpt><trkpt lat="40.7960267" lon="14.1854233"><ele>60.99999999999999</ele><time>2026-04-23T12:18:54.775Z</time></trkpt><trkpt lat="40.7959917" lon="14.1855017"><ele>60.49999999999999</ele><time>2026-04-23T12:18:56.777Z</time></trkpt><trkpt lat="40.7959617" lon="14.1856083"><ele>60.0</ele><time>2026-04-23T12:18:59.775Z</time></trkpt><trkpt lat="40.79596" lon="14.1857217"><ele>59.5</ele><time>2026-04-23T12:19:02.776Z</time></trkpt><trkpt lat="40.795945" lon="14.1858117"><ele>59.0</ele><time>2026-04-23T12:19:05.775Z</time></trkpt><trkpt lat="40.7959417" lon="14.185915"><ele>58.49999999999999</ele><time>2026-04-23T12:19:09.775Z</time></trkpt><trkpt lat="40.795995" lon="14.18587"><ele>58.0</ele><time>2026-04-23T12:19:15.776Z</time></trkpt><trkpt lat="40.7960383" lon="14.185775"><ele>58.42857142857144</ele><time>2026-04-23T12:19:20.776Z</time></trkpt><trkpt lat="40.796095" lon="14.1857333"><ele>58.85714285714286</ele><time>2026-04-23T12:19:23.776Z</time></trkpt><trkpt lat="40.7961633" lon="14.1857117"><ele>59.285714285714285</ele><time>2026-04-23T12:19:27.775Z</time></trkpt><trkpt lat="40.7962167" lon="14.1856633"><ele>59.714285714285715</ele><time>2026-04-23T12:19:31.776Z</time></trkpt><trkpt lat="40.796285" lon="14.1856117"><ele>60.14285714285714</ele><time>2026-04-23T12:19:36.776Z</time></trkpt><trkpt lat="40.796345" lon="14.1856433"><ele>60.57142857142856</ele><time>2026-04-23T12:19:40.775Z</time></trkpt><trkpt lat="40.7963017" lon="14.18573"><ele>60.99999999999999</ele><time>2026-04-23T12:19:50.775Z</time></trkpt><trkpt lat="40.7962767" lon="14.1858167"><ele>61.99999999999999</ele><time>2026-04-23T12:19:56.775Z</time></trkpt><trkpt lat="40.796265" lon="14.18592"><ele>63.0</ele><time>2026-04-23T12:20:00.784Z</time></trkpt><trkpt lat="40.796285" lon="14.1860183"><ele>63.99999999999999</ele><time>2026-04-23T12:20:04.776Z</time></trkpt><trkpt lat="40.7963483" lon="14.1860683"><ele>65.0</ele><time>2026-04-23T12:20:08.776Z</time></trkpt><trkpt lat="40.7964233" lon="14.1860783"><ele>66.0</ele><time>2026-04-23T12:20:12.775Z</time></trkpt><trkpt lat="40.7964883" lon="14.1860317"><ele>66.99999999999999</ele><time>2026-04-23T12:20:17.777Z</time></trkpt><trkpt lat="40.79652" lon="14.185955"><ele>68.0</ele><time>2026-04-23T12:20:20.777Z</time></trkpt><trkpt lat="40.7965467" lon="14.1858733"><ele>68.0</ele><time>2026-04-23T12:20:25.776Z</time></trkpt><trkpt lat="40.7965717" lon="14.185775"><ele>68.0</ele><time>2026-04-23T12:20:35.776Z</time></trkpt><trkpt lat="40.7966333" lon="14.185825"><ele>68.0</ele><time>2026-04-23T12:20:40.776Z</time></trkpt><trkpt lat="40.7967283" lon="14.1858733"><ele>68.0</ele><time>2026-04-23T12:20:45.775Z</time></trkpt><trkpt lat="40.7967983" lon="14.185915"><ele>68.0</ele><time>2026-04-23T12:20:49.776Z</time></trkpt><trkpt lat="40.7968533" lon="14.18596"><ele>68.0</ele><time>2026-04-23T12:20:52.776Z</time></trkpt><trkpt lat="40.7969133" lon="14.1859983"><ele>69.0</ele><time>2026-04-23T12:20:55.777Z</time></trkpt><trkpt lat="40.796985" lon="14.1860483"><ele>70.0</ele><time>2026-04-23T12:20:58.776Z</time></trkpt><trkpt lat="40.79706" lon="14.1860917"><ele>71.0</ele><time>2026-04-23T12:21:01.776Z</time></trkpt><trkpt lat="40.797135" lon="14.186115"><ele>72.0</ele><time>2026-04-23T12:21:04.777Z</time></trkpt><trkpt lat="40.79722" lon="14.1861283"><ele>73.0</ele><time>2026-04-23T12:21:08.776Z</time></trkpt><trkpt lat="40.797285" lon="14.1861083"><ele>74.0</ele><time>2026-04-23T12:21:11.777Z</time></trkpt><trkpt lat="40.79736" lon="14.1860833"><ele>74.0</ele><time>2026-04-23T12:21:14.775Z</time></trkpt><trkpt lat="40.7974383" lon="14.1860467"><ele>74.0</ele><time>2026-04-23T12:21:17.776Z</time></trkpt><trkpt lat="40.79753" lon="14.1860233"><ele>74.0</ele><time>2026-04-23T12:21:20.775Z</time></trkpt><trkpt lat="40.7975917" lon="14.1859883"><ele>74.0</ele><time>2026-04-23T12:21:22.777Z</time></trkpt><trkpt lat="40.7976533" lon="14.1859433"><ele>74.0</ele><time>2026-04-23T12:21:25.776Z</time></trkpt><trkpt lat="40.7977217" lon="14.1859667"><ele>74.0</ele><time>2026-04-23T12:21:27.775Z</time></trkpt><trkpt lat="40.7978067" lon="14.1859067"><ele>75.42857142857143</ele><time>2026-04-23T12:21:51.775Z</time></trkpt><trkpt lat="40.7978633" lon="14.185845"><ele>76.85714285714286</ele><time>2026-04-23T12:21:54.777Z</time></trkpt><trkpt lat="40.7979267" lon="14.1857867"><ele>78.28571428571428</ele><time>2026-04-23T12:21:57.777Z</time></trkpt><trkpt lat="40.7979783" lon="14.1857017"><ele>79.71428571428572</ele><time>2026-04-23T12:22:00.777Z</time></trkpt><trkpt lat="40.7980267" lon="14.185605"><ele>81.14285714285714</ele><time>2026-04-23T12:22:03.777Z</time></trkpt><trkpt lat="40.7980617" lon="14.1855333"><ele>82.57142857142857</ele><time>2026-04-23T12:22:05.777Z</time></trkpt><trkpt lat="40.798105" lon="14.1854717"><ele>84.0</ele><time>2026-04-23T12:22:07.777Z</time></trkpt><trkpt lat="40.798155" lon="14.18542"><ele>84.28571428571429</ele><time>2026-04-23T12:22:09.775Z</time></trkpt><trkpt lat="40.7982067" lon="14.1853533"><ele>84.57142857142857</ele><time>2026-04-23T12:22:11.776Z</time></trkpt><trkpt lat="40.7982567" lon="14.1852883"><ele>84.85714285714286</ele><time>2026-04-23T12:22:13.778Z</time></trkpt><trkpt lat="40.7983133" lon="14.1852433"><ele>85.14285714285714</ele><time>2026-04-23T12:22:15.776Z</time></trkpt><trkpt lat="40.7983817" lon="14.1852067"><ele>85.42857142857143</ele><time>2026-04-23T12:22:18.775Z</time></trkpt><trkpt lat="40.7984567" lon="14.18516"><ele>85.71428571428572</ele><time>2026-04-23T12:22:22.775Z</time></trkpt><trkpt lat="40.7985267" lon="14.1851433"><ele>86.0</ele><time>2026-04-23T12:22:25.779Z</time></trkpt><trkpt lat="40.7986" lon="14.18514"><ele>87.5</ele><time>2026-04-23T12:22:28.775Z</time></trkpt><trkpt lat="40.798675" lon="14.1851183"><ele>89.0</ele><time>2026-04-23T12:22:31.776Z</time></trkpt><trkpt lat="40.7987633" lon="14.185135"><ele>90.5</ele><time>2026-04-23T12:22:34.775Z</time></trkpt><trkpt lat="40.79884" lon="14.185135"><ele>92.0</ele><time>2026-04-23T12:22:38.776Z</time></trkpt><trkpt lat="40.7989017" lon="14.18517"><ele>93.5</ele><time>2026-04-23T12:22:41.777Z</time></trkpt><trkpt lat="40.798975" lon="14.1851817"><ele>95.0</ele><time>2026-04-23T12:22:45.775Z</time></trkpt><trkpt lat="40.7990533" lon="14.1852017"><ele>95.0</ele><time>2026-04-23T12:22:48.777Z</time></trkpt><trkpt lat="40.799125" lon="14.1851967"><ele>95.0</ele><time>2026-04-23T12:22:51.774Z</time></trkpt><trkpt lat="40.7991917" lon="14.1851883"><ele>95.0</ele><time>2026-04-23T12:22:55.776Z</time></trkpt><trkpt lat="40.7992617" lon="14.185175"><ele>95.0</ele><time>2026-04-23T12:22:59.775Z</time></trkpt><trkpt lat="40.7993283" lon="14.1851517"><ele>95.0</ele><time>2026-04-23T12:23:02.775Z</time></trkpt><trkpt lat="40.7994417" lon="14.1850883"><ele>95.0</ele><time>2026-04-23T12:23:10.776Z</time></trkpt><trkpt lat="40.7995067" lon="14.185035"><ele>97.0</ele><time>2026-04-23T12:23:14.777Z</time></trkpt><trkpt lat="40.7995833" lon="14.1850283"><ele>99.0</ele><time>2026-04-23T12:23:18.776Z</time></trkpt><trkpt lat="40.79965" lon="14.1850333"><ele>101.0</ele><time>2026-04-23T12:23:21.775Z</time></trkpt><trkpt lat="40.799725" lon="14.1850483"><ele>103.0</ele><time>2026-04-23T12:23:24.775Z</time></trkpt><trkpt lat="40.7997967" lon="14.1850683"><ele>105.0</ele><time>2026-04-23T12:23:27.775Z</time></trkpt><trkpt lat="40.7997983" lon="14.185155"><ele>107.0</ele><time>2026-04-23T12:23:31.775Z</time></trkpt><trkpt lat="40.7997283" lon="14.18521"><ele>109.0</ele><time>2026-04-23T12:23:34.777Z</time></trkpt><trkpt lat="40.799665" lon="14.1852567"><ele>109.00000000000001</ele><time>2026-04-23T12:23:36.775Z</time></trkpt><trkpt lat="40.7995817" lon="14.1853183"><ele>109.0</ele><time>2026-04-23T12:23:38.775Z</time></trkpt><trkpt lat="40.799485" lon="14.185385"><ele>109.0</ele><time>2026-04-23T12:23:40.775Z</time></trkpt><trkpt lat="40.7993967" lon="14.1854767"><ele>109.0</ele><time>2026-04-23T12:23:42.775Z</time></trkpt><trkpt lat="40.7993533" lon="14.1855383"><ele>109.00000000000001</ele><time>2026-04-23T12:23:43.777Z</time></trkpt><trkpt lat="40.7993083" lon="14.185605"><ele>109.0</ele><time>2026-04-23T12:23:44.777Z</time></trkpt><trkpt lat="40.7992717" lon="14.1856733"><ele>105.80000000000001</ele><time>2026-04-23T12:23:45.776Z</time></trkpt><trkpt lat="40.7992333" lon="14.1857967"><ele>102.60000000000001</ele><time>2026-04-23T12:23:47.775Z</time></trkpt><trkpt lat="40.7991983" lon="14.1859233"><ele>99.4</ele><time>2026-04-23T12:23:49.775Z</time></trkpt><trkpt lat="40.799185" lon="14.186055"><ele>96.2</ele><time>2026-04-23T12:23:51.775Z</time></trkpt><trkpt lat="40.799175" lon="14.18621"><ele>93.0</ele><time>2026-04-23T12:23:53.776Z</time></trkpt><trkpt lat="40.799175" lon="14.1863333"><ele>93.0</ele><time>2026-04-23T12:23:55.775Z</time></trkpt><trkpt lat="40.799205" lon="14.186435"><ele>93.0</ele><time>2026-04-23T12:24:44.775Z</time></trkpt><trkpt lat="40.7992033" lon="14.1865467"><ele>93.0</ele><time>2026-04-23T12:24:49.776Z</time></trkpt><trkpt lat="40.7992267" lon="14.1866317"><ele>93.0</ele><time>2026-04-23T12:24:51.777Z</time></trkpt><trkpt lat="40.79925" lon="14.186725"><ele>93.0</ele><time>2026-04-23T12:24:53.775Z</time></trkpt><trkpt lat="40.7992817" lon="14.1868317"><ele>93.0</ele><time>2026-04-23T12:24:55.776Z</time></trkpt><trkpt lat="40.7993183" lon="14.1869367"><ele>93.2</ele><time>2026-04-23T12:24:57.775Z</time></trkpt><trkpt lat="40.799365" lon="14.1870417"><ele>93.4</ele><time>2026-04-23T12:24:59.777Z</time></trkpt><trkpt lat="40.7994117" lon="14.1871417"><ele>93.60000000000001</ele><time>2026-04-23T12:25:01.776Z</time></trkpt><trkpt lat="40.7994933" lon="14.18725"><ele>93.80000000000001</ele><time>2026-04-23T12:25:03.775Z</time></trkpt><trkpt lat="40.79958" lon="14.1873433"><ele>94.0</ele><time>2026-04-23T12:25:05.775Z</time></trkpt><trkpt lat="40.799665" lon="14.1874217"><ele>93.2</ele><time>2026-04-23T12:25:07.776Z</time></trkpt><trkpt lat="40.7997567" lon="14.1874933"><ele>92.4</ele><time>2026-04-23T12:25:09.776Z</time></trkpt><trkpt lat="40.7998567" lon="14.1875533"><ele>91.6</ele><time>2026-04-23T12:25:11.775Z</time></trkpt><trkpt lat="40.7999567" lon="14.1876033"><ele>90.8</ele><time>2026-04-23T12:25:13.776Z</time></trkpt><trkpt lat="40.8000617" lon="14.18762"><ele>90.0</ele><time>2026-04-23T12:25:15.776Z</time></trkpt><trkpt lat="40.8001717" lon="14.1876133"><ele>90.0</ele><time>2026-04-23T12:25:17.775Z</time></trkpt><trkpt lat="40.8002733" lon="14.1875933"><ele>90.0</ele><time>2026-04-23T12:25:19.778Z</time></trkpt><trkpt lat="40.80037" lon="14.1875933"><ele>90.0</ele><time>2026-04-23T12:25:21.776Z</time></trkpt><trkpt lat="40.8004733" lon="14.1875933"><ele>90.0</ele><time>2026-04-23T12:25:23.775Z</time></trkpt><trkpt lat="40.8005717" lon="14.1875833"><ele>90.0</ele><time>2026-04-23T12:25:25.776Z</time></trkpt><trkpt lat="40.8006767" lon="14.1875533"><ele>90.0</ele><time>2026-04-23T12:25:27.777Z</time></trkpt><trkpt lat="40.80077" lon="14.1875633"><ele>90.0</ele><time>2026-04-23T12:25:29.778Z</time></trkpt><trkpt lat="40.800865" lon="14.187575"><ele>90.0</ele><time>2026-04-23T12:25:31.775Z</time></trkpt><trkpt lat="40.8009533" lon="14.187575"><ele>90.0</ele><time>2026-04-23T12:25:33.775Z</time></trkpt><trkpt lat="40.8010267" lon="14.18759"><ele>90.0</ele><time>2026-04-23T12:25:35.779Z</time></trkpt><trkpt lat="40.8010983" lon="14.1876167"><ele>90.0</ele><time>2026-04-23T12:25:37.776Z</time></trkpt><trkpt lat="40.8011717" lon="14.18765"><ele>91.71428571428571</ele><time>2026-04-23T12:25:39.775Z</time></trkpt><trkpt lat="40.8012333" lon="14.18769"><ele>93.42857142857143</ele><time>2026-04-23T12:25:41.776Z</time></trkpt><trkpt lat="40.801305" lon="14.1877233"><ele>95.14285714285714</ele><time>2026-04-23T12:25:43.776Z</time></trkpt><trkpt lat="40.80138" lon="14.187745"><ele>96.85714285714286</ele><time>2026-04-23T12:25:45.775Z</time></trkpt><trkpt lat="40.8014533" lon="14.1877717"><ele>98.57142857142858</ele><time>2026-04-23T12:25:47.776Z</time></trkpt><trkpt lat="40.8015183" lon="14.18778"><ele>100.28571428571429</ele><time>2026-04-23T12:25:49.776Z</time></trkpt><trkpt lat="40.80158" lon="14.18781"><ele>102.0</ele><time>2026-04-23T12:25:52.776Z</time></trkpt><trkpt lat="40.8016567" lon="14.187855"><ele>102.0</ele><time>2026-04-23T12:25:55.777Z</time></trkpt><trkpt lat="40.801715" lon="14.1878883"><ele>102.0</ele><time>2026-04-23T12:25:57.776Z</time></trkpt><trkpt lat="40.80177" lon="14.18793"><ele>102.0</ele><time>2026-04-23T12:25:59.777Z</time></trkpt><trkpt lat="40.801835" lon="14.187995"><ele>102.0</ele><time>2026-04-23T12:26:02.778Z</time></trkpt><trkpt lat="40.8018933" lon="14.1880517"><ele>102.0</ele><time>2026-04-23T12:26:05.776Z</time></trkpt><trkpt lat="40.8019133" lon="14.1881383"><ele>102.0</ele><time>2026-04-23T12:27:04.777Z</time></trkpt><trkpt lat="40.8018683" lon="14.18822"><ele>102.0</ele><time>2026-04-23T12:27:07.776Z</time></trkpt><trkpt lat="40.8018083" lon="14.1883133"><ele>101.16666666666667</ele><time>2026-04-23T12:27:10.777Z</time></trkpt><trkpt lat="40.8017683" lon="14.1883867"><ele>100.33333333333334</ele><time>2026-04-23T12:27:12.776Z</time></trkpt><trkpt lat="40.8017283" lon="14.1884717"><ele>99.5</ele><time>2026-04-23T12:27:14.777Z</time></trkpt><trkpt lat="40.8016983" lon="14.1885617"><ele>98.66666666666667</ele><time>2026-04-23T12:27:16.778Z</time></trkpt><trkpt lat="40.8016683" lon="14.188655"><ele>97.83333333333334</ele><time>2026-04-23T12:27:18.775Z</time></trkpt><trkpt lat="40.80163" lon="14.1887517"><ele>97.0</ele><time>2026-04-23T12:27:20.775Z</time></trkpt><trkpt lat="40.8015867" lon="14.188835"><ele>97.00000000000001</ele><time>2026-04-23T12:27:22.776Z</time></trkpt><trkpt lat="40.8015533" lon="14.1889267"><ele>97.0</ele><time>2026-04-23T12:27:24.777Z</time></trkpt><trkpt lat="40.8015217" lon="14.1890267"><ele>97.0</ele><time>2026-04-23T12:27:26.776Z</time></trkpt><trkpt lat="40.8014667" lon="14.1891233"><ele>97.0</ele><time>2026-04-23T12:27:28.777Z</time></trkpt><trkpt lat="40.8014267" lon="14.18922"><ele>97.00000000000001</ele><time>2026-04-23T12:27:30.779Z</time></trkpt><trkpt lat="40.8013933" lon="14.18934"><ele>97.0</ele><time>2026-04-23T12:27:32.776Z</time></trkpt><trkpt lat="40.8013617" lon="14.189455"><ele>97.33333333333334</ele><time>2026-04-23T12:27:34.776Z</time></trkpt><trkpt lat="40.8013283" lon="14.1895617"><ele>97.66666666666667</ele><time>2026-04-23T12:27:36.776Z</time></trkpt><trkpt lat="40.8013033" lon="14.1896717"><ele>98.0</ele><time>2026-04-23T12:27:38.775Z</time></trkpt><trkpt lat="40.801285" lon="14.189775"><ele>98.33333333333334</ele><time>2026-04-23T12:27:40.777Z</time></trkpt><trkpt lat="40.80127" lon="14.1898667"><ele>98.66666666666667</ele><time>2026-04-23T12:27:43.782Z</time></trkpt><trkpt lat="40.8012517" lon="14.1897817"><ele>99.0</ele><time>2026-04-23T12:27:46.777Z</time></trkpt><trkpt lat="40.80125" lon="14.189655"><ele>99.2</ele><time>2026-04-23T12:27:48.778Z</time></trkpt><trkpt lat="40.80126" lon="14.1895167"><ele>99.4</ele><time>2026-04-23T12:27:50.777Z</time></trkpt><trkpt lat="40.8012767" lon="14.1893517"><ele>99.6</ele><time>2026-04-23T12:27:52.776Z</time></trkpt><trkpt lat="40.801295" lon="14.1892633"><ele>99.8</ele><time>2026-04-23T12:27:53.776Z</time></trkpt><trkpt lat="40.8013183" lon="14.1891717"><ele>100.0</ele><time>2026-04-23T12:27:54.777Z</time></trkpt><trkpt lat="40.8013383" lon="14.189075"><ele>99.50000000000001</ele><time>2026-04-23T12:27:55.776Z</time></trkpt><trkpt lat="40.8013617" lon="14.1889767"><ele>99.0</ele><time>2026-04-23T12:27:56.775Z</time></trkpt><trkpt lat="40.8013833" lon="14.1888867"><ele>98.5</ele><time>2026-04-23T12:27:57.777Z</time></trkpt><trkpt lat="40.8013933" lon="14.1887967"><ele>98.0</ele><time>2026-04-23T12:27:58.776Z</time></trkpt><trkpt lat="40.801395" lon="14.18871"><ele>97.50000000000001</ele><time>2026-04-23T12:27:59.776Z</time></trkpt><trkpt lat="40.8013883" lon="14.1885767"><ele>97.0</ele><time>2026-04-23T12:28:01.776Z</time></trkpt><trkpt lat="40.8013233" lon="14.18852"><ele>97.0</ele><time>2026-04-23T12:28:03.777Z</time></trkpt><trkpt lat="40.8012033" lon="14.1886083"><ele>97.0</ele><time>2026-04-23T12:28:05.776Z</time></trkpt><trkpt lat="40.8011433" lon="14.188695"><ele>97.0</ele><time>2026-04-23T12:28:06.777Z</time></trkpt><trkpt lat="40.8010933" lon="14.1888"><ele>97.0</ele><time>2026-04-23T12:28:07.778Z</time></trkpt><trkpt lat="40.8010733" lon="14.1889133"><ele>97.0</ele><time>2026-04-23T12:28:08.777Z</time></trkpt><trkpt lat="40.8010383" lon="14.1890233"><ele>94.83333333333334</ele><time>2026-04-23T12:28:09.777Z</time></trkpt><trkpt lat="40.800995" lon="14.18911"><ele>92.66666666666667</ele><time>2026-04-23T12:28:10.78Z</time></trkpt><trkpt lat="40.8009483" lon="14.1891983"><ele>90.5</ele><time>2026-04-23T12:28:11.776Z</time></trkpt><trkpt lat="40.8009017" lon="14.1892667"><ele>88.33333333333334</ele><time>2026-04-23T12:28:12.776Z</time></trkpt><trkpt lat="40.8008517" lon="14.1893283"><ele>86.16666666666667</ele><time>2026-04-23T12:28:13.776Z</time></trkpt><trkpt lat="40.80075" lon="14.1894167"><ele>84.0</ele><time>2026-04-23T12:28:15.776Z</time></trkpt><trkpt lat="40.8006683" lon="14.1894283"><ele>84.0</ele><time>2026-04-23T12:28:16.776Z</time></trkpt><trkpt lat="40.80059" lon="14.1894217"><ele>84.0</ele><time>2026-04-23T12:28:17.776Z</time></trkpt><trkpt lat="40.8005017" lon="14.1893983"><ele>84.0</ele><time>2026-04-23T12:28:18.776Z</time></trkpt><trkpt lat="40.8004317" lon="14.1893883"><ele>84.0</ele><time>2026-04-23T12:28:19.776Z</time></trkpt><trkpt lat="40.800335" lon="14.18935"><ele>84.0</ele><time>2026-04-23T12:28:20.777Z</time></trkpt><trkpt lat="40.80025" lon="14.18929"><ele>84.0</ele><time>2026-04-23T12:28:21.776Z</time></trkpt><trkpt lat="40.8001633" lon="14.1892617"><ele>82.83333333333333</ele><time>2026-04-23T12:28:22.776Z</time></trkpt><trkpt lat="40.8000767" lon="14.1892217"><ele>81.66666666666667</ele><time>2026-04-23T12:28:23.776Z</time></trkpt><trkpt lat="40.8" lon="14.1891933"><ele>80.5</ele><time>2026-04-23T12:28:24.776Z</time></trkpt><trkpt lat="40.799915" lon="14.1891633"><ele>79.33333333333334</ele><time>2026-04-23T12:28:25.776Z</time></trkpt><trkpt lat="40.7998283" lon="14.189155"><ele>78.16666666666667</ele><time>2026-04-23T12:28:26.776Z</time></trkpt><trkpt lat="40.7997317" lon="14.189155"><ele>77.0</ele><time>2026-04-23T12:28:27.776Z</time></trkpt><trkpt lat="40.79964" lon="14.1891683"><ele>77.0</ele><time>2026-04-23T12:28:28.776Z</time></trkpt><trkpt lat="40.799545" lon="14.1891867"><ele>77.0</ele><time>2026-04-23T12:28:29.776Z</time></trkpt><trkpt lat="40.7994417" lon="14.1892033"><ele>77.0</ele><time>2026-04-23T12:28:30.777Z</time></trkpt><trkpt lat="40.7993533" lon="14.189215"><ele>77.0</ele><time>2026-04-23T12:28:31.776Z</time></trkpt><trkpt lat="40.79927" lon="14.189225"><ele>77.0</ele><time>2026-04-23T12:28:32.777Z</time></trkpt><trkpt lat="40.7991967" lon="14.1892317"><ele>77.0</ele><time>2026-04-23T12:28:33.777Z</time></trkpt><trkpt lat="40.7991183" lon="14.189235"><ele>76.5</ele><time>2026-04-23T12:28:34.776Z</time></trkpt><trkpt lat="40.7990417" lon="14.189255"><ele>76.0</ele><time>2026-04-23T12:28:35.777Z</time></trkpt><trkpt lat="40.79897" lon="14.1892833"><ele>75.5</ele><time>2026-04-23T12:28:36.778Z</time></trkpt><trkpt lat="40.7989017" lon="14.1893233"><ele>75.0</ele><time>2026-04-23T12:28:37.776Z</time></trkpt><trkpt lat="40.7988383" lon="14.1893833"><ele>74.5</ele><time>2026-04-23T12:28:38.776Z</time></trkpt><trkpt lat="40.7987733" lon="14.1894517"><ele>74.0</ele><time>2026-04-23T12:28:39.776Z</time></trkpt><trkpt lat="40.7987133" lon="14.1895233"><ele>74.0</ele><time>2026-04-23T12:28:40.776Z</time></trkpt><trkpt lat="40.7986517" lon="14.1896"><ele>74.0</ele><time>2026-04-23T12:28:41.776Z</time></trkpt><trkpt lat="40.798605" lon="14.189685"><ele>74.0</ele><time>2026-04-23T12:28:42.776Z</time></trkpt><trkpt lat="40.7985567" lon="14.1897667"><ele>74.0</ele><time>2026-04-23T12:28:43.779Z</time></trkpt><trkpt lat="40.7985083" lon="14.1898467"><ele>74.0</ele><time>2026-04-23T12:28:44.775Z</time></trkpt><trkpt lat="40.7984617" lon="14.1899267"><ele>74.0</ele><time>2026-04-23T12:28:45.775Z</time></trkpt><trkpt lat="40.7984083" lon="14.1900133"><ele>73.0</ele><time>2026-04-23T12:28:46.775Z</time></trkpt><trkpt lat="40.7983583" lon="14.190085"><ele>72.0</ele><time>2026-04-23T12:28:47.776Z</time></trkpt><trkpt lat="40.7982967" lon="14.1901617"><ele>71.0</ele><time>2026-04-23T12:28:48.776Z</time></trkpt><trkpt lat="40.7982333" lon="14.1902317"><ele>70.0</ele><time>2026-04-23T12:28:49.776Z</time></trkpt><trkpt lat="40.7981683" lon="14.1902983"><ele>69.0</ele><time>2026-04-23T12:28:50.775Z</time></trkpt><trkpt lat="40.798105" lon="14.1903567"><ele>68.0</ele><time>2026-04-23T12:28:51.775Z</time></trkpt><trkpt lat="40.79804" lon="14.1904"><ele>68.0</ele><time>2026-04-23T12:28:52.775Z</time></trkpt><trkpt lat="40.797935" lon="14.19042"><ele>68.0</ele><time>2026-04-23T12:28:54.776Z</time></trkpt><trkpt lat="40.79784" lon="14.19035"><ele>68.0</ele><time>2026-04-23T12:28:56.776Z</time></trkpt><trkpt lat="40.7977917" lon="14.1902767"><ele>68.0</ele><time>2026-04-23T12:28:57.775Z</time></trkpt><trkpt lat="40.7977533" lon="14.19019"><ele>68.0</ele><time>2026-04-23T12:28:58.775Z</time></trkpt><trkpt lat="40.7977117" lon="14.19009"><ele>68.0</ele><time>2026-04-23T12:28:59.775Z</time></trkpt><trkpt lat="40.7976817" lon="14.1899717"><ele>68.0</ele><time>2026-04-23T12:29:00.775Z</time></trkpt><trkpt lat="40.79764" lon="14.1898717"><ele>68.0</ele><time>2026-04-23T12:29:01.776Z</time></trkpt><trkpt lat="40.7976017" lon="14.189755"><ele>68.0</ele><time>2026-04-23T12:29:02.775Z</time></trkpt><trkpt lat="40.79755" lon="14.1896333"><ele>68.0</ele><time>2026-04-23T12:29:03.775Z</time></trkpt><trkpt lat="40.7975033" lon="14.18952"><ele>66.16666666666667</ele><time>2026-04-23T12:29:04.776Z</time></trkpt><trkpt lat="40.7974683" lon="14.1894117"><ele>64.33333333333334</ele><time>2026-04-23T12:29:05.775Z</time></trkpt><trkpt lat="40.7974433" lon="14.1893183"><ele>62.5</ele><time>2026-04-23T12:29:06.776Z</time></trkpt><trkpt lat="40.7974133" lon="14.1892417"><ele>60.66666666666667</ele><time>2026-04-23T12:29:07.775Z</time></trkpt><trkpt lat="40.7973733" lon="14.1891583"><ele>58.833333333333336</ele><time>2026-04-23T12:29:08.775Z</time></trkpt><trkpt lat="40.7973133" lon="14.1890967"><ele>57.0</ele><time>2026-04-23T12:29:09.776Z</time></trkpt><trkpt lat="40.7971867" lon="14.1890833"><ele>57.0</ele><time>2026-04-23T12:29:11.775Z</time></trkpt><trkpt lat="40.797115" lon="14.189105"><ele>57.0</ele><time>2026-04-23T12:29:12.775Z</time></trkpt><trkpt lat="40.7970717" lon="14.18918"><ele>57.0</ele><time>2026-04-23T12:29:13.776Z</time></trkpt><trkpt lat="40.79707" lon="14.1893333"><ele>57.0</ele><time>2026-04-23T12:29:14.775Z</time></trkpt><trkpt lat="40.79706" lon="14.1894383"><ele>57.0</ele><time>2026-04-23T12:29:15.775Z</time></trkpt><trkpt lat="40.79707" lon="14.1895583"><ele>57.0</ele><time>2026-04-23T12:29:16.776Z</time></trkpt><trkpt lat="40.7971017" lon="14.1896733"><ele>57.0</ele><time>2026-04-23T12:29:17.776Z</time></trkpt><trkpt lat="40.7971117" lon="14.1897783"><ele>57.0</ele><time>2026-04-23T12:29:18.775Z</time></trkpt><trkpt lat="40.7971183" lon="14.1898783"><ele>57.0</ele><time>2026-04-23T12:29:19.776Z</time></trkpt><trkpt lat="40.7971133" lon="14.1899667"><ele>57.0</ele><time>2026-04-23T12:29:20.775Z</time></trkpt><trkpt lat="40.7971" lon="14.1901133"><ele>57.0</ele><time>2026-04-23T12:29:22.775Z</time></trkpt><trkpt lat="40.7970633" lon="14.19023"><ele>57.0</ele><time>2026-04-23T12:29:24.775Z</time></trkpt><trkpt lat="40.79701" lon="14.1903233"><ele>57.333333333333336</ele><time>2026-04-23T12:29:26.775Z</time></trkpt><trkpt lat="40.796935" lon="14.190395"><ele>57.66666666666667</ele><time>2026-04-23T12:29:28.776Z</time></trkpt><trkpt lat="40.796825" lon="14.1904133"><ele>58.0</ele><time>2026-04-23T12:29:30.776Z</time></trkpt><trkpt lat="40.7967433" lon="14.190405"><ele>58.333333333333336</ele><time>2026-04-23T12:29:31.776Z</time></trkpt><trkpt lat="40.7966783" lon="14.1904017"><ele>58.66666666666667</ele><time>2026-04-23T12:29:32.776Z</time></trkpt><trkpt lat="40.7966183" lon="14.1903733"><ele>59.0</ele><time>2026-04-23T12:29:33.776Z</time></trkpt><trkpt lat="40.796555" lon="14.1903583"><ele>56.6</ele><time>2026-04-23T12:29:34.775Z</time></trkpt><trkpt lat="40.796495" lon="14.1903267"><ele>54.2</ele><time>2026-04-23T12:29:35.776Z</time></trkpt><trkpt lat="40.7964083" lon="14.190245"><ele>51.800000000000004</ele><time>2026-04-23T12:29:37.777Z</time></trkpt><trkpt lat="40.7963067" lon="14.19024"><ele>49.400000000000006</ele><time>2026-04-23T12:29:39.775Z</time></trkpt><trkpt lat="40.796205" lon="14.1903117"><ele>47.0</ele><time>2026-04-23T12:29:41.78Z</time></trkpt><trkpt lat="40.7961033" lon="14.1903717"><ele>45.2</ele><time>2026-04-23T12:29:43.78Z</time></trkpt><trkpt lat="40.7959883" lon="14.1904217"><ele>43.400000000000006</ele><time>2026-04-23T12:29:45.778Z</time></trkpt><trkpt lat="40.79587" lon="14.19045"><ele>41.599999999999994</ele><time>2026-04-23T12:29:46.777Z</time></trkpt><trkpt lat="40.7957767" lon="14.1904717"><ele>39.8</ele><time>2026-04-23T12:29:47.779Z</time></trkpt><trkpt lat="40.7956867" lon="14.1905133"><ele>38.0</ele><time>2026-04-23T12:29:48.779Z</time></trkpt><trkpt lat="40.7956183" lon="14.1905817"><ele>38.0</ele><time>2026-04-23T12:29:49.778Z</time></trkpt><trkpt lat="40.7955533" lon="14.190645"><ele>38.0</ele><time>2026-04-23T12:29:50.78Z</time></trkpt><trkpt lat="40.7955017" lon="14.1907117"><ele>38.0</ele><time>2026-04-23T12:29:51.78Z</time></trkpt><trkpt lat="40.7954483" lon="14.1907667"><ele>38.0</ele><time>2026-04-23T12:29:52.778Z</time></trkpt><trkpt lat="40.795435" lon="14.190875"><ele>38.0</ele><time>2026-04-23T12:29:54.779Z</time></trkpt><trkpt lat="40.79547" lon="14.19095"><ele>38.0</ele><time>2026-04-23T12:29:55.776Z</time></trkpt><trkpt lat="40.7955017" lon="14.1910283"><ele>38.0</ele><time>2026-04-23T12:29:56.78Z</time></trkpt><trkpt lat="40.79554" lon="14.1911433"><ele>37.5</ele><time>2026-04-23T12:29:58.777Z</time></trkpt><trkpt lat="40.79563" lon="14.1912033"><ele>37.0</ele><time>2026-04-23T12:30:00.779Z</time></trkpt><trkpt lat="40.7957217" lon="14.1913033"><ele>36.5</ele><time>2026-04-23T12:30:02.779Z</time></trkpt><trkpt lat="40.795785" lon="14.1913567"><ele>36.0</ele><time>2026-04-23T12:30:03.779Z</time></trkpt><trkpt lat="40.7958367" lon="14.191415"><ele>35.5</ele><time>2026-04-23T12:30:04.776Z</time></trkpt><trkpt lat="40.7959017" lon="14.1914817"><ele>35.0</ele><time>2026-04-23T12:30:06.779Z</time></trkpt><trkpt lat="40.79591" lon="14.1913917"><ele>35.0</ele><time>2026-04-23T12:30:11.779Z</time></trkpt><trkpt lat="40.79585" lon="14.1913117"><ele>35.0</ele><time>2026-04-23T12:30:14.778Z</time></trkpt><trkpt lat="40.7958133" lon="14.1912433"><ele>35.0</ele><time>2026-04-23T12:30:16.776Z</time></trkpt><trkpt lat="40.79577" lon="14.1911817"><ele>35.0</ele><time>2026-04-23T12:30:18.778Z</time></trkpt><trkpt lat="40.7957183" lon="14.19112"><ele>35.0</ele><time>2026-04-23T12:30:21.777Z</time></trkpt><trkpt lat="40.795635" lon="14.1911467"><ele>35.0</ele><time>2026-04-23T12:30:25.778Z</time></trkpt><trkpt lat="40.795585" lon="14.1912333"><ele>35.0</ele><time>2026-04-23T12:30:28.776Z</time></trkpt><trkpt lat="40.7956583" lon="14.191215"><ele>35.0</ele><time>2026-04-23T12:30:58.777Z</time></trkpt><trkpt lat="40.795735" lon="14.1912883"><ele>35.0</ele><time>2026-04-23T12:31:01.78Z</time></trkpt><trkpt lat="40.7957867" lon="14.191345"><ele>35.0</ele><time>2026-04-23T12:31:03.778Z</time></trkpt><trkpt lat="40.7958333" lon="14.191405"><ele>35.0</ele><time>2026-04-23T12:31:05.781Z</time></trkpt><trkpt lat="40.7958933" lon="14.1914783"><ele>35.0</ele><time>2026-04-23T12:31:07.779Z</time></trkpt><trkpt lat="40.795955" lon="14.19155"><ele>35.8</ele><time>2026-04-23T12:31:09.778Z</time></trkpt><trkpt lat="40.7960183" lon="14.1916383"><ele>36.6</ele><time>2026-04-23T12:31:11.779Z</time></trkpt><trkpt lat="40.7960783" lon="14.191735"><ele>37.4</ele><time>2026-04-23T12:31:13.779Z</time></trkpt><trkpt lat="40.7961317" lon="14.19183"><ele>38.2</ele><time>2026-04-23T12:31:15.779Z</time></trkpt><trkpt lat="40.7961883" lon="14.19195"><ele>39.0</ele><time>2026-04-23T12:31:17.78Z</time></trkpt><trkpt lat="40.79624" lon="14.1920717"><ele>39.0</ele><time>2026-04-23T12:31:19.78Z</time></trkpt><trkpt lat="40.7962783" lon="14.1921783"><ele>39.0</ele><time>2026-04-23T12:31:21.779Z</time></trkpt><trkpt lat="40.7963133" lon="14.1922883"><ele>39.0</ele><time>2026-04-23T12:31:23.779Z</time></trkpt><trkpt lat="40.7963617" lon="14.192395"><ele>39.0</ele><time>2026-04-23T12:31:25.779Z</time></trkpt><trkpt lat="40.7964067" lon="14.1925017"><ele>39.0</ele><time>2026-04-23T12:31:27.779Z</time></trkpt><trkpt lat="40.7964433" lon="14.1926133"><ele>38.4</ele><time>2026-04-23T12:31:29.779Z</time></trkpt><trkpt lat="40.79648" lon="14.1927317"><ele>37.8</ele><time>2026-04-23T12:31:31.781Z</time></trkpt><trkpt lat="40.7965333" lon="14.1928467"><ele>37.2</ele><time>2026-04-23T12:31:33.78Z</time></trkpt><trkpt lat="40.79658" lon="14.19298"><ele>36.6</ele><time>2026-04-23T12:31:35.78Z</time></trkpt><trkpt lat="40.7966367" lon="14.1931117"><ele>36.0</ele><time>2026-04-23T12:31:37.78Z</time></trkpt><trkpt lat="40.79668" lon="14.19325"><ele>35.0</ele><time>2026-04-23T12:31:39.779Z</time></trkpt><trkpt lat="40.7967117" lon="14.19338"><ele>34.0</ele><time>2026-04-23T12:31:41.779Z</time></trkpt><trkpt lat="40.796725" lon="14.193475"><ele>33.0</ele><time>2026-04-23T12:31:43.779Z</time></trkpt><trkpt lat="40.7967217" lon="14.1935667"><ele>32.0</ele><time>2026-04-23T12:31:45.778Z</time></trkpt><trkpt lat="40.7967083" lon="14.1936683"><ele>31.0</ele><time>2026-04-23T12:31:47.778Z</time></trkpt><trkpt lat="40.796685" lon="14.1937583"><ele>30.0</ele><time>2026-04-23T12:31:49.78Z</time></trkpt><trkpt lat="40.7966067" lon="14.19383"><ele>30.0</ele><time>2026-04-23T12:31:52.778Z</time></trkpt><trkpt lat="40.7965033" lon="14.1937633"><ele>30.0</ele><time>2026-04-23T12:31:54.78Z</time></trkpt><trkpt lat="40.7964483" lon="14.1936283"><ele>30.0</ele><time>2026-04-23T12:31:56.779Z</time></trkpt><trkpt lat="40.7964133" lon="14.1934667"><ele>30.0</ele><time>2026-04-23T12:31:58.779Z</time></trkpt><trkpt lat="40.796395" lon="14.1933783"><ele>30.0</ele><time>2026-04-23T12:31:59.78Z</time></trkpt><trkpt lat="40.796375" lon="14.1932833"><ele>30.0</ele><time>2026-04-23T12:32:00.78Z</time></trkpt><trkpt lat="40.7963567" lon="14.1932017"><ele>30.0</ele><time>2026-04-23T12:32:01.781Z</time></trkpt><trkpt lat="40.79632" lon="14.1930567"><ele>30.0</ele><time>2026-04-23T12:32:03.779Z</time></trkpt><trkpt lat="40.7962967" lon="14.192935"><ele>30.0</ele><time>2026-04-23T12:32:05.78Z</time></trkpt><trkpt lat="40.796275" lon="14.1928517"><ele>30.0</ele><time>2026-04-23T12:32:07.779Z</time></trkpt><trkpt lat="40.7962317" lon="14.1927383"><ele>30.0</ele><time>2026-04-23T12:32:10.778Z</time></trkpt><trkpt lat="40.7961783" lon="14.192655"><ele>31.0</ele><time>2026-04-23T12:32:12.779Z</time></trkpt><trkpt lat="40.7961267" lon="14.1926067"><ele>32.0</ele><time>2026-04-23T12:32:14.781Z</time></trkpt><trkpt lat="40.796065" lon="14.19256"><ele>33.0</ele><time>2026-04-23T12:32:18.776Z</time></trkpt><trkpt lat="40.796005" lon="14.19252"><ele>34.0</ele><time>2026-04-23T12:32:22.779Z</time></trkpt><trkpt lat="40.7959517" lon="14.1924083"><ele>35.0</ele><time>2026-04-23T12:32:29.779Z</time></trkpt><trkpt lat="40.7958433" lon="14.1924117"><ele>36.0</ele><time>2026-04-23T12:33:53.777Z</time></trkpt><trkpt lat="40.7957683" lon="14.1924133"><ele>34.5</ele><time>2026-04-23T12:33:58.777Z</time></trkpt><trkpt lat="40.7956953" lon="14.1924151"><ele>33.0</ele><time>2026-04-23T12:34:26.739Z</time></trkpt><trkpt lat="40.7956329" lon="14.1924462"><ele>31.5</ele><time>2026-04-23T12:34:36.824Z</time></trkpt><trkpt lat="40.7956575" lon="14.1923567"><ele>30.0</ele><time>2026-04-23T12:35:09.847Z</time></trkpt><trkpt lat="40.7956815" lon="14.1922362"><ele>28.5</ele><time>2026-04-23T12:35:14.292Z</time></trkpt><trkpt lat="40.7956235" lon="14.1923863"><ele>27.0</ele><time>2026-04-23T12:36:46.829Z</time></trkpt><trkpt lat="40.7955677" lon="14.1924311"><ele>27.0</ele><time>2026-04-23T12:36:52.882Z</time></trkpt><trkpt lat="40.7955301" lon="14.1925055"><ele>27.0</ele><time>2026-04-23T12:37:28.886Z</time></trkpt><trkpt lat="40.7955677" lon="14.1924365"><ele>27.0</ele><time>2026-04-23T12:38:15.781Z</time></trkpt><trkpt lat="40.7956401" lon="14.1923832"><ele>27.0</ele><time>2026-04-23T12:38:22.902Z</time></trkpt><trkpt lat="40.7956959" lon="14.1923427"><ele>27.0</ele><time>2026-04-23T12:38:29.897Z</time></trkpt><trkpt lat="40.7957268" lon="14.1922695"><ele>27.0</ele><time>2026-04-23T12:38:41.895Z</time></trkpt><trkpt lat="40.7956861" lon="14.192335"><ele>27.0</ele><time>2026-04-23T12:39:02.851Z</time></trkpt><trkpt lat="40.7957536" lon="14.1922987"><ele>27.0</ele><time>2026-04-23T12:39:41.88Z</time></trkpt><trkpt lat="40.7957614" lon="14.1922105"><ele>27.0</ele><time>2026-04-23T12:40:08.831Z</time></trkpt><trkpt lat="40.7958217" lon="14.19226"><ele>27.0</ele><time>2026-04-23T12:40:39.776Z</time></trkpt><trkpt lat="40.7958783" lon="14.19234"><ele>27.0</ele><time>2026-04-23T12:40:44.776Z</time></trkpt><trkpt lat="40.7959267" lon="14.1923967"><ele>27.0</ele><time>2026-04-23T12:40:47.776Z</time></trkpt><trkpt lat="40.7959767" lon="14.19245"><ele>27.0</ele><time>2026-04-23T12:40:50.777Z</time></trkpt><trkpt lat="40.7960267" lon="14.1925217"><ele>27.0</ele><time>2026-04-23T12:40:53.777Z</time></trkpt><trkpt lat="40.7960717" lon="14.19259"><ele>27.428571428571427</ele><time>2026-04-23T12:40:56.776Z</time></trkpt><trkpt lat="40.796105" lon="14.1926633"><ele>27.857142857142854</ele><time>2026-04-23T12:40:59.777Z</time></trkpt><trkpt lat="40.7961483" lon="14.1927433"><ele>28.285714285714285</ele><time>2026-04-23T12:41:02.776Z</time></trkpt><trkpt lat="40.7961833" lon="14.1928383"><ele>28.714285714285715</ele><time>2026-04-23T12:41:05.776Z</time></trkpt><trkpt lat="40.7962" lon="14.1929433"><ele>29.142857142857142</ele><time>2026-04-23T12:41:08.776Z</time></trkpt><trkpt lat="40.79622" lon="14.1930233"><ele>29.571428571428573</ele><time>2026-04-23T12:41:11.776Z</time></trkpt><trkpt lat="40.7962433" lon="14.19312"><ele>30.0</ele><time>2026-04-23T12:41:14.777Z</time></trkpt><trkpt lat="40.7962617" lon="14.1932133"><ele>30.0</ele><time>2026-04-23T12:41:17.777Z</time></trkpt><trkpt lat="40.79627" lon="14.1933067"><ele>30.0</ele><time>2026-04-23T12:41:20.778Z</time></trkpt><trkpt lat="40.7963017" lon="14.1934"><ele>30.0</ele><time>2026-04-23T12:41:23.776Z</time></trkpt><trkpt lat="40.7963333" lon="14.193495"><ele>30.0</ele><time>2026-04-23T12:41:26.776Z</time></trkpt><trkpt lat="40.7963467" lon="14.19359"><ele>30.0</ele><time>2026-04-23T12:41:29.776Z</time></trkpt><trkpt lat="40.7963717" lon="14.1936867"><ele>30.0</ele><time>2026-04-23T12:41:32.776Z</time></trkpt><trkpt lat="40.7964367" lon="14.1937533"><ele>30.0</ele><time>2026-04-23T12:41:35.778Z</time></trkpt><trkpt lat="40.7965233" lon="14.193795"><ele>30.0</ele><time>2026-04-23T12:41:38.775Z</time></trkpt><trkpt lat="40.7966117" lon="14.1937917"><ele>30.0</ele><time>2026-04-23T12:41:41.776Z</time></trkpt><trkpt lat="40.7966883" lon="14.1937517"><ele>30.0</ele><time>2026-04-23T12:41:44.775Z</time></trkpt><trkpt lat="40.79674" lon="14.19368"><ele>30.0</ele><time>2026-04-23T12:41:47.778Z</time></trkpt><trkpt lat="40.7967817" lon="14.1935933"><ele>30.0</ele><time>2026-04-23T12:41:50.776Z</time></trkpt><trkpt lat="40.7967833" lon="14.1934733"><ele>30.0</ele><time>2026-04-23T12:41:53.776Z</time></trkpt><trkpt lat="40.7968217" lon="14.1933883"><ele>30.0</ele><time>2026-04-23T12:41:56.78Z</time></trkpt><trkpt lat="40.7968783" lon="14.19345"><ele>30.0</ele><time>2026-04-23T12:41:59.776Z</time></trkpt><trkpt lat="40.7969167" lon="14.1935267"><ele>30.0</ele><time>2026-04-23T12:42:01.778Z</time></trkpt><trkpt lat="40.7969733" lon="14.19361"><ele>30.0</ele><time>2026-04-23T12:42:04.778Z</time></trkpt><trkpt lat="40.7970333" lon="14.193695"><ele>30.0</ele><time>2026-04-23T12:42:07.779Z</time></trkpt><trkpt lat="40.7970667" lon="14.1937667"><ele>31.0</ele><time>2026-04-23T12:42:09.778Z</time></trkpt><trkpt lat="40.79711" lon="14.1938717"><ele>32.0</ele><time>2026-04-23T12:42:12.777Z</time></trkpt><trkpt lat="40.7971433" lon="14.19395"><ele>33.0</ele><time>2026-04-23T12:42:14.776Z</time></trkpt><trkpt lat="40.797175" lon="14.1940233"><ele>34.0</ele><time>2026-04-23T12:42:16.775Z</time></trkpt><trkpt lat="40.7972083" lon="14.1941"><ele>35.0</ele><time>2026-04-23T12:42:18.776Z</time></trkpt><trkpt lat="40.7972383" lon="14.1941733"><ele>36.0</ele><time>2026-04-23T12:42:20.776Z</time></trkpt><trkpt lat="40.7972967" lon="14.1942617"><ele>37.0</ele><time>2026-04-23T12:42:23.777Z</time></trkpt><trkpt lat="40.7973633" lon="14.1943"><ele>37.0</ele><time>2026-04-23T12:42:26.776Z</time></trkpt><trkpt lat="40.7974283" lon="14.1943133"><ele>37.0</ele><time>2026-04-23T12:42:29.776Z</time></trkpt><trkpt lat="40.7975017" lon="14.1942817"><ele>37.0</ele><time>2026-04-23T12:42:33.776Z</time></trkpt><trkpt lat="40.7975733" lon="14.1942217"><ele>37.0</ele><time>2026-04-23T12:42:37.779Z</time></trkpt><trkpt lat="40.79764" lon="14.1941633"><ele>37.0</ele><time>2026-04-23T12:42:41.776Z</time></trkpt><trkpt lat="40.797695" lon="14.1941"><ele>37.0</ele><time>2026-04-23T12:42:45.777Z</time></trkpt><trkpt lat="40.797745" lon="14.1940317"><ele>38.85714285714286</ele><time>2026-04-23T12:42:49.776Z</time></trkpt><trkpt lat="40.797795" lon="14.193975"><ele>40.714285714285715</ele><time>2026-04-23T12:42:53.776Z</time></trkpt><trkpt lat="40.79785" lon="14.1939283"><ele>42.57142857142857</ele><time>2026-04-23T12:42:57.776Z</time></trkpt><trkpt lat="40.797905" lon="14.1938817"><ele>44.42857142857143</ele><time>2026-04-23T12:43:01.776Z</time></trkpt><trkpt lat="40.7979733" lon="14.1938467"><ele>46.285714285714285</ele><time>2026-04-23T12:43:05.776Z</time></trkpt><trkpt lat="40.7980317" lon="14.193805"><ele>48.142857142857146</ele><time>2026-04-23T12:43:09.781Z</time></trkpt><trkpt lat="40.7980883" lon="14.1937583"><ele>50.0</ele><time>2026-04-23T12:43:13.778Z</time></trkpt><trkpt lat="40.7981483" lon="14.1937117"><ele>50.00000000000001</ele><time>2026-04-23T12:43:17.777Z</time></trkpt><trkpt lat="40.7982117" lon="14.1936683"><ele>50.0</ele><time>2026-04-23T12:43:21.776Z</time></trkpt><trkpt lat="40.7982783" lon="14.1936383"><ele>50.0</ele><time>2026-04-23T12:43:25.776Z</time></trkpt><trkpt lat="40.7983517" lon="14.1936167"><ele>50.0</ele><time>2026-04-23T12:43:29.776Z</time></trkpt><trkpt lat="40.798425" lon="14.1935883"><ele>50.0</ele><time>2026-04-23T12:43:34.776Z</time></trkpt><trkpt lat="40.7984867" lon="14.193565"><ele>50.00000000000001</ele><time>2026-04-23T12:43:38.777Z</time></trkpt><trkpt lat="40.7985617" lon="14.19357"><ele>50.0</ele><time>2026-04-23T12:43:42.777Z</time></trkpt><trkpt lat="40.7986333" lon="14.193565"><ele>52.0</ele><time>2026-04-23T12:43:46.777Z</time></trkpt><trkpt lat="40.7987117" lon="14.1935583"><ele>54.0</ele><time>2026-04-23T12:43:50.776Z</time></trkpt><trkpt lat="40.7987833" lon="14.193555"><ele>56.0</ele><time>2026-04-23T12:43:54.776Z</time></trkpt><trkpt lat="40.7988467" lon="14.19351"><ele>58.0</ele><time>2026-04-23T12:43:58.776Z</time></trkpt><trkpt lat="40.7989233" lon="14.19347"><ele>59.99999999999999</ele><time>2026-04-23T12:44:02.776Z</time></trkpt><trkpt lat="40.7989633" lon="14.1933983"><ele>62.0</ele><time>2026-04-23T12:44:06.778Z</time></trkpt><trkpt lat="40.7989983" lon="14.19331"><ele>64.0</ele><time>2026-04-23T12:44:10.776Z</time></trkpt><trkpt lat="40.7990367" lon="14.193235"><ele>63.857142857142854</ele><time>2026-04-23T12:44:14.777Z</time></trkpt><trkpt lat="40.7990683" lon="14.1931517"><ele>63.71428571428571</ele><time>2026-04-23T12:44:18.776Z</time></trkpt><trkpt lat="40.7991083" lon="14.19307"><ele>63.57142857142857</ele><time>2026-04-23T12:44:22.777Z</time></trkpt><trkpt lat="40.7991367" lon="14.1929817"><ele>63.42857142857143</ele><time>2026-04-23T12:44:26.776Z</time></trkpt><trkpt lat="40.799175" lon="14.1928933"><ele>63.285714285714285</ele><time>2026-04-23T12:44:30.778Z</time></trkpt><trkpt lat="40.7992333" lon="14.1928383"><ele>63.14285714285714</ele><time>2026-04-23T12:44:34.782Z</time></trkpt><trkpt lat="40.7993033" lon="14.1928033"><ele>63.0</ele><time>2026-04-23T12:44:39.776Z</time></trkpt><trkpt lat="40.7993683" lon="14.1927867"><ele>64.14285714285714</ele><time>2026-04-23T12:44:44.776Z</time></trkpt><trkpt lat="40.7994267" lon="14.1927533"><ele>65.28571428571428</ele><time>2026-04-23T12:44:48.777Z</time></trkpt><trkpt lat="40.7994917" lon="14.1927267"><ele>66.42857142857143</ele><time>2026-04-23T12:44:52.776Z</time></trkpt><trkpt lat="40.7995583" lon="14.192705"><ele>67.57142857142857</ele><time>2026-04-23T12:44:56.779Z</time></trkpt><trkpt lat="40.79963" lon="14.1927017"><ele>68.71428571428571</ele><time>2026-04-23T12:45:00.777Z</time></trkpt><trkpt lat="40.7996917" lon="14.1926817"><ele>69.85714285714286</ele><time>2026-04-23T12:45:04.779Z</time></trkpt><trkpt lat="40.7997617" lon="14.19268"><ele>71.0</ele><time>2026-04-23T12:45:08.778Z</time></trkpt><trkpt lat="40.7998233" lon="14.1926483"><ele>71.0</ele><time>2026-04-23T12:45:12.778Z</time></trkpt><trkpt lat="40.7998983" lon="14.1926333"><ele>71.0</ele><time>2026-04-23T12:45:16.779Z</time></trkpt><trkpt lat="40.7999683" lon="14.19262"><ele>71.0</ele><time>2026-04-23T12:45:20.778Z</time></trkpt><trkpt lat="40.8000317" lon="14.1926183"><ele>71.0</ele><time>2026-04-23T12:45:24.777Z</time></trkpt><trkpt lat="40.8001" lon="14.1925867"><ele>71.0</ele><time>2026-04-23T12:45:28.778Z</time></trkpt><trkpt lat="40.8001733" lon="14.1925733"><ele>71.0</ele><time>2026-04-23T12:45:32.779Z</time></trkpt><trkpt lat="40.8002533" lon="14.1925783"><ele>71.0</ele><time>2026-04-23T12:45:36.778Z</time></trkpt><trkpt lat="40.80033" lon="14.19258"><ele>72.71428571428571</ele><time>2026-04-23T12:45:41.778Z</time></trkpt><trkpt lat="40.800405" lon="14.1925833"><ele>74.42857142857142</ele><time>2026-04-23T12:45:45.776Z</time></trkpt><trkpt lat="40.800485" lon="14.1925783"><ele>76.14285714285714</ele><time>2026-04-23T12:45:49.777Z</time></trkpt><trkpt lat="40.8005533" lon="14.1925867"><ele>77.85714285714286</ele><time>2026-04-23T12:45:52.778Z</time></trkpt><trkpt lat="40.8006267" lon="14.19261"><ele>79.57142857142858</ele><time>2026-04-23T12:45:56.775Z</time></trkpt><trkpt lat="40.8006917" lon="14.1926167"><ele>81.28571428571428</ele><time>2026-04-23T12:46:00.775Z</time></trkpt><trkpt lat="40.8007683" lon="14.19262"><ele>83.0</ele><time>2026-04-23T12:46:05.775Z</time></trkpt><trkpt lat="40.80083" lon="14.1926633"><ele>83.0</ele><time>2026-04-23T12:46:08.775Z</time></trkpt><trkpt lat="40.80091" lon="14.1926883"><ele>83.0</ele><time>2026-04-23T12:46:12.775Z</time></trkpt><trkpt lat="40.800975" lon="14.1926917"><ele>83.0</ele><time>2026-04-23T12:46:15.775Z</time></trkpt><trkpt lat="40.8010467" lon="14.192695"><ele>83.0</ele><time>2026-04-23T12:46:18.775Z</time></trkpt><trkpt lat="40.8011133" lon="14.1926867"><ele>83.0</ele><time>2026-04-23T12:46:21.775Z</time></trkpt><trkpt lat="40.8011883" lon="14.1926833"><ele>83.0</ele><time>2026-04-23T12:46:24.776Z</time></trkpt><trkpt lat="40.801265" lon="14.1926933"><ele>83.0</ele><time>2026-04-23T12:46:27.776Z</time></trkpt><trkpt lat="40.8013467" lon="14.1926817"><ele>85.0</ele><time>2026-04-23T12:46:31.776Z</time></trkpt><trkpt lat="40.8014167" lon="14.1926733"><ele>87.0</ele><time>2026-04-23T12:46:35.776Z</time></trkpt><trkpt lat="40.8014867" lon="14.19268"><ele>89.0</ele><time>2026-04-23T12:46:39.777Z</time></trkpt><trkpt lat="40.80155" lon="14.19269"><ele>91.0</ele><time>2026-04-23T12:46:43.775Z</time></trkpt><trkpt lat="40.80162" lon="14.1927283"><ele>93.0</ele><time>2026-04-23T12:46:47.777Z</time></trkpt><trkpt lat="40.8017083" lon="14.1927433"><ele>95.0</ele><time>2026-04-23T12:46:51.776Z</time></trkpt><trkpt lat="40.8017883" lon="14.1927433"><ele>97.0</ele><time>2026-04-23T12:46:54.776Z</time></trkpt><trkpt lat="40.8018517" lon="14.192685"><ele>99.16666666666667</ele><time>2026-04-23T12:46:59.776Z</time></trkpt><trkpt lat="40.8019333" lon="14.1926933"><ele>101.33333333333334</ele><time>2026-04-23T12:47:03.778Z</time></trkpt><trkpt lat="40.8020117" lon="14.192705"><ele>103.5</ele><time>2026-04-23T12:47:07.777Z</time></trkpt><trkpt lat="40.8020833" lon="14.1927133"><ele>105.66666666666666</ele><time>2026-04-23T12:47:10.775Z</time></trkpt><trkpt lat="40.8021617" lon="14.192695"><ele>107.83333333333333</ele><time>2026-04-23T12:47:14.776Z</time></trkpt><trkpt lat="40.80222" lon="14.1927533"><ele>110.0</ele><time>2026-04-23T12:47:17.775Z</time></trkpt><trkpt lat="40.8022383" lon="14.192875"><ele>109.99999999999999</ele><time>2026-04-23T12:47:20.776Z</time></trkpt><trkpt lat="40.8022433" lon="14.1929617"><ele>110.0</ele><time>2026-04-23T12:47:22.776Z</time></trkpt><trkpt lat="40.802245" lon="14.1930483"><ele>110.0</ele><time>2026-04-23T12:47:24.776Z</time></trkpt><trkpt lat="40.8022533" lon="14.1931633"><ele>110.0</ele><time>2026-04-23T12:47:27.775Z</time></trkpt><trkpt lat="40.802245" lon="14.19328"><ele>109.99999999999999</ele><time>2026-04-23T12:47:30.782Z</time></trkpt><trkpt lat="40.8022117" lon="14.1933633"><ele>110.0</ele><time>2026-04-23T12:47:32.775Z</time></trkpt><trkpt lat="40.80216" lon="14.1934567"><ele>108.99999999999999</ele><time>2026-04-23T12:47:35.776Z</time></trkpt><trkpt lat="40.8021267" lon="14.1935617"><ele>108.0</ele><time>2026-04-23T12:47:38.776Z</time></trkpt><trkpt lat="40.8021117" lon="14.1936933"><ele>107.0</ele><time>2026-04-23T12:47:41.776Z</time></trkpt><trkpt lat="40.8021217" lon="14.1937883"><ele>106.0</ele><time>2026-04-23T12:47:43.777Z</time></trkpt><trkpt lat="40.80213" lon="14.19389"><ele>104.99999999999999</ele><time>2026-04-23T12:47:45.775Z</time></trkpt><trkpt lat="40.8021383" lon="14.193995"><ele>104.0</ele><time>2026-04-23T12:47:47.776Z</time></trkpt><trkpt lat="40.8021467" lon="14.194105"><ele>103.49999999999999</ele><time>2026-04-23T12:47:49.776Z</time></trkpt><trkpt lat="40.80215" lon="14.1942117"><ele>103.0</ele><time>2026-04-23T12:47:51.776Z</time></trkpt><trkpt lat="40.80216" lon="14.1943233"><ele>102.5</ele><time>2026-04-23T12:47:53.775Z</time></trkpt><trkpt lat="40.80218" lon="14.19443"><ele>102.0</ele><time>2026-04-23T12:47:55.777Z</time></trkpt><trkpt lat="40.8021883" lon="14.1945317"><ele>101.49999999999999</ele><time>2026-04-23T12:47:57.779Z</time></trkpt><trkpt lat="40.8021933" lon="14.1946383"><ele>101.0</ele><time>2026-04-23T12:47:59.777Z</time></trkpt><trkpt lat="40.8022033" lon="14.1947517"><ele>100.8</ele><time>2026-04-23T12:48:01.776Z</time></trkpt><trkpt lat="40.8022133" lon="14.194875"><ele>100.6</ele><time>2026-04-23T12:48:03.779Z</time></trkpt><trkpt lat="40.8022333" lon="14.1950017"><ele>100.4</ele><time>2026-04-23T12:48:05.776Z</time></trkpt><trkpt lat="40.8022533" lon="14.1951317"><ele>100.2</ele><time>2026-04-23T12:48:07.777Z</time></trkpt><trkpt lat="40.802255" lon="14.1952617"><ele>100.0</ele><time>2026-04-23T12:48:09.775Z</time></trkpt><trkpt lat="40.8022567" lon="14.19538"><ele>100.0</ele><time>2026-04-23T12:48:11.777Z</time></trkpt><trkpt lat="40.80228" lon="14.1954967"><ele>100.0</ele><time>2026-04-23T12:48:13.776Z</time></trkpt><trkpt lat="40.8023083" lon="14.1956117"><ele>100.0</ele><time>2026-04-23T12:48:15.777Z</time></trkpt><trkpt lat="40.8023567" lon="14.1957217"><ele>100.0</ele><time>2026-04-23T12:48:17.776Z</time></trkpt><trkpt lat="40.8024083" lon="14.1958333"><ele>100.0</ele><time>2026-04-23T12:48:19.775Z</time></trkpt><trkpt lat="40.80246" lon="14.19592"><ele>99.4</ele><time>2026-04-23T12:48:21.778Z</time></trkpt><trkpt lat="40.8025183" lon="14.1960017"><ele>98.8</ele><time>2026-04-23T12:48:23.775Z</time></trkpt><trkpt lat="40.8025833" lon="14.1961"><ele>98.19999999999999</ele><time>2026-04-23T12:48:25.777Z</time></trkpt><trkpt lat="40.8026383" lon="14.1962"><ele>97.6</ele><time>2026-04-23T12:48:27.777Z</time></trkpt><trkpt lat="40.8027117" lon="14.1962917"><ele>97.0</ele><time>2026-04-23T12:48:29.776Z</time></trkpt><trkpt lat="40.8027633" lon="14.1964"><ele>96.66666666666667</ele><time>2026-04-23T12:48:31.776Z</time></trkpt><trkpt lat="40.802815" lon="14.1964967"><ele>96.33333333333334</ele><time>2026-04-23T12:48:33.776Z</time></trkpt><trkpt lat="40.802865" lon="14.1965783"><ele>96.0</ele><time>2026-04-23T12:48:35.777Z</time></trkpt><trkpt lat="40.802915" lon="14.1966683"><ele>95.66666666666667</ele><time>2026-04-23T12:48:37.777Z</time></trkpt><trkpt lat="40.8029883" lon="14.1967567"><ele>95.33333333333334</ele><time>2026-04-23T12:48:39.776Z</time></trkpt><trkpt lat="40.8030517" lon="14.19684"><ele>95.0</ele><time>2026-04-23T12:48:41.777Z</time></trkpt><trkpt lat="40.803135" lon="14.1968867"><ele>95.0</ele><time>2026-04-23T12:48:43.777Z</time></trkpt><trkpt lat="40.8032233" lon="14.1968767"><ele>95.0</ele><time>2026-04-23T12:48:45.775Z</time></trkpt><trkpt lat="40.8032983" lon="14.1968317"><ele>95.0</ele><time>2026-04-23T12:48:47.776Z</time></trkpt><trkpt lat="40.8033567" lon="14.196795"><ele>95.0</ele><time>2026-04-23T12:48:49.781Z</time></trkpt><trkpt lat="40.8034233" lon="14.196755"><ele>95.0</ele><time>2026-04-23T12:48:52.776Z</time></trkpt><trkpt lat="40.8034733" lon="14.1967"><ele>95.0</ele><time>2026-04-23T12:48:55.776Z</time></trkpt><trkpt lat="40.8035333" lon="14.196655"><ele>95.0</ele><time>2026-04-23T12:48:58.777Z</time></trkpt><trkpt lat="40.8035967" lon="14.1966383"><ele>96.57142857142857</ele><time>2026-04-23T12:49:01.776Z</time></trkpt><trkpt lat="40.803665" lon="14.196625"><ele>98.14285714285714</ele><time>2026-04-23T12:49:05.776Z</time></trkpt><trkpt lat="40.8037167" lon="14.1965633"><ele>99.71428571428572</ele><time>2026-04-23T12:49:08.776Z</time></trkpt><trkpt lat="40.803785" lon="14.196495"><ele>101.28571428571428</ele><time>2026-04-23T12:49:12.776Z</time></trkpt><trkpt lat="40.803815" lon="14.19641"><ele>102.85714285714285</ele><time>2026-04-23T12:49:16.776Z</time></trkpt><trkpt lat="40.8037767" lon="14.1964867"><ele>104.42857142857143</ele><time>2026-04-23T12:49:20.776Z</time></trkpt><trkpt lat="40.8037317" lon="14.196545"><ele>106.0</ele><time>2026-04-23T12:49:22.776Z</time></trkpt><trkpt lat="40.8036933" lon="14.1966217"><ele>106.0</ele><time>2026-04-23T12:49:24.776Z</time></trkpt><trkpt lat="40.8036783" lon="14.1967033"><ele>106.0</ele><time>2026-04-23T12:49:26.777Z</time></trkpt><trkpt lat="40.803665" lon="14.1967983"><ele>106.0</ele><time>2026-04-23T12:49:29.777Z</time></trkpt><trkpt lat="40.8036833" lon="14.1968783"><ele>106.0</ele><time>2026-04-23T12:49:34.778Z</time></trkpt><trkpt lat="40.8037367" lon="14.1969483"><ele>106.0</ele><time>2026-04-23T12:49:39.777Z</time></trkpt><trkpt lat="40.8038067" lon="14.19698"><ele>106.0</ele><time>2026-04-23T12:49:43.776Z</time></trkpt><trkpt lat="40.8038867" lon="14.1969783"><ele>106.0</ele><time>2026-04-23T12:49:47.776Z</time></trkpt><trkpt lat="40.8039583" lon="14.1969467"><ele>106.0</ele><time>2026-04-23T12:49:51.777Z</time></trkpt><trkpt lat="40.80401" lon="14.1968833"><ele>106.0</ele><time>2026-04-23T12:49:54.777Z</time></trkpt><trkpt lat="40.8040468" lon="14.1968099"><ele>106.0</ele><time>2026-04-23T12:49:57.947Z</time></trkpt><trkpt lat="40.8040867" lon="14.1967217"><ele>106.0</ele><time>2026-04-23T12:50:01.776Z</time></trkpt><trkpt lat="40.804115" lon="14.1966267"><ele>106.0</ele><time>2026-04-23T12:50:05.776Z</time></trkpt><trkpt lat="40.804135" lon="14.1965217"><ele>106.0</ele><time>2026-04-23T12:50:09.778Z</time></trkpt><trkpt lat="40.8041733" lon="14.1964467"><ele>106.0</ele><time>2026-04-23T12:50:12.776Z</time></trkpt><trkpt lat="40.8042317" lon="14.1963767"><ele>106.85714285714286</ele><time>2026-04-23T12:50:16.776Z</time></trkpt><trkpt lat="40.8042867" lon="14.1963217"><ele>107.71428571428571</ele><time>2026-04-23T12:50:20.776Z</time></trkpt><trkpt lat="40.8043417" lon="14.1962517"><ele>108.57142857142857</ele><time>2026-04-23T12:50:24.777Z</time></trkpt><trkpt lat="40.8043867" lon="14.1961867"><ele>109.42857142857143</ele><time>2026-04-23T12:50:27.775Z</time></trkpt><trkpt lat="40.8044383" lon="14.196135"><ele>110.28571428571428</ele><time>2026-04-23T12:50:31.777Z</time></trkpt><trkpt lat="40.804495" lon="14.196085"><ele>111.14285714285714</ele><time>2026-04-23T12:50:35.776Z</time></trkpt><trkpt lat="40.8045467" lon="14.1960267"><ele>112.0</ele><time>2026-04-23T12:50:39.775Z</time></trkpt><trkpt lat="40.8045917" lon="14.195955"><ele>113.57142857142857</ele><time>2026-04-23T12:50:43.776Z</time></trkpt><trkpt lat="40.80466" lon="14.1959233"><ele>115.14285714285714</ele><time>2026-04-23T12:50:47.777Z</time></trkpt><trkpt lat="40.804705" lon="14.1958633"><ele>116.71428571428572</ele><time>2026-04-23T12:50:51.778Z</time></trkpt><trkpt lat="40.804765" lon="14.1958167"><ele>118.28571428571429</ele><time>2026-04-23T12:50:55.779Z</time></trkpt><trkpt lat="40.8048317" lon="14.1957667"><ele>119.85714285714286</ele><time>2026-04-23T12:50:59.776Z</time></trkpt><trkpt lat="40.804885" lon="14.195685"><ele>121.42857142857144</ele><time>2026-04-23T12:51:03.776Z</time></trkpt><trkpt lat="40.8049367" lon="14.1956083"><ele>123.00000000000001</ele><time>2026-04-23T12:51:07.776Z</time></trkpt><trkpt lat="40.8049733" lon="14.1955217"><ele>123.71428571428572</ele><time>2026-04-23T12:51:11.777Z</time></trkpt><trkpt lat="40.8050117" lon="14.1954467"><ele>124.42857142857143</ele><time>2026-04-23T12:51:15.776Z</time></trkpt><trkpt lat="40.8050767" lon="14.1953917"><ele>125.14285714285714</ele><time>2026-04-23T12:51:19.776Z</time></trkpt><trkpt lat="40.805145" lon="14.1953367"><ele>125.85714285714286</ele><time>2026-04-23T12:51:24.777Z</time></trkpt><trkpt lat="40.8052133" lon="14.1953617"><ele>126.57142857142856</ele><time>2026-04-23T12:51:28.776Z</time></trkpt><trkpt lat="40.8052567" lon="14.1954467"><ele>127.28571428571428</ele><time>2026-04-23T12:51:32.779Z</time></trkpt><trkpt lat="40.8052933" lon="14.195515"><ele>128.0</ele><time>2026-04-23T12:51:35.778Z</time></trkpt><trkpt lat="40.80534" lon="14.1955733"><ele>128.71428571428572</ele><time>2026-04-23T12:51:40.777Z</time></trkpt><trkpt lat="40.805405" lon="14.195595"><ele>129.42857142857142</ele><time>2026-04-23T12:51:43.779Z</time></trkpt><trkpt lat="40.80547" lon="14.1956267"><ele>130.14285714285714</ele><time>2026-04-23T12:51:46.776Z</time></trkpt><trkpt lat="40.80554" lon="14.19565"><ele>130.85714285714286</ele><time>2026-04-23T12:51:50.776Z</time></trkpt><trkpt lat="40.80561" lon="14.1956967"><ele>131.57142857142856</ele><time>2026-04-23T12:51:54.777Z</time></trkpt><trkpt lat="40.805685" lon="14.1957"><ele>132.28571428571428</ele><time>2026-04-23T12:51:59.776Z</time></trkpt><trkpt lat="40.8057317" lon="14.1956433"><ele>133.0</ele><time>2026-04-23T12:52:03.779Z</time></trkpt><trkpt lat="40.8057833" lon="14.195585"><ele>134.0</ele><time>2026-04-23T12:52:07.779Z</time></trkpt><trkpt lat="40.805855" lon="14.1955383"><ele>135.0</ele><time>2026-04-23T12:52:11.777Z</time></trkpt><trkpt lat="40.8059333" lon="14.1954867"><ele>136.0</ele><time>2026-04-23T12:52:15.778Z</time></trkpt><trkpt lat="40.8060233" lon="14.1954567"><ele>137.0</ele><time>2026-04-23T12:52:18.778Z</time></trkpt><trkpt lat="40.8060917" lon="14.19542"><ele>138.0</ele><time>2026-04-23T12:52:21.78Z</time></trkpt><trkpt lat="40.806155" lon="14.1953817"><ele>139.0</ele><time>2026-04-23T12:52:24.776Z</time></trkpt><trkpt lat="40.806225" lon="14.19533"><ele>140.14285714285714</ele><time>2026-04-23T12:52:28.776Z</time></trkpt><trkpt lat="40.8062783" lon="14.1952733"><ele>141.28571428571428</ele><time>2026-04-23T12:52:31.777Z</time></trkpt><trkpt lat="40.8063233" lon="14.1952117"><ele>142.42857142857144</ele><time>2026-04-23T12:52:34.777Z</time></trkpt><trkpt lat="40.806375" lon="14.1951617"><ele>143.57142857142856</ele><time>2026-04-23T12:52:37.776Z</time></trkpt><trkpt lat="40.806425" lon="14.1950967"><ele>144.71428571428572</ele><time>2026-04-23T12:52:40.778Z</time></trkpt><trkpt lat="40.8064567" lon="14.195005"><ele>145.85714285714286</ele><time>2026-04-23T12:52:43.777Z</time></trkpt><trkpt lat="40.8064633" lon="14.1949033"><ele>147.0</ele><time>2026-04-23T12:52:47.777Z</time></trkpt><trkpt lat="40.8064617" lon="14.1948183"><ele>147.66666666666666</ele><time>2026-04-23T12:52:51.777Z</time></trkpt><trkpt lat="40.8064467" lon="14.1947167"><ele>148.33333333333334</ele><time>2026-04-23T12:52:55.777Z</time></trkpt><trkpt lat="40.8064683" lon="14.194615"><ele>149.0</ele><time>2026-04-23T12:52:59.777Z</time></trkpt><trkpt lat="40.80647" lon="14.1945183"><ele>149.66666666666669</ele><time>2026-04-23T12:53:02.778Z</time></trkpt><trkpt lat="40.806525" lon="14.1944283"><ele>150.33333333333334</ele><time>2026-04-23T12:53:06.777Z</time></trkpt><trkpt lat="40.8065867" lon="14.194355"><ele>151.0</ele><time>2026-04-23T12:53:09.777Z</time></trkpt><trkpt lat="40.8066383" lon="14.1942883"><ele>151.0</ele><time>2026-04-23T12:53:12.779Z</time></trkpt><trkpt lat="40.8067117" lon="14.194265"><ele>151.0</ele><time>2026-04-23T12:53:16.778Z</time></trkpt><trkpt lat="40.80677" lon="14.1943133"><ele>151.0</ele><time>2026-04-23T12:53:18.778Z</time></trkpt><trkpt lat="40.8068267" lon="14.194405"><ele>151.0</ele><time>2026-04-23T12:53:21.776Z</time></trkpt><trkpt lat="40.80686" lon="14.1944883"><ele>151.0</ele><time>2026-04-23T12:53:24.776Z</time></trkpt><trkpt lat="40.8068583" lon="14.19459"><ele>151.0</ele><time>2026-04-23T12:53:28.777Z</time></trkpt><trkpt lat="40.806865" lon="14.19468"><ele>152.0</ele><time>2026-04-23T12:53:31.776Z</time></trkpt><trkpt lat="40.80686" lon="14.1947817"><ele>153.0</ele><time>2026-04-23T12:53:35.777Z</time></trkpt><trkpt lat="40.8068783" lon="14.1948933"><ele>154.0</ele><time>2026-04-23T12:53:39.777Z</time></trkpt><trkpt lat="40.806915" lon="14.1949833"><ele>155.0</ele><time>2026-04-23T12:53:42.777Z</time></trkpt><trkpt lat="40.8069567" lon="14.1950667"><ele>156.0</ele><time>2026-04-23T12:53:45.776Z</time></trkpt><trkpt lat="40.806995" lon="14.19516"><ele>157.0</ele><time>2026-04-23T12:53:48.777Z</time></trkpt><trkpt lat="40.8070467" lon="14.1952183"><ele>156.99999999999997</ele><time>2026-04-23T12:53:51.784Z</time></trkpt><trkpt lat="40.8071067" lon="14.1952533"><ele>157.0</ele><time>2026-04-23T12:53:54.777Z</time></trkpt><trkpt lat="40.8071717" lon="14.1952983"><ele>157.0</ele><time>2026-04-23T12:53:58.775Z</time></trkpt><trkpt lat="40.8072267" lon="14.1953483"><ele>157.0</ele><time>2026-04-23T12:54:02.775Z</time></trkpt><trkpt lat="40.8072417" lon="14.1954333"><ele>157.0</ele><time>2026-04-23T12:54:05.775Z</time></trkpt><trkpt lat="40.80725" lon="14.1955467"><ele>156.99999999999997</ele><time>2026-04-23T12:54:08.777Z</time></trkpt><trkpt lat="40.80724" lon="14.1956333"><ele>157.0</ele><time>2026-04-23T12:54:10.775Z</time></trkpt><trkpt lat="40.8072317" lon="14.1957217"><ele>156.16666666666669</ele><time>2026-04-23T12:54:12.776Z</time></trkpt><trkpt lat="40.8072633" lon="14.195845"><ele>155.33333333333334</ele><time>2026-04-23T12:54:15.776Z</time></trkpt><trkpt lat="40.8072683" lon="14.1959383"><ele>154.5</ele><time>2026-04-23T12:54:17.778Z</time></trkpt><trkpt lat="40.8072783" lon="14.1960317"><ele>153.66666666666666</ele><time>2026-04-23T12:54:20.776Z</time></trkpt><trkpt lat="40.8072833" lon="14.1961317"><ele>152.83333333333331</ele><time>2026-04-23T12:54:23.775Z</time></trkpt><trkpt lat="40.807285" lon="14.19626"><ele>152.0</ele><time>2026-04-23T12:54:26.781Z</time></trkpt><trkpt lat="40.8073033" lon="14.1963567"><ele>152.0</ele><time>2026-04-23T12:54:28.776Z</time></trkpt><trkpt lat="40.8072933" lon="14.1964633"><ele>152.0</ele><time>2026-04-23T12:54:30.776Z</time></trkpt><trkpt lat="40.8072933" lon="14.1965967"><ele>152.0</ele><time>2026-04-23T12:54:32.777Z</time></trkpt><trkpt lat="40.8073217" lon="14.1967717"><ele>152.0</ele><time>2026-04-23T12:54:34.778Z</time></trkpt><trkpt lat="40.80732" lon="14.1968883"><ele>152.0</ele><time>2026-04-23T12:54:36.777Z</time></trkpt><trkpt lat="40.8073167" lon="14.1969983"><ele>151.57142857142856</ele><time>2026-04-23T12:54:39.775Z</time></trkpt><trkpt lat="40.807315" lon="14.1970833"><ele>151.14285714285717</ele><time>2026-04-23T12:54:42.775Z</time></trkpt><trkpt lat="40.8073417" lon="14.1971683"><ele>150.71428571428572</ele><time>2026-04-23T12:54:46.778Z</time></trkpt><trkpt lat="40.8073817" lon="14.1972667"><ele>150.28571428571428</ele><time>2026-04-23T12:54:49.776Z</time></trkpt><trkpt lat="40.807415" lon="14.1973783"><ele>149.85714285714283</ele><time>2026-04-23T12:54:52.776Z</time></trkpt><trkpt lat="40.807445" lon="14.1974583"><ele>149.42857142857142</ele><time>2026-04-23T12:54:55.775Z</time></trkpt><trkpt lat="40.807465" lon="14.1975483"><ele>149.0</ele><time>2026-04-23T12:55:00.776Z</time></trkpt><trkpt lat="40.80751" lon="14.1976233"><ele>148.57142857142856</ele><time>2026-04-23T12:55:03.775Z</time></trkpt><trkpt lat="40.8075533" lon="14.1977133"><ele>148.14285714285714</ele><time>2026-04-23T12:55:06.775Z</time></trkpt><trkpt lat="40.807595" lon="14.1978"><ele>147.71428571428572</ele><time>2026-04-23T12:55:08.775Z</time></trkpt><trkpt lat="40.8076467" lon="14.19789"><ele>147.28571428571428</ele><time>2026-04-23T12:55:11.775Z</time></trkpt><trkpt lat="40.8076867" lon="14.197955"><ele>146.85714285714286</ele><time>2026-04-23T12:55:14.775Z</time></trkpt><trkpt lat="40.8077217" lon="14.1980267"><ele>146.42857142857142</ele><time>2026-04-23T12:55:17.775Z</time></trkpt><trkpt lat="40.807765" lon="14.1980883"><ele>146.0</ele><time>2026-04-23T12:55:20.775Z</time></trkpt><trkpt lat="40.8078133" lon="14.1981517"><ele>146.57142857142856</ele><time>2026-04-23T12:55:23.777Z</time></trkpt><trkpt lat="40.8078667" lon="14.1982"><ele>147.14285714285714</ele><time>2026-04-23T12:55:26.775Z</time></trkpt><trkpt lat="40.80793" lon="14.19826"><ele>147.71428571428572</ele><time>2026-04-23T12:55:30.775Z</time></trkpt><trkpt lat="40.8079833" lon="14.1983067"><ele>148.28571428571428</ele><time>2026-04-23T12:55:34.776Z</time></trkpt><trkpt lat="40.8080533" lon="14.19837"><ele>148.85714285714286</ele><time>2026-04-23T12:55:37.776Z</time></trkpt><trkpt lat="40.808105" lon="14.1984217"><ele>149.42857142857142</ele><time>2026-04-23T12:55:39.776Z</time></trkpt><trkpt lat="40.8081617" lon="14.19849"><ele>150.0</ele><time>2026-04-23T12:55:42.775Z</time></trkpt><trkpt lat="40.80822" lon="14.198545"><ele>150.0</ele><time>2026-04-23T12:55:45.776Z</time></trkpt><trkpt lat="40.808295" lon="14.19861"><ele>150.0</ele><time>2026-04-23T12:55:48.777Z</time></trkpt><trkpt lat="40.808365" lon="14.1986717"><ele>150.0</ele><time>2026-04-23T12:55:51.775Z</time></trkpt><trkpt lat="40.80844" lon="14.1987217"><ele>150.0</ele><time>2026-04-23T12:55:54.776Z</time></trkpt><trkpt lat="40.8085067" lon="14.198755"><ele>150.0</ele><time>2026-04-23T12:55:57.776Z</time></trkpt><trkpt lat="40.8085667" lon="14.19879"><ele>150.0</ele><time>2026-04-23T12:56:00.775Z</time></trkpt><trkpt lat="40.8086417" lon="14.1988133"><ele>150.6</ele><time>2026-04-23T12:56:03.775Z</time></trkpt><trkpt lat="40.8087283" lon="14.1988283"><ele>151.2</ele><time>2026-04-23T12:56:06.775Z</time></trkpt><trkpt lat="40.80882" lon="14.1988533"><ele>151.8</ele><time>2026-04-23T12:56:09.78Z</time></trkpt><trkpt lat="40.8089" lon="14.1988667"><ele>152.4</ele><time>2026-04-23T12:56:11.778Z</time></trkpt><trkpt lat="40.8089883" lon="14.1988883"><ele>153.0</ele><time>2026-04-23T12:56:13.778Z</time></trkpt><trkpt lat="40.80908" lon="14.198935"><ele>153.0</ele><time>2026-04-23T12:56:15.781Z</time></trkpt><trkpt lat="40.809175" lon="14.1989783"><ele>153.0</ele><time>2026-04-23T12:56:17.775Z</time></trkpt><trkpt lat="40.8092683" lon="14.1990267"><ele>153.0</ele><time>2026-04-23T12:56:19.782Z</time></trkpt><trkpt lat="40.8093617" lon="14.1990783"><ele>153.0</ele><time>2026-04-23T12:56:21.776Z</time></trkpt><trkpt lat="40.80945" lon="14.199145"><ele>153.0</ele><time>2026-04-23T12:56:23.776Z</time></trkpt><trkpt lat="40.8095033" lon="14.1991933"><ele>152.5</ele><time>2026-04-23T12:56:25.776Z</time></trkpt><trkpt lat="40.8095633" lon="14.1992433"><ele>152.0</ele><time>2026-04-23T12:56:29.776Z</time></trkpt><trkpt lat="40.809615" lon="14.19931"><ele>151.5</ele><time>2026-04-23T12:56:32.776Z</time></trkpt><trkpt lat="40.8096783" lon="14.1993833"><ele>151.0</ele><time>2026-04-23T12:56:35.776Z</time></trkpt><trkpt lat="40.8097383" lon="14.1994533"><ele>150.5</ele><time>2026-04-23T12:56:38.777Z</time></trkpt><trkpt lat="40.8097867" lon="14.1995167"><ele>150.0</ele><time>2026-04-23T12:56:40.775Z</time></trkpt><trkpt lat="40.809865" lon="14.199615"><ele>150.0</ele><time>2026-04-23T12:56:43.776Z</time></trkpt><trkpt lat="40.8099333" lon="14.19971"><ele>150.0</ele><time>2026-04-23T12:56:45.782Z</time></trkpt><trkpt lat="40.8100017" lon="14.1998133"><ele>150.0</ele><time>2026-04-23T12:56:47.776Z</time></trkpt><trkpt lat="40.8100783" lon="14.19993"><ele>150.0</ele><time>2026-04-23T12:56:49.775Z</time></trkpt><trkpt lat="40.810155" lon="14.20006"><ele>150.0</ele><time>2026-04-23T12:56:51.777Z</time></trkpt><trkpt lat="40.8102017" lon="14.2001167"><ele>150.0</ele><time>2026-04-23T12:56:52.775Z</time></trkpt><trkpt lat="40.8102883" lon="14.2002217"><ele>150.0</ele><time>2026-04-23T12:56:54.775Z</time></trkpt><trkpt lat="40.810335" lon="14.2002783"><ele>150.0</ele><time>2026-04-23T12:56:55.776Z</time></trkpt><trkpt lat="40.8104167" lon="14.2004083"><ele>150.0</ele><time>2026-04-23T12:56:57.777Z</time></trkpt><trkpt lat="40.8104617" lon="14.2004783"><ele>150.0</ele><time>2026-04-23T12:56:58.776Z</time></trkpt><trkpt lat="40.8105117" lon="14.20055"><ele>150.0</ele><time>2026-04-23T12:56:59.777Z</time></trkpt><trkpt lat="40.8105617" lon="14.2006167"><ele>150.0</ele><time>2026-04-23T12:57:00.775Z</time></trkpt><trkpt lat="40.8106117" lon="14.2006733"><ele>150.0</ele><time>2026-04-23T12:57:01.776Z</time></trkpt><trkpt lat="40.8107033" lon="14.2007783"><ele>150.0</ele><time>2026-04-23T12:57:03.776Z</time></trkpt><trkpt lat="40.810755" lon="14.2008317"><ele>150.0</ele><time>2026-04-23T12:57:04.776Z</time></trkpt><trkpt lat="40.81084" lon="14.200955"><ele>149.57142857142856</ele><time>2026-04-23T12:57:06.776Z</time></trkpt><trkpt lat="40.8108883" lon="14.2010183"><ele>149.14285714285714</ele><time>2026-04-23T12:57:07.777Z</time></trkpt><trkpt lat="40.810935" lon="14.2010833"><ele>148.71428571428572</ele><time>2026-04-23T12:57:08.775Z</time></trkpt><trkpt lat="40.8109783" lon="14.20115"><ele>148.28571428571428</ele><time>2026-04-23T12:57:09.776Z</time></trkpt><trkpt lat="40.811025" lon="14.20122"><ele>147.85714285714286</ele><time>2026-04-23T12:57:10.777Z</time></trkpt><trkpt lat="40.8110767" lon="14.2012933"><ele>147.42857142857142</ele><time>2026-04-23T12:57:11.775Z</time></trkpt><trkpt lat="40.8111267" lon="14.2013683"><ele>147.0</ele><time>2026-04-23T12:57:12.778Z</time></trkpt><trkpt lat="40.811175" lon="14.2014433"><ele>144.83333333333334</ele><time>2026-04-23T12:57:13.776Z</time></trkpt><trkpt lat="40.8112267" lon="14.2015217"><ele>142.66666666666666</ele><time>2026-04-23T12:57:14.776Z</time></trkpt><trkpt lat="40.8112717" lon="14.2015983"><ele>140.5</ele><time>2026-04-23T12:57:15.775Z</time></trkpt><trkpt lat="40.8113217" lon="14.2016767"><ele>138.33333333333331</ele><time>2026-04-23T12:57:16.775Z</time></trkpt><trkpt lat="40.8113717" lon="14.201755"><ele>136.16666666666666</ele><time>2026-04-23T12:57:17.775Z</time></trkpt><trkpt lat="40.81142" lon="14.2018333"><ele>134.0</ele><time>2026-04-23T12:57:18.776Z</time></trkpt><trkpt lat="40.8114633" lon="14.2019017"><ele>134.0</ele><time>2026-04-23T12:57:19.776Z</time></trkpt><trkpt lat="40.8115317" lon="14.2020167"><ele>134.0</ele><time>2026-04-23T12:57:21.776Z</time></trkpt><trkpt lat="40.811595" lon="14.20214"><ele>134.0</ele><time>2026-04-23T12:57:23.777Z</time></trkpt><trkpt lat="40.8116367" lon="14.2022033"><ele>134.0</ele><time>2026-04-23T12:57:24.778Z</time></trkpt><trkpt lat="40.81168" lon="14.2022667"><ele>134.0</ele><time>2026-04-23T12:57:25.775Z</time></trkpt><trkpt lat="40.811745" lon="14.2023533"><ele>134.0</ele><time>2026-04-23T12:57:27.775Z</time></trkpt><trkpt lat="40.81179" lon="14.20243"><ele>133.16666666666666</ele><time>2026-04-23T12:57:29.779Z</time></trkpt><trkpt lat="40.8118317" lon="14.20252"><ele>132.33333333333331</ele><time>2026-04-23T12:57:31.776Z</time></trkpt><trkpt lat="40.8118967" lon="14.202615"><ele>131.5</ele><time>2026-04-23T12:57:33.775Z</time></trkpt><trkpt lat="40.8119583" lon="14.202695"><ele>130.66666666666666</ele><time>2026-04-23T12:57:35.777Z</time></trkpt><trkpt lat="40.8119967" lon="14.2027617"><ele>129.83333333333334</ele><time>2026-04-23T12:57:37.776Z</time></trkpt><trkpt lat="40.8120383" lon="14.2028267"><ele>129.0</ele><time>2026-04-23T12:57:39.776Z</time></trkpt><trkpt lat="40.8120917" lon="14.2029183"><ele>129.0</ele><time>2026-04-23T12:57:41.776Z</time></trkpt><trkpt lat="40.81216" lon="14.2030167"><ele>129.0</ele><time>2026-04-23T12:57:43.778Z</time></trkpt><trkpt lat="40.8122367" lon="14.2031133"><ele>129.0</ele><time>2026-04-23T12:57:45.778Z</time></trkpt><trkpt lat="40.81231" lon="14.2032133"><ele>129.0</ele><time>2026-04-23T12:57:47.776Z</time></trkpt><trkpt lat="40.8123883" lon="14.2033217"><ele>129.0</ele><time>2026-04-23T12:57:49.776Z</time></trkpt><trkpt lat="40.8124717" lon="14.2034383"><ele>129.8</ele><time>2026-04-23T12:57:51.778Z</time></trkpt><trkpt lat="40.8125383" lon="14.2035383"><ele>130.60000000000002</ele><time>2026-04-23T12:57:53.775Z</time></trkpt><trkpt lat="40.81261" lon="14.2036267"><ele>131.4</ele><time>2026-04-23T12:57:55.777Z</time></trkpt><trkpt lat="40.81267" lon="14.2037133"><ele>132.20000000000002</ele><time>2026-04-23T12:57:57.776Z</time></trkpt><trkpt lat="40.8127267" lon="14.2037883"><ele>133.0</ele><time>2026-04-23T12:57:59.777Z</time></trkpt><trkpt lat="40.812795" lon="14.203885"><ele>133.0</ele><time>2026-04-23T12:58:01.777Z</time></trkpt><trkpt lat="40.812855" lon="14.2039733"><ele>133.0</ele><time>2026-04-23T12:58:03.775Z</time></trkpt><trkpt lat="40.812905" lon="14.2040417"><ele>133.0</ele><time>2026-04-23T12:58:05.777Z</time></trkpt><trkpt lat="40.8129517" lon="14.2041167"><ele>133.0</ele><time>2026-04-23T12:58:07.777Z</time></trkpt><trkpt lat="40.813" lon="14.2041983"><ele>133.0</ele><time>2026-04-23T12:58:09.777Z</time></trkpt><trkpt lat="40.8130467" lon="14.2042717"><ele>133.0</ele><time>2026-04-23T12:58:11.776Z</time></trkpt><trkpt lat="40.8131" lon="14.2043733"><ele>130.5</ele><time>2026-04-23T12:58:14.776Z</time></trkpt><trkpt lat="40.8131433" lon="14.2044483"><ele>128.0</ele><time>2026-04-23T12:58:16.776Z</time></trkpt><trkpt lat="40.8132033" lon="14.204525"><ele>125.5</ele><time>2026-04-23T12:58:18.775Z</time></trkpt><trkpt lat="40.8132767" lon="14.2046083"><ele>123.0</ele><time>2026-04-23T12:58:20.78Z</time></trkpt><trkpt lat="40.813335" lon="14.2046817"><ele>120.50000000000001</ele><time>2026-04-23T12:58:22.777Z</time></trkpt><trkpt lat="40.81341" lon="14.2047317"><ele>118.0</ele><time>2026-04-23T12:58:25.776Z</time></trkpt><trkpt lat="40.813465" lon="14.204775"><ele>117.16666666666667</ele><time>2026-04-23T12:58:27.777Z</time></trkpt><trkpt lat="40.81353" lon="14.2048433"><ele>116.33333333333334</ele><time>2026-04-23T12:58:30.775Z</time></trkpt><trkpt lat="40.8136017" lon="14.20491"><ele>115.5</ele><time>2026-04-23T12:58:33.776Z</time></trkpt><trkpt lat="40.81366" lon="14.204975"><ele>114.66666666666666</ele><time>2026-04-23T12:58:35.78Z</time></trkpt><trkpt lat="40.8137333" lon="14.20504"><ele>113.83333333333333</ele><time>2026-04-23T12:58:37.779Z</time></trkpt><trkpt lat="40.813805" lon="14.2051067"><ele>113.0</ele><time>2026-04-23T12:58:39.776Z</time></trkpt><trkpt lat="40.813895" lon="14.2051833"><ele>113.0</ele><time>2026-04-23T12:58:41.776Z</time></trkpt><trkpt lat="40.8139817" lon="14.2052633"><ele>113.00000000000001</ele><time>2026-04-23T12:58:43.778Z</time></trkpt><trkpt lat="40.81407" lon="14.2053467"><ele>113.00000000000001</ele><time>2026-04-23T12:58:45.776Z</time></trkpt><trkpt lat="40.8141617" lon="14.2054433"><ele>113.0</ele><time>2026-04-23T12:58:47.777Z</time></trkpt><trkpt lat="40.8142517" lon="14.20554"><ele>113.0</ele><time>2026-04-23T12:58:49.777Z</time></trkpt><trkpt lat="40.8143517" lon="14.2056417"><ele>112.60000000000001</ele><time>2026-04-23T12:58:51.778Z</time></trkpt><trkpt lat="40.8144467" lon="14.2057333"><ele>112.20000000000002</ele><time>2026-04-23T12:58:53.776Z</time></trkpt><trkpt lat="40.8145333" lon="14.2058217"><ele>111.8</ele><time>2026-04-23T12:58:55.777Z</time></trkpt><trkpt lat="40.8146117" lon="14.2059033"><ele>111.4</ele><time>2026-04-23T12:58:57.776Z</time></trkpt><trkpt lat="40.8146883" lon="14.2059883"><ele>111.0</ele><time>2026-04-23T12:58:59.776Z</time></trkpt><trkpt lat="40.8147717" lon="14.2060633"><ele>111.0</ele><time>2026-04-23T12:59:01.777Z</time></trkpt><trkpt lat="40.8148517" lon="14.2061483"><ele>111.0</ele><time>2026-04-23T12:59:03.778Z</time></trkpt><trkpt lat="40.8149317" lon="14.2062383"><ele>111.0</ele><time>2026-04-23T12:59:05.776Z</time></trkpt><trkpt lat="40.8150083" lon="14.2063317"><ele>111.0</ele><time>2026-04-23T12:59:07.776Z</time></trkpt><trkpt lat="40.8150633" lon="14.206395"><ele>111.0</ele><time>2026-04-23T12:59:09.776Z</time></trkpt><trkpt lat="40.8151183" lon="14.2064483"><ele>110.83333333333333</ele><time>2026-04-23T12:59:11.776Z</time></trkpt><trkpt lat="40.81519" lon="14.2065033"><ele>110.66666666666666</ele><time>2026-04-23T12:59:13.777Z</time></trkpt><trkpt lat="40.8152633" lon="14.2065483"><ele>110.5</ele><time>2026-04-23T12:59:15.776Z</time></trkpt><trkpt lat="40.8153267" lon="14.206625"><ele>110.33333333333333</ele><time>2026-04-23T12:59:17.778Z</time></trkpt><trkpt lat="40.81538" lon="14.206715"><ele>110.16666666666666</ele><time>2026-04-23T12:59:19.777Z</time></trkpt><trkpt lat="40.8154517" lon="14.2067983"><ele>110.0</ele><time>2026-04-23T13:00:12.777Z</time></trkpt><trkpt lat="40.8154683" lon="14.2068967"><ele>109.99999999999999</ele><time>2026-04-23T13:00:15.778Z</time></trkpt><trkpt lat="40.8154483" lon="14.207105"><ele>110.0</ele><time>2026-04-23T13:00:23.777Z</time></trkpt><trkpt lat="40.815405" lon="14.2071933"><ele>110.0</ele><time>2026-04-23T13:00:27.778Z</time></trkpt><trkpt lat="40.8153667" lon="14.2072783"><ele>110.0</ele><time>2026-04-23T13:00:30.777Z</time></trkpt><trkpt lat="40.81534" lon="14.207355"><ele>109.99999999999999</ele><time>2026-04-23T13:00:33.781Z</time></trkpt><trkpt lat="40.81531" lon="14.2074333"><ele>110.0</ele><time>2026-04-23T13:00:36.777Z</time></trkpt><trkpt lat="40.81527" lon="14.2075183"><ele>108.83333333333333</ele><time>2026-04-23T13:00:41.785Z</time></trkpt><trkpt lat="40.8152417" lon="14.207615"><ele>107.66666666666666</ele><time>2026-04-23T13:00:46.777Z</time></trkpt><trkpt lat="40.8152133" lon="14.207705"><ele>106.5</ele><time>2026-04-23T13:00:50.777Z</time></trkpt><trkpt lat="40.8152283" lon="14.207875"><ele>105.33333333333334</ele><time>2026-04-23T13:00:58.776Z</time></trkpt><trkpt lat="40.8152517" lon="14.2079567"><ele>104.16666666666667</ele><time>2026-04-23T13:01:01.777Z</time></trkpt><trkpt lat="40.8152917" lon="14.2080633"><ele>103.0</ele><time>2026-04-23T13:01:04.779Z</time></trkpt><trkpt lat="40.81532" lon="14.20816"><ele>100.33333333333334</ele><time>2026-04-23T13:01:06.775Z</time></trkpt><trkpt lat="40.8153533" lon="14.2082317"><ele>97.66666666666667</ele><time>2026-04-23T13:01:08.776Z</time></trkpt><trkpt lat="40.8154233" lon="14.2082917"><ele>95.0</ele><time>2026-04-23T13:01:12.777Z</time></trkpt><trkpt lat="40.8154967" lon="14.2083567"><ele>92.33333333333334</ele><time>2026-04-23T13:01:15.776Z</time></trkpt><trkpt lat="40.81555" lon="14.2084133"><ele>89.66666666666667</ele><time>2026-04-23T13:01:18.778Z</time></trkpt><trkpt lat="40.8156183" lon="14.208425"><ele>87.0</ele><time>2026-04-23T13:02:29.775Z</time></trkpt><trkpt lat="40.8157167" lon="14.2084267"><ele>87.0</ele><time>2026-04-23T13:02:32.778Z</time></trkpt><trkpt lat="40.815785" lon="14.2084383"><ele>87.0</ele><time>2026-04-23T13:02:34.778Z</time></trkpt><trkpt lat="40.8158567" lon="14.2084683"><ele>87.0</ele><time>2026-04-23T13:02:36.776Z</time></trkpt><trkpt lat="40.8159417" lon="14.208485"><ele>87.0</ele><time>2026-04-23T13:02:38.776Z</time></trkpt><trkpt lat="40.8160333" lon="14.2085267"><ele>87.0</ele><time>2026-04-23T13:02:40.775Z</time></trkpt><trkpt lat="40.8161267" lon="14.20857"><ele>87.0</ele><time>2026-04-23T13:02:42.775Z</time></trkpt><trkpt lat="40.81622" lon="14.2086217"><ele>88.5</ele><time>2026-04-23T13:02:44.775Z</time></trkpt><trkpt lat="40.81631" lon="14.208695"><ele>90.0</ele><time>2026-04-23T13:02:46.775Z</time></trkpt><trkpt lat="40.8163917" lon="14.20875"><ele>91.5</ele><time>2026-04-23T13:02:48.776Z</time></trkpt><trkpt lat="40.816465" lon="14.2088"><ele>93.0</ele><time>2026-04-23T13:02:50.776Z</time></trkpt><trkpt lat="40.8165433" lon="14.2088"><ele>94.5</ele><time>2026-04-23T13:02:52.775Z</time></trkpt><trkpt lat="40.8166217" lon="14.2088217"><ele>96.0</ele><time>2026-04-23T13:02:54.776Z</time></trkpt><trkpt lat="40.8167067" lon="14.2088133"><ele>96.0</ele><time>2026-04-23T13:02:56.776Z</time></trkpt><trkpt lat="40.8167833" lon="14.2088217"><ele>96.0</ele><time>2026-04-23T13:02:58.775Z</time></trkpt><trkpt lat="40.8168617" lon="14.2088267"><ele>96.0</ele><time>2026-04-23T13:03:00.775Z</time></trkpt><trkpt lat="40.81694" lon="14.2088533"><ele>96.0</ele><time>2026-04-23T13:03:02.775Z</time></trkpt><trkpt lat="40.8170133" lon="14.2088717"><ele>96.0</ele><time>2026-04-23T13:03:04.779Z</time></trkpt><trkpt lat="40.8170983" lon="14.208885"><ele>96.0</ele><time>2026-04-23T13:03:06.776Z</time></trkpt><trkpt lat="40.8171717" lon="14.2089083"><ele>98.0</ele><time>2026-04-23T13:03:08.779Z</time></trkpt><trkpt lat="40.8172283" lon="14.20895"><ele>100.0</ele><time>2026-04-23T13:03:10.777Z</time></trkpt><trkpt lat="40.8173217" lon="14.208955"><ele>102.0</ele><time>2026-04-23T13:03:13.775Z</time></trkpt><trkpt lat="40.8173933" lon="14.2089533"><ele>104.0</ele><time>2026-04-23T13:03:15.777Z</time></trkpt><trkpt lat="40.8174683" lon="14.2089583"><ele>106.0</ele><time>2026-04-23T13:03:17.775Z</time></trkpt><trkpt lat="40.8175383" lon="14.2089633"><ele>108.0</ele><time>2026-04-23T13:03:19.775Z</time></trkpt><trkpt lat="40.817615" lon="14.2089817"><ele>106.5</ele><time>2026-04-23T13:03:21.779Z</time></trkpt><trkpt lat="40.8176767" lon="14.2090183"><ele>105.0</ele><time>2026-04-23T13:03:23.775Z</time></trkpt><trkpt lat="40.81775" lon="14.2090633"><ele>103.5</ele><time>2026-04-23T13:03:25.777Z</time></trkpt><trkpt lat="40.817815" lon="14.209125"><ele>102.0</ele><time>2026-04-23T13:03:27.775Z</time></trkpt><trkpt lat="40.8178817" lon="14.2091867"><ele>100.5</ele><time>2026-04-23T13:03:29.777Z</time></trkpt><trkpt lat="40.817935" lon="14.209255"><ele>99.0</ele><time>2026-04-23T13:03:31.775Z</time></trkpt><trkpt lat="40.8179833" lon="14.2093183"><ele>99.0</ele><time>2026-04-23T13:03:33.775Z</time></trkpt><trkpt lat="40.8180383" lon="14.20938"><ele>99.0</ele><time>2026-04-23T13:03:35.776Z</time></trkpt><trkpt lat="40.8180867" lon="14.2094483"><ele>99.0</ele><time>2026-04-23T13:03:37.776Z</time></trkpt><trkpt lat="40.8181367" lon="14.2095"><ele>99.0</ele><time>2026-04-23T13:03:39.775Z</time></trkpt><trkpt lat="40.8181983" lon="14.2095517"><ele>99.0</ele><time>2026-04-23T13:03:41.777Z</time></trkpt><trkpt lat="40.8182717" lon="14.2095967"><ele>99.0</ele><time>2026-04-23T13:03:43.776Z</time></trkpt><trkpt lat="40.8183367" lon="14.2096533"><ele>99.0</ele><time>2026-04-23T13:03:45.776Z</time></trkpt><trkpt lat="40.818405" lon="14.2096983"><ele>98.16666666666667</ele><time>2026-04-23T13:03:47.776Z</time></trkpt><trkpt lat="40.8184867" lon="14.2097417"><ele>97.33333333333333</ele><time>2026-04-23T13:03:49.776Z</time></trkpt><trkpt lat="40.818565" lon="14.2097817"><ele>96.5</ele><time>2026-04-23T13:03:51.777Z</time></trkpt><trkpt lat="40.8186367" lon="14.2098433"><ele>95.66666666666666</ele><time>2026-04-23T13:03:53.777Z</time></trkpt><trkpt lat="40.8187133" lon="14.2099033"><ele>94.83333333333333</ele><time>2026-04-23T13:03:55.775Z</time></trkpt><trkpt lat="40.8187933" lon="14.2099483"><ele>94.0</ele><time>2026-04-23T13:03:57.776Z</time></trkpt><trkpt lat="40.8188733" lon="14.209995"><ele>94.0</ele><time>2026-04-23T13:03:59.775Z</time></trkpt><trkpt lat="40.8189617" lon="14.2100167"><ele>94.0</ele><time>2026-04-23T13:04:01.775Z</time></trkpt><trkpt lat="40.8190267" lon="14.21007"><ele>94.0</ele><time>2026-04-23T13:04:03.781Z</time></trkpt><trkpt lat="40.8190983" lon="14.2101217"><ele>94.0</ele><time>2026-04-23T13:04:05.775Z</time></trkpt><trkpt lat="40.8191683" lon="14.2101933"><ele>94.0</ele><time>2026-04-23T13:04:07.776Z</time></trkpt><trkpt lat="40.8192417" lon="14.210255"><ele>94.0</ele><time>2026-04-23T13:04:09.775Z</time></trkpt><trkpt lat="40.819305" lon="14.21032"><ele>97.16666666666666</ele><time>2026-04-23T13:04:11.775Z</time></trkpt><trkpt lat="40.819365" lon="14.2103883"><ele>100.33333333333333</ele><time>2026-04-23T13:04:13.776Z</time></trkpt><trkpt lat="40.8194333" lon="14.2104517"><ele>103.5</ele><time>2026-04-23T13:04:15.776Z</time></trkpt><trkpt lat="40.819505" lon="14.210505"><ele>106.66666666666666</ele><time>2026-04-23T13:04:17.776Z</time></trkpt><trkpt lat="40.8195733" lon="14.2105517"><ele>109.83333333333333</ele><time>2026-04-23T13:04:19.776Z</time></trkpt><trkpt lat="40.819645" lon="14.2105983"><ele>113.0</ele><time>2026-04-23T13:04:21.776Z</time></trkpt><trkpt lat="40.8197217" lon="14.2106467"><ele>110.66666666666666</ele><time>2026-04-23T13:04:23.777Z</time></trkpt><trkpt lat="40.819775" lon="14.210695"><ele>108.33333333333333</ele><time>2026-04-23T13:04:25.775Z</time></trkpt><trkpt lat="40.81983" lon="14.2107517"><ele>106.0</ele><time>2026-04-23T13:04:27.775Z</time></trkpt><trkpt lat="40.8198917" lon="14.2108117"><ele>103.66666666666666</ele><time>2026-04-23T13:04:29.78Z</time></trkpt><trkpt lat="40.8199583" lon="14.21086"><ele>101.33333333333333</ele><time>2026-04-23T13:04:31.775Z</time></trkpt><trkpt lat="40.82003" lon="14.210925"><ele>99.0</ele><time>2026-04-23T13:04:33.777Z</time></trkpt><trkpt lat="40.8201017" lon="14.210985"><ele>101.66666666666667</ele><time>2026-04-23T13:04:35.775Z</time></trkpt><trkpt lat="40.8201683" lon="14.2110417"><ele>104.33333333333334</ele><time>2026-04-23T13:04:37.775Z</time></trkpt><trkpt lat="40.8202333" lon="14.2111"><ele>107.0</ele><time>2026-04-23T13:04:39.775Z</time></trkpt><trkpt lat="40.82029" lon="14.2111467"><ele>109.66666666666667</ele><time>2026-04-23T13:04:41.775Z</time></trkpt><trkpt lat="40.8203583" lon="14.2112183"><ele>112.33333333333334</ele><time>2026-04-23T13:04:44.775Z</time></trkpt><trkpt lat="40.8204117" lon="14.211275"><ele>115.0</ele><time>2026-04-23T13:04:46.776Z</time></trkpt><trkpt lat="40.8204683" lon="14.2113467"><ele>115.00000000000001</ele><time>2026-04-23T13:04:48.775Z</time></trkpt><trkpt lat="40.820535" lon="14.21141"><ele>115.0</ele><time>2026-04-23T13:04:50.775Z</time></trkpt><trkpt lat="40.8206133" lon="14.21148"><ele>115.0</ele><time>2026-04-23T13:04:52.775Z</time></trkpt><trkpt lat="40.8206767" lon="14.2115467"><ele>115.0</ele><time>2026-04-23T13:04:54.775Z</time></trkpt><trkpt lat="40.8207533" lon="14.2116117"><ele>115.00000000000001</ele><time>2026-04-23T13:04:57.776Z</time></trkpt><trkpt lat="40.8208133" lon="14.2116583"><ele>115.0</ele><time>2026-04-23T13:04:59.777Z</time></trkpt><trkpt lat="40.820895" lon="14.2117217"><ele>114.83333333333334</ele><time>2026-04-23T13:05:02.778Z</time></trkpt><trkpt lat="40.8209433" lon="14.2117867"><ele>114.66666666666667</ele><time>2026-04-23T13:05:04.775Z</time></trkpt><trkpt lat="40.821005" lon="14.2118767"><ele>114.5</ele><time>2026-04-23T13:05:07.775Z</time></trkpt><trkpt lat="40.8210467" lon="14.2119533"><ele>114.33333333333334</ele><time>2026-04-23T13:05:09.775Z</time></trkpt><trkpt lat="40.8210883" lon="14.2120217"><ele>114.16666666666667</ele><time>2026-04-23T13:05:11.776Z</time></trkpt><trkpt lat="40.8211367" lon="14.21211"><ele>114.0</ele><time>2026-04-23T13:05:14.775Z</time></trkpt><trkpt lat="40.8211367" lon="14.2119983"><ele>114.0</ele><time>2026-04-23T13:05:24.775Z</time></trkpt><trkpt lat="40.821095" lon="14.211915"><ele>114.0</ele><time>2026-04-23T13:05:26.777Z</time></trkpt><trkpt lat="40.8210567" lon="14.21184"><ele>114.0</ele><time>2026-04-23T13:05:28.777Z</time></trkpt><trkpt lat="40.8210883" lon="14.2119617"><ele>114.0</ele><time>2026-04-23T13:05:33.775Z</time></trkpt><trkpt lat="40.821145" lon="14.2120917"><ele>114.0</ele><time>2026-04-23T13:05:35.776Z</time></trkpt><trkpt lat="40.821185" lon="14.2122"><ele>114.0</ele><time>2026-04-23T13:05:37.776Z</time></trkpt><trkpt lat="40.8212367" lon="14.2123"><ele>111.0</ele><time>2026-04-23T13:05:40.778Z</time></trkpt><trkpt lat="40.8212917" lon="14.21237"><ele>108.0</ele><time>2026-04-23T13:05:42.776Z</time></trkpt><trkpt lat="40.82132" lon="14.21247"><ele>105.0</ele><time>2026-04-23T13:05:45.776Z</time></trkpt><trkpt lat="40.82127" lon="14.2125367"><ele>102.0</ele><time>2026-04-23T13:05:48.776Z</time></trkpt><trkpt lat="40.8212133" lon="14.2126067"><ele>99.0</ele><time>2026-04-23T13:05:51.776Z</time></trkpt><trkpt lat="40.82114" lon="14.212645"><ele>96.0</ele><time>2026-04-23T13:05:54.776Z</time></trkpt><trkpt lat="40.821065" lon="14.2126367"><ele>96.0</ele><time>2026-04-23T13:05:57.775Z</time></trkpt><trkpt lat="40.821015" lon="14.2125817"><ele>96.0</ele><time>2026-04-23T13:05:59.776Z</time></trkpt><trkpt lat="40.82097" lon="14.2125"><ele>96.0</ele><time>2026-04-23T13:06:03.777Z</time></trkpt><trkpt lat="40.8209767" lon="14.212385"><ele>96.0</ele><time>2026-04-23T13:06:07.778Z</time></trkpt><trkpt lat="40.8210033" lon="14.2122883"><ele>96.0</ele><time>2026-04-23T13:06:11.777Z</time></trkpt><trkpt lat="40.8209817" lon="14.212205"><ele>96.0</ele><time>2026-04-23T13:06:13.778Z</time></trkpt><trkpt lat="40.8209367" lon="14.2120983"><ele>96.14285714285714</ele><time>2026-04-23T13:06:16.779Z</time></trkpt><trkpt lat="40.820865" lon="14.2120433"><ele>96.28571428571428</ele><time>2026-04-23T13:06:18.777Z</time></trkpt><trkpt lat="40.8207867" lon="14.2120217"><ele>96.42857142857142</ele><time>2026-04-23T13:06:20.777Z</time></trkpt><trkpt lat="40.8207183" lon="14.2120083"><ele>96.57142857142857</ele><time>2026-04-23T13:06:23.776Z</time></trkpt><trkpt lat="40.820655" lon="14.21205"><ele>96.71428571428572</ele><time>2026-04-23T13:06:26.776Z</time></trkpt><trkpt lat="40.8206" lon="14.2121133"><ele>96.85714285714285</ele><time>2026-04-23T13:06:28.775Z</time></trkpt><trkpt lat="40.8205333" lon="14.2121483"><ele>97.0</ele><time>2026-04-23T13:06:31.776Z</time></trkpt><trkpt lat="40.8204717" lon="14.212215"><ele>97.0</ele><time>2026-04-23T13:06:34.776Z</time></trkpt><trkpt lat="40.8203917" lon="14.2122083"><ele>97.0</ele><time>2026-04-23T13:06:37.777Z</time></trkpt><trkpt lat="40.8203217" lon="14.212215"><ele>97.0</ele><time>2026-04-23T13:06:39.777Z</time></trkpt><trkpt lat="40.8201917" lon="14.2122783"><ele>97.0</ele><time>2026-04-23T13:06:57.777Z</time></trkpt><trkpt lat="40.8200967" lon="14.2123083"><ele>97.0</ele><time>2026-04-23T13:06:59.777Z</time></trkpt><trkpt lat="40.8200283" lon="14.2123167"><ele>94.16666666666667</ele><time>2026-04-23T13:07:01.776Z</time></trkpt><trkpt lat="40.8199583" lon="14.2123317"><ele>91.33333333333334</ele><time>2026-04-23T13:07:03.775Z</time></trkpt><trkpt lat="40.8198883" lon="14.2123267"><ele>88.5</ele><time>2026-04-23T13:07:06.776Z</time></trkpt><trkpt lat="40.8198367" lon="14.2122667"><ele>85.66666666666667</ele><time>2026-04-23T13:07:08.777Z</time></trkpt><trkpt lat="40.8198083" lon="14.212185"><ele>82.83333333333334</ele><time>2026-04-23T13:07:10.776Z</time></trkpt><trkpt lat="40.819775" lon="14.21207"><ele>80.0</ele><time>2026-04-23T13:07:13.777Z</time></trkpt><trkpt lat="40.8197567" lon="14.2119517"><ele>80.0</ele><time>2026-04-23T13:07:15.776Z</time></trkpt><trkpt lat="40.8197733" lon="14.211855"><ele>80.0</ele><time>2026-04-23T13:07:17.777Z</time></trkpt><trkpt lat="40.819795" lon="14.2117467"><ele>80.0</ele><time>2026-04-23T13:07:20.776Z</time></trkpt><trkpt lat="40.8198233" lon="14.2116617"><ele>80.0</ele><time>2026-04-23T13:07:24.776Z</time></trkpt><trkpt lat="40.81982" lon="14.2115783"><ele>80.0</ele><time>2026-04-23T13:07:29.777Z</time></trkpt><trkpt lat="40.8197217" lon="14.2115883"><ele>80.0</ele><time>2026-04-23T13:07:33.776Z</time></trkpt><trkpt lat="40.81965" lon="14.211665"><ele>80.0</ele><time>2026-04-23T13:07:35.776Z</time></trkpt><trkpt lat="40.819615" lon="14.211765"><ele>80.0</ele><time>2026-04-23T13:07:37.777Z</time></trkpt><trkpt lat="40.81955" lon="14.21182"><ele>80.0</ele><time>2026-04-23T13:07:39.776Z</time></trkpt><trkpt lat="40.8194317" lon="14.2118783"><ele>80.0</ele><time>2026-04-23T13:07:41.776Z</time></trkpt><trkpt lat="40.819375" lon="14.2119183"><ele>80.0</ele><time>2026-04-23T13:07:43.776Z</time></trkpt><trkpt lat="40.8192983" lon="14.2120083"><ele>77.0</ele><time>2026-04-23T13:07:46.779Z</time></trkpt><trkpt lat="40.81926" lon="14.2120817"><ele>74.0</ele><time>2026-04-23T13:07:48.776Z</time></trkpt><trkpt lat="40.8192517" lon="14.2121933"><ele>71.0</ele><time>2026-04-23T13:07:51.775Z</time></trkpt><trkpt lat="40.81927" lon="14.212295"><ele>68.0</ele><time>2026-04-23T13:07:53.779Z</time></trkpt><trkpt lat="40.819285" lon="14.2123967"><ele>65.0</ele><time>2026-04-23T13:07:55.775Z</time></trkpt><trkpt lat="40.8193267" lon="14.2125033"><ele>62.0</ele><time>2026-04-23T13:07:57.775Z</time></trkpt><trkpt lat="40.8193667" lon="14.2125933"><ele>62.0</ele><time>2026-04-23T13:07:59.775Z</time></trkpt><trkpt lat="40.8193667" lon="14.2127217"><ele>62.0</ele><time>2026-04-23T13:08:17.776Z</time></trkpt><trkpt lat="40.8194033" lon="14.2128217"><ele>62.0</ele><time>2026-04-23T13:08:20.775Z</time></trkpt><trkpt lat="40.8194383" lon="14.21293"><ele>62.0</ele><time>2026-04-23T13:08:22.775Z</time></trkpt><trkpt lat="40.8194783" lon="14.2130417"><ele>62.0</ele><time>2026-04-23T13:08:24.775Z</time></trkpt><trkpt lat="40.8195217" lon="14.213155"><ele>62.00000000000001</ele><time>2026-04-23T13:08:26.775Z</time></trkpt><trkpt lat="40.8196033" lon="14.2131417"><ele>62.0</ele><time>2026-04-23T13:08:28.776Z</time></trkpt><trkpt lat="40.8197033" lon="14.2130817"><ele>62.0</ele><time>2026-04-23T13:08:30.775Z</time></trkpt><trkpt lat="40.81976" lon="14.213035"><ele>62.0</ele><time>2026-04-23T13:08:31.775Z</time></trkpt><trkpt lat="40.8198467" lon="14.2129717"><ele>62.00000000000001</ele><time>2026-04-23T13:08:33.776Z</time></trkpt><trkpt lat="40.819915" lon="14.2129367"><ele>62.0</ele><time>2026-04-23T13:08:35.775Z</time></trkpt><trkpt lat="40.8199967" lon="14.2129633"><ele>62.00000000000001</ele><time>2026-04-23T13:08:38.775Z</time></trkpt><trkpt lat="40.8200283" lon="14.2130717"><ele>62.0</ele><time>2026-04-23T13:08:41.775Z</time></trkpt><trkpt lat="40.8200267" lon="14.2131733"><ele>62.0</ele><time>2026-04-23T13:08:43.777Z</time></trkpt><trkpt lat="40.820035" lon="14.2132783"><ele>62.0</ele><time>2026-04-23T13:08:45.776Z</time></trkpt><trkpt lat="40.8199933" lon="14.2133533"><ele>62.00000000000001</ele><time>2026-04-23T13:08:48.776Z</time></trkpt><trkpt lat="40.8199133" lon="14.2133617"><ele>62.0</ele><time>2026-04-23T13:08:51.775Z</time></trkpt><trkpt lat="40.81986" lon="14.2133117"><ele>62.00000000000001</ele><time>2026-04-23T13:08:53.778Z</time></trkpt><trkpt lat="40.8198383" lon="14.213225"><ele>62.0</ele><time>2026-04-23T13:08:57.778Z</time></trkpt><trkpt lat="40.819885" lon="14.2131133"><ele>62.0</ele><time>2026-04-23T13:09:00.776Z</time></trkpt><trkpt lat="40.8199367" lon="14.2130483"><ele>62.0</ele><time>2026-04-23T13:09:03.775Z</time></trkpt><trkpt lat="40.8199367" lon="14.21296"><ele>62.00000000000001</ele><time>2026-04-23T13:09:10.775Z</time></trkpt><trkpt lat="40.8198617" lon="14.2130167"><ele>62.0</ele><time>2026-04-23T13:09:24.777Z</time></trkpt><trkpt lat="40.8198017" lon="14.2130883"><ele>62.0</ele><time>2026-04-23T13:09:26.778Z</time></trkpt><trkpt lat="40.8197467" lon="14.2131567"><ele>62.00000000000001</ele><time>2026-04-23T13:09:29.776Z</time></trkpt><trkpt lat="40.8196833" lon="14.213215"><ele>62.0</ele><time>2026-04-23T13:09:35.775Z</time></trkpt><trkpt lat="40.8197233" lon="14.213145"><ele>62.0</ele><time>2026-04-23T13:09:56.775Z</time></trkpt><trkpt lat="40.8197567" lon="14.2130533"><ele>62.00000000000001</ele><time>2026-04-23T13:10:00.776Z</time></trkpt><trkpt lat="40.8198117" lon="14.2129917"><ele>62.0</ele><time>2026-04-23T13:10:05.782Z</time></trkpt><trkpt lat="40.8198817" lon="14.2129767"><ele>62.0</ele><time>2026-04-23T13:10:08.776Z</time></trkpt><trkpt lat="40.8199417" lon="14.2129183"><ele>62.00000000000001</ele><time>2026-04-23T13:10:12.776Z</time></trkpt><trkpt lat="40.81986" lon="14.212915"><ele>62.0</ele><time>2026-04-23T13:10:22.779Z</time></trkpt><trkpt lat="40.8198083" lon="14.2129833"><ele>62.0</ele><time>2026-04-23T13:10:24.779Z</time></trkpt><trkpt lat="40.8197533" lon="14.21308"><ele>62.0</ele><time>2026-04-23T13:10:27.777Z</time></trkpt><trkpt lat="40.81976" lon="14.2131783"><ele>62.00000000000001</ele><time>2026-04-23T13:10:31.779Z</time></trkpt><trkpt lat="40.8198317" lon="14.2132033"><ele>62.0</ele><time>2026-04-23T13:10:39.778Z</time></trkpt><trkpt lat="40.8198917" lon="14.21324"><ele>62.0</ele><time>2026-04-23T13:10:43.78Z</time></trkpt><trkpt lat="40.81995" lon="14.2131933"><ele>62.00000000000001</ele><time>2026-04-23T13:10:49.779Z</time></trkpt><trkpt lat="40.8199583" lon="14.21311"><ele>62.0</ele><time>2026-04-23T13:11:02.779Z</time></trkpt><trkpt lat="40.8199567" lon="14.2130067"><ele>62.0</ele><time>2026-04-23T13:11:06.78Z</time></trkpt><trkpt lat="40.8198933" lon="14.21297"><ele>62.00000000000001</ele><time>2026-04-23T13:11:16.777Z</time></trkpt><trkpt lat="40.819825" lon="14.2130117"><ele>62.0</ele><time>2026-04-23T13:11:20.779Z</time></trkpt><trkpt lat="40.8197483" lon="14.2130467"><ele>62.0</ele><time>2026-04-23T13:11:24.778Z</time></trkpt><trkpt lat="40.8196833" lon="14.2130683"><ele>62.0</ele><time>2026-04-23T13:11:27.78Z</time></trkpt><trkpt lat="40.819615" lon="14.2130433"><ele>62.00000000000001</ele><time>2026-04-23T13:11:31.777Z</time></trkpt><trkpt lat="40.8195467" lon="14.213015"><ele>62.0</ele><time>2026-04-23T13:11:35.779Z</time></trkpt><trkpt lat="40.819505" lon="14.21293"><ele>62.0</ele><time>2026-04-23T13:11:39.779Z</time></trkpt><trkpt lat="40.8194683" lon="14.212845"><ele>62.00000000000001</ele><time>2026-04-23T13:11:43.779Z</time></trkpt><trkpt lat="40.8194217" lon="14.2127817"><ele>62.0</ele><time>2026-04-23T13:11:46.778Z</time></trkpt><trkpt lat="40.8193783" lon="14.2127133"><ele>62.0</ele><time>2026-04-23T13:11:49.778Z</time></trkpt><trkpt lat="40.8193283" lon="14.212625"><ele>61.42857142857143</ele><time>2026-04-23T13:11:53.779Z</time></trkpt><trkpt lat="40.819285" lon="14.2125617"><ele>60.85714285714286</ele><time>2026-04-23T13:11:56.779Z</time></trkpt><trkpt lat="40.819235" lon="14.2125067"><ele>60.28571428571429</ele><time>2026-04-23T13:12:00.778Z</time></trkpt><trkpt lat="40.8192133" lon="14.2124117"><ele>59.71428571428572</ele><time>2026-04-23T13:12:04.777Z</time></trkpt><trkpt lat="40.8192317" lon="14.21231"><ele>59.142857142857146</ele><time>2026-04-23T13:12:08.779Z</time></trkpt><trkpt lat="40.8192983" lon="14.212255"><ele>58.571428571428584</ele><time>2026-04-23T13:12:14.781Z</time></trkpt><trkpt lat="40.8193683" lon="14.2122517"><ele>58.00000000000001</ele><time>2026-04-23T13:12:18.78Z</time></trkpt><trkpt lat="40.8193883" lon="14.2121567"><ele>61.14285714285715</ele><time>2026-04-23T13:12:21.778Z</time></trkpt><trkpt lat="40.8194083" lon="14.21207"><ele>64.28571428571429</ele><time>2026-04-23T13:12:24.779Z</time></trkpt><trkpt lat="40.81942" lon="14.2119833"><ele>67.42857142857143</ele><time>2026-04-23T13:12:27.779Z</time></trkpt><trkpt lat="40.81941" lon="14.2118767"><ele>70.57142857142858</ele><time>2026-04-23T13:12:30.777Z</time></trkpt><trkpt lat="40.8194433" lon="14.21178"><ele>73.71428571428572</ele><time>2026-04-23T13:12:34.777Z</time></trkpt><trkpt lat="40.819495" lon="14.2117233"><ele>76.85714285714286</ele><time>2026-04-23T13:12:37.778Z</time></trkpt><trkpt lat="40.8195617" lon="14.2116733"><ele>80.0</ele><time>2026-04-23T13:12:41.779Z</time></trkpt><trkpt lat="40.8196167" lon="14.2116167"><ele>80.0</ele><time>2026-04-23T13:12:45.776Z</time></trkpt><trkpt lat="40.8195617" lon="14.2116583"><ele>80.0</ele><time>2026-04-23T13:12:55.779Z</time></trkpt><trkpt lat="40.819555" lon="14.2117633"><ele>80.0</ele><time>2026-04-23T13:12:58.779Z</time></trkpt><trkpt lat="40.819535" lon="14.2118517"><ele>80.0</ele><time>2026-04-23T13:13:01.78Z</time></trkpt><trkpt lat="40.8195083" lon="14.2119567"><ele>80.0</ele><time>2026-04-23T13:13:04.778Z</time></trkpt><trkpt lat="40.8194967" lon="14.2120667"><ele>80.0</ele><time>2026-04-23T13:13:07.779Z</time></trkpt><trkpt lat="40.8195117" lon="14.21215"><ele>80.0</ele><time>2026-04-23T13:13:09.777Z</time></trkpt><trkpt lat="40.819525" lon="14.2122317"><ele>77.0</ele><time>2026-04-23T13:13:12.778Z</time></trkpt><trkpt lat="40.8195517" lon="14.2123267"><ele>74.0</ele><time>2026-04-23T13:13:15.779Z</time></trkpt><trkpt lat="40.819615" lon="14.2124033"><ele>71.0</ele><time>2026-04-23T13:13:19.778Z</time></trkpt><trkpt lat="40.8196983" lon="14.2124117"><ele>68.0</ele><time>2026-04-23T13:13:22.779Z</time></trkpt><trkpt lat="40.8197567" lon="14.2124567"><ele>65.0</ele><time>2026-04-23T13:13:25.78Z</time></trkpt><trkpt lat="40.81984" lon="14.2124817"><ele>62.0</ele><time>2026-04-23T13:13:29.78Z</time></trkpt><trkpt lat="40.8199117" lon="14.21248"><ele>62.0</ele><time>2026-04-23T13:13:32.78Z</time></trkpt><trkpt lat="40.81998" lon="14.2124533"><ele>62.00000000000001</ele><time>2026-04-23T13:13:35.777Z</time></trkpt><trkpt lat="40.8200583" lon="14.21242"><ele>62.0</ele><time>2026-04-23T13:13:39.776Z</time></trkpt><trkpt lat="40.8201283" lon="14.2124167"><ele>62.0</ele><time>2026-04-23T13:13:43.78Z</time></trkpt><trkpt lat="40.8201917" lon="14.2124683"><ele>62.00000000000001</ele><time>2026-04-23T13:13:52.779Z</time></trkpt><trkpt lat="40.8202583" lon="14.2124717"><ele>62.0</ele><time>2026-04-23T13:13:55.779Z</time></trkpt><trkpt lat="40.8203367" lon="14.2124567"><ele>62.0</ele><time>2026-04-23T13:13:58.779Z</time></trkpt><trkpt lat="40.8204183" lon="14.2124233"><ele>65.16666666666667</ele><time>2026-04-23T13:14:01.779Z</time></trkpt><trkpt lat="40.8204867" lon="14.2123783"><ele>68.33333333333334</ele><time>2026-04-23T13:14:04.779Z</time></trkpt><trkpt lat="40.8205333" lon="14.2122967"><ele>71.5</ele><time>2026-04-23T13:14:08.779Z</time></trkpt><trkpt lat="40.8206033" lon="14.2122367"><ele>74.66666666666667</ele><time>2026-04-23T13:14:12.778Z</time></trkpt><trkpt lat="40.8206833" lon="14.2121767"><ele>77.83333333333333</ele><time>2026-04-23T13:14:15.777Z</time></trkpt><trkpt lat="40.820745" lon="14.2121533"><ele>81.0</ele><time>2026-04-23T13:14:19.78Z</time></trkpt><trkpt lat="40.8208317" lon="14.2121633"><ele>81.0</ele><time>2026-04-23T13:14:22.78Z</time></trkpt><trkpt lat="40.8208917" lon="14.2121967"><ele>81.0</ele><time>2026-04-23T13:14:24.778Z</time></trkpt><trkpt lat="40.82096" lon="14.2121967"><ele>81.0</ele><time>2026-04-23T13:14:27.778Z</time></trkpt><trkpt lat="40.8209933" lon="14.2122783"><ele>81.0</ele><time>2026-04-23T13:14:32.78Z</time></trkpt><trkpt lat="40.8209483" lon="14.212355"><ele>81.0</ele><time>2026-04-23T13:14:36.779Z</time></trkpt><trkpt lat="40.82092" lon="14.212445"><ele>81.0</ele><time>2026-04-23T13:14:39.779Z</time></trkpt><trkpt lat="40.8209467" lon="14.2125483"><ele>81.0</ele><time>2026-04-23T13:14:42.777Z</time></trkpt><trkpt lat="40.8209967" lon="14.212605"><ele>83.14285714285714</ele><time>2026-04-23T13:14:47.779Z</time></trkpt><trkpt lat="40.821025" lon="14.2126883"><ele>85.28571428571428</ele><time>2026-04-23T13:14:51.778Z</time></trkpt><trkpt lat="40.8210883" lon="14.2127167"><ele>87.42857142857142</ele><time>2026-04-23T13:14:56.779Z</time></trkpt><trkpt lat="40.8211467" lon="14.2126817"><ele>89.57142857142857</ele><time>2026-04-23T13:14:59.78Z</time></trkpt><trkpt lat="40.821215" lon="14.2126283"><ele>91.71428571428571</ele><time>2026-04-23T13:15:02.778Z</time></trkpt><trkpt lat="40.8212767" lon="14.2125583"><ele>93.85714285714285</ele><time>2026-04-23T13:15:05.779Z</time></trkpt><trkpt lat="40.8213133" lon="14.21249"><ele>96.0</ele><time>2026-04-23T13:15:08.778Z</time></trkpt><trkpt lat="40.8212967" lon="14.212395"><ele>98.57142857142856</ele><time>2026-04-23T13:15:12.777Z</time></trkpt><trkpt lat="40.8212733" lon="14.2123133"><ele>101.14285714285714</ele><time>2026-04-23T13:15:15.778Z</time></trkpt><trkpt lat="40.82124" lon="14.2122367"><ele>103.71428571428571</ele><time>2026-04-23T13:15:18.779Z</time></trkpt><trkpt lat="40.8211933" lon="14.2121517"><ele>106.28571428571428</ele><time>2026-04-23T13:15:21.779Z</time></trkpt><trkpt lat="40.8211533" lon="14.2120667"><ele>108.85714285714285</ele><time>2026-04-23T13:15:24.779Z</time></trkpt><trkpt lat="40.8211083" lon="14.211975"><ele>111.42857142857142</ele><time>2026-04-23T13:15:27.779Z</time></trkpt><trkpt lat="40.8210667" lon="14.2119033"><ele>114.0</ele><time>2026-04-23T13:15:30.779Z</time></trkpt><trkpt lat="40.8211167" lon="14.2119817"><ele>114.0</ele><time>2026-04-23T13:15:38.78Z</time></trkpt><trkpt lat="40.821155" lon="14.2120717"><ele>114.0</ele><time>2026-04-23T13:15:43.779Z</time></trkpt><trkpt lat="40.82118" lon="14.2121717"><ele>114.0</ele><time>2026-04-23T13:15:47.78Z</time></trkpt><trkpt lat="40.8212433" lon="14.212215"><ele>114.0</ele><time>2026-04-23T13:15:51.78Z</time></trkpt><trkpt lat="40.8213117" lon="14.21229"><ele>114.0</ele><time>2026-04-23T13:15:54.779Z</time></trkpt><trkpt lat="40.8213683" lon="14.2123883"><ele>114.0</ele><time>2026-04-23T13:15:56.779Z</time></trkpt><trkpt lat="40.82142" lon="14.2125017"><ele>110.4</ele><time>2026-04-23T13:15:58.779Z</time></trkpt><trkpt lat="40.8214533" lon="14.21264"><ele>106.80000000000001</ele><time>2026-04-23T13:16:00.779Z</time></trkpt><trkpt lat="40.8214667" lon="14.2127717"><ele>103.19999999999999</ele><time>2026-04-23T13:16:02.779Z</time></trkpt><trkpt lat="40.821495" lon="14.2128967"><ele>99.6</ele><time>2026-04-23T13:16:04.778Z</time></trkpt><trkpt lat="40.8215483" lon="14.21304"><ele>96.0</ele><time>2026-04-23T13:16:06.78Z</time></trkpt><trkpt lat="40.821585" lon="14.2131133"><ele>96.19999999999999</ele><time>2026-04-23T13:16:07.781Z</time></trkpt><trkpt lat="40.821655" lon="14.2132317"><ele>96.39999999999999</ele><time>2026-04-23T13:16:09.78Z</time></trkpt><trkpt lat="40.8216917" lon="14.2133"><ele>96.6</ele><time>2026-04-23T13:16:11.78Z</time></trkpt><trkpt lat="40.8217933" lon="14.2133617"><ele>96.8</ele><time>2026-04-23T13:17:39.783Z</time></trkpt><trkpt lat="40.8218517" lon="14.21341"><ele>97.0</ele><time>2026-04-23T13:17:41.775Z</time></trkpt><trkpt lat="40.8219267" lon="14.2134817"><ele>97.00000000000001</ele><time>2026-04-23T13:17:43.775Z</time></trkpt><trkpt lat="40.8220217" lon="14.2135683"><ele>97.0</ele><time>2026-04-23T13:17:45.775Z</time></trkpt><trkpt lat="40.8220733" lon="14.2136183"><ele>97.0</ele><time>2026-04-23T13:17:46.776Z</time></trkpt><trkpt lat="40.8221267" lon="14.2136733"><ele>97.0</ele><time>2026-04-23T13:17:47.775Z</time></trkpt><trkpt lat="40.8221817" lon="14.2137333"><ele>97.00000000000001</ele><time>2026-04-23T13:17:48.775Z</time></trkpt><trkpt lat="40.822245" lon="14.2137933"><ele>97.0</ele><time>2026-04-23T13:17:49.777Z</time></trkpt><trkpt lat="40.8223133" lon="14.21386"><ele>97.00000000000001</ele><time>2026-04-23T13:17:50.775Z</time></trkpt><trkpt lat="40.8223817" lon="14.2139283"><ele>97.0</ele><time>2026-04-23T13:17:51.775Z</time></trkpt><trkpt lat="40.822445" lon="14.214005"><ele>97.0</ele><time>2026-04-23T13:17:52.776Z</time></trkpt><trkpt lat="40.8225133" lon="14.2140783"><ele>97.0</ele><time>2026-04-23T13:17:53.775Z</time></trkpt><trkpt lat="40.82258" lon="14.214165"><ele>97.00000000000001</ele><time>2026-04-23T13:17:54.776Z</time></trkpt><trkpt lat="40.82264" lon="14.2142633"><ele>97.0</ele><time>2026-04-23T13:17:55.775Z</time></trkpt><trkpt lat="40.8226933" lon="14.2143667"><ele>98.39999999999999</ele><time>2026-04-23T13:17:56.775Z</time></trkpt><trkpt lat="40.8227483" lon="14.2144633"><ele>99.8</ele><time>2026-04-23T13:17:57.782Z</time></trkpt><trkpt lat="40.82279" lon="14.2145767"><ele>101.2</ele><time>2026-04-23T13:17:58.775Z</time></trkpt><trkpt lat="40.8228267" lon="14.2146933"><ele>102.6</ele><time>2026-04-23T13:17:59.776Z</time></trkpt><trkpt lat="40.8228633" lon="14.21481"><ele>104.0</ele><time>2026-04-23T13:18:00.775Z</time></trkpt><trkpt lat="40.8229" lon="14.2149267"><ele>100.49999999999999</ele><time>2026-04-23T13:18:01.778Z</time></trkpt><trkpt lat="40.8229383" lon="14.2150433"><ele>97.0</ele><time>2026-04-23T13:18:02.776Z</time></trkpt><trkpt lat="40.8229767" lon="14.2151433"><ele>93.5</ele><time>2026-04-23T13:18:03.775Z</time></trkpt><trkpt lat="40.8230183" lon="14.2152317"><ele>90.0</ele><time>2026-04-23T13:18:04.777Z</time></trkpt><trkpt lat="40.8230683" lon="14.21531"><ele>86.5</ele><time>2026-04-23T13:18:05.776Z</time></trkpt><trkpt lat="40.8231183" lon="14.2153867"><ele>83.0</ele><time>2026-04-23T13:18:06.776Z</time></trkpt><trkpt lat="40.82319" lon="14.215445"><ele>83.0</ele><time>2026-04-23T13:18:07.775Z</time></trkpt><trkpt lat="40.82327" lon="14.2154917"><ele>83.0</ele><time>2026-04-23T13:18:08.775Z</time></trkpt><trkpt lat="40.823355" lon="14.2155217"><ele>83.0</ele><time>2026-04-23T13:18:09.775Z</time></trkpt><trkpt lat="40.82344" lon="14.2155517"><ele>83.0</ele><time>2026-04-23T13:18:10.775Z</time></trkpt><trkpt lat="40.823525" lon="14.2155833"><ele>83.0</ele><time>2026-04-23T13:18:11.776Z</time></trkpt><trkpt lat="40.82361" lon="14.2156267"><ele>83.0</ele><time>2026-04-23T13:18:12.775Z</time></trkpt><trkpt lat="40.823695" lon="14.215685"><ele>82.60000000000001</ele><time>2026-04-23T13:18:13.777Z</time></trkpt><trkpt lat="40.8237683" lon="14.2157567"><ele>82.2</ele><time>2026-04-23T13:18:14.776Z</time></trkpt><trkpt lat="40.8238283" lon="14.2158583"><ele>81.8</ele><time>2026-04-23T13:18:15.775Z</time></trkpt><trkpt lat="40.8238683" lon="14.215975"><ele>81.4</ele><time>2026-04-23T13:18:16.775Z</time></trkpt><trkpt lat="40.8238917" lon="14.216095"><ele>81.0</ele><time>2026-04-23T13:18:17.776Z</time></trkpt><trkpt lat="40.823905" lon="14.2162233"><ele>81.0</ele><time>2026-04-23T13:18:18.775Z</time></trkpt><trkpt lat="40.8239067" lon="14.216355"><ele>81.0</ele><time>2026-04-23T13:18:19.776Z</time></trkpt><trkpt lat="40.8239017" lon="14.2164883"><ele>81.0</ele><time>2026-04-23T13:18:20.777Z</time></trkpt><trkpt lat="40.8238967" lon="14.2166067"><ele>81.0</ele><time>2026-04-23T13:18:21.775Z</time></trkpt><trkpt lat="40.8238983" lon="14.2167167"><ele>81.0</ele><time>2026-04-23T13:18:22.776Z</time></trkpt><trkpt lat="40.8238983" lon="14.2168167"><ele>81.0</ele><time>2026-04-23T13:18:23.775Z</time></trkpt><trkpt lat="40.8238967" lon="14.2169733"><ele>79.5</ele><time>2026-04-23T13:18:25.776Z</time></trkpt><trkpt lat="40.823935" lon="14.2171267"><ele>78.0</ele><time>2026-04-23T13:18:27.776Z</time></trkpt><trkpt lat="40.8239667" lon="14.2172067"><ele>76.5</ele><time>2026-04-23T13:18:28.776Z</time></trkpt><trkpt lat="40.8240117" lon="14.2172817"><ele>75.0</ele><time>2026-04-23T13:18:29.779Z</time></trkpt><trkpt lat="40.8240633" lon="14.2173483"><ele>73.5</ele><time>2026-04-23T13:18:30.776Z</time></trkpt><trkpt lat="40.8241183" lon="14.217425"><ele>72.0</ele><time>2026-04-23T13:18:31.777Z</time></trkpt><trkpt lat="40.824155" lon="14.2175167"><ele>70.66666666666667</ele><time>2026-04-23T13:18:32.776Z</time></trkpt><trkpt lat="40.8241767" lon="14.2176717"><ele>69.33333333333333</ele><time>2026-04-23T13:18:34.775Z</time></trkpt><trkpt lat="40.8241783" lon="14.2177633"><ele>68.0</ele><time>2026-04-23T13:18:35.775Z</time></trkpt><trkpt lat="40.8241817" lon="14.21789"><ele>66.66666666666666</ele><time>2026-04-23T13:18:37.775Z</time></trkpt><trkpt lat="40.82419" lon="14.21798"><ele>65.33333333333333</ele><time>2026-04-23T13:18:39.775Z</time></trkpt><trkpt lat="40.8241867" lon="14.218095"><ele>64.0</ele><time>2026-04-23T13:18:42.775Z</time></trkpt><trkpt lat="40.8241967" lon="14.2182033"><ele>64.66666666666666</ele><time>2026-04-23T13:18:46.775Z</time></trkpt><trkpt lat="40.8242433" lon="14.2182683"><ele>65.33333333333333</ele><time>2026-04-23T13:18:49.775Z</time></trkpt><trkpt lat="40.8243083" lon="14.21832"><ele>66.0</ele><time>2026-04-23T13:18:52.776Z</time></trkpt><trkpt lat="40.8243833" lon="14.2183683"><ele>66.66666666666667</ele><time>2026-04-23T13:18:55.776Z</time></trkpt><trkpt lat="40.824455" lon="14.2184067"><ele>67.33333333333334</ele><time>2026-04-23T13:18:58.775Z</time></trkpt><trkpt lat="40.824535" lon="14.218425"><ele>68.0</ele><time>2026-04-23T13:19:01.776Z</time></trkpt><trkpt lat="40.8246117" lon="14.218425"><ele>68.0</ele><time>2026-04-23T13:19:04.775Z</time></trkpt><trkpt lat="40.8246883" lon="14.2184033"><ele>68.0</ele><time>2026-04-23T13:19:07.775Z</time></trkpt><trkpt lat="40.8247767" lon="14.2183567"><ele>68.0</ele><time>2026-04-23T13:19:10.775Z</time></trkpt><trkpt lat="40.8248517" lon="14.2183"><ele>68.0</ele><time>2026-04-23T13:19:13.777Z</time></trkpt><trkpt lat="40.8249233" lon="14.21825"><ele>68.0</ele><time>2026-04-23T13:19:16.775Z</time></trkpt><trkpt lat="40.825" lon="14.218205"><ele>68.0</ele><time>2026-04-23T13:19:19.775Z</time></trkpt><trkpt lat="40.8250833" lon="14.2181517"><ele>72.5</ele><time>2026-04-23T13:19:22.776Z</time></trkpt><trkpt lat="40.8251683" lon="14.2181367"><ele>77.0</ele><time>2026-04-23T13:19:25.775Z</time></trkpt><trkpt lat="40.8252333" lon="14.2181267"><ele>81.5</ele><time>2026-04-23T13:19:27.775Z</time></trkpt><trkpt lat="40.825295" lon="14.2181067"><ele>86.0</ele><time>2026-04-23T13:19:29.776Z</time></trkpt><trkpt lat="40.825365" lon="14.2180433"><ele>90.5</ele><time>2026-04-23T13:19:32.775Z</time></trkpt><trkpt lat="40.8254333" lon="14.2179917"><ele>95.0</ele><time>2026-04-23T13:19:35.776Z</time></trkpt><trkpt lat="40.8255183" lon="14.2179483"><ele>95.0</ele><time>2026-04-23T13:19:38.775Z</time></trkpt><trkpt lat="40.82559" lon="14.217915"><ele>95.0</ele><time>2026-04-23T13:19:41.775Z</time></trkpt><trkpt lat="40.8256533" lon="14.21789"><ele>95.0</ele><time>2026-04-23T13:19:44.775Z</time></trkpt><trkpt lat="40.8257317" lon="14.2178917"><ele>95.0</ele><time>2026-04-23T13:19:47.776Z</time></trkpt><trkpt lat="40.8258" lon="14.21789"><ele>95.0</ele><time>2026-04-23T13:19:50.777Z</time></trkpt><trkpt lat="40.825875" lon="14.2178817"><ele>95.0</ele><time>2026-04-23T13:19:53.776Z</time></trkpt><trkpt lat="40.8259533" lon="14.2178517"><ele>95.0</ele><time>2026-04-23T13:19:56.775Z</time></trkpt><trkpt lat="40.8260233" lon="14.2178267"><ele>95.16666666666667</ele><time>2026-04-23T13:19:59.777Z</time></trkpt><trkpt lat="40.826105" lon="14.217805"><ele>95.33333333333334</ele><time>2026-04-23T13:20:02.776Z</time></trkpt><trkpt lat="40.82619" lon="14.2178033"><ele>95.5</ele><time>2026-04-23T13:20:05.775Z</time></trkpt><trkpt lat="40.826285" lon="14.2178183"><ele>95.66666666666667</ele><time>2026-04-23T13:20:08.781Z</time></trkpt><trkpt lat="40.8263483" lon="14.2178617"><ele>95.83333333333333</ele><time>2026-04-23T13:20:10.775Z</time></trkpt><trkpt lat="40.82642" lon="14.217915"><ele>96.0</ele><time>2026-04-23T13:20:12.775Z</time></trkpt><trkpt lat="40.8264767" lon="14.2179883"><ele>95.99999999999999</ele><time>2026-04-23T13:20:14.775Z</time></trkpt><trkpt lat="40.826545" lon="14.218035"><ele>96.0</ele><time>2026-04-23T13:20:17.776Z</time></trkpt><trkpt lat="40.8266067" lon="14.2180717"><ele>96.0</ele><time>2026-04-23T13:20:19.775Z</time></trkpt><trkpt lat="40.82667" lon="14.2180933"><ele>96.0</ele><time>2026-04-23T13:20:21.775Z</time></trkpt><trkpt lat="40.826735" lon="14.2181133"><ele>96.0</ele><time>2026-04-23T13:20:23.775Z</time></trkpt><trkpt lat="40.8268033" lon="14.2181283"><ele>95.99999999999999</ele><time>2026-04-23T13:20:25.776Z</time></trkpt><trkpt lat="40.8268667" lon="14.2181383"><ele>96.0</ele><time>2026-04-23T13:20:27.775Z</time></trkpt><trkpt lat="40.82696" lon="14.2181317"><ele>96.16666666666667</ele><time>2026-04-23T13:20:30.775Z</time></trkpt><trkpt lat="40.8270417" lon="14.2181417"><ele>96.33333333333334</ele><time>2026-04-23T13:20:33.775Z</time></trkpt><trkpt lat="40.8271067" lon="14.2181633"><ele>96.5</ele><time>2026-04-23T13:20:36.775Z</time></trkpt><trkpt lat="40.82719" lon="14.2181583"><ele>96.66666666666667</ele><time>2026-04-23T13:20:39.775Z</time></trkpt><trkpt lat="40.8272533" lon="14.2181117"><ele>96.83333333333334</ele><time>2026-04-23T13:20:41.775Z</time></trkpt><trkpt lat="40.827325" lon="14.21807"><ele>97.0</ele><time>2026-04-23T13:20:43.777Z</time></trkpt><trkpt lat="40.8273917" lon="14.218035"><ele>97.00000000000001</ele><time>2026-04-23T13:20:45.775Z</time></trkpt><trkpt lat="40.82746" lon="14.2180217"><ele>97.0</ele><time>2026-04-23T13:20:47.776Z</time></trkpt><trkpt lat="40.8275533" lon="14.217985"><ele>97.0</ele><time>2026-04-23T13:20:50.775Z</time></trkpt><trkpt lat="40.8276233" lon="14.21798"><ele>97.0</ele><time>2026-04-23T13:20:52.776Z</time></trkpt><trkpt lat="40.827725" lon="14.21798"><ele>97.00000000000001</ele><time>2026-04-23T13:20:54.775Z</time></trkpt><trkpt lat="40.8278267" lon="14.217965"><ele>97.0</ele><time>2026-04-23T13:20:56.777Z</time></trkpt><trkpt lat="40.8279283" lon="14.21795"><ele>93.66666666666667</ele><time>2026-04-23T13:20:58.777Z</time></trkpt><trkpt lat="40.828025" lon="14.21794"><ele>90.33333333333334</ele><time>2026-04-23T13:21:00.775Z</time></trkpt><trkpt lat="40.8281083" lon="14.21793"><ele>87.0</ele><time>2026-04-23T13:21:02.775Z</time></trkpt><trkpt lat="40.82818" lon="14.2178833"><ele>83.66666666666667</ele><time>2026-04-23T13:21:04.777Z</time></trkpt><trkpt lat="40.82822" lon="14.2178083"><ele>80.33333333333334</ele><time>2026-04-23T13:21:06.776Z</time></trkpt><trkpt lat="40.8282483" lon="14.2177167"><ele>77.0</ele><time>2026-04-23T13:21:08.777Z</time></trkpt><trkpt lat="40.828265" lon="14.2176283"><ele>77.0</ele><time>2026-04-23T13:21:10.776Z</time></trkpt><trkpt lat="40.8282783" lon="14.217545"><ele>77.0</ele><time>2026-04-23T13:21:12.778Z</time></trkpt><trkpt lat="40.8282917" lon="14.2174467"><ele>77.0</ele><time>2026-04-23T13:21:14.775Z</time></trkpt><trkpt lat="40.8283" lon="14.2173633"><ele>77.0</ele><time>2026-04-23T13:21:16.778Z</time></trkpt><trkpt lat="40.828325" lon="14.2172833"><ele>77.0</ele><time>2026-04-23T13:21:18.777Z</time></trkpt><trkpt lat="40.82837" lon="14.2172"><ele>77.0</ele><time>2026-04-23T13:21:21.775Z</time></trkpt><trkpt lat="40.828435" lon="14.217215"><ele>77.0</ele><time>2026-04-23T13:21:24.776Z</time></trkpt><trkpt lat="40.828495" lon="14.2172517"><ele>77.0</ele><time>2026-04-23T13:21:26.775Z</time></trkpt><trkpt lat="40.828575" lon="14.2172933"><ele>77.0</ele><time>2026-04-23T13:21:29.776Z</time></trkpt><trkpt lat="40.828585" lon="14.2173817"><ele>77.0</ele><time>2026-04-23T13:21:32.775Z</time></trkpt><trkpt lat="40.82852" lon="14.2174033"><ele>77.0</ele><time>2026-04-23T13:21:49.776Z</time></trkpt><trkpt lat="40.828445" lon="14.2173317"><ele>77.0</ele><time>2026-04-23T13:21:52.776Z</time></trkpt><trkpt lat="40.8283983" lon="14.21726"><ele>77.0</ele><time>2026-04-23T13:21:54.777Z</time></trkpt><trkpt lat="40.8283533" lon="14.21719"><ele>80.6</ele><time>2026-04-23T13:21:56.776Z</time></trkpt><trkpt lat="40.8282733" lon="14.21706"><ele>84.2</ele><time>2026-04-23T13:21:58.777Z</time></trkpt><trkpt lat="40.8282217" lon="14.217"><ele>87.8</ele><time>2026-04-23T13:21:59.776Z</time></trkpt><trkpt lat="40.82818" lon="14.216935"><ele>91.4</ele><time>2026-04-23T13:22:00.778Z</time></trkpt><trkpt lat="40.8281683" lon="14.2168217"><ele>95.0</ele><time>2026-04-23T13:22:02.776Z</time></trkpt><trkpt lat="40.8280533" lon="14.2169417"><ele>95.0</ele><time>2026-04-23T13:22:04.776Z</time></trkpt><trkpt lat="40.8280217" lon="14.2171017"><ele>95.0</ele><time>2026-04-23T13:22:05.778Z</time></trkpt><trkpt lat="40.828105" lon="14.21721"><ele>95.0</ele><time>2026-04-23T13:22:06.777Z</time></trkpt><trkpt lat="40.828175" lon="14.21731"><ele>95.0</ele><time>2026-04-23T13:22:07.778Z</time></trkpt><trkpt lat="40.8282667" lon="14.2173167"><ele>95.0</ele><time>2026-04-23T13:22:08.777Z</time></trkpt><trkpt lat="40.8283683" lon="14.2173483"><ele>92.0</ele><time>2026-04-23T13:22:09.775Z</time></trkpt><trkpt lat="40.8284317" lon="14.2173783"><ele>89.0</ele><time>2026-04-23T13:22:11.78Z</time></trkpt><trkpt lat="40.8285233" lon="14.217445"><ele>86.0</ele><time>2026-04-23T13:22:15.776Z</time></trkpt><trkpt lat="40.8285867" lon="14.2175117"><ele>83.0</ele><time>2026-04-23T13:22:17.776Z</time></trkpt><trkpt lat="40.828655" lon="14.2175683"><ele>80.0</ele><time>2026-04-23T13:22:19.778Z</time></trkpt><trkpt lat="40.82873" lon="14.2176217"><ele>77.0</ele><time>2026-04-23T13:22:22.776Z</time></trkpt><trkpt lat="40.8287833" lon="14.2176783"><ele>75.5</ele><time>2026-04-23T13:22:24.775Z</time></trkpt><trkpt lat="40.8287917" lon="14.217765"><ele>74.0</ele><time>2026-04-23T13:22:27.776Z</time></trkpt><trkpt lat="40.8287167" lon="14.21779"><ele>72.5</ele><time>2026-04-23T13:22:30.776Z</time></trkpt><trkpt lat="40.82866" lon="14.217725"><ele>71.0</ele><time>2026-04-23T13:22:33.776Z</time></trkpt><trkpt lat="40.8285833" lon="14.2177083"><ele>69.5</ele><time>2026-04-23T13:22:36.776Z</time></trkpt><trkpt lat="40.8286033" lon="14.21781"><ele>68.0</ele><time>2026-04-23T13:22:39.775Z</time></trkpt><trkpt lat="40.8286983" lon="14.217895"><ele>68.0</ele><time>2026-04-23T13:22:41.776Z</time></trkpt><trkpt lat="40.8287567" lon="14.2179333"><ele>68.0</ele><time>2026-04-23T13:22:42.778Z</time></trkpt><trkpt lat="40.8288567" lon="14.217995"><ele>68.0</ele><time>2026-04-23T13:22:44.779Z</time></trkpt><trkpt lat="40.8289067" lon="14.2180517"><ele>68.0</ele><time>2026-04-23T13:22:46.777Z</time></trkpt><trkpt lat="40.8288433" lon="14.218105"><ele>68.0</ele><time>2026-04-23T13:22:50.777Z</time></trkpt><trkpt lat="40.8287667" lon="14.2180567"><ele>68.0</ele><time>2026-04-23T13:22:52.775Z</time></trkpt><trkpt lat="40.8286817" lon="14.217995"><ele>68.0</ele><time>2026-04-23T13:22:54.775Z</time></trkpt><trkpt lat="40.8286" lon="14.2179767"><ele>68.0</ele><time>2026-04-23T13:22:56.776Z</time></trkpt><trkpt lat="40.8286633" lon="14.218105"><ele>68.0</ele><time>2026-04-23T13:23:00.776Z</time></trkpt><trkpt lat="40.8287417" lon="14.2181667"><ele>68.0</ele><time>2026-04-23T13:23:01.778Z</time></trkpt><trkpt lat="40.8288083" lon="14.21822"><ele>68.0</ele><time>2026-04-23T13:23:02.775Z</time></trkpt><trkpt lat="40.8288683" lon="14.2182717"><ele>68.0</ele><time>2026-04-23T13:23:03.778Z</time></trkpt><trkpt lat="40.82892" lon="14.2183217"><ele>64.16666666666667</ele><time>2026-04-23T13:23:04.775Z</time></trkpt><trkpt lat="40.8289883" lon="14.2184133"><ele>60.333333333333336</ele><time>2026-04-23T13:23:06.776Z</time></trkpt><trkpt lat="40.82895" lon="14.2184883"><ele>56.5</ele><time>2026-04-23T13:23:10.775Z</time></trkpt><trkpt lat="40.82889" lon="14.2184283"><ele>52.66666666666667</ele><time>2026-04-23T13:23:12.777Z</time></trkpt><trkpt lat="40.82881" lon="14.2183717"><ele>48.833333333333336</ele><time>2026-04-23T13:23:14.776Z</time></trkpt><trkpt lat="40.82874" lon="14.2183167"><ele>45.0</ele><time>2026-04-23T13:23:16.776Z</time></trkpt><trkpt lat="40.828675" lon="14.218335"><ele>45.0</ele><time>2026-04-23T13:23:18.776Z</time></trkpt><trkpt lat="40.828675" lon="14.2184233"><ele>45.0</ele><time>2026-04-23T13:23:22.779Z</time></trkpt><trkpt lat="40.8287583" lon="14.2184883"><ele>45.0</ele><time>2026-04-23T13:23:25.776Z</time></trkpt><trkpt lat="40.8288517" lon="14.2185567"><ele>45.0</ele><time>2026-04-23T13:23:27.776Z</time></trkpt><trkpt lat="40.8289317" lon="14.2186233"><ele>45.0</ele><time>2026-04-23T13:23:29.776Z</time></trkpt><trkpt lat="40.8290483" lon="14.2187383"><ele>45.0</ele><time>2026-04-23T13:23:32.777Z</time></trkpt><trkpt lat="40.8291117" lon="14.2187967"><ele>45.0</ele><time>2026-04-23T13:23:34.778Z</time></trkpt><trkpt lat="40.8290833" lon="14.2188983"><ele>45.0</ele><time>2026-04-23T13:23:38.777Z</time></trkpt><trkpt lat="40.8289867" lon="14.218885"><ele>45.0</ele><time>2026-04-23T13:23:41.776Z</time></trkpt><trkpt lat="40.828915" lon="14.218835"><ele>45.0</ele><time>2026-04-23T13:23:43.776Z</time></trkpt><trkpt lat="40.8288467" lon="14.2188183"><ele>45.0</ele><time>2026-04-23T13:23:45.778Z</time></trkpt><trkpt lat="40.8287883" lon="14.2187733"><ele>45.0</ele><time>2026-04-23T13:23:48.778Z</time></trkpt><trkpt lat="40.8288917" lon="14.2188333"><ele>45.0</ele><time>2026-04-23T13:23:59.778Z</time></trkpt><trkpt lat="40.8290583" lon="14.218975"><ele>45.0</ele><time>2026-04-23T13:24:00.778Z</time></trkpt><trkpt lat="40.8291233" lon="14.2189833"><ele>45.0</ele><time>2026-04-23T13:24:01.778Z</time></trkpt><trkpt lat="40.8291817" lon="14.21902"><ele>45.0</ele><time>2026-04-23T13:24:02.778Z</time></trkpt><trkpt lat="40.8292667" lon="14.2191117"><ele>39.4</ele><time>2026-04-23T13:24:04.777Z</time></trkpt><trkpt lat="40.8293617" lon="14.2191733"><ele>33.8</ele><time>2026-04-23T13:24:06.777Z</time></trkpt><trkpt lat="40.8294517" lon="14.21919"><ele>28.2</ele><time>2026-04-23T13:24:08.776Z</time></trkpt><trkpt lat="40.8295317" lon="14.2192483"><ele>22.6</ele><time>2026-04-23T13:24:10.776Z</time></trkpt><trkpt lat="40.82959" lon="14.2193467"><ele>17.0</ele><time>2026-04-23T13:24:12.776Z</time></trkpt><trkpt lat="40.82964" lon="14.2194217"><ele>17.0</ele><time>2026-04-23T13:24:13.777Z</time></trkpt><trkpt lat="40.8296833" lon="14.2194933"><ele>17.0</ele><time>2026-04-23T13:24:14.777Z</time></trkpt><trkpt lat="40.8297667" lon="14.219545"><ele>17.0</ele><time>2026-04-23T13:24:17.777Z</time></trkpt><trkpt lat="40.8298583" lon="14.2194933"><ele>17.0</ele><time>2026-04-23T13:24:19.777Z</time></trkpt><trkpt lat="40.8299617" lon="14.2194167"><ele>17.0</ele><time>2026-04-23T13:24:21.776Z</time></trkpt><trkpt lat="40.8300767" lon="14.219365"><ele>17.5</ele><time>2026-04-23T13:24:23.776Z</time></trkpt><trkpt lat="40.83018" lon="14.2193233"><ele>18.0</ele><time>2026-04-23T13:24:25.777Z</time></trkpt><trkpt lat="40.8302567" lon="14.2193017"><ele>18.5</ele><time>2026-04-23T13:24:27.777Z</time></trkpt><trkpt lat="40.83032" lon="14.2192883"><ele>19.0</ele><time>2026-04-23T13:24:29.776Z</time></trkpt><trkpt lat="40.8303883" lon="14.2192867"><ele>19.5</ele><time>2026-04-23T13:24:32.777Z</time></trkpt><trkpt lat="40.830455" lon="14.2192967"><ele>20.0</ele><time>2026-04-23T13:24:36.778Z</time></trkpt><trkpt lat="40.83039" lon="14.2192467"><ele>20.0</ele><time>2026-04-23T13:24:41.778Z</time></trkpt><trkpt lat="40.8302867" lon="14.2192283"><ele>20.0</ele><time>2026-04-23T13:24:44.778Z</time></trkpt><trkpt lat="40.83018" lon="14.2192283"><ele>20.0</ele><time>2026-04-23T13:24:46.777Z</time></trkpt><trkpt lat="40.8300567" lon="14.2192417"><ele>20.0</ele><time>2026-04-23T13:24:48.777Z</time></trkpt><trkpt lat="40.8299383" lon="14.219245"><ele>19.5</ele><time>2026-04-23T13:24:50.778Z</time></trkpt><trkpt lat="40.8298517" lon="14.219285"><ele>19.0</ele><time>2026-04-23T13:24:52.775Z</time></trkpt><trkpt lat="40.8297733" lon="14.219315"><ele>18.5</ele><time>2026-04-23T13:24:55.776Z</time></trkpt><trkpt lat="40.8297283" lon="14.2194"><ele>18.0</ele><time>2026-04-23T13:24:58.777Z</time></trkpt><trkpt lat="40.8296783" lon="14.21946"><ele>17.5</ele><time>2026-04-23T13:25:01.775Z</time></trkpt><trkpt lat="40.82961" lon="14.2194267"><ele>17.0</ele><time>2026-04-23T13:25:06.775Z</time></trkpt><trkpt lat="40.82957" lon="14.219335"><ele>16.999999999999996</ele><time>2026-04-23T13:25:10.775Z</time></trkpt><trkpt lat="40.8295317" lon="14.21926"><ele>17.0</ele><time>2026-04-23T13:25:14.775Z</time></trkpt><trkpt lat="40.82947" lon="14.2191933"><ele>17.0</ele><time>2026-04-23T13:25:19.776Z</time></trkpt><trkpt lat="40.8293933" lon="14.2191867"><ele>17.0</ele><time>2026-04-23T13:25:22.776Z</time></trkpt><trkpt lat="40.8293283" lon="14.2191683"><ele>17.0</ele><time>2026-04-23T13:25:26.777Z</time></trkpt><trkpt lat="40.8292767" lon="14.21912"><ele>16.999999999999996</ele><time>2026-04-23T13:25:30.775Z</time></trkpt><trkpt lat="40.8292217" lon="14.219055"><ele>17.0</ele><time>2026-04-23T13:25:33.776Z</time></trkpt><trkpt lat="40.8291667" lon="14.2190067"><ele>21.666666666666668</ele><time>2026-04-23T13:25:37.776Z</time></trkpt><trkpt lat="40.8291017" lon="14.2189683"><ele>26.333333333333336</ele><time>2026-04-23T13:25:41.777Z</time></trkpt><trkpt lat="40.8290517" lon="14.218865"><ele>31.0</ele><time>2026-04-23T13:25:47.776Z</time></trkpt><trkpt lat="40.8290183" lon="14.21878"><ele>35.666666666666664</ele><time>2026-04-23T13:25:50.775Z</time></trkpt><trkpt lat="40.82897" lon="14.218715"><ele>40.333333333333336</ele><time>2026-04-23T13:25:54.778Z</time></trkpt><trkpt lat="40.8289167" lon="14.2187667"><ele>45.0</ele><time>2026-04-23T13:25:59.775Z</time></trkpt><trkpt lat="40.8288367" lon="14.2187483"><ele>45.0</ele><time>2026-04-23T13:26:02.775Z</time></trkpt><trkpt lat="40.82877" lon="14.2187333"><ele>45.0</ele><time>2026-04-23T13:26:04.779Z</time></trkpt><trkpt lat="40.82874" lon="14.2186417"><ele>45.0</ele><time>2026-04-23T13:26:11.778Z</time></trkpt><trkpt lat="40.82883" lon="14.21862"><ele>45.0</ele><time>2026-04-23T13:26:24.776Z</time></trkpt><trkpt lat="40.82888" lon="14.2185683"><ele>45.0</ele><time>2026-04-23T13:26:27.776Z</time></trkpt><trkpt lat="40.828925" lon="14.2185083"><ele>45.0</ele><time>2026-04-23T13:26:30.779Z</time></trkpt><trkpt lat="40.82897" lon="14.218435"><ele>45.0</ele><time>2026-04-23T13:26:35.776Z</time></trkpt><trkpt lat="40.8290383" lon="14.2184017"><ele>45.0</ele><time>2026-04-23T13:26:39.775Z</time></trkpt><trkpt lat="40.82896" lon="14.218375"><ele>45.0</ele><time>2026-04-23T13:26:58.776Z</time></trkpt><trkpt lat="40.8288933" lon="14.2183467"><ele>45.0</ele><time>2026-04-23T13:27:02.776Z</time></trkpt><trkpt lat="40.82882" lon="14.218345"><ele>45.0</ele><time>2026-04-23T13:27:06.776Z</time></trkpt><trkpt lat="40.8287517" lon="14.2183117"><ele>45.0</ele><time>2026-04-23T13:27:09.777Z</time></trkpt><trkpt lat="40.8286833" lon="14.21827"><ele>45.0</ele><time>2026-04-23T13:27:13.78Z</time></trkpt><trkpt lat="40.8286183" lon="14.21823"><ele>45.0</ele><time>2026-04-23T13:27:18.776Z</time></trkpt><trkpt lat="40.8286717" lon="14.218175"><ele>45.0</ele><time>2026-04-23T13:27:23.776Z</time></trkpt><trkpt lat="40.8287217" lon="14.21824"><ele>45.0</ele><time>2026-04-23T13:27:26.775Z</time></trkpt><trkpt lat="40.8287933" lon="14.2182933"><ele>45.0</ele><time>2026-04-23T13:27:30.776Z</time></trkpt><trkpt lat="40.828875" lon="14.2183333"><ele>45.0</ele><time>2026-04-23T13:27:34.775Z</time></trkpt><trkpt lat="40.8289333" lon="14.21837"><ele>45.0</ele><time>2026-04-23T13:27:37.778Z</time></trkpt><trkpt lat="40.829" lon="14.218325"><ele>45.0</ele><time>2026-04-23T13:27:41.778Z</time></trkpt><trkpt lat="40.8290083" lon="14.21824"><ele>45.0</ele><time>2026-04-23T13:27:44.775Z</time></trkpt><trkpt lat="40.8289483" lon="14.2181783"><ele>48.285714285714285</ele><time>2026-04-23T13:27:47.777Z</time></trkpt><trkpt lat="40.82889" lon="14.2181333"><ele>51.57142857142857</ele><time>2026-04-23T13:27:50.776Z</time></trkpt><trkpt lat="40.828825" lon="14.2180983"><ele>54.857142857142854</ele><time>2026-04-23T13:27:54.777Z</time></trkpt><trkpt lat="40.8287583" lon="14.2180883"><ele>58.14285714285714</ele><time>2026-04-23T13:27:58.775Z</time></trkpt><trkpt lat="40.828695" lon="14.21805"><ele>61.42857142857143</ele><time>2026-04-23T13:28:02.775Z</time></trkpt><trkpt lat="40.82862" lon="14.2180367"><ele>64.71428571428571</ele><time>2026-04-23T13:28:06.778Z</time></trkpt><trkpt lat="40.828545" lon="14.2180017"><ele>68.0</ele><time>2026-04-23T13:28:10.776Z</time></trkpt><trkpt lat="40.82853" lon="14.21792"><ele>67.99999999999999</ele><time>2026-04-23T13:28:14.779Z</time></trkpt><trkpt lat="40.8285983" lon="14.21789"><ele>68.0</ele><time>2026-04-23T13:28:19.776Z</time></trkpt><trkpt lat="40.8286583" lon="14.2179217"><ele>68.0</ele><time>2026-04-23T13:28:22.778Z</time></trkpt><trkpt lat="40.8287183" lon="14.2179567"><ele>68.0</ele><time>2026-04-23T13:28:25.777Z</time></trkpt><trkpt lat="40.8287767" lon="14.2179967"><ele>68.0</ele><time>2026-04-23T13:28:28.775Z</time></trkpt><trkpt lat="40.8288433" lon="14.2179983"><ele>67.99999999999999</ele><time>2026-04-23T13:28:32.777Z</time></trkpt><trkpt lat="40.8288717" lon="14.21792"><ele>68.0</ele><time>2026-04-23T13:28:36.777Z</time></trkpt><trkpt lat="40.82881" lon="14.2178433"><ele>67.99999999999999</ele><time>2026-04-23T13:28:40.776Z</time></trkpt><trkpt lat="40.82875" lon="14.21779"><ele>68.0</ele><time>2026-04-23T13:28:44.776Z</time></trkpt><trkpt lat="40.828685" lon="14.21774"><ele>68.0</ele><time>2026-04-23T13:28:49.777Z</time></trkpt><trkpt lat="40.828625" lon="14.21769"><ele>68.0</ele><time>2026-04-23T13:28:53.777Z</time></trkpt><trkpt lat="40.8286317" lon="14.2176"><ele>68.0</ele><time>2026-04-23T13:28:57.776Z</time></trkpt><trkpt lat="40.828705" lon="14.2176317"><ele>67.99999999999999</ele><time>2026-04-23T13:29:02.776Z</time></trkpt><trkpt lat="40.8287617" lon="14.2176717"><ele>68.0</ele><time>2026-04-23T13:29:06.776Z</time></trkpt><trkpt lat="40.8288283" lon="14.2176917"><ele>67.99999999999999</ele><time>2026-04-23T13:29:10.777Z</time></trkpt><trkpt lat="40.8287933" lon="14.21761"><ele>68.0</ele><time>2026-04-23T13:29:16.775Z</time></trkpt><trkpt lat="40.8287367" lon="14.21755"><ele>68.0</ele><time>2026-04-23T13:29:20.776Z</time></trkpt><trkpt lat="40.8286767" lon="14.2174983"><ele>68.0</ele><time>2026-04-23T13:29:24.776Z</time></trkpt><trkpt lat="40.828605" lon="14.2174517"><ele>68.0</ele><time>2026-04-23T13:29:28.775Z</time></trkpt><trkpt lat="40.82853" lon="14.2174117"><ele>67.99999999999999</ele><time>2026-04-23T13:29:32.776Z</time></trkpt><trkpt lat="40.828465" lon="14.2173867"><ele>68.0</ele><time>2026-04-23T13:29:36.776Z</time></trkpt><trkpt lat="40.8283833" lon="14.2173683"><ele>69.5</ele><time>2026-04-23T13:29:40.778Z</time></trkpt><trkpt lat="40.828325" lon="14.2173283"><ele>71.0</ele><time>2026-04-23T13:29:43.776Z</time></trkpt><trkpt lat="40.8284167" lon="14.2172833"><ele>72.5</ele><time>2026-04-23T13:29:55.777Z</time></trkpt><trkpt lat="40.8284783" lon="14.2172383"><ele>74.0</ele><time>2026-04-23T13:29:58.777Z</time></trkpt><trkpt lat="40.828445" lon="14.2171483"><ele>75.5</ele><time>2026-04-23T13:30:05.777Z</time></trkpt><trkpt lat="40.828405" lon="14.21707"><ele>77.0</ele><time>2026-04-23T13:30:10.776Z</time></trkpt><trkpt lat="40.828395" lon="14.21697"><ele>79.57142857142857</ele><time>2026-04-23T13:30:14.776Z</time></trkpt><trkpt lat="40.828365" lon="14.2168867"><ele>82.14285714285714</ele><time>2026-04-23T13:30:21.776Z</time></trkpt><trkpt lat="40.8283283" lon="14.21681"><ele>84.71428571428572</ele><time>2026-04-23T13:30:25.777Z</time></trkpt><trkpt lat="40.82828" lon="14.21674"><ele>87.28571428571428</ele><time>2026-04-23T13:30:29.785Z</time></trkpt><trkpt lat="40.8282567" lon="14.2166517"><ele>89.85714285714286</ele><time>2026-04-23T13:30:34.78Z</time></trkpt><trkpt lat="40.8282233" lon="14.2165367"><ele>92.42857142857143</ele><time>2026-04-23T13:30:37.777Z</time></trkpt><trkpt lat="40.8282033" lon="14.2164467"><ele>95.0</ele><time>2026-04-23T13:30:40.779Z</time></trkpt><trkpt lat="40.8281717" lon="14.216355"><ele>95.0</ele><time>2026-04-23T13:30:46.777Z</time></trkpt><trkpt lat="40.82822" lon="14.216435"><ele>95.0</ele><time>2026-04-23T13:30:59.778Z</time></trkpt><trkpt lat="40.82826" lon="14.21652"><ele>95.0</ele><time>2026-04-23T13:31:04.776Z</time></trkpt><trkpt lat="40.8282917" lon="14.2166"><ele>95.0</ele><time>2026-04-23T13:31:10.777Z</time></trkpt><trkpt lat="40.828295" lon="14.2164917"><ele>95.0</ele><time>2026-04-23T13:31:17.777Z</time></trkpt><trkpt lat="40.82829" lon="14.21639"><ele>95.0</ele><time>2026-04-23T13:31:21.778Z</time></trkpt><trkpt lat="40.8282767" lon="14.2163033"><ele>95.0</ele><time>2026-04-23T13:31:23.776Z</time></trkpt><trkpt lat="40.8282083" lon="14.21628"><ele>95.0</ele><time>2026-04-23T13:31:27.776Z</time></trkpt><trkpt lat="40.8282767" lon="14.2162967"><ele>95.0</ele><time>2026-04-23T13:31:58.777Z</time></trkpt><trkpt lat="40.828315" lon="14.2163767"><ele>95.0</ele><time>2026-04-23T13:32:00.775Z</time></trkpt><trkpt lat="40.8283433" lon="14.2164533"><ele>95.0</ele><time>2026-04-23T13:32:02.775Z</time></trkpt><trkpt lat="40.8283317" lon="14.216545"><ele>95.0</ele><time>2026-04-23T13:32:05.777Z</time></trkpt><trkpt lat="40.82828" lon="14.2164883"><ele>95.0</ele><time>2026-04-23T13:32:10.778Z</time></trkpt><trkpt lat="40.82825" lon="14.2164133"><ele>95.0</ele><time>2026-04-23T13:32:12.78Z</time></trkpt><trkpt lat="40.8283167" lon="14.21652"><ele>95.0</ele><time>2026-04-23T13:32:19.779Z</time></trkpt><trkpt lat="40.8283567" lon="14.216625"><ele>95.0</ele><time>2026-04-23T13:32:21.78Z</time></trkpt><trkpt lat="40.82839" lon="14.216725"><ele>95.0</ele><time>2026-04-23T13:32:23.779Z</time></trkpt><trkpt lat="40.82842" lon="14.216815"><ele>95.0</ele><time>2026-04-23T13:32:25.78Z</time></trkpt><trkpt lat="40.8284417" lon="14.2169117"><ele>95.0</ele><time>2026-04-23T13:32:27.78Z</time></trkpt><trkpt lat="40.8284567" lon="14.2170217"><ele>95.0</ele><time>2026-04-23T13:32:29.779Z</time></trkpt><trkpt lat="40.828485" lon="14.21712"><ele>95.14285714285714</ele><time>2026-04-23T13:32:31.781Z</time></trkpt><trkpt lat="40.828555" lon="14.2172117"><ele>95.28571428571429</ele><time>2026-04-23T13:32:33.778Z</time></trkpt><trkpt lat="40.8286083" lon="14.2172617"><ele>95.42857142857142</ele><time>2026-04-23T13:32:35.779Z</time></trkpt><trkpt lat="40.8286517" lon="14.2173283"><ele>95.57142857142857</ele><time>2026-04-23T13:32:37.778Z</time></trkpt><trkpt lat="40.828675" lon="14.21741"><ele>95.71428571428571</ele><time>2026-04-23T13:32:39.781Z</time></trkpt><trkpt lat="40.82866" lon="14.2174967"><ele>95.85714285714285</ele><time>2026-04-23T13:32:42.779Z</time></trkpt><trkpt lat="40.82861" lon="14.21755"><ele>96.0</ele><time>2026-04-23T13:33:10.78Z</time></trkpt><trkpt lat="40.8285433" lon="14.2175633"><ele>96.0</ele><time>2026-04-23T13:33:21.776Z</time></trkpt><trkpt lat="40.828545" lon="14.2174767"><ele>96.0</ele><time>2026-04-23T13:33:30.775Z</time></trkpt><trkpt lat="40.8285633" lon="14.2173817"><ele>96.0</ele><time>2026-04-23T13:33:43.776Z</time></trkpt><trkpt lat="40.828565" lon="14.2172933"><ele>96.0</ele><time>2026-04-23T13:34:06.778Z</time></trkpt><trkpt lat="40.8284683" lon="14.2173483"><ele>96.0</ele><time>2026-04-23T13:35:18.779Z</time></trkpt><trkpt lat="40.8284017" lon="14.217285"><ele>96.0</ele><time>2026-04-23T13:35:21.776Z</time></trkpt><trkpt lat="40.828335" lon="14.2172267"><ele>95.8</ele><time>2026-04-23T13:35:23.778Z</time></trkpt><trkpt lat="40.8282717" lon="14.2171717"><ele>95.6</ele><time>2026-04-23T13:35:25.776Z</time></trkpt><trkpt lat="40.8282117" lon="14.2171217"><ele>95.4</ele><time>2026-04-23T13:35:27.775Z</time></trkpt><trkpt lat="40.8281367" lon="14.2170467"><ele>95.2</ele><time>2026-04-23T13:35:29.775Z</time></trkpt><trkpt lat="40.8281567" lon="14.2169567"><ele>95.0</ele><time>2026-04-23T13:35:30.776Z</time></trkpt><trkpt lat="40.82839" lon="14.2171033"><ele>95.0</ele><time>2026-04-23T13:35:31.776Z</time></trkpt><trkpt lat="40.8284433" lon="14.217165"><ele>95.0</ele><time>2026-04-23T13:35:32.775Z</time></trkpt><trkpt lat="40.828505" lon="14.2172033"><ele>95.0</ele><time>2026-04-23T13:35:33.775Z</time></trkpt><trkpt lat="40.828585" lon="14.2172567"><ele>95.0</ele><time>2026-04-23T13:35:34.776Z</time></trkpt><trkpt lat="40.8286967" lon="14.2173967"><ele>95.0</ele><time>2026-04-23T13:35:36.777Z</time></trkpt><trkpt lat="40.8287783" lon="14.2174817"><ele>90.5</ele><time>2026-04-23T13:35:38.777Z</time></trkpt><trkpt lat="40.8288433" lon="14.2175883"><ele>86.0</ele><time>2026-04-23T13:35:40.776Z</time></trkpt><trkpt lat="40.8288583" lon="14.217685"><ele>81.5</ele><time>2026-04-23T13:35:43.776Z</time></trkpt><trkpt lat="40.82878" lon="14.2177033"><ele>77.0</ele><time>2026-04-23T13:35:46.777Z</time></trkpt><trkpt lat="40.8286883" lon="14.217665"><ele>72.5</ele><time>2026-04-23T13:35:48.779Z</time></trkpt><trkpt lat="40.8286067" lon="14.21765"><ele>68.0</ele><time>2026-04-23T13:35:50.777Z</time></trkpt><trkpt lat="40.8286083" lon="14.2177583"><ele>68.0</ele><time>2026-04-23T13:35:53.778Z</time></trkpt><trkpt lat="40.8286517" lon="14.2178417"><ele>68.0</ele><time>2026-04-23T13:35:55.779Z</time></trkpt><trkpt lat="40.8287267" lon="14.2179383"><ele>68.0</ele><time>2026-04-23T13:35:57.777Z</time></trkpt><trkpt lat="40.8287817" lon="14.21801"><ele>68.0</ele><time>2026-04-23T13:35:59.778Z</time></trkpt><trkpt lat="40.8287067" lon="14.2179667"><ele>68.0</ele><time>2026-04-23T13:36:03.776Z</time></trkpt><trkpt lat="40.82864" lon="14.217905"><ele>68.0</ele><time>2026-04-23T13:36:05.776Z</time></trkpt><trkpt lat="40.8285733" lon="14.217905"><ele>68.0</ele><time>2026-04-23T13:36:08.777Z</time></trkpt><trkpt lat="40.8286117" lon="14.2179817"><ele>68.0</ele><time>2026-04-23T13:36:10.776Z</time></trkpt><trkpt lat="40.82867" lon="14.218025"><ele>68.0</ele><time>2026-04-23T13:36:11.776Z</time></trkpt><trkpt lat="40.8287467" lon="14.21809"><ele>68.0</ele><time>2026-04-23T13:36:12.777Z</time></trkpt><trkpt lat="40.8288083" lon="14.2181317"><ele>68.0</ele><time>2026-04-23T13:36:13.777Z</time></trkpt><trkpt lat="40.8288633" lon="14.2181783"><ele>68.0</ele><time>2026-04-23T13:36:14.777Z</time></trkpt><trkpt lat="40.8289517" lon="14.2182483"><ele>64.16666666666667</ele><time>2026-04-23T13:36:16.776Z</time></trkpt><trkpt lat="40.8289917" lon="14.2183333"><ele>60.333333333333336</ele><time>2026-04-23T13:36:18.778Z</time></trkpt><trkpt lat="40.8289017" lon="14.2183567"><ele>56.5</ele><time>2026-04-23T13:36:25.776Z</time></trkpt><trkpt lat="40.8287917" lon="14.21832"><ele>52.66666666666667</ele><time>2026-04-23T13:36:27.776Z</time></trkpt><trkpt lat="40.828715" lon="14.2183083"><ele>48.833333333333336</ele><time>2026-04-23T13:36:29.776Z</time></trkpt><trkpt lat="40.8287467" lon="14.218385"><ele>45.0</ele><time>2026-04-23T13:36:33.776Z</time></trkpt><trkpt lat="40.8288583" lon="14.2184767"><ele>45.0</ele><time>2026-04-23T13:36:35.778Z</time></trkpt><trkpt lat="40.8289183" lon="14.218545"><ele>45.0</ele><time>2026-04-23T13:36:36.777Z</time></trkpt><trkpt lat="40.82901" lon="14.2186467"><ele>45.0</ele><time>2026-04-23T13:36:38.777Z</time></trkpt><trkpt lat="40.8290717" lon="14.2187667"><ele>45.0</ele><time>2026-04-23T13:36:40.776Z</time></trkpt><trkpt lat="40.8291083" lon="14.2188583"><ele>45.0</ele><time>2026-04-23T13:36:42.778Z</time></trkpt><trkpt lat="40.8290933" lon="14.218955"><ele>45.0</ele><time>2026-04-23T13:36:45.778Z</time></trkpt><trkpt lat="40.829" lon="14.2189233"><ele>45.0</ele><time>2026-04-23T13:36:48.777Z</time></trkpt><trkpt lat="40.8289033" lon="14.2188567"><ele>45.0</ele><time>2026-04-23T13:36:50.776Z</time></trkpt><trkpt lat="40.8288283" lon="14.218825"><ele>45.0</ele><time>2026-04-23T13:36:52.777Z</time></trkpt><trkpt lat="40.8287617" lon="14.2188"><ele>45.0</ele><time>2026-04-23T13:36:55.777Z</time></trkpt><trkpt lat="40.828705" lon="14.21885"><ele>45.0</ele><time>2026-04-23T13:36:58.78Z</time></trkpt><trkpt lat="40.828875" lon="14.218965"><ele>40.4</ele><time>2026-04-23T13:37:08.778Z</time></trkpt><trkpt lat="40.8289883" lon="14.2190117"><ele>35.8</ele><time>2026-04-23T13:37:09.776Z</time></trkpt><trkpt lat="40.8290717" lon="14.2190333"><ele>31.200000000000003</ele><time>2026-04-23T13:37:10.778Z</time></trkpt><trkpt lat="40.8291483" lon="14.2190567"><ele>26.6</ele><time>2026-04-23T13:37:11.777Z</time></trkpt><trkpt lat="40.8292483" lon="14.2191167"><ele>22.0</ele><time>2026-04-23T13:37:12.776Z</time></trkpt><trkpt lat="40.8293383" lon="14.219145"><ele>21.166666666666664</ele><time>2026-04-23T13:37:14.779Z</time></trkpt><trkpt lat="40.8294017" lon="14.2191717"><ele>20.333333333333332</ele><time>2026-04-23T13:37:15.776Z</time></trkpt><trkpt lat="40.8294617" lon="14.2192017"><ele>19.5</ele><time>2026-04-23T13:37:16.776Z</time></trkpt><trkpt lat="40.829505" lon="14.219285"><ele>18.666666666666668</ele><time>2026-04-23T13:37:17.778Z</time></trkpt><trkpt lat="40.8295567" lon="14.219395"><ele>17.833333333333336</ele><time>2026-04-23T13:37:19.779Z</time></trkpt><trkpt lat="40.829605" lon="14.21951"><ele>17.0</ele><time>2026-04-23T13:37:21.778Z</time></trkpt><trkpt lat="40.8296667" lon="14.2195617"><ele>17.0</ele><time>2026-04-23T13:37:23.777Z</time></trkpt><trkpt lat="40.8297617" lon="14.2195583"><ele>17.0</ele><time>2026-04-23T13:37:26.776Z</time></trkpt><trkpt lat="40.8298267" lon="14.21952"><ele>17.0</ele><time>2026-04-23T13:37:28.777Z</time></trkpt><trkpt lat="40.829905" lon="14.2194983"><ele>17.0</ele><time>2026-04-23T13:37:31.777Z</time></trkpt><trkpt lat="40.8299817" lon="14.219465"><ele>17.0</ele><time>2026-04-23T13:37:34.777Z</time></trkpt><trkpt lat="40.8300617" lon="14.2194467"><ele>17.0</ele><time>2026-04-23T13:37:37.777Z</time></trkpt><trkpt lat="40.83001" lon="14.2195183"><ele>17.0</ele><time>2026-04-23T13:37:43.776Z</time></trkpt><trkpt lat="40.8299533" lon="14.21959"><ele>17.0</ele><time>2026-04-23T13:37:45.776Z</time></trkpt><trkpt lat="40.8298917" lon="14.21962"><ele>17.0</ele><time>2026-04-23T13:37:47.776Z</time></trkpt><trkpt lat="40.8298433" lon="14.2196883"><ele>17.0</ele><time>2026-04-23T13:37:49.776Z</time></trkpt><trkpt lat="40.8297933" lon="14.2197417"><ele>17.0</ele><time>2026-04-23T13:37:51.777Z</time></trkpt><trkpt lat="40.8297133" lon="14.2197783"><ele>17.0</ele><time>2026-04-23T13:37:54.779Z</time></trkpt><trkpt lat="40.829625" lon="14.2197933"><ele>16.666666666666668</ele><time>2026-04-23T13:37:57.776Z</time></trkpt><trkpt lat="40.82957" lon="14.2198383"><ele>16.333333333333336</ele><time>2026-04-23T13:37:59.776Z</time></trkpt><trkpt lat="40.82952" lon="14.219895"><ele>16.0</ele><time>2026-04-23T13:38:01.777Z</time></trkpt><trkpt lat="40.8294317" lon="14.2199433"><ele>15.666666666666668</ele><time>2026-04-23T13:38:03.776Z</time></trkpt><trkpt lat="40.8293233" lon="14.2199617"><ele>15.333333333333334</ele><time>2026-04-23T13:38:05.776Z</time></trkpt><trkpt lat="40.8292133" lon="14.21998"><ele>15.0</ele><time>2026-04-23T13:38:07.776Z</time></trkpt><trkpt lat="40.8290917" lon="14.22"><ele>13.666666666666666</ele><time>2026-04-23T13:38:09.777Z</time></trkpt><trkpt lat="40.828975" lon="14.22001"><ele>12.333333333333334</ele><time>2026-04-23T13:38:11.777Z</time></trkpt><trkpt lat="40.82886" lon="14.2200517"><ele>11.0</ele><time>2026-04-23T13:38:13.777Z</time></trkpt><trkpt lat="40.8288017" lon="14.220115"><ele>9.666666666666668</ele><time>2026-04-23T13:38:14.776Z</time></trkpt><trkpt lat="40.8287467" lon="14.2201667"><ele>8.333333333333334</ele><time>2026-04-23T13:38:15.776Z</time></trkpt><trkpt lat="40.82869" lon="14.2202167"><ele>7.0</ele><time>2026-04-23T13:38:16.778Z</time></trkpt><trkpt lat="40.8286417" lon="14.2202883"><ele>7.0</ele><time>2026-04-23T13:38:17.775Z</time></trkpt><trkpt lat="40.8285783" lon="14.2204317"><ele>6.999999999999999</ele><time>2026-04-23T13:38:19.776Z</time></trkpt><trkpt lat="40.828515" lon="14.22055"><ele>6.999999999999999</ele><time>2026-04-23T13:38:21.775Z</time></trkpt><trkpt lat="40.8284333" lon="14.220665"><ele>7.0</ele><time>2026-04-23T13:38:23.776Z</time></trkpt><trkpt lat="40.8283817" lon="14.2207233"><ele>7.0</ele><time>2026-04-23T13:38:24.776Z</time></trkpt><trkpt lat="40.82832" lon="14.2207533"><ele>6.8</ele><time>2026-04-23T13:38:25.776Z</time></trkpt><trkpt lat="40.8282217" lon="14.2208183"><ele>6.6</ele><time>2026-04-23T13:38:27.778Z</time></trkpt><trkpt lat="40.8281317" lon="14.2208767"><ele>6.3999999999999995</ele><time>2026-04-23T13:38:29.775Z</time></trkpt><trkpt lat="40.8280567" lon="14.22089"><ele>6.199999999999999</ele><time>2026-04-23T13:38:31.775Z</time></trkpt><trkpt lat="40.8279933" lon="14.2209617"><ele>6.0</ele><time>2026-04-23T13:38:34.777Z</time></trkpt><trkpt lat="40.8280033" lon="14.2210767"><ele>6.0</ele><time>2026-04-23T13:38:37.776Z</time></trkpt><trkpt lat="40.8280333" lon="14.2211783"><ele>6.0</ele><time>2026-04-23T13:38:39.777Z</time></trkpt><trkpt lat="40.8280817" lon="14.2212833"><ele>6.0</ele><time>2026-04-23T13:38:41.777Z</time></trkpt><trkpt lat="40.8281383" lon="14.221385"><ele>6.0</ele><time>2026-04-23T13:38:43.776Z</time></trkpt><trkpt lat="40.8282033" lon="14.2214767"><ele>6.0</ele><time>2026-04-23T13:38:45.775Z</time></trkpt><trkpt lat="40.8282667" lon="14.221575"><ele>5.3999999999999995</ele><time>2026-04-23T13:38:47.776Z</time></trkpt><trkpt lat="40.8283217" lon="14.2216733"><ele>4.8</ele><time>2026-04-23T13:38:49.776Z</time></trkpt><trkpt lat="40.8283767" lon="14.2217833"><ele>4.199999999999999</ele><time>2026-04-23T13:38:51.776Z</time></trkpt><trkpt lat="40.8284517" lon="14.2219"><ele>3.5999999999999996</ele><time>2026-04-23T13:38:53.776Z</time></trkpt><trkpt lat="40.8285267" lon="14.2220017"><ele>3.0</ele><time>2026-04-23T13:38:55.777Z</time></trkpt><trkpt lat="40.8285917" lon="14.2221267"><ele>4.2</ele><time>2026-04-23T13:38:57.778Z</time></trkpt><trkpt lat="40.8286717" lon="14.2222383"><ele>5.4</ele><time>2026-04-23T13:38:59.775Z</time></trkpt><trkpt lat="40.8287533" lon="14.22234"><ele>6.6000000000000005</ele><time>2026-04-23T13:39:01.775Z</time></trkpt><trkpt lat="40.828835" lon="14.2224533"><ele>7.8</ele><time>2026-04-23T13:39:03.775Z</time></trkpt><trkpt lat="40.8288767" lon="14.2225233"><ele>9.0</ele><time>2026-04-23T13:39:04.776Z</time></trkpt><trkpt lat="40.8289167" lon="14.222595"><ele>9.0</ele><time>2026-04-23T13:39:05.776Z</time></trkpt><trkpt lat="40.828955" lon="14.2226633"><ele>9.0</ele><time>2026-04-23T13:39:06.775Z</time></trkpt><trkpt lat="40.8290333" lon="14.2227917"><ele>9.0</ele><time>2026-04-23T13:39:08.775Z</time></trkpt><trkpt lat="40.829075" lon="14.22286"><ele>9.0</ele><time>2026-04-23T13:39:09.777Z</time></trkpt><trkpt lat="40.829115" lon="14.2229333"><ele>9.0</ele><time>2026-04-23T13:39:10.775Z</time></trkpt><trkpt lat="40.8291583" lon="14.223005"><ele>9.0</ele><time>2026-04-23T13:39:11.778Z</time></trkpt><trkpt lat="40.8292017" lon="14.223075"><ele>9.0</ele><time>2026-04-23T13:39:12.775Z</time></trkpt><trkpt lat="40.829245" lon="14.2231433"><ele>9.0</ele><time>2026-04-23T13:39:13.775Z</time></trkpt><trkpt lat="40.8292917" lon="14.2232117"><ele>9.0</ele><time>2026-04-23T13:39:14.775Z</time></trkpt><trkpt lat="40.8293767" lon="14.223335"><ele>9.0</ele><time>2026-04-23T13:39:16.775Z</time></trkpt><trkpt lat="40.8294217" lon="14.223405"><ele>9.0</ele><time>2026-04-23T13:39:17.776Z</time></trkpt><trkpt lat="40.829465" lon="14.2234733"><ele>9.0</ele><time>2026-04-23T13:39:18.776Z</time></trkpt><trkpt lat="40.82951" lon="14.2235317"><ele>9.166666666666666</ele><time>2026-04-23T13:39:19.776Z</time></trkpt><trkpt lat="40.8295533" lon="14.2235983"><ele>9.333333333333334</ele><time>2026-04-23T13:39:20.777Z</time></trkpt><trkpt lat="40.8296367" lon="14.223725"><ele>9.5</ele><time>2026-04-23T13:39:22.776Z</time></trkpt><trkpt lat="40.8296733" lon="14.2237983"><ele>9.666666666666668</ele><time>2026-04-23T13:39:23.775Z</time></trkpt><trkpt lat="40.8297117" lon="14.2238783"><ele>9.833333333333334</ele><time>2026-04-23T13:39:24.778Z</time></trkpt><trkpt lat="40.8297467" lon="14.2239483"><ele>10.0</ele><time>2026-04-23T13:39:25.779Z</time></trkpt><trkpt lat="40.8297783" lon="14.22403"><ele>9.4</ele><time>2026-04-23T13:39:26.776Z</time></trkpt><trkpt lat="40.8298133" lon="14.2241033"><ele>8.8</ele><time>2026-04-23T13:39:27.776Z</time></trkpt><trkpt lat="40.8298467" lon="14.224175"><ele>8.2</ele><time>2026-04-23T13:39:28.776Z</time></trkpt><trkpt lat="40.8299083" lon="14.2243033"><ele>7.6</ele><time>2026-04-23T13:39:30.775Z</time></trkpt><trkpt lat="40.829975" lon="14.2244383"><ele>7.0</ele><time>2026-04-23T13:39:32.775Z</time></trkpt><trkpt lat="40.8300533" lon="14.2245633"><ele>7.0</ele><time>2026-04-23T13:39:34.775Z</time></trkpt><trkpt lat="40.8300917" lon="14.22463"><ele>6.999999999999999</ele><time>2026-04-23T13:39:35.775Z</time></trkpt><trkpt lat="40.83013" lon="14.2246983"><ele>6.999999999999999</ele><time>2026-04-23T13:39:36.778Z</time></trkpt><trkpt lat="40.8301917" lon="14.2248083"><ele>7.0</ele><time>2026-04-23T13:39:38.776Z</time></trkpt><trkpt lat="40.8302667" lon="14.2249167"><ele>7.0</ele><time>2026-04-23T13:39:40.777Z</time></trkpt><trkpt lat="40.8303367" lon="14.2250317"><ele>8.25</ele><time>2026-04-23T13:39:42.775Z</time></trkpt><trkpt lat="40.8303967" lon="14.225165"><ele>9.5</ele><time>2026-04-23T13:39:44.777Z</time></trkpt><trkpt lat="40.8304633" lon="14.2253067"><ele>10.75</ele><time>2026-04-23T13:39:46.775Z</time></trkpt><trkpt lat="40.8305333" lon="14.2254233"><ele>12.0</ele><time>2026-04-23T13:39:48.776Z</time></trkpt><trkpt lat="40.8305967" lon="14.2255417"><ele>11.4</ele><time>2026-04-23T13:39:50.784Z</time></trkpt><trkpt lat="40.8306617" lon="14.2256717"><ele>10.799999999999999</ele><time>2026-04-23T13:39:52.778Z</time></trkpt><trkpt lat="40.8307167" lon="14.2257933"><ele>10.2</ele><time>2026-04-23T13:39:54.777Z</time></trkpt><trkpt lat="40.8307667" lon="14.22591"><ele>9.6</ele><time>2026-04-23T13:39:56.775Z</time></trkpt><trkpt lat="40.8308083" lon="14.2260367"><ele>9.0</ele><time>2026-04-23T13:39:58.776Z</time></trkpt><trkpt lat="40.8308533" lon="14.22616"><ele>9.0</ele><time>2026-04-23T13:40:00.776Z</time></trkpt><trkpt lat="40.83091" lon="14.2262783"><ele>9.0</ele><time>2026-04-23T13:40:02.775Z</time></trkpt><trkpt lat="40.8309567" lon="14.226405"><ele>9.0</ele><time>2026-04-23T13:40:04.775Z</time></trkpt><trkpt lat="40.831" lon="14.226525"><ele>9.0</ele><time>2026-04-23T13:40:06.777Z</time></trkpt><trkpt lat="40.83104" lon="14.2266517"><ele>9.0</ele><time>2026-04-23T13:40:08.775Z</time></trkpt><trkpt lat="40.831085" lon="14.2267783"><ele>7.8</ele><time>2026-04-23T13:40:10.776Z</time></trkpt><trkpt lat="40.8311333" lon="14.22692"><ele>6.6000000000000005</ele><time>2026-04-23T13:40:12.776Z</time></trkpt><trkpt lat="40.8311817" lon="14.2270583"><ele>5.4</ele><time>2026-04-23T13:40:14.777Z</time></trkpt><trkpt lat="40.8312267" lon="14.2272017"><ele>4.2</ele><time>2026-04-23T13:40:16.777Z</time></trkpt><trkpt lat="40.8312417" lon="14.2272833"><ele>3.0</ele><time>2026-04-23T13:40:17.776Z</time></trkpt><trkpt lat="40.8312633" lon="14.2273667"><ele>3.0</ele><time>2026-04-23T13:40:18.776Z</time></trkpt><trkpt lat="40.8312883" lon="14.227445"><ele>3.0</ele><time>2026-04-23T13:40:19.776Z</time></trkpt><trkpt lat="40.8313133" lon="14.227525"><ele>3.0</ele><time>2026-04-23T13:40:20.776Z</time></trkpt><trkpt lat="40.8313583" lon="14.2276767"><ele>3.0</ele><time>2026-04-23T13:40:22.775Z</time></trkpt><trkpt lat="40.8314017" lon="14.2278183"><ele>3.0</ele><time>2026-04-23T13:40:24.776Z</time></trkpt><trkpt lat="40.83144" lon="14.2279617"><ele>3.0</ele><time>2026-04-23T13:40:26.777Z</time></trkpt><trkpt lat="40.83148" lon="14.2280983"><ele>3.0</ele><time>2026-04-23T13:40:28.776Z</time></trkpt><trkpt lat="40.831515" lon="14.2282217"><ele>3.0</ele><time>2026-04-23T13:40:30.777Z</time></trkpt><trkpt lat="40.83154" lon="14.2283567"><ele>3.0</ele><time>2026-04-23T13:40:32.781Z</time></trkpt><trkpt lat="40.83158" lon="14.2285033"><ele>3.0</ele><time>2026-04-23T13:40:34.777Z</time></trkpt><trkpt lat="40.831615" lon="14.2286367"><ele>2.8</ele><time>2026-04-23T13:40:36.776Z</time></trkpt><trkpt lat="40.83163" lon="14.2287517"><ele>2.5999999999999996</ele><time>2026-04-23T13:40:38.776Z</time></trkpt><trkpt lat="40.8316583" lon="14.2288917"><ele>2.4000000000000004</ele><time>2026-04-23T13:40:40.776Z</time></trkpt><trkpt lat="40.8317083" lon="14.2290567"><ele>2.2</ele><time>2026-04-23T13:40:42.776Z</time></trkpt><trkpt lat="40.8317183" lon="14.2291433"><ele>2.0</ele><time>2026-04-23T13:40:43.775Z</time></trkpt><trkpt lat="40.8317533" lon="14.2293"><ele>2.0</ele><time>2026-04-23T13:40:45.78Z</time></trkpt><trkpt lat="40.8317717" lon="14.22938"><ele>2.0</ele><time>2026-04-23T13:40:46.779Z</time></trkpt><trkpt lat="40.8317983" lon="14.229515"><ele>2.0</ele><time>2026-04-23T13:40:48.777Z</time></trkpt><trkpt lat="40.8318183" lon="14.2296483"><ele>2.0</ele><time>2026-04-23T13:40:50.775Z</time></trkpt><trkpt lat="40.83183" lon="14.2297767"><ele>2.0</ele><time>2026-04-23T13:40:52.777Z</time></trkpt><trkpt lat="40.8318483" lon="14.2299083"><ele>2.4000000000000004</ele><time>2026-04-23T13:40:54.775Z</time></trkpt><trkpt lat="40.83187" lon="14.2300467"><ele>2.8000000000000003</ele><time>2026-04-23T13:40:56.776Z</time></trkpt><trkpt lat="40.8318933" lon="14.2301933"><ele>3.2</ele><time>2026-04-23T13:40:58.775Z</time></trkpt><trkpt lat="40.8319133" lon="14.2303233"><ele>3.6</ele><time>2026-04-23T13:41:00.777Z</time></trkpt><trkpt lat="40.831925" lon="14.2304433"><ele>4.0</ele><time>2026-04-23T13:41:02.776Z</time></trkpt><trkpt lat="40.8319383" lon="14.2305533"><ele>4.2</ele><time>2026-04-23T13:41:04.776Z</time></trkpt><trkpt lat="40.8319583" lon="14.23065"><ele>4.4</ele><time>2026-04-23T13:41:06.775Z</time></trkpt><trkpt lat="40.831985" lon="14.2307617"><ele>4.6</ele><time>2026-04-23T13:41:08.775Z</time></trkpt><trkpt lat="40.8320167" lon="14.2308933"><ele>4.8</ele><time>2026-04-23T13:41:10.779Z</time></trkpt><trkpt lat="40.8320417" lon="14.2310383"><ele>5.0</ele><time>2026-04-23T13:41:12.778Z</time></trkpt><trkpt lat="40.83206" lon="14.2311883"><ele>5.0</ele><time>2026-04-23T13:41:14.779Z</time></trkpt><trkpt lat="40.8320767" lon="14.2313467"><ele>5.0</ele><time>2026-04-23T13:41:16.776Z</time></trkpt><trkpt lat="40.8320967" lon="14.2315067"><ele>5.0</ele><time>2026-04-23T13:41:18.778Z</time></trkpt><trkpt lat="40.8321033" lon="14.2315917"><ele>5.0</ele><time>2026-04-23T13:41:19.776Z</time></trkpt><trkpt lat="40.832115" lon="14.2317533"><ele>5.0</ele><time>2026-04-23T13:41:21.78Z</time></trkpt><trkpt lat="40.83212" lon="14.2318383"><ele>4.833333333333334</ele><time>2026-04-23T13:41:22.779Z</time></trkpt><trkpt lat="40.8321267" lon="14.2319233"><ele>4.666666666666667</ele><time>2026-04-23T13:41:23.777Z</time></trkpt><trkpt lat="40.8321333" lon="14.23201"><ele>4.5</ele><time>2026-04-23T13:41:24.775Z</time></trkpt><trkpt lat="40.8321417" lon="14.2320983"><ele>4.333333333333333</ele><time>2026-04-23T13:41:25.778Z</time></trkpt><trkpt lat="40.8321517" lon="14.2321867"><ele>4.166666666666666</ele><time>2026-04-23T13:41:26.777Z</time></trkpt><trkpt lat="40.8321617" lon="14.232345"><ele>4.0</ele><time>2026-04-23T13:41:28.777Z</time></trkpt><trkpt lat="40.832175" lon="14.23251"><ele>3.75</ele><time>2026-04-23T13:41:30.776Z</time></trkpt><trkpt lat="40.8321867" lon="14.232665"><ele>3.5</ele><time>2026-04-23T13:41:32.778Z</time></trkpt><trkpt lat="40.8321833" lon="14.232825"><ele>3.25</ele><time>2026-04-23T13:41:34.775Z</time></trkpt><trkpt lat="40.832185" lon="14.2329733"><ele>3.0</ele><time>2026-04-23T13:41:36.776Z</time></trkpt><trkpt lat="40.8321833" lon="14.2331267"><ele>3.0</ele><time>2026-04-23T13:41:38.776Z</time></trkpt><trkpt lat="40.8321783" lon="14.233285"><ele>3.0</ele><time>2026-04-23T13:41:40.776Z</time></trkpt><trkpt lat="40.8321733" lon="14.2334433"><ele>3.0</ele><time>2026-04-23T13:41:42.776Z</time></trkpt><trkpt lat="40.8321683" lon="14.2336"><ele>3.0</ele><time>2026-04-23T13:41:44.776Z</time></trkpt><trkpt lat="40.832155" lon="14.2337533"><ele>3.0</ele><time>2026-04-23T13:41:46.777Z</time></trkpt><trkpt lat="40.8321567" lon="14.23391"><ele>3.0</ele><time>2026-04-23T13:41:48.776Z</time></trkpt><trkpt lat="40.8321583" lon="14.234065"><ele>3.0</ele><time>2026-04-23T13:41:50.775Z</time></trkpt><trkpt lat="40.8321583" lon="14.2342183"><ele>3.0</ele><time>2026-04-23T13:41:52.776Z</time></trkpt><trkpt lat="40.8321517" lon="14.2343733"><ele>3.0</ele><time>2026-04-23T13:41:54.776Z</time></trkpt><trkpt lat="40.83215" lon="14.2345233"><ele>3.0</ele><time>2026-04-23T13:41:56.778Z</time></trkpt><trkpt lat="40.83214" lon="14.23465"><ele>3.0</ele><time>2026-04-23T13:41:58.775Z</time></trkpt><trkpt lat="40.832125" lon="14.2347917"><ele>3.0</ele><time>2026-04-23T13:42:00.779Z</time></trkpt><trkpt lat="40.8321033" lon="14.234925"><ele>3.0</ele><time>2026-04-23T13:42:02.775Z</time></trkpt><trkpt lat="40.83208" lon="14.2350517"><ele>3.1666666666666665</ele><time>2026-04-23T13:42:04.776Z</time></trkpt><trkpt lat="40.8320783" lon="14.235195"><ele>3.333333333333333</ele><time>2026-04-23T13:42:06.775Z</time></trkpt><trkpt lat="40.8320567" lon="14.235355"><ele>3.5</ele><time>2026-04-23T13:42:08.776Z</time></trkpt><trkpt lat="40.8320583" lon="14.2354417"><ele>3.6666666666666665</ele><time>2026-04-23T13:42:09.777Z</time></trkpt><trkpt lat="40.8320517" lon="14.2355267"><ele>3.833333333333333</ele><time>2026-04-23T13:42:10.776Z</time></trkpt><trkpt lat="40.832045" lon="14.2356117"><ele>4.0</ele><time>2026-04-23T13:42:11.777Z</time></trkpt><trkpt lat="40.8320383" lon="14.235695"><ele>4.0</ele><time>2026-04-23T13:42:12.777Z</time></trkpt><trkpt lat="40.8320317" lon="14.2357817"><ele>3.9999999999999996</ele><time>2026-04-23T13:42:13.779Z</time></trkpt><trkpt lat="40.8320233" lon="14.2358717"><ele>4.0</ele><time>2026-04-23T13:42:14.777Z</time></trkpt><trkpt lat="40.83201" lon="14.2359567"><ele>4.0</ele><time>2026-04-23T13:42:15.779Z</time></trkpt><trkpt lat="40.8320033" lon="14.2360417"><ele>3.9999999999999996</ele><time>2026-04-23T13:42:16.778Z</time></trkpt><trkpt lat="40.8319983" lon="14.23613"><ele>4.0</ele><time>2026-04-23T13:42:17.778Z</time></trkpt><trkpt lat="40.8319933" lon="14.2362217"><ele>4.0</ele><time>2026-04-23T13:42:18.78Z</time></trkpt><trkpt lat="40.8319833" lon="14.2363117"><ele>4.0</ele><time>2026-04-23T13:42:19.775Z</time></trkpt><trkpt lat="40.8319733" lon="14.236405"><ele>3.9999999999999996</ele><time>2026-04-23T13:42:20.776Z</time></trkpt><trkpt lat="40.83196" lon="14.2365"><ele>4.0</ele><time>2026-04-23T13:42:21.777Z</time></trkpt><trkpt lat="40.8319467" lon="14.2365917"><ele>4.0</ele><time>2026-04-23T13:42:22.776Z</time></trkpt><trkpt lat="40.8319283" lon="14.2366833"><ele>3.9999999999999996</ele><time>2026-04-23T13:42:23.775Z</time></trkpt><trkpt lat="40.831915" lon="14.2367833"><ele>4.0</ele><time>2026-04-23T13:42:24.778Z</time></trkpt><trkpt lat="40.831905" lon="14.2368833"><ele>4.0</ele><time>2026-04-23T13:42:25.777Z</time></trkpt><trkpt lat="40.8318983" lon="14.2369783"><ele>3.833333333333333</ele><time>2026-04-23T13:42:26.779Z</time></trkpt><trkpt lat="40.8318883" lon="14.2370683"><ele>3.6666666666666665</ele><time>2026-04-23T13:42:27.776Z</time></trkpt><trkpt lat="40.8318767" lon="14.2371567"><ele>3.5</ele><time>2026-04-23T13:42:28.776Z</time></trkpt><trkpt lat="40.83187" lon="14.2372433"><ele>3.333333333333333</ele><time>2026-04-23T13:42:29.776Z</time></trkpt><trkpt lat="40.83187" lon="14.23733"><ele>3.1666666666666665</ele><time>2026-04-23T13:42:30.776Z</time></trkpt><trkpt lat="40.8318667" lon="14.237415"><ele>3.0</ele><time>2026-04-23T13:42:31.779Z</time></trkpt><trkpt lat="40.8318517" lon="14.2375783"><ele>3.5</ele><time>2026-04-23T13:42:33.777Z</time></trkpt><trkpt lat="40.8318367" lon="14.237735"><ele>4.0</ele><time>2026-04-23T13:42:35.775Z</time></trkpt><trkpt lat="40.8318183" lon="14.2378833"><ele>4.5</ele><time>2026-04-23T13:42:37.777Z</time></trkpt><trkpt lat="40.8318" lon="14.2380317"><ele>5.0</ele><time>2026-04-23T13:42:39.776Z</time></trkpt><trkpt lat="40.8317783" lon="14.2381817"><ele>4.2</ele><time>2026-04-23T13:42:41.778Z</time></trkpt><trkpt lat="40.8317633" lon="14.23834"><ele>3.4</ele><time>2026-04-23T13:42:43.776Z</time></trkpt><trkpt lat="40.8317567" lon="14.2385067"><ele>2.6</ele><time>2026-04-23T13:42:45.778Z</time></trkpt><trkpt lat="40.8317383" lon="14.2386733"><ele>1.8</ele><time>2026-04-23T13:42:47.776Z</time></trkpt><trkpt lat="40.83173" lon="14.2387633"><ele>1.0</ele><time>2026-04-23T13:42:48.777Z</time></trkpt><trkpt lat="40.831725" lon="14.2388517"><ele>0.9999999999999999</ele><time>2026-04-23T13:42:49.776Z</time></trkpt><trkpt lat="40.8317183" lon="14.23894"><ele>1.0</ele><time>2026-04-23T13:42:50.778Z</time></trkpt><trkpt lat="40.83171" lon="14.2391033"><ele>1.0</ele><time>2026-04-23T13:42:52.775Z</time></trkpt><trkpt lat="40.8317083" lon="14.2391983"><ele>1.0</ele><time>2026-04-23T13:42:53.776Z</time></trkpt><trkpt lat="40.8317" lon="14.239285"><ele>0.9999999999999999</ele><time>2026-04-23T13:42:54.776Z</time></trkpt><trkpt lat="40.8316917" lon="14.2393717"><ele>1.0</ele><time>2026-04-23T13:42:55.777Z</time></trkpt><trkpt lat="40.8316833" lon="14.23946"><ele>1.0</ele><time>2026-04-23T13:42:56.779Z</time></trkpt><trkpt lat="40.831685" lon="14.2395533"><ele>0.9999999999999999</ele><time>2026-04-23T13:42:57.776Z</time></trkpt><trkpt lat="40.831685" lon="14.23965"><ele>1.0</ele><time>2026-04-23T13:42:58.778Z</time></trkpt><trkpt lat="40.8316783" lon="14.2397467"><ele>1.0</ele><time>2026-04-23T13:42:59.778Z</time></trkpt><trkpt lat="40.8316717" lon="14.23984"><ele>0.9999999999999999</ele><time>2026-04-23T13:43:00.776Z</time></trkpt><trkpt lat="40.831665" lon="14.23993"><ele>1.0</ele><time>2026-04-23T13:43:01.777Z</time></trkpt><trkpt lat="40.83166" lon="14.2400167"><ele>1.0</ele><time>2026-04-23T13:43:02.776Z</time></trkpt><trkpt lat="40.83165" lon="14.2401"><ele>1.1666666666666665</ele><time>2026-04-23T13:43:03.777Z</time></trkpt><trkpt lat="40.83164" lon="14.2401833"><ele>1.3333333333333333</ele><time>2026-04-23T13:43:04.776Z</time></trkpt><trkpt lat="40.83162" lon="14.2403417"><ele>1.5</ele><time>2026-04-23T13:43:06.776Z</time></trkpt><trkpt lat="40.8316017" lon="14.2405033"><ele>1.6666666666666665</ele><time>2026-04-23T13:43:08.778Z</time></trkpt><trkpt lat="40.8315917" lon="14.2405883"><ele>1.8333333333333333</ele><time>2026-04-23T13:43:09.776Z</time></trkpt><trkpt lat="40.83158" lon="14.2406733"><ele>2.0</ele><time>2026-04-23T13:43:10.776Z</time></trkpt><trkpt lat="40.8315667" lon="14.2407583"><ele>2.0</ele><time>2026-04-23T13:43:11.778Z</time></trkpt><trkpt lat="40.8315483" lon="14.2409217"><ele>2.0</ele><time>2026-04-23T13:43:13.777Z</time></trkpt><trkpt lat="40.83153" lon="14.2410783"><ele>2.0</ele><time>2026-04-23T13:43:15.776Z</time></trkpt><trkpt lat="40.831515" lon="14.24123"><ele>2.0</ele><time>2026-04-23T13:43:17.777Z</time></trkpt><trkpt lat="40.8314967" lon="14.2413733"><ele>2.5</ele><time>2026-04-23T13:43:19.776Z</time></trkpt><trkpt lat="40.8314883" lon="14.2415217"><ele>3.0</ele><time>2026-04-23T13:43:21.779Z</time></trkpt><trkpt lat="40.8315367" lon="14.241625"><ele>3.5</ele><time>2026-04-23T13:43:23.776Z</time></trkpt><trkpt lat="40.8315917" lon="14.2417"><ele>4.0</ele><time>2026-04-23T13:43:25.777Z</time></trkpt><trkpt lat="40.8315983" lon="14.24179"><ele>4.5</ele><time>2026-04-23T13:43:27.776Z</time></trkpt><trkpt lat="40.8315933" lon="14.2418817"><ele>5.0</ele><time>2026-04-23T13:43:29.777Z</time></trkpt><trkpt lat="40.831585" lon="14.2420083"><ele>5.0</ele><time>2026-04-23T13:43:32.776Z</time></trkpt><trkpt lat="40.8315767" lon="14.2421167"><ele>5.0</ele><time>2026-04-23T13:43:34.776Z</time></trkpt><trkpt lat="40.8315783" lon="14.24223"><ele>5.0</ele><time>2026-04-23T13:43:36.776Z</time></trkpt><trkpt lat="40.831575" lon="14.2423367"><ele>5.0</ele><time>2026-04-23T13:43:38.776Z</time></trkpt><trkpt lat="40.831595" lon="14.2424583"><ele>5.0</ele><time>2026-04-23T13:43:40.776Z</time></trkpt><trkpt lat="40.83161" lon="14.2425783"><ele>5.0</ele><time>2026-04-23T13:43:42.778Z</time></trkpt><trkpt lat="40.8316017" lon="14.242695"><ele>6.0</ele><time>2026-04-23T13:43:44.777Z</time></trkpt><trkpt lat="40.8315983" lon="14.2427983"><ele>7.0</ele><time>2026-04-23T13:43:46.777Z</time></trkpt><trkpt lat="40.831605" lon="14.2428933"><ele>8.0</ele><time>2026-04-23T13:43:49.777Z</time></trkpt><trkpt lat="40.8315717" lon="14.242975"><ele>9.0</ele><time>2026-04-23T13:43:53.775Z</time></trkpt><trkpt lat="40.8315733" lon="14.24306"><ele>10.0</ele><time>2026-04-23T13:43:56.777Z</time></trkpt><trkpt lat="40.8315733" lon="14.24316"><ele>10.999999999999998</ele><time>2026-04-23T13:44:00.778Z</time></trkpt><trkpt lat="40.831525" lon="14.2432483"><ele>12.0</ele><time>2026-04-23T13:44:09.776Z</time></trkpt><trkpt lat="40.8315333" lon="14.24335"><ele>12.166666666666666</ele><time>2026-04-23T13:44:14.776Z</time></trkpt><trkpt lat="40.831505" lon="14.2434483"><ele>12.333333333333332</ele><time>2026-04-23T13:44:17.778Z</time></trkpt><trkpt lat="40.8314967" lon="14.2435517"><ele>12.5</ele><time>2026-04-23T13:44:20.776Z</time></trkpt><trkpt lat="40.8314633" lon="14.24363"><ele>12.666666666666666</ele><time>2026-04-23T13:44:23.778Z</time></trkpt><trkpt lat="40.8314167" lon="14.2436883"><ele>12.833333333333332</ele><time>2026-04-23T13:44:26.777Z</time></trkpt><trkpt lat="40.831355" lon="14.2437917"><ele>13.0</ele><time>2026-04-23T13:44:34.778Z</time></trkpt><trkpt lat="40.8313083" lon="14.2438667"><ele>13.0</ele><time>2026-04-23T13:44:36.776Z</time></trkpt><trkpt lat="40.831245" lon="14.2439533"><ele>13.0</ele><time>2026-04-23T13:44:38.776Z</time></trkpt><trkpt lat="40.8311433" lon="14.244035"><ele>13.0</ele><time>2026-04-23T13:44:40.777Z</time></trkpt><trkpt lat="40.8310883" lon="14.2440767"><ele>13.0</ele><time>2026-04-23T13:44:41.776Z</time></trkpt><trkpt lat="40.8309817" lon="14.2441583"><ele>13.0</ele><time>2026-04-23T13:44:43.776Z</time></trkpt><trkpt lat="40.8308717" lon="14.2442333"><ele>12.25</ele><time>2026-04-23T13:44:45.777Z</time></trkpt><trkpt lat="40.8307717" lon="14.2443017"><ele>11.5</ele><time>2026-04-23T13:44:47.777Z</time></trkpt><trkpt lat="40.8306733" lon="14.2443767"><ele>10.75</ele><time>2026-04-23T13:44:49.777Z</time></trkpt><trkpt lat="40.8305683" lon="14.2444383"><ele>10.0</ele><time>2026-04-23T13:44:51.777Z</time></trkpt><trkpt lat="40.8304617" lon="14.2445183"><ele>10.0</ele><time>2026-04-23T13:44:53.777Z</time></trkpt><trkpt lat="40.8303583" lon="14.244595"><ele>10.0</ele><time>2026-04-23T13:44:55.777Z</time></trkpt><trkpt lat="40.8302633" lon="14.244665"><ele>10.0</ele><time>2026-04-23T13:44:57.778Z</time></trkpt><trkpt lat="40.8301733" lon="14.244735"><ele>10.0</ele><time>2026-04-23T13:44:59.777Z</time></trkpt><trkpt lat="40.830095" lon="14.2448117"><ele>10.0</ele><time>2026-04-23T13:45:01.777Z</time></trkpt><trkpt lat="40.830035" lon="14.2449117"><ele>9.4</ele><time>2026-04-23T13:45:03.779Z</time></trkpt><trkpt lat="40.8300067" lon="14.245055"><ele>8.8</ele><time>2026-04-23T13:45:05.776Z</time></trkpt><trkpt lat="40.8299833" lon="14.2452"><ele>8.2</ele><time>2026-04-23T13:45:07.776Z</time></trkpt><trkpt lat="40.8299783" lon="14.24533"><ele>7.6</ele><time>2026-04-23T13:45:09.777Z</time></trkpt><trkpt lat="40.8299783" lon="14.2454733"><ele>7.0</ele><time>2026-04-23T13:45:11.778Z</time></trkpt><trkpt lat="40.8299783" lon="14.2456067"><ele>8.166666666666668</ele><time>2026-04-23T13:45:13.778Z</time></trkpt><trkpt lat="40.8299817" lon="14.245735"><ele>9.333333333333334</ele><time>2026-04-23T13:45:15.777Z</time></trkpt><trkpt lat="40.829995" lon="14.2458417"><ele>10.5</ele><time>2026-04-23T13:45:17.779Z</time></trkpt><trkpt lat="40.8300233" lon="14.24592"><ele>11.666666666666668</ele><time>2026-04-23T13:45:19.776Z</time></trkpt><trkpt lat="40.83006" lon="14.24599"><ele>12.833333333333334</ele><time>2026-04-23T13:45:21.777Z</time></trkpt><trkpt lat="40.830075" lon="14.2460833"><ele>14.0</ele><time>2026-04-23T13:45:23.775Z</time></trkpt><trkpt lat="40.830075" lon="14.2461967"><ele>14.000000000000002</ele><time>2026-04-23T13:45:25.776Z</time></trkpt><trkpt lat="40.83008" lon="14.246305"><ele>14.0</ele><time>2026-04-23T13:45:27.777Z</time></trkpt><trkpt lat="40.83008" lon="14.246405"><ele>14.0</ele><time>2026-04-23T13:45:29.776Z</time></trkpt><trkpt lat="40.8301233" lon="14.2465033"><ele>14.0</ele><time>2026-04-23T13:45:32.778Z</time></trkpt><trkpt lat="40.8301833" lon="14.246535"><ele>14.000000000000002</ele><time>2026-04-23T13:45:35.777Z</time></trkpt><trkpt lat="40.8302267" lon="14.2466017"><ele>14.0</ele><time>2026-04-23T13:45:38.776Z</time></trkpt><trkpt lat="40.8302683" lon="14.246685"><ele>18.5</ele><time>2026-04-23T13:45:41.775Z</time></trkpt><trkpt lat="40.830345" lon="14.2467233"><ele>23.0</ele><time>2026-04-23T13:45:45.775Z</time></trkpt><trkpt lat="40.83041" lon="14.2466867"><ele>27.5</ele><time>2026-04-23T13:45:48.776Z</time></trkpt><trkpt lat="40.8304783" lon="14.2467167"><ele>32.0</ele><time>2026-04-23T13:45:53.775Z</time></trkpt><trkpt lat="40.83046" lon="14.2468283"><ele>36.5</ele><time>2026-04-23T13:45:58.775Z</time></trkpt><trkpt lat="40.8304217" lon="14.2469333"><ele>41.0</ele><time>2026-04-23T13:46:01.775Z</time></trkpt><trkpt lat="40.8303883" lon="14.2470467"><ele>41.0</ele><time>2026-04-23T13:46:10.775Z</time></trkpt><trkpt lat="40.8303833" lon="14.2471517"><ele>41.0</ele><time>2026-04-23T13:46:14.775Z</time></trkpt><trkpt lat="40.8303733" lon="14.2472433"><ele>41.0</ele><time>2026-04-23T13:46:18.776Z</time></trkpt><trkpt lat="40.8303283" lon="14.2473233"><ele>41.0</ele><time>2026-04-23T13:46:23.776Z</time></trkpt><trkpt lat="40.8303017" lon="14.2474183"><ele>41.0</ele><time>2026-04-23T13:46:31.776Z</time></trkpt><trkpt lat="40.83039" lon="14.247455"><ele>41.0</ele><time>2026-04-23T13:46:34.775Z</time></trkpt><trkpt lat="40.8304683" lon="14.2473267"><ele>41.0</ele><time>2026-04-23T13:46:38.775Z</time></trkpt><trkpt lat="40.8305167" lon="14.24725"><ele>41.0</ele><time>2026-04-23T13:46:40.775Z</time></trkpt><trkpt lat="40.83052" lon="14.2471633"><ele>41.0</ele><time>2026-04-23T13:46:42.776Z</time></trkpt><trkpt lat="40.8305717" lon="14.2471133"><ele>41.0</ele><time>2026-04-23T13:46:46.775Z</time></trkpt><trkpt lat="40.83054" lon="14.2469683"><ele>41.0</ele><time>2026-04-23T13:46:54.776Z</time></trkpt><trkpt lat="40.8305017" lon="14.2470483"><ele>41.0</ele><time>2026-04-23T13:47:01.775Z</time></trkpt><trkpt lat="40.83052" lon="14.247135"><ele>41.0</ele><time>2026-04-23T13:47:07.776Z</time></trkpt><trkpt lat="40.8305733" lon="14.2472617"><ele>41.0</ele><time>2026-04-23T13:47:26.776Z</time></trkpt><trkpt lat="40.830615" lon="14.2473417"><ele>41.0</ele><time>2026-04-23T13:47:30.775Z</time></trkpt><trkpt lat="40.8306267" lon="14.2474267"><ele>41.0</ele><time>2026-04-23T13:47:37.777Z</time></trkpt><trkpt lat="40.8306467" lon="14.2473333"><ele>41.0</ele><time>2026-04-23T13:47:48.777Z</time></trkpt><trkpt lat="40.83069" lon="14.2472267"><ele>41.0</ele><time>2026-04-23T13:47:51.776Z</time></trkpt><trkpt lat="40.8307067" lon="14.2471183"><ele>40.99999999999999</ele><time>2026-04-23T13:47:54.777Z</time></trkpt><trkpt lat="40.8307017" lon="14.2470133"><ele>41.0</ele><time>2026-04-23T13:47:58.775Z</time></trkpt><trkpt lat="40.8307317" lon="14.24694"><ele>41.0</ele><time>2026-04-23T13:48:03.775Z</time></trkpt><trkpt lat="40.8307233" lon="14.2470383"><ele>41.0</ele><time>2026-04-23T13:48:09.775Z</time></trkpt><trkpt lat="40.8307283" lon="14.2471233"><ele>41.0</ele><time>2026-04-23T13:48:13.776Z</time></trkpt><trkpt lat="40.8307367" lon="14.24722"><ele>40.99999999999999</ele><time>2026-04-23T13:48:17.777Z</time></trkpt><trkpt lat="40.830755" lon="14.2473233"><ele>41.0</ele><time>2026-04-23T13:48:20.775Z</time></trkpt><trkpt lat="40.8307917" lon="14.2473917"><ele>41.0</ele><time>2026-04-23T13:48:26.777Z</time></trkpt><trkpt lat="40.83083" lon="14.2473083"><ele>41.0</ele><time>2026-04-23T13:48:35.776Z</time></trkpt><trkpt lat="40.8308367" lon="14.2472133"><ele>41.0</ele><time>2026-04-23T13:48:38.776Z</time></trkpt><trkpt lat="40.8308317" lon="14.2471133"><ele>41.0</ele><time>2026-04-23T13:48:41.776Z</time></trkpt><trkpt lat="40.8308267" lon="14.2470083"><ele>41.0</ele><time>2026-04-23T13:48:45.776Z</time></trkpt><trkpt lat="40.830825" lon="14.2471117"><ele>41.0</ele><time>2026-04-23T13:48:57.776Z</time></trkpt><trkpt lat="40.8307933" lon="14.2472133"><ele>40.99999999999999</ele><time>2026-04-23T13:49:01.776Z</time></trkpt><trkpt lat="40.8307933" lon="14.2473"><ele>41.0</ele><time>2026-04-23T13:49:04.775Z</time></trkpt><trkpt lat="40.8308167" lon="14.2473983"><ele>41.0</ele><time>2026-04-23T13:49:08.775Z</time></trkpt><trkpt lat="40.8308717" lon="14.2473283"><ele>41.0</ele><time>2026-04-23T13:49:14.775Z</time></trkpt><trkpt lat="40.830915" lon="14.2472583"><ele>41.0</ele><time>2026-04-23T13:49:17.776Z</time></trkpt><trkpt lat="40.8309833" lon="14.24721"><ele>40.99999999999999</ele><time>2026-04-23T13:49:20.775Z</time></trkpt><trkpt lat="40.8309583" lon="14.2472883"><ele>41.0</ele><time>2026-04-23T13:49:27.775Z</time></trkpt><trkpt lat="40.830915" lon="14.2473533"><ele>42.0</ele><time>2026-04-23T13:49:31.776Z</time></trkpt><trkpt lat="40.8308833" lon="14.2474417"><ele>43.0</ele><time>2026-04-23T13:49:34.776Z</time></trkpt><trkpt lat="40.8308533" lon="14.2475333"><ele>44.0</ele><time>2026-04-23T13:49:39.778Z</time></trkpt><trkpt lat="40.8308567" lon="14.24762"><ele>45.0</ele><time>2026-04-23T13:49:44.776Z</time></trkpt><trkpt lat="40.83089" lon="14.24772"><ele>46.0</ele><time>2026-04-23T13:49:48.778Z</time></trkpt><trkpt lat="40.8309267" lon="14.2478267"><ele>47.0</ele><time>2026-04-23T13:49:51.777Z</time></trkpt><trkpt lat="40.83097" lon="14.2479267"><ele>48.666666666666664</ele><time>2026-04-23T13:49:54.776Z</time></trkpt><trkpt lat="40.831035" lon="14.247995"><ele>50.33333333333333</ele><time>2026-04-23T13:49:57.776Z</time></trkpt><trkpt lat="40.8311" lon="14.248045"><ele>52.0</ele><time>2026-04-23T13:50:00.777Z</time></trkpt><trkpt lat="40.83118" lon="14.2480383"><ele>53.666666666666664</ele><time>2026-04-23T13:50:03.775Z</time></trkpt><trkpt lat="40.831255" lon="14.2480167"><ele>55.333333333333336</ele><time>2026-04-23T13:50:05.778Z</time></trkpt><trkpt lat="40.831335" lon="14.24797"><ele>57.0</ele><time>2026-04-23T13:50:08.776Z</time></trkpt><trkpt lat="40.8313383" lon="14.248065"><ele>57.0</ele><time>2026-04-23T13:50:14.775Z</time></trkpt><trkpt lat="40.8312667" lon="14.2481033"><ele>56.99999999999999</ele><time>2026-04-23T13:50:19.776Z</time></trkpt><trkpt lat="40.8312" lon="14.2481283"><ele>57.0</ele><time>2026-04-23T13:50:23.777Z</time></trkpt><trkpt lat="40.8311467" lon="14.2481783"><ele>57.0</ele><time>2026-04-23T13:50:25.776Z</time></trkpt><trkpt lat="40.8311017" lon="14.2482633"><ele>56.99999999999999</ele><time>2026-04-23T13:50:28.778Z</time></trkpt><trkpt lat="40.8310383" lon="14.2483167"><ele>57.0</ele><time>2026-04-23T13:50:35.777Z</time></trkpt><trkpt lat="40.8309783" lon="14.248345"><ele>57.0</ele><time>2026-04-23T13:50:38.777Z</time></trkpt><trkpt lat="40.830905" lon="14.24836"><ele>55.57142857142857</ele><time>2026-04-23T13:50:43.777Z</time></trkpt><trkpt lat="40.8308617" lon="14.2482817"><ele>54.14285714285714</ele><time>2026-04-23T13:50:48.78Z</time></trkpt><trkpt lat="40.83081" lon="14.248215"><ele>52.71428571428571</ele><time>2026-04-23T13:52:35.776Z</time></trkpt><trkpt lat="40.830775" lon="14.2481367"><ele>51.285714285714285</ele><time>2026-04-23T13:52:48.778Z</time></trkpt><trkpt lat="40.8307167" lon="14.2480633"><ele>49.857142857142854</ele><time>2026-04-23T13:52:52.775Z</time></trkpt><trkpt lat="40.8307033" lon="14.2479617"><ele>48.42857142857143</ele><time>2026-04-23T13:52:56.775Z</time></trkpt><trkpt lat="40.830695" lon="14.2478717"><ele>47.0</ele><time>2026-04-23T13:52:59.776Z</time></trkpt><trkpt lat="40.8306917" lon="14.2477867"><ele>47.0</ele><time>2026-04-23T13:53:03.775Z</time></trkpt><trkpt lat="40.8306967" lon="14.24769"><ele>47.0</ele><time>2026-04-23T13:53:08.776Z</time></trkpt><trkpt lat="40.8307133" lon="14.2476083"><ele>47.0</ele><time>2026-04-23T13:53:11.777Z</time></trkpt><trkpt lat="40.8307383" lon="14.2475217"><ele>47.0</ele><time>2026-04-23T13:53:14.776Z</time></trkpt><trkpt lat="40.830685" lon="14.2475817"><ele>47.0</ele><time>2026-04-23T13:53:28.776Z</time></trkpt><trkpt lat="40.8307" lon="14.2476967"><ele>47.0</ele><time>2026-04-23T13:53:31.777Z</time></trkpt><trkpt lat="40.8307067" lon="14.2478067"><ele>47.0</ele><time>2026-04-23T13:53:34.775Z</time></trkpt><trkpt lat="40.8307133" lon="14.2479133"><ele>47.0</ele><time>2026-04-23T13:53:37.775Z</time></trkpt><trkpt lat="40.8307183" lon="14.2480183"><ele>47.0</ele><time>2026-04-23T13:53:40.776Z</time></trkpt><trkpt lat="40.8307533" lon="14.2481083"><ele>47.0</ele><time>2026-04-23T13:53:44.775Z</time></trkpt><trkpt lat="40.8308067" lon="14.2481617"><ele>47.0</ele><time>2026-04-23T13:53:46.776Z</time></trkpt><trkpt lat="40.83085" lon="14.2482383"><ele>47.0</ele><time>2026-04-23T13:53:48.777Z</time></trkpt><trkpt lat="40.8309" lon="14.2483083"><ele>47.0</ele><time>2026-04-23T13:53:50.776Z</time></trkpt><trkpt lat="40.8309633" lon="14.2483083"><ele>47.0</ele><time>2026-04-23T13:53:52.776Z</time></trkpt><trkpt lat="40.8310417" lon="14.2482833"><ele>48.666666666666664</ele><time>2026-04-23T13:53:55.776Z</time></trkpt><trkpt lat="40.8311117" lon="14.248255"><ele>50.33333333333333</ele><time>2026-04-23T13:53:59.776Z</time></trkpt><trkpt lat="40.8311817" lon="14.248185"><ele>52.0</ele><time>2026-04-23T13:54:02.775Z</time></trkpt><trkpt lat="40.8312483" lon="14.2481233"><ele>53.666666666666664</ele><time>2026-04-23T13:54:05.776Z</time></trkpt><trkpt lat="40.831315" lon="14.2481083"><ele>55.333333333333336</ele><time>2026-04-23T13:54:08.776Z</time></trkpt><trkpt lat="40.8314117" lon="14.2480867"><ele>57.0</ele><time>2026-04-23T13:54:11.775Z</time></trkpt><trkpt lat="40.831475" lon="14.248005"><ele>57.0</ele><time>2026-04-23T13:54:14.777Z</time></trkpt><trkpt lat="40.8315217" lon="14.2479083"><ele>56.99999999999999</ele><time>2026-04-23T13:54:17.776Z</time></trkpt><trkpt lat="40.8315617" lon="14.24784"><ele>57.0</ele><time>2026-04-23T13:54:19.776Z</time></trkpt><trkpt lat="40.831595" lon="14.2477667"><ele>57.0</ele><time>2026-04-23T13:54:21.775Z</time></trkpt><trkpt lat="40.8316333" lon="14.2476967"><ele>56.99999999999999</ele><time>2026-04-23T13:54:23.775Z</time></trkpt><trkpt lat="40.831675" lon="14.24763"><ele>57.0</ele><time>2026-04-23T13:54:25.775Z</time></trkpt><trkpt lat="40.8317133" lon="14.24756"><ele>57.0</ele><time>2026-04-23T13:54:27.776Z</time></trkpt><trkpt lat="40.831765" lon="14.2474667"><ele>57.833333333333336</ele><time>2026-04-23T13:54:30.776Z</time></trkpt><trkpt lat="40.831815" lon="14.247375"><ele>58.66666666666667</ele><time>2026-04-23T13:54:33.775Z</time></trkpt><trkpt lat="40.8318533" lon="14.247305"><ele>59.5</ele><time>2026-04-23T13:54:35.775Z</time></trkpt><trkpt lat="40.8319017" lon="14.2472383"><ele>60.333333333333336</ele><time>2026-04-23T13:54:37.776Z</time></trkpt><trkpt lat="40.831955" lon="14.2471417"><ele>61.16666666666667</ele><time>2026-04-23T13:54:40.776Z</time></trkpt><trkpt lat="40.8320017" lon="14.247085"><ele>62.0</ele><time>2026-04-23T13:55:07.777Z</time></trkpt><trkpt lat="40.8320733" lon="14.2470517"><ele>62.0</ele><time>2026-04-23T13:55:27.776Z</time></trkpt><trkpt lat="40.832105" lon="14.247125"><ele>62.00000000000001</ele><time>2026-04-23T13:55:31.779Z</time></trkpt><trkpt lat="40.8320917" lon="14.2472133"><ele>62.0</ele><time>2026-04-23T13:55:35.776Z</time></trkpt><trkpt lat="40.832165" lon="14.24727"><ele>62.0</ele><time>2026-04-23T13:55:53.777Z</time></trkpt><trkpt lat="40.8322333" lon="14.2473017"><ele>62.00000000000001</ele><time>2026-04-23T13:55:55.776Z</time></trkpt><trkpt lat="40.8323167" lon="14.2473017"><ele>62.0</ele><time>2026-04-23T13:55:57.778Z</time></trkpt><trkpt lat="40.8323917" lon="14.24728"><ele>62.0</ele><time>2026-04-23T13:55:59.777Z</time></trkpt><trkpt lat="40.8324783" lon="14.247255"><ele>62.0</ele><time>2026-04-23T13:56:01.776Z</time></trkpt><trkpt lat="40.832565" lon="14.247245"><ele>62.0</ele><time>2026-04-23T13:56:03.777Z</time></trkpt><trkpt lat="40.832645" lon="14.24721"><ele>62.0</ele><time>2026-04-23T13:56:05.777Z</time></trkpt><trkpt lat="40.8327433" lon="14.2472267"><ele>62.0</ele><time>2026-04-23T13:56:07.779Z</time></trkpt><trkpt lat="40.8328417" lon="14.2472083"><ele>62.0</ele><time>2026-04-23T13:56:09.775Z</time></trkpt><trkpt lat="40.8329217" lon="14.2471467"><ele>61.333333333333336</ele><time>2026-04-23T13:56:11.775Z</time></trkpt><trkpt lat="40.83301" lon="14.24711"><ele>60.66666666666667</ele><time>2026-04-23T13:56:13.775Z</time></trkpt><trkpt lat="40.83311" lon="14.2470683"><ele>60.0</ele><time>2026-04-23T13:56:15.776Z</time></trkpt><trkpt lat="40.8332017" lon="14.24701"><ele>59.33333333333333</ele><time>2026-04-23T13:56:17.776Z</time></trkpt><trkpt lat="40.83326" lon="14.2469733"><ele>58.666666666666664</ele><time>2026-04-23T13:56:19.776Z</time></trkpt><trkpt lat="40.8333267" lon="14.246925"><ele>58.0</ele><time>2026-04-23T13:56:21.776Z</time></trkpt><trkpt lat="40.833415" lon="14.2468717"><ele>57.599999999999994</ele><time>2026-04-23T13:56:23.776Z</time></trkpt><trkpt lat="40.833515" lon="14.2468083"><ele>57.199999999999996</ele><time>2026-04-23T13:56:25.776Z</time></trkpt><trkpt lat="40.833625" lon="14.24675"><ele>56.8</ele><time>2026-04-23T13:56:27.775Z</time></trkpt><trkpt lat="40.8337467" lon="14.2467033"><ele>56.4</ele><time>2026-04-23T13:56:29.777Z</time></trkpt><trkpt lat="40.8338133" lon="14.24669"><ele>56.0</ele><time>2026-04-23T13:56:30.776Z</time></trkpt><trkpt lat="40.83388" lon="14.2466717"><ele>56.00000000000001</ele><time>2026-04-23T13:56:31.775Z</time></trkpt><trkpt lat="40.8339367" lon="14.2466267"><ele>56.0</ele><time>2026-04-23T13:56:32.776Z</time></trkpt><trkpt lat="40.834005" lon="14.2466067"><ele>56.0</ele><time>2026-04-23T13:56:33.775Z</time></trkpt><trkpt lat="40.8341133" lon="14.2465617"><ele>56.0</ele><time>2026-04-23T13:56:35.778Z</time></trkpt><trkpt lat="40.834175" lon="14.2465167"><ele>56.00000000000001</ele><time>2026-04-23T13:56:37.78Z</time></trkpt><trkpt lat="40.83424" lon="14.2464533"><ele>56.0</ele><time>2026-04-23T13:56:40.777Z</time></trkpt><trkpt lat="40.8342833" lon="14.2465367"><ele>55.599999999999994</ele><time>2026-04-23T13:56:42.776Z</time></trkpt><trkpt lat="40.8343367" lon="14.2466533"><ele>55.199999999999996</ele><time>2026-04-23T13:56:44.777Z</time></trkpt><trkpt lat="40.8343733" lon="14.246795"><ele>54.800000000000004</ele><time>2026-04-23T13:56:46.777Z</time></trkpt><trkpt lat="40.83439" lon="14.2468783"><ele>54.400000000000006</ele><time>2026-04-23T13:56:47.778Z</time></trkpt><trkpt lat="40.8344267" lon="14.2470017"><ele>54.0</ele><time>2026-04-23T13:56:49.776Z</time></trkpt><trkpt lat="40.8344683" lon="14.2471267"><ele>54.0</ele><time>2026-04-23T13:56:51.775Z</time></trkpt><trkpt lat="40.834515" lon="14.2472817"><ele>54.00000000000001</ele><time>2026-04-23T13:56:53.776Z</time></trkpt><trkpt lat="40.834555" lon="14.247395"><ele>54.00000000000001</ele><time>2026-04-23T13:56:55.777Z</time></trkpt><trkpt lat="40.83459" lon="14.247525"><ele>54.0</ele><time>2026-04-23T13:56:57.776Z</time></trkpt><trkpt lat="40.8346067" lon="14.2476533"><ele>54.0</ele><time>2026-04-23T13:56:59.775Z</time></trkpt><trkpt lat="40.8346167" lon="14.24775"><ele>53.0</ele><time>2026-04-23T13:57:01.779Z</time></trkpt><trkpt lat="40.8346017" lon="14.2478767"><ele>52.00000000000001</ele><time>2026-04-23T13:57:04.777Z</time></trkpt><trkpt lat="40.8346067" lon="14.2480067"><ele>51.0</ele><time>2026-04-23T13:57:06.777Z</time></trkpt><trkpt lat="40.83461" lon="14.24813"><ele>50.0</ele><time>2026-04-23T13:57:08.776Z</time></trkpt><trkpt lat="40.8346567" lon="14.2482367"><ele>49.0</ele><time>2026-04-23T13:57:11.777Z</time></trkpt><trkpt lat="40.8346817" lon="14.248345"><ele>47.166666666666664</ele><time>2026-04-23T13:57:13.776Z</time></trkpt><trkpt lat="40.8347233" lon="14.2484567"><ele>45.33333333333333</ele><time>2026-04-23T13:57:15.782Z</time></trkpt><trkpt lat="40.8347417" lon="14.24857"><ele>43.5</ele><time>2026-04-23T13:57:17.776Z</time></trkpt><trkpt lat="40.83482" lon="14.248605"><ele>41.666666666666664</ele><time>2026-04-23T13:57:20.777Z</time></trkpt><trkpt lat="40.83488" lon="14.248575"><ele>39.83333333333333</ele><time>2026-04-23T13:57:22.777Z</time></trkpt><trkpt lat="40.8349417" lon="14.2484533"><ele>38.0</ele><time>2026-04-23T13:57:23.777Z</time></trkpt><trkpt lat="40.8349517" lon="14.2483283"><ele>38.0</ele><time>2026-04-23T13:57:25.776Z</time></trkpt><trkpt lat="40.8349383" lon="14.248225"><ele>38.0</ele><time>2026-04-23T13:57:27.776Z</time></trkpt><trkpt lat="40.8349467" lon="14.2481167"><ele>38.0</ele><time>2026-04-23T13:57:30.776Z</time></trkpt><trkpt lat="40.8348867" lon="14.248225"><ele>38.0</ele><time>2026-04-23T13:57:37.777Z</time></trkpt><trkpt lat="40.8349167" lon="14.2483633"><ele>38.0</ele><time>2026-04-23T13:57:39.776Z</time></trkpt><trkpt lat="40.8349433" lon="14.2484933"><ele>38.0</ele><time>2026-04-23T13:57:41.776Z</time></trkpt><trkpt lat="40.8349917" lon="14.2486283"><ele>38.0</ele><time>2026-04-23T13:57:43.776Z</time></trkpt><trkpt lat="40.8350567" lon="14.2487067"><ele>38.0</ele><time>2026-04-23T13:57:44.776Z</time></trkpt><trkpt lat="40.8351483" lon="14.2488017"><ele>38.0</ele><time>2026-04-23T13:57:46.779Z</time></trkpt><trkpt lat="40.83522" lon="14.2488867"><ele>38.0</ele><time>2026-04-23T13:57:48.777Z</time></trkpt><trkpt lat="40.8352617" lon="14.2489783"><ele>36.666666666666664</ele><time>2026-04-23T13:57:50.777Z</time></trkpt><trkpt lat="40.8353167" lon="14.249075"><ele>35.33333333333333</ele><time>2026-04-23T13:57:52.776Z</time></trkpt><trkpt lat="40.8354117" lon="14.2490833"><ele>34.0</ele><time>2026-04-23T13:57:54.775Z</time></trkpt><trkpt lat="40.835485" lon="14.2490183"><ele>32.666666666666664</ele><time>2026-04-23T13:57:56.779Z</time></trkpt><trkpt lat="40.8355533" lon="14.2489433"><ele>31.333333333333332</ele><time>2026-04-23T13:57:58.777Z</time></trkpt><trkpt lat="40.8356317" lon="14.24891"><ele>30.0</ele><time>2026-04-23T13:58:00.776Z</time></trkpt><trkpt lat="40.8357133" lon="14.2489467"><ele>30.0</ele><time>2026-04-23T13:58:02.776Z</time></trkpt><trkpt lat="40.835785" lon="14.248995"><ele>30.0</ele><time>2026-04-23T13:58:04.776Z</time></trkpt><trkpt lat="40.8358617" lon="14.2490333"><ele>30.0</ele><time>2026-04-23T13:58:06.776Z</time></trkpt><trkpt lat="40.8359433" lon="14.249075"><ele>30.0</ele><time>2026-04-23T13:58:08.776Z</time></trkpt><trkpt lat="40.83598" lon="14.2491467"><ele>30.0</ele><time>2026-04-23T13:58:10.776Z</time></trkpt><trkpt lat="40.8359767" lon="14.24923"><ele>30.0</ele><time>2026-04-23T13:58:12.776Z</time></trkpt><trkpt lat="40.8359833" lon="14.249325"><ele>29.666666666666668</ele><time>2026-04-23T13:58:15.775Z</time></trkpt><trkpt lat="40.836055" lon="14.2493583"><ele>29.333333333333336</ele><time>2026-04-23T13:58:18.776Z</time></trkpt><trkpt lat="40.836115" lon="14.2493267"><ele>29.0</ele><time>2026-04-23T13:58:20.775Z</time></trkpt><trkpt lat="40.836175" lon="14.249265"><ele>28.666666666666668</ele><time>2026-04-23T13:58:22.776Z</time></trkpt><trkpt lat="40.83622" lon="14.24916"><ele>28.333333333333336</ele><time>2026-04-23T13:58:24.776Z</time></trkpt><trkpt lat="40.83626" lon="14.24906"><ele>28.0</ele><time>2026-04-23T13:58:26.776Z</time></trkpt><trkpt lat="40.8363133" lon="14.2489867"><ele>28.0</ele><time>2026-04-23T13:58:28.776Z</time></trkpt><trkpt lat="40.8363733" lon="14.2489283"><ele>28.0</ele><time>2026-04-23T13:58:30.777Z</time></trkpt><trkpt lat="40.8364233" lon="14.2488733"><ele>28.0</ele><time>2026-04-23T13:58:32.776Z</time></trkpt><trkpt lat="40.836475" lon="14.248825"><ele>28.0</ele><time>2026-04-23T13:58:34.776Z</time></trkpt><trkpt lat="40.836545" lon="14.2487833"><ele>28.0</ele><time>2026-04-23T13:58:37.776Z</time></trkpt><trkpt lat="40.8366267" lon="14.2488017"><ele>28.0</ele><time>2026-04-23T13:58:40.776Z</time></trkpt><trkpt lat="40.836695" lon="14.2488517"><ele>28.0</ele><time>2026-04-23T13:58:43.777Z</time></trkpt><trkpt lat="40.8367817" lon="14.2488567"><ele>28.833333333333336</ele><time>2026-04-23T13:58:46.776Z</time></trkpt><trkpt lat="40.8368667" lon="14.248895"><ele>29.666666666666668</ele><time>2026-04-23T13:58:48.776Z</time></trkpt><trkpt lat="40.8369483" lon="14.2488833"><ele>30.5</ele><time>2026-04-23T13:58:50.776Z</time></trkpt><trkpt lat="40.8370217" lon="14.248945"><ele>31.333333333333336</ele><time>2026-04-23T13:58:52.777Z</time></trkpt><trkpt lat="40.8370967" lon="14.2489767"><ele>32.166666666666664</ele><time>2026-04-23T13:58:54.776Z</time></trkpt><trkpt lat="40.837155" lon="14.2490133"><ele>33.0</ele><time>2026-04-23T13:58:56.776Z</time></trkpt><trkpt lat="40.83721" lon="14.2490767"><ele>33.0</ele><time>2026-04-23T14:00:30.776Z</time></trkpt><trkpt lat="40.8372867" lon="14.2491"><ele>33.0</ele><time>2026-04-23T14:00:35.775Z</time></trkpt><trkpt lat="40.837355" lon="14.2491383"><ele>33.0</ele><time>2026-04-23T14:00:39.776Z</time></trkpt><trkpt lat="40.837425" lon="14.2491767"><ele>33.0</ele><time>2026-04-23T14:00:42.776Z</time></trkpt><trkpt lat="40.8374983" lon="14.249235"><ele>33.0</ele><time>2026-04-23T14:00:45.776Z</time></trkpt><trkpt lat="40.8375817" lon="14.249295"><ele>33.0</ele><time>2026-04-23T14:00:48.776Z</time></trkpt><trkpt lat="40.8376417" lon="14.2493417"><ele>34.0</ele><time>2026-04-23T14:00:50.775Z</time></trkpt><trkpt lat="40.83771" lon="14.2493983"><ele>35.0</ele><time>2026-04-23T14:00:52.776Z</time></trkpt><trkpt lat="40.83777" lon="14.2494617"><ele>36.0</ele><time>2026-04-23T14:00:54.777Z</time></trkpt><trkpt lat="40.8378367" lon="14.2495233"><ele>37.0</ele><time>2026-04-23T14:00:56.775Z</time></trkpt><trkpt lat="40.83789" lon="14.24958"><ele>38.0</ele><time>2026-04-23T14:00:58.776Z</time></trkpt><trkpt lat="40.8379233" lon="14.24969"><ele>39.0</ele><time>2026-04-23T14:01:01.775Z</time></trkpt><trkpt lat="40.837965" lon="14.249795"><ele>39.0</ele><time>2026-04-23T14:01:04.775Z</time></trkpt><trkpt lat="40.837995" lon="14.249875"><ele>39.0</ele><time>2026-04-23T14:01:06.775Z</time></trkpt><trkpt lat="40.8380267" lon="14.24996"><ele>39.0</ele><time>2026-04-23T14:01:08.775Z</time></trkpt><trkpt lat="40.8380483" lon="14.2500467"><ele>39.0</ele><time>2026-04-23T14:01:10.775Z</time></trkpt><trkpt lat="40.8380733" lon="14.25014"><ele>39.0</ele><time>2026-04-23T14:01:12.775Z</time></trkpt><trkpt lat="40.8380883" lon="14.250225"><ele>39.0</ele><time>2026-04-23T14:01:14.775Z</time></trkpt><trkpt lat="40.8381167" lon="14.25033"><ele>39.0</ele><time>2026-04-23T14:01:17.776Z</time></trkpt><trkpt lat="40.8381333" lon="14.25044"><ele>39.0</ele><time>2026-04-23T14:01:20.776Z</time></trkpt><trkpt lat="40.83815" lon="14.2505317"><ele>39.0</ele><time>2026-04-23T14:01:23.775Z</time></trkpt><trkpt lat="40.83818" lon="14.2506267"><ele>39.0</ele><time>2026-04-23T14:01:26.779Z</time></trkpt><trkpt lat="40.8382133" lon="14.25074"><ele>39.0</ele><time>2026-04-23T14:01:29.776Z</time></trkpt><trkpt lat="40.8382417" lon="14.2508533"><ele>39.0</ele><time>2026-04-23T14:01:32.775Z</time></trkpt><trkpt lat="40.8382817" lon="14.2509533"><ele>39.0</ele><time>2026-04-23T14:01:35.775Z</time></trkpt><trkpt lat="40.838295" lon="14.2510517"><ele>36.833333333333336</ele><time>2026-04-23T14:01:39.775Z</time></trkpt><trkpt lat="40.8383233" lon="14.25115"><ele>34.666666666666664</ele><time>2026-04-23T14:01:43.777Z</time></trkpt><trkpt lat="40.8383583" lon="14.2512533"><ele>32.5</ele><time>2026-04-23T14:01:46.776Z</time></trkpt><trkpt lat="40.838395" lon="14.2513483"><ele>30.333333333333332</ele><time>2026-04-23T14:01:49.782Z</time></trkpt><trkpt lat="40.8384233" lon="14.2514583"><ele>28.166666666666664</ele><time>2026-04-23T14:01:53.776Z</time></trkpt><trkpt lat="40.83846" lon="14.2515533"><ele>26.0</ele><time>2026-04-23T14:01:56.775Z</time></trkpt><trkpt lat="40.8384967" lon="14.2516217"><ele>24.833333333333332</ele><time>2026-04-23T14:02:00.777Z</time></trkpt><trkpt lat="40.838535" lon="14.25171"><ele>23.666666666666664</ele><time>2026-04-23T14:02:17.775Z</time></trkpt><trkpt lat="40.8386167" lon="14.2517533"><ele>22.5</ele><time>2026-04-23T14:02:20.776Z</time></trkpt><trkpt lat="40.838705" lon="14.2518"><ele>21.333333333333332</ele><time>2026-04-23T14:02:23.777Z</time></trkpt><trkpt lat="40.838775" lon="14.2518467"><ele>20.166666666666664</ele><time>2026-04-23T14:02:25.775Z</time></trkpt><trkpt lat="40.8388517" lon="14.251895"><ele>19.0</ele><time>2026-04-23T14:02:27.775Z</time></trkpt><trkpt lat="40.838935" lon="14.25193"><ele>19.0</ele><time>2026-04-23T14:02:29.778Z</time></trkpt><trkpt lat="40.8390167" lon="14.2519683"><ele>19.0</ele><time>2026-04-23T14:02:31.776Z</time></trkpt><trkpt lat="40.839095" lon="14.2520067"><ele>19.0</ele><time>2026-04-23T14:02:33.777Z</time></trkpt><trkpt lat="40.8391733" lon="14.25204"><ele>19.0</ele><time>2026-04-23T14:02:35.778Z</time></trkpt><trkpt lat="40.8392617" lon="14.25207"><ele>19.0</ele><time>2026-04-23T14:02:37.779Z</time></trkpt><trkpt lat="40.839355" lon="14.252085"><ele>19.0</ele><time>2026-04-23T14:02:39.776Z</time></trkpt><trkpt lat="40.8394533" lon="14.2520817"><ele>18.333333333333332</ele><time>2026-04-23T14:02:41.776Z</time></trkpt><trkpt lat="40.8395333" lon="14.2520917"><ele>17.666666666666664</ele><time>2026-04-23T14:02:43.776Z</time></trkpt><trkpt lat="40.8395983" lon="14.2521383"><ele>17.0</ele><time>2026-04-23T14:02:45.777Z</time></trkpt><trkpt lat="40.8396233" lon="14.252225"><ele>16.333333333333332</ele><time>2026-04-23T14:02:47.776Z</time></trkpt><trkpt lat="40.8396433" lon="14.2523267"><ele>15.666666666666666</ele><time>2026-04-23T14:02:50.776Z</time></trkpt><trkpt lat="40.839635" lon="14.25241"><ele>15.0</ele><time>2026-04-23T14:02:53.776Z</time></trkpt><trkpt lat="40.8396367" lon="14.25252"><ele>14.714285714285715</ele><time>2026-04-23T14:02:56.777Z</time></trkpt><trkpt lat="40.8396317" lon="14.2526033"><ele>14.428571428571427</ele><time>2026-04-23T14:02:58.775Z</time></trkpt><trkpt lat="40.8396367" lon="14.2526933"><ele>14.142857142857142</ele><time>2026-04-23T14:03:00.776Z</time></trkpt><trkpt lat="40.8396383" lon="14.252785"><ele>13.857142857142858</ele><time>2026-04-23T14:03:02.776Z</time></trkpt><trkpt lat="40.8396033" lon="14.2528833"><ele>13.571428571428573</ele><time>2026-04-23T14:03:05.775Z</time></trkpt><trkpt lat="40.8395683" lon="14.2529533"><ele>13.285714285714285</ele><time>2026-04-23T14:03:07.778Z</time></trkpt><trkpt lat="40.8395417" lon="14.253045"><ele>13.0</ele><time>2026-04-23T14:03:09.776Z</time></trkpt><trkpt lat="40.8395117" lon="14.253135"><ele>13.666666666666666</ele><time>2026-04-23T14:03:11.778Z</time></trkpt><trkpt lat="40.83948" lon="14.2532317"><ele>14.333333333333332</ele><time>2026-04-23T14:03:13.775Z</time></trkpt><trkpt lat="40.8394517" lon="14.2533317"><ele>15.0</ele><time>2026-04-23T14:03:15.775Z</time></trkpt><trkpt lat="40.839425" lon="14.2534417"><ele>15.666666666666668</ele><time>2026-04-23T14:03:17.776Z</time></trkpt><trkpt lat="40.839405" lon="14.2535517"><ele>16.333333333333336</ele><time>2026-04-23T14:03:19.776Z</time></trkpt><trkpt lat="40.8393967" lon="14.2536533"><ele>17.0</ele><time>2026-04-23T14:03:21.775Z</time></trkpt><trkpt lat="40.8393817" lon="14.2537467"><ele>17.0</ele><time>2026-04-23T14:03:23.775Z</time></trkpt><trkpt lat="40.8393633" lon="14.25387"><ele>17.0</ele><time>2026-04-23T14:03:26.777Z</time></trkpt><trkpt lat="40.839345" lon="14.25396"><ele>17.0</ele><time>2026-04-23T14:03:28.778Z</time></trkpt><trkpt lat="40.8393217" lon="14.254055"><ele>17.0</ele><time>2026-04-23T14:03:30.775Z</time></trkpt><trkpt lat="40.8393067" lon="14.2541633"><ele>17.0</ele><time>2026-04-23T14:03:33.775Z</time></trkpt><trkpt lat="40.8392867" lon="14.2542567"><ele>17.0</ele><time>2026-04-23T14:03:36.775Z</time></trkpt><trkpt lat="40.83925" lon="14.254365"><ele>15.999999999999998</ele><time>2026-04-23T14:03:39.775Z</time></trkpt><trkpt lat="40.8392167" lon="14.25448"><ele>15.0</ele><time>2026-04-23T14:03:42.777Z</time></trkpt><trkpt lat="40.8391817" lon="14.254575"><ele>14.0</ele><time>2026-04-23T14:03:45.777Z</time></trkpt><trkpt lat="40.839175" lon="14.2546633"><ele>13.0</ele><time>2026-04-23T14:03:48.778Z</time></trkpt><trkpt lat="40.8392083" lon="14.2547367"><ele>12.0</ele><time>2026-04-23T14:03:51.776Z</time></trkpt><trkpt lat="40.83927" lon="14.2547933"><ele>11.0</ele><time>2026-04-23T14:03:54.777Z</time></trkpt><trkpt lat="40.8393317" lon="14.2548183"><ele>10.0</ele><time>2026-04-23T14:03:57.776Z</time></trkpt><trkpt lat="40.8393967" lon="14.25481"><ele>10.0</ele><time>2026-04-23T14:04:00.776Z</time></trkpt><trkpt lat="40.8394383" lon="14.2549017"><ele>10.0</ele><time>2026-04-23T14:04:05.775Z</time></trkpt><trkpt lat="40.8394383" lon="14.2550033"><ele>10.0</ele><time>2026-04-23T14:04:08.776Z</time></trkpt><trkpt lat="40.8394433" lon="14.2551133"><ele>10.0</ele><time>2026-04-23T14:04:11.777Z</time></trkpt><trkpt lat="40.8394733" lon="14.2552067"><ele>10.0</ele><time>2026-04-23T14:04:14.779Z</time></trkpt><trkpt lat="40.83954" lon="14.2552817"><ele>10.0</ele><time>2026-04-23T14:04:17.775Z</time></trkpt><trkpt lat="40.8395983" lon="14.2553333"><ele>10.0</ele><time>2026-04-23T14:04:19.775Z</time></trkpt><trkpt lat="40.839655" lon="14.2554083"><ele>10.0</ele><time>2026-04-23T14:04:21.775Z</time></trkpt><trkpt lat="40.8397317" lon="14.2554917"><ele>10.0</ele><time>2026-04-23T14:04:23.777Z</time></trkpt><trkpt lat="40.83982" lon="14.255545"><ele>10.0</ele><time>2026-04-23T14:04:25.777Z</time></trkpt><trkpt lat="40.8399133" lon="14.2556033"><ele>10.0</ele><time>2026-04-23T14:04:27.778Z</time></trkpt><trkpt lat="40.84" lon="14.2556767"><ele>9.8</ele><time>2026-04-23T14:04:29.777Z</time></trkpt><trkpt lat="40.8400733" lon="14.2557533"><ele>9.6</ele><time>2026-04-23T14:04:31.777Z</time></trkpt><trkpt lat="40.8401617" lon="14.2558333"><ele>9.4</ele><time>2026-04-23T14:04:33.777Z</time></trkpt><trkpt lat="40.8402517" lon="14.255915"><ele>9.2</ele><time>2026-04-23T14:04:35.779Z</time></trkpt><trkpt lat="40.8403383" lon="14.2559767"><ele>9.0</ele><time>2026-04-23T14:04:37.777Z</time></trkpt><trkpt lat="40.8404133" lon="14.256045"><ele>9.0</ele><time>2026-04-23T14:04:39.777Z</time></trkpt><trkpt lat="40.8404933" lon="14.25611"><ele>9.0</ele><time>2026-04-23T14:04:41.776Z</time></trkpt><trkpt lat="40.8405733" lon="14.2561817"><ele>9.0</ele><time>2026-04-23T14:04:43.775Z</time></trkpt><trkpt lat="40.840655" lon="14.2562533"><ele>9.0</ele><time>2026-04-23T14:04:45.776Z</time></trkpt><trkpt lat="40.840735" lon="14.256315"><ele>9.0</ele><time>2026-04-23T14:04:47.778Z</time></trkpt><trkpt lat="40.840815" lon="14.2563817"><ele>9.0</ele><time>2026-04-23T14:04:49.778Z</time></trkpt><trkpt lat="40.840895" lon="14.2564483"><ele>9.0</ele><time>2026-04-23T14:04:51.776Z</time></trkpt><trkpt lat="40.8409717" lon="14.2565083"><ele>9.0</ele><time>2026-04-23T14:04:53.776Z</time></trkpt><trkpt lat="40.8410533" lon="14.2565717"><ele>9.0</ele><time>2026-04-23T14:04:55.775Z</time></trkpt><trkpt lat="40.84114" lon="14.25663"><ele>9.0</ele><time>2026-04-23T14:04:57.775Z</time></trkpt><trkpt lat="40.8412233" lon="14.2566867"><ele>9.4</ele><time>2026-04-23T14:04:59.775Z</time></trkpt><trkpt lat="40.8413017" lon="14.25675"><ele>9.8</ele><time>2026-04-23T14:05:01.775Z</time></trkpt><trkpt lat="40.8413783" lon="14.2568117"><ele>10.200000000000001</ele><time>2026-04-23T14:05:03.779Z</time></trkpt><trkpt lat="40.84146" lon="14.2568817"><ele>10.600000000000001</ele><time>2026-04-23T14:05:05.776Z</time></trkpt><trkpt lat="40.84155" lon="14.2569483"><ele>11.0</ele><time>2026-04-23T14:05:07.775Z</time></trkpt><trkpt lat="40.84163" lon="14.2570233"><ele>11.0</ele><time>2026-04-23T14:05:09.776Z</time></trkpt><trkpt lat="40.8417133" lon="14.2570917"><ele>11.0</ele><time>2026-04-23T14:05:11.775Z</time></trkpt><trkpt lat="40.84177" lon="14.2571433"><ele>11.0</ele><time>2026-04-23T14:05:14.776Z</time></trkpt><trkpt lat="40.84184" lon="14.2571517"><ele>11.0</ele><time>2026-04-23T14:05:18.775Z</time></trkpt><trkpt lat="40.8419267" lon="14.2572017"><ele>11.0</ele><time>2026-04-23T14:05:21.775Z</time></trkpt><trkpt lat="40.8419867" lon="14.2572417"><ele>11.0</ele><time>2026-04-23T14:05:23.778Z</time></trkpt><trkpt lat="40.8420417" lon="14.2572883"><ele>10.833333333333332</ele><time>2026-04-23T14:05:25.776Z</time></trkpt><trkpt lat="40.8421183" lon="14.2573517"><ele>10.666666666666666</ele><time>2026-04-23T14:05:28.775Z</time></trkpt><trkpt lat="40.8421817" lon="14.2574183"><ele>10.5</ele><time>2026-04-23T14:05:30.777Z</time></trkpt><trkpt lat="40.842245" lon="14.2575"><ele>10.333333333333334</ele><time>2026-04-23T14:05:32.777Z</time></trkpt><trkpt lat="40.8423133" lon="14.2575667"><ele>10.166666666666668</ele><time>2026-04-23T14:05:34.779Z</time></trkpt><trkpt lat="40.8423917" lon="14.2576367"><ele>10.0</ele><time>2026-04-23T14:05:36.777Z</time></trkpt><trkpt lat="40.84247" lon="14.257705"><ele>10.0</ele><time>2026-04-23T14:05:38.781Z</time></trkpt><trkpt lat="40.84254" lon="14.257775"><ele>10.0</ele><time>2026-04-23T14:05:40.776Z</time></trkpt><trkpt lat="40.8426217" lon="14.257835"><ele>10.0</ele><time>2026-04-23T14:05:42.778Z</time></trkpt><trkpt lat="40.8427033" lon="14.25788"><ele>10.0</ele><time>2026-04-23T14:05:44.777Z</time></trkpt><trkpt lat="40.8427917" lon="14.2579233"><ele>10.0</ele><time>2026-04-23T14:05:46.776Z</time></trkpt><trkpt lat="40.84288" lon="14.2579917"><ele>9.833333333333334</ele><time>2026-04-23T14:05:48.776Z</time></trkpt><trkpt lat="40.84297" lon="14.258065"><ele>9.666666666666668</ele><time>2026-04-23T14:05:50.777Z</time></trkpt><trkpt lat="40.8430633" lon="14.2581183"><ele>9.5</ele><time>2026-04-23T14:05:52.776Z</time></trkpt><trkpt lat="40.8430983" lon="14.258195"><ele>9.333333333333334</ele><time>2026-04-23T14:05:54.778Z</time></trkpt><trkpt lat="40.84316" lon="14.2582533"><ele>9.166666666666666</ele><time>2026-04-23T14:05:57.777Z</time></trkpt><trkpt lat="40.843245" lon="14.25831"><ele>9.0</ele><time>2026-04-23T14:06:05.777Z</time></trkpt><trkpt lat="40.8433183" lon="14.2583417"><ele>9.0</ele><time>2026-04-23T14:06:08.776Z</time></trkpt><trkpt lat="40.8433983" lon="14.2583717"><ele>9.0</ele><time>2026-04-23T14:06:10.777Z</time></trkpt><trkpt lat="40.8434917" lon="14.2584433"><ele>9.0</ele><time>2026-04-23T14:06:12.776Z</time></trkpt><trkpt lat="40.8435367" lon="14.25851"><ele>9.0</ele><time>2026-04-23T14:06:13.778Z</time></trkpt><trkpt lat="40.8435817" lon="14.25858"><ele>9.0</ele><time>2026-04-23T14:06:14.777Z</time></trkpt><trkpt lat="40.8436333" lon="14.25864"><ele>9.0</ele><time>2026-04-23T14:06:15.777Z</time></trkpt><trkpt lat="40.8436867" lon="14.2587083"><ele>9.166666666666666</ele><time>2026-04-23T14:06:16.778Z</time></trkpt><trkpt lat="40.8437367" lon="14.2587733"><ele>9.333333333333334</ele><time>2026-04-23T14:06:17.78Z</time></trkpt><trkpt lat="40.843795" lon="14.2588283"><ele>9.5</ele><time>2026-04-23T14:06:18.776Z</time></trkpt><trkpt lat="40.84384" lon="14.2588883"><ele>9.666666666666668</ele><time>2026-04-23T14:06:19.778Z</time></trkpt><trkpt lat="40.8438817" lon="14.258955"><ele>9.833333333333334</ele><time>2026-04-23T14:06:20.777Z</time></trkpt><trkpt lat="40.843965" lon="14.2590767"><ele>10.0</ele><time>2026-04-23T14:06:22.778Z</time></trkpt><trkpt lat="40.84405" lon="14.25919"><ele>10.0</ele><time>2026-04-23T14:06:24.777Z</time></trkpt><trkpt lat="40.844125" lon="14.2593183"><ele>10.0</ele><time>2026-04-23T14:06:26.776Z</time></trkpt><trkpt lat="40.8441967" lon="14.2594367"><ele>10.0</ele><time>2026-04-23T14:06:28.778Z</time></trkpt><trkpt lat="40.84427" lon="14.25955"><ele>10.0</ele><time>2026-04-23T14:06:30.776Z</time></trkpt><trkpt lat="40.8443383" lon="14.25967"><ele>10.25</ele><time>2026-04-23T14:06:32.777Z</time></trkpt><trkpt lat="40.844405" lon="14.2597883"><ele>10.5</ele><time>2026-04-23T14:06:34.776Z</time></trkpt><trkpt lat="40.8444783" lon="14.2599033"><ele>10.75</ele><time>2026-04-23T14:06:36.776Z</time></trkpt><trkpt lat="40.8445533" lon="14.260025"><ele>11.0</ele><time>2026-04-23T14:06:38.779Z</time></trkpt><trkpt lat="40.84463" lon="14.2601433"><ele>11.0</ele><time>2026-04-23T14:06:40.776Z</time></trkpt><trkpt lat="40.8447083" lon="14.2602533"><ele>11.0</ele><time>2026-04-23T14:06:42.777Z</time></trkpt><trkpt lat="40.8447817" lon="14.2603783"><ele>11.0</ele><time>2026-04-23T14:06:44.776Z</time></trkpt><trkpt lat="40.84485" lon="14.2605083"><ele>11.0</ele><time>2026-04-23T14:06:46.777Z</time></trkpt><trkpt lat="40.84492" lon="14.2606317"><ele>11.75</ele><time>2026-04-23T14:06:48.78Z</time></trkpt><trkpt lat="40.8449917" lon="14.2607617"><ele>12.5</ele><time>2026-04-23T14:06:50.778Z</time></trkpt><trkpt lat="40.845045" lon="14.2609033"><ele>13.25</ele><time>2026-04-23T14:06:52.776Z</time></trkpt><trkpt lat="40.8450917" lon="14.261045"><ele>14.0</ele><time>2026-04-23T14:06:54.78Z</time></trkpt><trkpt lat="40.8451417" lon="14.261185"><ele>14.0</ele><time>2026-04-23T14:06:56.778Z</time></trkpt><trkpt lat="40.845185" lon="14.2613217"><ele>14.0</ele><time>2026-04-23T14:06:58.776Z</time></trkpt><trkpt lat="40.84522" lon="14.2614633"><ele>14.0</ele><time>2026-04-23T14:07:00.777Z</time></trkpt><trkpt lat="40.8452667" lon="14.2616033"><ele>14.0</ele><time>2026-04-23T14:07:02.777Z</time></trkpt><trkpt lat="40.8453167" lon="14.26174"><ele>13.2</ele><time>2026-04-23T14:07:04.776Z</time></trkpt><trkpt lat="40.8453617" lon="14.2618733"><ele>12.399999999999999</ele><time>2026-04-23T14:07:06.776Z</time></trkpt><trkpt lat="40.8454" lon="14.262005"><ele>11.6</ele><time>2026-04-23T14:07:08.777Z</time></trkpt><trkpt lat="40.8454383" lon="14.2621333"><ele>10.8</ele><time>2026-04-23T14:07:10.776Z</time></trkpt><trkpt lat="40.8454683" lon="14.2622683"><ele>10.0</ele><time>2026-04-23T14:07:12.776Z</time></trkpt><trkpt lat="40.845495" lon="14.2624033"><ele>9.8</ele><time>2026-04-23T14:07:14.777Z</time></trkpt><trkpt lat="40.8455233" lon="14.26254"><ele>9.6</ele><time>2026-04-23T14:07:16.776Z</time></trkpt><trkpt lat="40.84556" lon="14.2626767"><ele>9.4</ele><time>2026-04-23T14:07:18.776Z</time></trkpt><trkpt lat="40.8455883" lon="14.262795"><ele>9.2</ele><time>2026-04-23T14:07:20.779Z</time></trkpt><trkpt lat="40.8456383" lon="14.26288"><ele>9.0</ele><time>2026-04-23T14:07:23.777Z</time></trkpt><trkpt lat="40.845675" lon="14.2629617"><ele>9.0</ele><time>2026-04-23T14:07:27.776Z</time></trkpt><trkpt lat="40.84568" lon="14.2630483"><ele>9.0</ele><time>2026-04-23T14:07:29.776Z</time></trkpt><trkpt lat="40.845705" lon="14.2631467"><ele>9.0</ele><time>2026-04-23T14:07:31.776Z</time></trkpt><trkpt lat="40.8457267" lon="14.2632683"><ele>9.0</ele><time>2026-04-23T14:07:33.776Z</time></trkpt><trkpt lat="40.8457467" lon="14.2634117"><ele>9.0</ele><time>2026-04-23T14:07:35.776Z</time></trkpt><trkpt lat="40.8457617" lon="14.2635717"><ele>8.8</ele><time>2026-04-23T14:07:37.776Z</time></trkpt><trkpt lat="40.8457833" lon="14.2637217"><ele>8.600000000000001</ele><time>2026-04-23T14:07:39.776Z</time></trkpt><trkpt lat="40.8457883" lon="14.2638083"><ele>8.4</ele><time>2026-04-23T14:07:40.776Z</time></trkpt><trkpt lat="40.8457967" lon="14.2638983"><ele>8.200000000000001</ele><time>2026-04-23T14:07:41.777Z</time></trkpt><trkpt lat="40.84582" lon="14.2640483"><ele>8.0</ele><time>2026-04-23T14:07:43.776Z</time></trkpt><trkpt lat="40.8458383" lon="14.2642083"><ele>7.75</ele><time>2026-04-23T14:07:45.777Z</time></trkpt><trkpt lat="40.8458567" lon="14.2643633"><ele>7.5</ele><time>2026-04-23T14:07:47.776Z</time></trkpt><trkpt lat="40.845865" lon="14.2645317"><ele>7.25</ele><time>2026-04-23T14:07:49.776Z</time></trkpt><trkpt lat="40.8458817" lon="14.2646833"><ele>7.0</ele><time>2026-04-23T14:07:51.776Z</time></trkpt><trkpt lat="40.8458917" lon="14.264845"><ele>6.8</ele><time>2026-04-23T14:07:53.778Z</time></trkpt><trkpt lat="40.8458983" lon="14.2649883"><ele>6.6</ele><time>2026-04-23T14:07:55.776Z</time></trkpt><trkpt lat="40.8459117" lon="14.2651283"><ele>6.3999999999999995</ele><time>2026-04-23T14:07:57.778Z</time></trkpt><trkpt lat="40.8459217" lon="14.2652817"><ele>6.199999999999999</ele><time>2026-04-23T14:07:59.779Z</time></trkpt><trkpt lat="40.8459367" lon="14.2654317"><ele>6.0</ele><time>2026-04-23T14:08:01.776Z</time></trkpt><trkpt lat="40.84595" lon="14.2655833"><ele>5.75</ele><time>2026-04-23T14:08:03.777Z</time></trkpt><trkpt lat="40.8459633" lon="14.26574"><ele>5.5</ele><time>2026-04-23T14:08:05.775Z</time></trkpt><trkpt lat="40.8459767" lon="14.2658967"><ele>5.25</ele><time>2026-04-23T14:08:07.775Z</time></trkpt><trkpt lat="40.8459883" lon="14.2660433"><ele>5.0</ele><time>2026-04-23T14:08:09.774Z</time></trkpt><trkpt lat="40.8459967" lon="14.2661967"><ele>5.0</ele><time>2026-04-23T14:08:11.775Z</time></trkpt><trkpt lat="40.8460183" lon="14.26634"><ele>5.0</ele><time>2026-04-23T14:08:13.776Z</time></trkpt><trkpt lat="40.8460367" lon="14.2664867"><ele>5.0</ele><time>2026-04-23T14:08:15.775Z</time></trkpt><trkpt lat="40.8460533" lon="14.26664"><ele>5.0</ele><time>2026-04-23T14:08:17.776Z</time></trkpt><trkpt lat="40.8460633" lon="14.2667867"><ele>4.75</ele><time>2026-04-23T14:08:19.776Z</time></trkpt><trkpt lat="40.8460567" lon="14.2669333"><ele>4.5</ele><time>2026-04-23T14:08:21.782Z</time></trkpt><trkpt lat="40.846055" lon="14.2670917"><ele>4.25</ele><time>2026-04-23T14:08:23.776Z</time></trkpt><trkpt lat="40.8460333" lon="14.2672433"><ele>4.0</ele><time>2026-04-23T14:08:25.776Z</time></trkpt><trkpt lat="40.8460033" lon="14.267375"><ele>4.0</ele><time>2026-04-23T14:08:27.778Z</time></trkpt><trkpt lat="40.8460167" lon="14.26747"><ele>4.0</ele><time>2026-04-23T14:08:28.776Z</time></trkpt><trkpt lat="40.84602" lon="14.2675567"><ele>4.0</ele><time>2026-04-23T14:08:29.776Z</time></trkpt><trkpt lat="40.8459917" lon="14.2677"><ele>4.0</ele><time>2026-04-23T14:08:31.777Z</time></trkpt><trkpt lat="40.8459533" lon="14.2678367"><ele>4.0</ele><time>2026-04-23T14:08:33.776Z</time></trkpt><trkpt lat="40.8459" lon="14.2679833"><ele>3.6</ele><time>2026-04-23T14:08:35.776Z</time></trkpt><trkpt lat="40.8458617" lon="14.2681383"><ele>3.2</ele><time>2026-04-23T14:08:37.777Z</time></trkpt><trkpt lat="40.84584" lon="14.2683017"><ele>2.8000000000000003</ele><time>2026-04-23T14:08:39.776Z</time></trkpt><trkpt lat="40.845835" lon="14.2683867"><ele>2.4000000000000004</ele><time>2026-04-23T14:08:40.776Z</time></trkpt><trkpt lat="40.8458367" lon="14.26854"><ele>2.0</ele><time>2026-04-23T14:08:42.777Z</time></trkpt><trkpt lat="40.8458467" lon="14.268625"><ele>2.0</ele><time>2026-04-23T14:08:43.776Z</time></trkpt><trkpt lat="40.845875" lon="14.268775"><ele>2.0</ele><time>2026-04-23T14:08:45.775Z</time></trkpt><trkpt lat="40.845915" lon="14.2689183"><ele>2.0</ele><time>2026-04-23T14:08:47.777Z</time></trkpt><trkpt lat="40.845955" lon="14.2690233"><ele>2.0</ele><time>2026-04-23T14:08:49.777Z</time></trkpt><trkpt lat="40.8460017" lon="14.26913"><ele>2.0</ele><time>2026-04-23T14:08:51.775Z</time></trkpt><trkpt lat="40.84604" lon="14.2692433"><ele>3.1666666666666665</ele><time>2026-04-23T14:08:53.776Z</time></trkpt><trkpt lat="40.8460833" lon="14.2693567"><ele>4.333333333333333</ele><time>2026-04-23T14:08:55.776Z</time></trkpt><trkpt lat="40.8461217" lon="14.269465"><ele>5.5</ele><time>2026-04-23T14:08:57.776Z</time></trkpt><trkpt lat="40.8461483" lon="14.2695567"><ele>6.666666666666667</ele><time>2026-04-23T14:08:59.776Z</time></trkpt><trkpt lat="40.84617" lon="14.2696483"><ele>7.833333333333333</ele><time>2026-04-23T14:09:01.776Z</time></trkpt><trkpt lat="40.846195" lon="14.2697517"><ele>9.0</ele><time>2026-04-23T14:09:03.776Z</time></trkpt><trkpt lat="40.8462117" lon="14.26987"><ele>9.4</ele><time>2026-04-23T14:09:05.776Z</time></trkpt><trkpt lat="40.8462167" lon="14.2700033"><ele>9.8</ele><time>2026-04-23T14:09:07.776Z</time></trkpt><trkpt lat="40.8462267" lon="14.2701517"><ele>10.200000000000001</ele><time>2026-04-23T14:09:09.776Z</time></trkpt><trkpt lat="40.846235" lon="14.2702967"><ele>10.600000000000001</ele><time>2026-04-23T14:09:11.777Z</time></trkpt><trkpt lat="40.8462417" lon="14.2704433"><ele>11.0</ele><time>2026-04-23T14:09:13.777Z</time></trkpt><trkpt lat="40.8462517" lon="14.270605"><ele>11.0</ele><time>2026-04-23T14:09:15.775Z</time></trkpt><trkpt lat="40.846265" lon="14.2707717"><ele>11.0</ele><time>2026-04-23T14:09:17.776Z</time></trkpt><trkpt lat="40.84627" lon="14.2708567"><ele>11.0</ele><time>2026-04-23T14:09:18.776Z</time></trkpt><trkpt lat="40.8462767" lon="14.2710117"><ele>11.0</ele><time>2026-04-23T14:09:20.777Z</time></trkpt><trkpt lat="40.84629" lon="14.2711583"><ele>11.0</ele><time>2026-04-23T14:09:22.776Z</time></trkpt><trkpt lat="40.846305" lon="14.2713067"><ele>10.75</ele><time>2026-04-23T14:09:24.776Z</time></trkpt><trkpt lat="40.8463133" lon="14.27146"><ele>10.5</ele><time>2026-04-23T14:09:26.777Z</time></trkpt><trkpt lat="40.846325" lon="14.2716133"><ele>10.25</ele><time>2026-04-23T14:09:28.776Z</time></trkpt><trkpt lat="40.8463333" lon="14.27176"><ele>10.0</ele><time>2026-04-23T14:09:30.777Z</time></trkpt><trkpt lat="40.84634" lon="14.271915"><ele>10.0</ele><time>2026-04-23T14:09:32.784Z</time></trkpt><trkpt lat="40.8463533" lon="14.27206"><ele>10.0</ele><time>2026-04-23T14:09:34.776Z</time></trkpt><trkpt lat="40.846365" lon="14.27221"><ele>10.0</ele><time>2026-04-23T14:09:36.776Z</time></trkpt><trkpt lat="40.8463683" lon="14.272365"><ele>10.0</ele><time>2026-04-23T14:09:38.776Z</time></trkpt><trkpt lat="40.84637" lon="14.2725183"><ele>9.25</ele><time>2026-04-23T14:09:40.776Z</time></trkpt><trkpt lat="40.8463783" lon="14.2726767"><ele>8.5</ele><time>2026-04-23T14:09:42.776Z</time></trkpt><trkpt lat="40.84639" lon="14.2728333"><ele>7.75</ele><time>2026-04-23T14:09:44.775Z</time></trkpt><trkpt lat="40.8464" lon="14.2729917"><ele>7.0</ele><time>2026-04-23T14:09:46.776Z</time></trkpt><trkpt lat="40.8464167" lon="14.2731533"><ele>6.666666666666667</ele><time>2026-04-23T14:09:48.776Z</time></trkpt><trkpt lat="40.8464183" lon="14.2732367"><ele>6.333333333333334</ele><time>2026-04-23T14:09:49.776Z</time></trkpt><trkpt lat="40.846405" lon="14.2733867"><ele>6.0</ele><time>2026-04-23T14:09:51.777Z</time></trkpt><trkpt lat="40.8464067" lon="14.2735467"><ele>5.666666666666667</ele><time>2026-04-23T14:09:53.777Z</time></trkpt><trkpt lat="40.8464217" lon="14.27363"><ele>5.333333333333334</ele><time>2026-04-23T14:09:54.777Z</time></trkpt><trkpt lat="40.846445" lon="14.2737133"><ele>5.0</ele><time>2026-04-23T14:09:55.776Z</time></trkpt><trkpt lat="40.8464617" lon="14.273795"><ele>5.0</ele><time>2026-04-23T14:09:56.776Z</time></trkpt><trkpt lat="40.846475" lon="14.273885"><ele>5.0</ele><time>2026-04-23T14:09:57.776Z</time></trkpt><trkpt lat="40.8464817" lon="14.2739767"><ele>5.0</ele><time>2026-04-23T14:09:58.777Z</time></trkpt><trkpt lat="40.8464883" lon="14.2740733"><ele>5.0</ele><time>2026-04-23T14:09:59.776Z</time></trkpt><trkpt lat="40.8465" lon="14.27417"><ele>5.0</ele><time>2026-04-23T14:10:00.777Z</time></trkpt><trkpt lat="40.8465117" lon="14.274265"><ele>5.0</ele><time>2026-04-23T14:10:01.776Z</time></trkpt><trkpt lat="40.8465217" lon="14.2743633"><ele>5.0</ele><time>2026-04-23T14:10:02.777Z</time></trkpt><trkpt lat="40.8465317" lon="14.2744583"><ele>5.0</ele><time>2026-04-23T14:10:03.775Z</time></trkpt><trkpt lat="40.84654" lon="14.2745517"><ele>5.0</ele><time>2026-04-23T14:10:04.776Z</time></trkpt><trkpt lat="40.8465683" lon="14.2749667"><ele>5.0</ele><time>2026-04-23T14:10:09.775Z</time></trkpt><trkpt lat="40.84657" lon="14.27512"><ele>5.5</ele><time>2026-04-23T14:10:11.776Z</time></trkpt><trkpt lat="40.8465733" lon="14.27526"><ele>6.0</ele><time>2026-04-23T14:10:13.777Z</time></trkpt><trkpt lat="40.84658" lon="14.2754167"><ele>6.5</ele><time>2026-04-23T14:10:15.774Z</time></trkpt><trkpt lat="40.84658" lon="14.2755033"><ele>7.0</ele><time>2026-04-23T14:10:16.777Z</time></trkpt><trkpt lat="40.8465683" lon="14.2755917"><ele>7.499999999999999</ele><time>2026-04-23T14:10:17.775Z</time></trkpt><trkpt lat="40.84657" lon="14.275675"><ele>8.0</ele><time>2026-04-23T14:10:18.776Z</time></trkpt><trkpt lat="40.8465667" lon="14.275845"><ele>8.200000000000001</ele><time>2026-04-23T14:10:20.774Z</time></trkpt><trkpt lat="40.8465633" lon="14.2759383"><ele>8.4</ele><time>2026-04-23T14:10:21.774Z</time></trkpt><trkpt lat="40.8465633" lon="14.276025"><ele>8.600000000000001</ele><time>2026-04-23T14:10:22.775Z</time></trkpt><trkpt lat="40.846565" lon="14.276185"><ele>8.8</ele><time>2026-04-23T14:10:24.775Z</time></trkpt><trkpt lat="40.8465717" lon="14.2763367"><ele>9.0</ele><time>2026-04-23T14:10:26.775Z</time></trkpt><trkpt lat="40.846565" lon="14.2764867"><ele>9.4</ele><time>2026-04-23T14:10:28.774Z</time></trkpt><trkpt lat="40.84657" lon="14.2766317"><ele>9.8</ele><time>2026-04-23T14:10:30.775Z</time></trkpt><trkpt lat="40.8465733" lon="14.2767733"><ele>10.200000000000001</ele><time>2026-04-23T14:10:32.776Z</time></trkpt><trkpt lat="40.84658" lon="14.2769017"><ele>10.600000000000001</ele><time>2026-04-23T14:10:34.779Z</time></trkpt><trkpt lat="40.846585" lon="14.2770417"><ele>11.0</ele><time>2026-04-23T14:10:36.775Z</time></trkpt><trkpt lat="40.8465533" lon="14.2771833"><ele>10.600000000000001</ele><time>2026-04-23T14:10:38.776Z</time></trkpt><trkpt lat="40.8465233" lon="14.27733"><ele>10.200000000000001</ele><time>2026-04-23T14:10:40.776Z</time></trkpt><trkpt lat="40.8464783" lon="14.2774733"><ele>9.8</ele><time>2026-04-23T14:10:42.775Z</time></trkpt><trkpt lat="40.8464483" lon="14.2775467"><ele>9.4</ele><time>2026-04-23T14:10:43.775Z</time></trkpt><trkpt lat="40.8464067" lon="14.2776917"><ele>9.0</ele><time>2026-04-23T14:10:45.774Z</time></trkpt><trkpt lat="40.8463783" lon="14.2778417"><ele>9.000000000000002</ele><time>2026-04-23T14:10:47.775Z</time></trkpt><trkpt lat="40.8463317" lon="14.2779917"><ele>9.0</ele><time>2026-04-23T14:10:49.775Z</time></trkpt><trkpt lat="40.8463033" lon="14.2780667"><ele>9.0</ele><time>2026-04-23T14:10:50.775Z</time></trkpt><trkpt lat="40.8462817" lon="14.2781467"><ele>9.0</ele><time>2026-04-23T14:10:51.776Z</time></trkpt><trkpt lat="40.8462567" lon="14.2782267"><ele>9.0</ele><time>2026-04-23T14:10:52.775Z</time></trkpt><trkpt lat="40.8462317" lon="14.2783067"><ele>9.000000000000002</ele><time>2026-04-23T14:10:53.778Z</time></trkpt><trkpt lat="40.8462117" lon="14.2783867"><ele>9.0</ele><time>2026-04-23T14:10:54.775Z</time></trkpt><trkpt lat="40.8461867" lon="14.2784667"><ele>9.428571428571429</ele><time>2026-04-23T14:10:55.775Z</time></trkpt><trkpt lat="40.8461583" lon="14.2785483"><ele>9.857142857142858</ele><time>2026-04-23T14:10:56.775Z</time></trkpt><trkpt lat="40.84613" lon="14.27863"><ele>10.285714285714285</ele><time>2026-04-23T14:10:57.775Z</time></trkpt><trkpt lat="40.8461" lon="14.27871"><ele>10.714285714285715</ele><time>2026-04-23T14:10:58.775Z</time></trkpt><trkpt lat="40.8460667" lon="14.27879"><ele>11.142857142857142</ele><time>2026-04-23T14:10:59.776Z</time></trkpt><trkpt lat="40.8460333" lon="14.2788683"><ele>11.571428571428571</ele><time>2026-04-23T14:11:00.775Z</time></trkpt><trkpt lat="40.8459983" lon="14.2789433"><ele>12.0</ele><time>2026-04-23T14:11:01.775Z</time></trkpt><trkpt lat="40.8459617" lon="14.279015"><ele>10.999999999999998</ele><time>2026-04-23T14:11:02.777Z</time></trkpt><trkpt lat="40.845925" lon="14.2790867"><ele>10.0</ele><time>2026-04-23T14:11:03.775Z</time></trkpt><trkpt lat="40.84589" lon="14.2791567"><ele>9.0</ele><time>2026-04-23T14:11:04.775Z</time></trkpt><trkpt lat="40.8458583" lon="14.27923"><ele>8.0</ele><time>2026-04-23T14:11:05.775Z</time></trkpt><trkpt lat="40.8458283" lon="14.2793067"><ele>7.0</ele><time>2026-04-23T14:11:06.783Z</time></trkpt><trkpt lat="40.8457983" lon="14.279385"><ele>6.0</ele><time>2026-04-23T14:11:07.775Z</time></trkpt><trkpt lat="40.845765" lon="14.279465"><ele>5.0</ele><time>2026-04-23T14:11:08.775Z</time></trkpt><trkpt lat="40.84573" lon="14.2795467"><ele>5.0</ele><time>2026-04-23T14:11:09.775Z</time></trkpt><trkpt lat="40.8457" lon="14.2796283"><ele>5.0</ele><time>2026-04-23T14:11:10.776Z</time></trkpt><trkpt lat="40.8456733" lon="14.2797117"><ele>5.0</ele><time>2026-04-23T14:11:11.775Z</time></trkpt><trkpt lat="40.8456467" lon="14.279795"><ele>5.0</ele><time>2026-04-23T14:11:12.775Z</time></trkpt><trkpt lat="40.8456117" lon="14.2798683"><ele>5.0</ele><time>2026-04-23T14:11:13.776Z</time></trkpt><trkpt lat="40.8455783" lon="14.2799467"><ele>5.0</ele><time>2026-04-23T14:11:14.775Z</time></trkpt><trkpt lat="40.8455483" lon="14.2800233"><ele>5.0</ele><time>2026-04-23T14:11:15.775Z</time></trkpt><trkpt lat="40.8455183" lon="14.2801"><ele>5.571428571428571</ele><time>2026-04-23T14:11:16.775Z</time></trkpt><trkpt lat="40.8454883" lon="14.2801767"><ele>6.142857142857143</ele><time>2026-04-23T14:11:17.777Z</time></trkpt><trkpt lat="40.845455" lon="14.2802483"><ele>6.714285714285715</ele><time>2026-04-23T14:11:18.777Z</time></trkpt><trkpt lat="40.845415" lon="14.2803167"><ele>7.2857142857142865</ele><time>2026-04-23T14:11:19.776Z</time></trkpt><trkpt lat="40.8453783" lon="14.2803883"><ele>7.857142857142858</ele><time>2026-04-23T14:11:20.775Z</time></trkpt><trkpt lat="40.8453417" lon="14.2804583"><ele>8.428571428571429</ele><time>2026-04-23T14:11:21.784Z</time></trkpt><trkpt lat="40.8452783" lon="14.2805983"><ele>9.0</ele><time>2026-04-23T14:11:23.775Z</time></trkpt><trkpt lat="40.8452117" lon="14.2807367"><ele>9.000000000000002</ele><time>2026-04-23T14:11:25.775Z</time></trkpt><trkpt lat="40.8451783" lon="14.2808083"><ele>9.0</ele><time>2026-04-23T14:11:26.775Z</time></trkpt><trkpt lat="40.8451467" lon="14.2808817"><ele>9.0</ele><time>2026-04-23T14:11:27.778Z</time></trkpt><trkpt lat="40.845115" lon="14.280955"><ele>9.0</ele><time>2026-04-23T14:11:28.775Z</time></trkpt><trkpt lat="40.84508" lon="14.2810283"><ele>9.0</ele><time>2026-04-23T14:11:29.776Z</time></trkpt><trkpt lat="40.8450117" lon="14.28117"><ele>9.000000000000002</ele><time>2026-04-23T14:11:31.776Z</time></trkpt><trkpt lat="40.84498" lon="14.2812433"><ele>9.0</ele><time>2026-04-23T14:11:32.775Z</time></trkpt><trkpt lat="40.8449483" lon="14.2813167"><ele>8.666666666666666</ele><time>2026-04-23T14:11:33.776Z</time></trkpt><trkpt lat="40.8449167" lon="14.2813917"><ele>8.333333333333334</ele><time>2026-04-23T14:11:34.775Z</time></trkpt><trkpt lat="40.8448867" lon="14.2814683"><ele>8.0</ele><time>2026-04-23T14:11:35.776Z</time></trkpt><trkpt lat="40.8448583" lon="14.2815467"><ele>7.666666666666667</ele><time>2026-04-23T14:11:36.775Z</time></trkpt><trkpt lat="40.844805" lon="14.2817033"><ele>7.333333333333334</ele><time>2026-04-23T14:11:38.775Z</time></trkpt><trkpt lat="40.8447733" lon="14.28178"><ele>7.0</ele><time>2026-04-23T14:11:39.775Z</time></trkpt><trkpt lat="40.8447367" lon="14.2818567"><ele>7.0</ele><time>2026-04-23T14:11:40.776Z</time></trkpt><trkpt lat="40.8447017" lon="14.2819367"><ele>7.0</ele><time>2026-04-23T14:11:41.775Z</time></trkpt><trkpt lat="40.8446667" lon="14.282015"><ele>7.0</ele><time>2026-04-23T14:11:42.775Z</time></trkpt><trkpt lat="40.8446333" lon="14.2820917"><ele>7.0</ele><time>2026-04-23T14:11:43.775Z</time></trkpt><trkpt lat="40.8446" lon="14.28217"><ele>7.0</ele><time>2026-04-23T14:11:44.776Z</time></trkpt><trkpt lat="40.84456" lon="14.2822467"><ele>7.0</ele><time>2026-04-23T14:11:45.775Z</time></trkpt><trkpt lat="40.84452" lon="14.2823183"><ele>7.0</ele><time>2026-04-23T14:11:46.777Z</time></trkpt><trkpt lat="40.84448" lon="14.2823867"><ele>7.000000000000001</ele><time>2026-04-23T14:11:47.776Z</time></trkpt><trkpt lat="40.8444433" lon="14.2824567"><ele>7.0</ele><time>2026-04-23T14:11:48.775Z</time></trkpt><trkpt lat="40.8443883" lon="14.28256"><ele>7.0</ele><time>2026-04-23T14:11:50.776Z</time></trkpt><trkpt lat="40.8443183" lon="14.2826067"><ele>7.0</ele><time>2026-04-23T14:11:52.777Z</time></trkpt><trkpt lat="40.8442267" lon="14.2826467"><ele>7.000000000000001</ele><time>2026-04-23T14:11:55.776Z</time></trkpt><trkpt lat="40.8442133" lon="14.28275"><ele>7.0</ele><time>2026-04-23T14:11:58.775Z</time></trkpt><trkpt lat="40.8442433" lon="14.2828383"><ele>7.333333333333334</ele><time>2026-04-23T14:12:00.775Z</time></trkpt><trkpt lat="40.84423" lon="14.2829267"><ele>7.666666666666667</ele><time>2026-04-23T14:12:02.776Z</time></trkpt><trkpt lat="40.8442" lon="14.28302"><ele>8.0</ele><time>2026-04-23T14:12:04.776Z</time></trkpt><trkpt lat="40.8441533" lon="14.2831167"><ele>8.333333333333334</ele><time>2026-04-23T14:12:06.775Z</time></trkpt><trkpt lat="40.844115" lon="14.28322"><ele>8.666666666666666</ele><time>2026-04-23T14:12:08.775Z</time></trkpt><trkpt lat="40.8440867" lon="14.283325"><ele>9.0</ele><time>2026-04-23T14:12:10.776Z</time></trkpt><trkpt lat="40.84406" lon="14.283435"><ele>8.8</ele><time>2026-04-23T14:12:12.776Z</time></trkpt><trkpt lat="40.8440217" lon="14.2835533"><ele>8.600000000000001</ele><time>2026-04-23T14:12:14.775Z</time></trkpt><trkpt lat="40.84398" lon="14.283685"><ele>8.4</ele><time>2026-04-23T14:12:16.776Z</time></trkpt><trkpt lat="40.843915" lon="14.2838183"><ele>8.200000000000001</ele><time>2026-04-23T14:12:18.775Z</time></trkpt><trkpt lat="40.8438433" lon="14.2839467"><ele>8.0</ele><time>2026-04-23T14:12:20.775Z</time></trkpt><trkpt lat="40.8438083" lon="14.2840183"><ele>7.999999999999999</ele><time>2026-04-23T14:12:21.775Z</time></trkpt><trkpt lat="40.843775" lon="14.2840917"><ele>8.0</ele><time>2026-04-23T14:12:22.775Z</time></trkpt><trkpt lat="40.8437433" lon="14.2841667"><ele>8.0</ele><time>2026-04-23T14:12:23.775Z</time></trkpt><trkpt lat="40.8437117" lon="14.2842417"><ele>8.0</ele><time>2026-04-23T14:12:24.776Z</time></trkpt><trkpt lat="40.843675" lon="14.2843133"><ele>7.999999999999999</ele><time>2026-04-23T14:12:25.776Z</time></trkpt><trkpt lat="40.843615" lon="14.284455"><ele>8.0</ele><time>2026-04-23T14:12:27.776Z</time></trkpt><trkpt lat="40.8435683" lon="14.2845967"><ele>8.0</ele><time>2026-04-23T14:12:29.776Z</time></trkpt><trkpt lat="40.8435283" lon="14.284735"><ele>8.0</ele><time>2026-04-23T14:12:31.776Z</time></trkpt><trkpt lat="40.8434833" lon="14.2848933"><ele>8.0</ele><time>2026-04-23T14:12:33.776Z</time></trkpt><trkpt lat="40.8434483" lon="14.2849667"><ele>8.0</ele><time>2026-04-23T14:12:34.775Z</time></trkpt><trkpt lat="40.84341" lon="14.2850333"><ele>8.0</ele><time>2026-04-23T14:12:35.776Z</time></trkpt><trkpt lat="40.8433617" lon="14.285175"><ele>7.499999999999999</ele><time>2026-04-23T14:12:37.776Z</time></trkpt><trkpt lat="40.8433217" lon="14.2853117"><ele>7.0</ele><time>2026-04-23T14:12:39.776Z</time></trkpt><trkpt lat="40.843275" lon="14.2854217"><ele>6.5</ele><time>2026-04-23T14:12:41.776Z</time></trkpt><trkpt lat="40.8432567" lon="14.28551"><ele>6.0</ele><time>2026-04-23T14:12:44.775Z</time></trkpt><trkpt lat="40.8433133" lon="14.28555"><ele>5.5</ele><time>2026-04-23T14:12:50.776Z</time></trkpt><trkpt lat="40.84339" lon="14.2854867"><ele>5.0</ele><time>2026-04-23T14:12:53.776Z</time></trkpt><trkpt lat="40.843455" lon="14.28543"><ele>5.0</ele><time>2026-04-23T14:12:55.776Z</time></trkpt><trkpt lat="40.8435367" lon="14.2854267"><ele>5.0</ele><time>2026-04-23T14:12:57.777Z</time></trkpt><trkpt lat="40.8436183" lon="14.2854817"><ele>5.0</ele><time>2026-04-23T14:12:59.777Z</time></trkpt><trkpt lat="40.84371" lon="14.285555"><ele>5.0</ele><time>2026-04-23T14:13:01.776Z</time></trkpt><trkpt lat="40.8438083" lon="14.2856417"><ele>5.0</ele><time>2026-04-23T14:13:03.776Z</time></trkpt><trkpt lat="40.8438983" lon="14.2857133"><ele>5.2</ele><time>2026-04-23T14:13:05.776Z</time></trkpt><trkpt lat="40.8440067" lon="14.2857883"><ele>5.4</ele><time>2026-04-23T14:13:07.776Z</time></trkpt><trkpt lat="40.8440667" lon="14.2858283"><ele>5.6</ele><time>2026-04-23T14:13:08.777Z</time></trkpt><trkpt lat="40.8441567" lon="14.2859117"><ele>5.8</ele><time>2026-04-23T14:13:10.775Z</time></trkpt><trkpt lat="40.84427" lon="14.2859783"><ele>6.0</ele><time>2026-04-23T14:13:12.78Z</time></trkpt><trkpt lat="40.8443267" lon="14.2860183"><ele>6.0</ele><time>2026-04-23T14:13:13.775Z</time></trkpt><trkpt lat="40.8443867" lon="14.28606"><ele>6.0</ele><time>2026-04-23T14:13:14.777Z</time></trkpt><trkpt lat="40.844445" lon="14.2861"><ele>6.0</ele><time>2026-04-23T14:13:15.777Z</time></trkpt><trkpt lat="40.844505" lon="14.2861417"><ele>6.0</ele><time>2026-04-23T14:13:16.776Z</time></trkpt><trkpt lat="40.8445633" lon="14.2861933"><ele>6.0</ele><time>2026-04-23T14:13:17.777Z</time></trkpt><trkpt lat="40.8446217" lon="14.286235"><ele>6.0</ele><time>2026-04-23T14:13:18.776Z</time></trkpt><trkpt lat="40.8447367" lon="14.286305"><ele>6.0</ele><time>2026-04-23T14:13:20.775Z</time></trkpt><trkpt lat="40.8448533" lon="14.286365"><ele>6.0</ele><time>2026-04-23T14:13:22.775Z</time></trkpt><trkpt lat="40.8449633" lon="14.2864317"><ele>6.0</ele><time>2026-04-23T14:13:24.775Z</time></trkpt><trkpt lat="40.84502" lon="14.2864683"><ele>6.0</ele><time>2026-04-23T14:13:25.776Z</time></trkpt><trkpt lat="40.845125" lon="14.2865483"><ele>6.0</ele><time>2026-04-23T14:13:27.775Z</time></trkpt><trkpt lat="40.8452367" lon="14.2866167"><ele>6.0</ele><time>2026-04-23T14:13:29.776Z</time></trkpt><trkpt lat="40.8452933" lon="14.2866533"><ele>6.0</ele><time>2026-04-23T14:13:30.775Z</time></trkpt><trkpt lat="40.8454033" lon="14.2867267"><ele>6.0</ele><time>2026-04-23T14:13:32.775Z</time></trkpt><trkpt lat="40.845515" lon="14.2867967"><ele>6.0</ele><time>2026-04-23T14:13:34.775Z</time></trkpt><trkpt lat="40.8456183" lon="14.2868717"><ele>6.0</ele><time>2026-04-23T14:13:36.777Z</time></trkpt><trkpt lat="40.845715" lon="14.2869467"><ele>6.0</ele><time>2026-04-23T14:13:38.775Z</time></trkpt><trkpt lat="40.8458167" lon="14.2870317"><ele>6.0</ele><time>2026-04-23T14:13:40.776Z</time></trkpt><trkpt lat="40.845925" lon="14.2871083"><ele>6.0</ele><time>2026-04-23T14:13:42.775Z</time></trkpt><trkpt lat="40.8459833" lon="14.28715"><ele>6.0</ele><time>2026-04-23T14:13:43.775Z</time></trkpt><trkpt lat="40.8460883" lon="14.2872233"><ele>6.0</ele><time>2026-04-23T14:13:45.776Z</time></trkpt><trkpt lat="40.8461883" lon="14.2872967"><ele>5.7142857142857135</ele><time>2026-04-23T14:13:47.777Z</time></trkpt><trkpt lat="40.8462533" lon="14.287325"><ele>5.428571428571429</ele><time>2026-04-23T14:13:48.776Z</time></trkpt><trkpt lat="40.8463267" lon="14.28734"><ele>5.142857142857142</ele><time>2026-04-23T14:13:49.776Z</time></trkpt><trkpt lat="40.8463883" lon="14.2873817"><ele>4.857142857142857</ele><time>2026-04-23T14:13:50.776Z</time></trkpt><trkpt lat="40.8464533" lon="14.2874317"><ele>4.571428571428571</ele><time>2026-04-23T14:13:51.776Z</time></trkpt><trkpt lat="40.84652" lon="14.287475"><ele>4.285714285714286</ele><time>2026-04-23T14:13:52.775Z</time></trkpt><trkpt lat="40.84659" lon="14.2875167"><ele>4.0</ele><time>2026-04-23T14:13:53.775Z</time></trkpt><trkpt lat="40.8466583" lon="14.2875567"><ele>4.0</ele><time>2026-04-23T14:13:54.775Z</time></trkpt><trkpt lat="40.8467283" lon="14.2876017"><ele>3.9999999999999996</ele><time>2026-04-23T14:13:55.776Z</time></trkpt><trkpt lat="40.8467917" lon="14.2876367"><ele>4.0</ele><time>2026-04-23T14:13:56.778Z</time></trkpt><trkpt lat="40.8468567" lon="14.28768"><ele>4.0</ele><time>2026-04-23T14:13:57.776Z</time></trkpt><trkpt lat="40.846925" lon="14.2877167"><ele>3.9999999999999996</ele><time>2026-04-23T14:13:58.775Z</time></trkpt><trkpt lat="40.8469967" lon="14.2877633"><ele>4.0</ele><time>2026-04-23T14:13:59.775Z</time></trkpt><trkpt lat="40.8470583" lon="14.2878117"><ele>4.0</ele><time>2026-04-23T14:14:00.776Z</time></trkpt><trkpt lat="40.8471167" lon="14.2878583"><ele>4.2</ele><time>2026-04-23T14:14:01.776Z</time></trkpt><trkpt lat="40.8471733" lon="14.2879033"><ele>4.4</ele><time>2026-04-23T14:14:02.777Z</time></trkpt><trkpt lat="40.8472283" lon="14.2879467"><ele>4.6</ele><time>2026-04-23T14:14:03.775Z</time></trkpt><trkpt lat="40.847335" lon="14.2880367"><ele>4.8</ele><time>2026-04-23T14:14:05.776Z</time></trkpt><trkpt lat="40.8474433" lon="14.2881017"><ele>5.0</ele><time>2026-04-23T14:14:07.779Z</time></trkpt><trkpt lat="40.8475533" lon="14.288155"><ele>4.8</ele><time>2026-04-23T14:14:09.775Z</time></trkpt><trkpt lat="40.8476683" lon="14.2882183"><ele>4.6</ele><time>2026-04-23T14:14:11.775Z</time></trkpt><trkpt lat="40.8477283" lon="14.28825"><ele>4.4</ele><time>2026-04-23T14:14:12.776Z</time></trkpt><trkpt lat="40.8478317" lon="14.288335"><ele>4.2</ele><time>2026-04-23T14:14:14.777Z</time></trkpt><trkpt lat="40.8479467" lon="14.2883983"><ele>4.0</ele><time>2026-04-23T14:14:16.776Z</time></trkpt><trkpt lat="40.8480083" lon="14.2884383"><ele>4.0</ele><time>2026-04-23T14:14:17.778Z</time></trkpt><trkpt lat="40.84807" lon="14.28847"><ele>3.9999999999999996</ele><time>2026-04-23T14:14:18.776Z</time></trkpt><trkpt lat="40.8481333" lon="14.288505"><ele>4.0</ele><time>2026-04-23T14:14:19.776Z</time></trkpt><trkpt lat="40.848195" lon="14.28854"><ele>4.0</ele><time>2026-04-23T14:14:20.775Z</time></trkpt><trkpt lat="40.84826" lon="14.2885783"><ele>3.9999999999999996</ele><time>2026-04-23T14:14:21.775Z</time></trkpt><trkpt lat="40.848325" lon="14.2886133"><ele>4.0</ele><time>2026-04-23T14:14:22.777Z</time></trkpt><trkpt lat="40.8483917" lon="14.2886467"><ele>4.0</ele><time>2026-04-23T14:14:23.776Z</time></trkpt><trkpt lat="40.8484567" lon="14.2886783"><ele>4.142857142857142</ele><time>2026-04-23T14:14:24.775Z</time></trkpt><trkpt lat="40.8485183" lon="14.288705"><ele>4.285714285714286</ele><time>2026-04-23T14:14:25.776Z</time></trkpt><trkpt lat="40.84858" lon="14.2887367"><ele>4.428571428571429</ele><time>2026-04-23T14:14:26.775Z</time></trkpt><trkpt lat="40.8486467" lon="14.28876"><ele>4.571428571428571</ele><time>2026-04-23T14:14:27.775Z</time></trkpt><trkpt lat="40.8487133" lon="14.2887867"><ele>4.714285714285714</ele><time>2026-04-23T14:14:28.776Z</time></trkpt><trkpt lat="40.8487767" lon="14.2888183"><ele>4.857142857142857</ele><time>2026-04-23T14:14:29.776Z</time></trkpt><trkpt lat="40.8488367" lon="14.2888617"><ele>5.0</ele><time>2026-04-23T14:14:30.776Z</time></trkpt><trkpt lat="40.8488983" lon="14.2888967"><ele>4.833333333333334</ele><time>2026-04-23T14:14:31.777Z</time></trkpt><trkpt lat="40.8489567" lon="14.2889383"><ele>4.666666666666667</ele><time>2026-04-23T14:14:32.776Z</time></trkpt><trkpt lat="40.8490133" lon="14.288975"><ele>4.5</ele><time>2026-04-23T14:14:33.776Z</time></trkpt><trkpt lat="40.8491267" lon="14.2890567"><ele>4.333333333333333</ele><time>2026-04-23T14:14:35.776Z</time></trkpt><trkpt lat="40.8491867" lon="14.28909"><ele>4.166666666666666</ele><time>2026-04-23T14:14:36.776Z</time></trkpt><trkpt lat="40.8492933" lon="14.28915"><ele>4.0</ele><time>2026-04-23T14:14:38.776Z</time></trkpt><trkpt lat="40.8493933" lon="14.2891933"><ele>3.4000000000000004</ele><time>2026-04-23T14:14:40.775Z</time></trkpt><trkpt lat="40.849495" lon="14.2892517"><ele>2.8000000000000003</ele><time>2026-04-23T14:14:42.776Z</time></trkpt><trkpt lat="40.8495917" lon="14.2893117"><ele>2.2</ele><time>2026-04-23T14:14:44.781Z</time></trkpt><trkpt lat="40.8496517" lon="14.2894167"><ele>1.6</ele><time>2026-04-23T14:14:46.775Z</time></trkpt><trkpt lat="40.8497117" lon="14.2895283"><ele>1.0</ele><time>2026-04-23T14:14:48.78Z</time></trkpt><trkpt lat="40.849815" lon="14.2895633"><ele>1.0</ele><time>2026-04-23T14:14:50.777Z</time></trkpt><trkpt lat="40.8499183" lon="14.289535"><ele>1.0</ele><time>2026-04-23T14:14:52.776Z</time></trkpt><trkpt lat="40.8500067" lon="14.289465"><ele>1.0</ele><time>2026-04-23T14:14:54.774Z</time></trkpt><trkpt lat="40.8501" lon="14.28941"><ele>1.0</ele><time>2026-04-23T14:14:56.776Z</time></trkpt><trkpt lat="40.8501983" lon="14.2893833"><ele>1.0</ele><time>2026-04-23T14:14:58.775Z</time></trkpt><trkpt lat="40.8502983" lon="14.2893567"><ele>1.0</ele><time>2026-04-23T14:15:00.774Z</time></trkpt><trkpt lat="40.850405" lon="14.2893167"><ele>1.0</ele><time>2026-04-23T14:15:02.776Z</time></trkpt><trkpt lat="40.8505167" lon="14.289295"><ele>1.0</ele><time>2026-04-23T14:15:04.776Z</time></trkpt><trkpt lat="40.850635" lon="14.28927"><ele>1.0</ele><time>2026-04-23T14:15:06.776Z</time></trkpt><trkpt lat="40.8507533" lon="14.2892483"><ele>1.0</ele><time>2026-04-23T14:15:08.775Z</time></trkpt><trkpt lat="40.8508733" lon="14.2892367"><ele>1.0</ele><time>2026-04-23T14:15:10.775Z</time></trkpt><trkpt lat="40.8509917" lon="14.2892117"><ele>1.0</ele><time>2026-04-23T14:15:12.775Z</time></trkpt><trkpt lat="40.85111" lon="14.289205"><ele>1.0</ele><time>2026-04-23T14:15:14.775Z</time></trkpt><trkpt lat="40.8512183" lon="14.2891817"><ele>1.6</ele><time>2026-04-23T14:15:16.775Z</time></trkpt><trkpt lat="40.8513233" lon="14.2891583"><ele>2.2</ele><time>2026-04-23T14:15:18.775Z</time></trkpt><trkpt lat="40.8514333" lon="14.2891367"><ele>2.8000000000000003</ele><time>2026-04-23T14:15:20.776Z</time></trkpt><trkpt lat="40.8515467" lon="14.28913"><ele>3.4000000000000004</ele><time>2026-04-23T14:15:22.775Z</time></trkpt><trkpt lat="40.85166" lon="14.2891433"><ele>4.0</ele><time>2026-04-23T14:15:24.775Z</time></trkpt><trkpt lat="40.8517767" lon="14.2891283"><ele>4.4</ele><time>2026-04-23T14:15:26.775Z</time></trkpt><trkpt lat="40.85189" lon="14.28911"><ele>4.800000000000001</ele><time>2026-04-23T14:15:28.777Z</time></trkpt><trkpt lat="40.8519967" lon="14.2890983"><ele>5.199999999999999</ele><time>2026-04-23T14:15:30.776Z</time></trkpt><trkpt lat="40.8520983" lon="14.2890867"><ele>5.6</ele><time>2026-04-23T14:15:32.778Z</time></trkpt><trkpt lat="40.85219" lon="14.2890683"><ele>6.0</ele><time>2026-04-23T14:15:34.776Z</time></trkpt><trkpt lat="40.8522733" lon="14.289055"><ele>6.0</ele><time>2026-04-23T14:15:36.776Z</time></trkpt><trkpt lat="40.85236" lon="14.2890433"><ele>6.0</ele><time>2026-04-23T14:15:38.776Z</time></trkpt><trkpt lat="40.8524567" lon="14.2890333"><ele>6.0</ele><time>2026-04-23T14:15:40.775Z</time></trkpt><trkpt lat="40.8525483" lon="14.2890183"><ele>6.0</ele><time>2026-04-23T14:15:42.775Z</time></trkpt><trkpt lat="40.8526333" lon="14.289005"><ele>6.0</ele><time>2026-04-23T14:15:44.775Z</time></trkpt><trkpt lat="40.8527183" lon="14.2889917"><ele>6.0</ele><time>2026-04-23T14:15:46.776Z</time></trkpt><trkpt lat="40.8528117" lon="14.2889833"><ele>6.0</ele><time>2026-04-23T14:15:48.777Z</time></trkpt><trkpt lat="40.852915" lon="14.2889783"><ele>6.0</ele><time>2026-04-23T14:15:50.777Z</time></trkpt><trkpt lat="40.8530083" lon="14.2889683"><ele>6.0</ele><time>2026-04-23T14:15:52.776Z</time></trkpt><trkpt lat="40.8531183" lon="14.2889567"><ele>6.0</ele><time>2026-04-23T14:15:54.777Z</time></trkpt><trkpt lat="40.8531833" lon="14.2889433"><ele>6.0</ele><time>2026-04-23T14:15:55.777Z</time></trkpt><trkpt lat="40.8532517" lon="14.2889267"><ele>6.0</ele><time>2026-04-23T14:15:56.777Z</time></trkpt><trkpt lat="40.8533183" lon="14.2889083"><ele>5.8</ele><time>2026-04-23T14:15:57.776Z</time></trkpt><trkpt lat="40.853425" lon="14.2888833"><ele>5.6</ele><time>2026-04-23T14:15:59.777Z</time></trkpt><trkpt lat="40.8535133" lon="14.2888667"><ele>5.4</ele><time>2026-04-23T14:16:01.778Z</time></trkpt><trkpt lat="40.8536033" lon="14.288845"><ele>5.2</ele><time>2026-04-23T14:16:03.776Z</time></trkpt><trkpt lat="40.8536933" lon="14.28882"><ele>5.0</ele><time>2026-04-23T14:16:05.776Z</time></trkpt><trkpt lat="40.853785" lon="14.2888083"><ele>5.6</ele><time>2026-04-23T14:16:07.78Z</time></trkpt><trkpt lat="40.8539" lon="14.288805"><ele>6.2</ele><time>2026-04-23T14:16:09.777Z</time></trkpt><trkpt lat="40.8539667" lon="14.2888"><ele>6.800000000000001</ele><time>2026-04-23T14:16:10.776Z</time></trkpt><trkpt lat="40.8540317" lon="14.2887983"><ele>7.4</ele><time>2026-04-23T14:16:11.777Z</time></trkpt><trkpt lat="40.85416" lon="14.288795"><ele>8.0</ele><time>2026-04-23T14:16:13.776Z</time></trkpt><trkpt lat="40.8550283" lon="14.288665"><ele>8.0</ele><time>2026-04-23T14:16:28.781Z</time></trkpt><trkpt lat="40.8551033" lon="14.28868"><ele>8.0</ele><time>2026-04-23T14:16:30.776Z</time></trkpt><trkpt lat="40.8552017" lon="14.2886383"><ele>8.0</ele><time>2026-04-23T14:16:32.775Z</time></trkpt><trkpt lat="40.8552883" lon="14.2885917"><ele>8.0</ele><time>2026-04-23T14:16:34.776Z</time></trkpt><trkpt lat="40.8553833" lon="14.28856"><ele>8.0</ele><time>2026-04-23T14:16:36.776Z</time></trkpt><trkpt lat="40.85548" lon="14.2885433"><ele>7.800000000000001</ele><time>2026-04-23T14:16:38.778Z</time></trkpt><trkpt lat="40.855585" lon="14.28851"><ele>7.6000000000000005</ele><time>2026-04-23T14:16:40.777Z</time></trkpt><trkpt lat="40.8556933" lon="14.288485"><ele>7.3999999999999995</ele><time>2026-04-23T14:16:42.776Z</time></trkpt><trkpt lat="40.855795" lon="14.2884717"><ele>7.199999999999999</ele><time>2026-04-23T14:16:44.778Z</time></trkpt><trkpt lat="40.85588" lon="14.28849"><ele>7.0</ele><time>2026-04-23T14:16:46.776Z</time></trkpt><trkpt lat="40.855975" lon="14.28847"><ele>7.0</ele><time>2026-04-23T14:16:48.777Z</time></trkpt><trkpt lat="40.85606" lon="14.28842"><ele>6.999999999999999</ele><time>2026-04-23T14:16:50.777Z</time></trkpt><trkpt lat="40.8561483" lon="14.288365"><ele>6.999999999999999</ele><time>2026-04-23T14:16:52.776Z</time></trkpt><trkpt lat="40.8562567" lon="14.2883283"><ele>7.0</ele><time>2026-04-23T14:16:54.776Z</time></trkpt><trkpt lat="40.8563667" lon="14.2883067"><ele>7.0</ele><time>2026-04-23T14:16:56.777Z</time></trkpt><trkpt lat="40.8564783" lon="14.2882783"><ele>7.0</ele><time>2026-04-23T14:16:58.776Z</time></trkpt><trkpt lat="40.8565883" lon="14.288245"><ele>7.0</ele><time>2026-04-23T14:17:00.775Z</time></trkpt><trkpt lat="40.8567033" lon="14.2882267"><ele>7.0</ele><time>2026-04-23T14:17:02.776Z</time></trkpt><trkpt lat="40.85682" lon="14.28822"><ele>7.0</ele><time>2026-04-23T14:17:04.776Z</time></trkpt><trkpt lat="40.8569383" lon="14.288215"><ele>6.6</ele><time>2026-04-23T14:17:06.778Z</time></trkpt><trkpt lat="40.8570017" lon="14.28821"><ele>6.199999999999999</ele><time>2026-04-23T14:17:07.775Z</time></trkpt><trkpt lat="40.8571233" lon="14.2882"><ele>5.8</ele><time>2026-04-23T14:17:09.775Z</time></trkpt><trkpt lat="40.85725" lon="14.2881783"><ele>5.4</ele><time>2026-04-23T14:17:11.778Z</time></trkpt><trkpt lat="40.8573167" lon="14.2881667"><ele>5.0</ele><time>2026-04-23T14:17:12.775Z</time></trkpt><trkpt lat="40.85739" lon="14.2881533"><ele>5.0</ele><time>2026-04-23T14:17:13.776Z</time></trkpt><trkpt lat="40.857465" lon="14.28814"><ele>5.0</ele><time>2026-04-23T14:17:14.781Z</time></trkpt><trkpt lat="40.8576183" lon="14.2881133"><ele>5.0</ele><time>2026-04-23T14:17:16.775Z</time></trkpt><trkpt lat="40.8576983" lon="14.2881"><ele>5.0</ele><time>2026-04-23T14:17:17.776Z</time></trkpt><trkpt lat="40.8577817" lon="14.2880833"><ele>5.0</ele><time>2026-04-23T14:17:18.777Z</time></trkpt><trkpt lat="40.8578683" lon="14.2880733"><ele>4.857142857142857</ele><time>2026-04-23T14:17:19.776Z</time></trkpt><trkpt lat="40.8579483" lon="14.28808"><ele>4.714285714285714</ele><time>2026-04-23T14:17:20.775Z</time></trkpt><trkpt lat="40.8580217" lon="14.2880783"><ele>4.571428571428571</ele><time>2026-04-23T14:17:21.777Z</time></trkpt><trkpt lat="40.8580933" lon="14.2880717"><ele>4.428571428571429</ele><time>2026-04-23T14:17:22.778Z</time></trkpt><trkpt lat="40.8581633" lon="14.28807"><ele>4.285714285714286</ele><time>2026-04-23T14:17:23.776Z</time></trkpt><trkpt lat="40.8582317" lon="14.2880617"><ele>4.142857142857142</ele><time>2026-04-23T14:17:24.778Z</time></trkpt><trkpt lat="40.858295" lon="14.2880733"><ele>4.0</ele><time>2026-04-23T14:17:25.777Z</time></trkpt><trkpt lat="40.8583917" lon="14.288125"><ele>4.333333333333333</ele><time>2026-04-23T14:17:27.776Z</time></trkpt><trkpt lat="40.85843" lon="14.2882417"><ele>4.666666666666666</ele><time>2026-04-23T14:17:29.776Z</time></trkpt><trkpt lat="40.8584133" lon="14.28837"><ele>5.0</ele><time>2026-04-23T14:17:31.778Z</time></trkpt><trkpt lat="40.8584183" lon="14.2884733"><ele>5.333333333333333</ele><time>2026-04-23T14:17:33.778Z</time></trkpt><trkpt lat="40.85843" lon="14.2885867"><ele>5.666666666666667</ele><time>2026-04-23T14:17:35.777Z</time></trkpt><trkpt lat="40.8584517" lon="14.2887017"><ele>6.0</ele><time>2026-04-23T14:17:37.777Z</time></trkpt><trkpt lat="40.8584633" lon="14.2888217"><ele>5.3999999999999995</ele><time>2026-04-23T14:17:39.778Z</time></trkpt><trkpt lat="40.8584533" lon="14.2889317"><ele>4.8</ele><time>2026-04-23T14:17:41.775Z</time></trkpt><trkpt lat="40.85849" lon="14.289065"><ele>4.199999999999999</ele><time>2026-04-23T14:17:43.777Z</time></trkpt><trkpt lat="40.85848" lon="14.2891817"><ele>3.5999999999999996</ele><time>2026-04-23T14:17:45.777Z</time></trkpt><trkpt lat="40.8584933" lon="14.2892867"><ele>3.0</ele><time>2026-04-23T14:17:47.775Z</time></trkpt><trkpt lat="40.8585033" lon="14.28941"><ele>3.0</ele><time>2026-04-23T14:17:49.778Z</time></trkpt><trkpt lat="40.8585267" lon="14.2895383"><ele>3.0</ele><time>2026-04-23T14:17:51.778Z</time></trkpt><trkpt lat="40.8585417" lon="14.2896783"><ele>3.0</ele><time>2026-04-23T14:17:53.775Z</time></trkpt><trkpt lat="40.8585567" lon="14.28981"><ele>3.0</ele><time>2026-04-23T14:17:55.778Z</time></trkpt><trkpt lat="40.85857" lon="14.2899117"><ele>3.0</ele><time>2026-04-23T14:17:57.776Z</time></trkpt><trkpt lat="40.8585717" lon="14.2900217"><ele>2.6666666666666665</ele><time>2026-04-23T14:17:59.776Z</time></trkpt><trkpt lat="40.85857" lon="14.2901183"><ele>2.3333333333333335</ele><time>2026-04-23T14:18:01.776Z</time></trkpt><trkpt lat="40.85858" lon="14.2902167"><ele>2.0</ele><time>2026-04-23T14:18:03.776Z</time></trkpt><trkpt lat="40.8585817" lon="14.2903033"><ele>1.6666666666666665</ele><time>2026-04-23T14:18:05.778Z</time></trkpt><trkpt lat="40.85856" lon="14.2904283"><ele>1.3333333333333333</ele><time>2026-04-23T14:18:08.785Z</time></trkpt><trkpt lat="40.8585417" lon="14.2905233"><ele>1.0</ele><time>2026-04-23T14:18:10.776Z</time></trkpt><trkpt lat="40.8585167" lon="14.29063"><ele>1.0</ele><time>2026-04-23T14:18:12.775Z</time></trkpt><trkpt lat="40.8585067" lon="14.2907333"><ele>1.0</ele><time>2026-04-23T14:18:14.778Z</time></trkpt><trkpt lat="40.8585033" lon="14.2908583"><ele>1.0</ele><time>2026-04-23T14:18:16.776Z</time></trkpt><trkpt lat="40.8585133" lon="14.290965"><ele>1.0</ele><time>2026-04-23T14:18:18.775Z</time></trkpt><trkpt lat="40.8585233" lon="14.2911067"><ele>1.0</ele><time>2026-04-23T14:18:20.776Z</time></trkpt><trkpt lat="40.858535" lon="14.2912467"><ele>1.0</ele><time>2026-04-23T14:18:22.78Z</time></trkpt><trkpt lat="40.8585483" lon="14.29139"><ele>1.0</ele><time>2026-04-23T14:18:24.78Z</time></trkpt><trkpt lat="40.8585683" lon="14.2915233"><ele>1.0</ele><time>2026-04-23T14:18:26.775Z</time></trkpt><trkpt lat="40.858595" lon="14.2916533"><ele>1.0</ele><time>2026-04-23T14:18:28.777Z</time></trkpt><trkpt lat="40.8586367" lon="14.29176"><ele>1.0</ele><time>2026-04-23T14:18:30.776Z</time></trkpt><trkpt lat="40.858705" lon="14.2918017"><ele>1.5</ele><time>2026-04-23T14:18:32.778Z</time></trkpt><trkpt lat="40.8587783" lon="14.291815"><ele>2.0</ele><time>2026-04-23T14:18:34.776Z</time></trkpt><trkpt lat="40.8588367" lon="14.2918783"><ele>2.5</ele><time>2026-04-23T14:18:36.776Z</time></trkpt><trkpt lat="40.8588883" lon="14.2919783"><ele>3.0</ele><time>2026-04-23T14:18:38.775Z</time></trkpt><trkpt lat="40.8589133" lon="14.2921"><ele>3.4999999999999996</ele><time>2026-04-23T14:18:40.777Z</time></trkpt><trkpt lat="40.85894" lon="14.2921967"><ele>4.0</ele><time>2026-04-23T14:18:42.775Z</time></trkpt><trkpt lat="40.8589767" lon="14.292315"><ele>4.285714285714286</ele><time>2026-04-23T14:18:45.776Z</time></trkpt><trkpt lat="40.8589967" lon="14.292425"><ele>4.571428571428571</ele><time>2026-04-23T14:18:47.777Z</time></trkpt><trkpt lat="40.859025" lon="14.292525"><ele>4.857142857142857</ele><time>2026-04-23T14:18:49.775Z</time></trkpt><trkpt lat="40.8590417" lon="14.2926133"><ele>5.142857142857142</ele><time>2026-04-23T14:18:51.775Z</time></trkpt><trkpt lat="40.8590617" lon="14.292695"><ele>5.428571428571429</ele><time>2026-04-23T14:18:53.777Z</time></trkpt><trkpt lat="40.85909" lon="14.29279"><ele>5.7142857142857135</ele><time>2026-04-23T14:18:55.776Z</time></trkpt><trkpt lat="40.85915" lon="14.2928383"><ele>6.0</ele><time>2026-04-23T14:18:59.777Z</time></trkpt><trkpt lat="40.8592383" lon="14.292815"><ele>6.0</ele><time>2026-04-23T14:19:03.778Z</time></trkpt><trkpt lat="40.8593017" lon="14.29281"><ele>6.0</ele><time>2026-04-23T14:19:05.778Z</time></trkpt><trkpt lat="40.8593683" lon="14.2928183"><ele>6.0</ele><time>2026-04-23T14:19:07.776Z</time></trkpt><trkpt lat="40.8594567" lon="14.292865"><ele>6.0</ele><time>2026-04-23T14:19:09.777Z</time></trkpt><trkpt lat="40.8595383" lon="14.2928483"><ele>6.0</ele><time>2026-04-23T14:19:11.776Z</time></trkpt><trkpt lat="40.85964" lon="14.292835"><ele>6.0</ele><time>2026-04-23T14:19:13.775Z</time></trkpt><trkpt lat="40.8597417" lon="14.2928083"><ele>6.0</ele><time>2026-04-23T14:19:15.776Z</time></trkpt><trkpt lat="40.85985" lon="14.2927917"><ele>6.0</ele><time>2026-04-23T14:19:17.776Z</time></trkpt><trkpt lat="40.8599133" lon="14.2927817"><ele>6.0</ele><time>2026-04-23T14:19:18.775Z</time></trkpt><trkpt lat="40.86003" lon="14.29277"><ele>6.0</ele><time>2026-04-23T14:19:20.776Z</time></trkpt><trkpt lat="40.8601433" lon="14.29275"><ele>6.0</ele><time>2026-04-23T14:19:22.775Z</time></trkpt><trkpt lat="40.8602633" lon="14.2927233"><ele>5.2</ele><time>2026-04-23T14:19:24.775Z</time></trkpt><trkpt lat="40.8603833" lon="14.292705"><ele>4.3999999999999995</ele><time>2026-04-23T14:19:26.779Z</time></trkpt><trkpt lat="40.8604933" lon="14.29269"><ele>3.6</ele><time>2026-04-23T14:19:28.777Z</time></trkpt><trkpt lat="40.8605883" lon="14.2926783"><ele>2.8</ele><time>2026-04-23T14:19:30.776Z</time></trkpt><trkpt lat="40.8606817" lon="14.2926583"><ele>2.0</ele><time>2026-04-23T14:19:32.779Z</time></trkpt><trkpt lat="40.860785" lon="14.2926417"><ele>1.9999999999999998</ele><time>2026-04-23T14:19:34.776Z</time></trkpt><trkpt lat="40.8609117" lon="14.29263"><ele>2.0</ele><time>2026-04-23T14:19:36.779Z</time></trkpt><trkpt lat="40.8609767" lon="14.2926267"><ele>2.0</ele><time>2026-04-23T14:19:37.775Z</time></trkpt><trkpt lat="40.8610467" lon="14.2926217"><ele>2.0</ele><time>2026-04-23T14:19:38.78Z</time></trkpt><trkpt lat="40.861115" lon="14.292615"><ele>1.9999999999999998</ele><time>2026-04-23T14:19:39.776Z</time></trkpt><trkpt lat="40.8611817" lon="14.2926083"><ele>2.0</ele><time>2026-04-23T14:19:40.776Z</time></trkpt><trkpt lat="40.8612483" lon="14.2926033"><ele>1.8</ele><time>2026-04-23T14:19:41.778Z</time></trkpt><trkpt lat="40.861315" lon="14.2926"><ele>1.6</ele><time>2026-04-23T14:19:42.779Z</time></trkpt><trkpt lat="40.8613783" lon="14.2925933"><ele>1.4000000000000001</ele><time>2026-04-23T14:19:43.776Z</time></trkpt><trkpt lat="40.8615033" lon="14.2925783"><ele>1.2000000000000002</ele><time>2026-04-23T14:19:45.78Z</time></trkpt><trkpt lat="40.8616217" lon="14.29256"><ele>1.0</ele><time>2026-04-23T14:19:47.782Z</time></trkpt><trkpt lat="40.861735" lon="14.2925583"><ele>0.75</ele><time>2026-04-23T14:19:49.777Z</time></trkpt><trkpt lat="40.8618483" lon="14.2925567"><ele>0.5</ele><time>2026-04-23T14:19:51.776Z</time></trkpt><trkpt lat="40.8619667" lon="14.2925433"><ele>0.25</ele><time>2026-04-23T14:19:53.775Z</time></trkpt><trkpt lat="40.86208" lon="14.29253"><ele>0.0</ele><time>2026-04-23T14:19:55.776Z</time></trkpt><trkpt lat="40.8621883" lon="14.2925233"><ele>0.0</ele><time>2026-04-23T14:19:57.777Z</time></trkpt><trkpt lat="40.8622867" lon="14.2924817"><ele>0.0</ele><time>2026-04-23T14:19:59.776Z</time></trkpt><trkpt lat="40.8623683" lon="14.292425"><ele>0.0</ele><time>2026-04-23T14:20:01.777Z</time></trkpt><trkpt lat="40.8624433" lon="14.2924383"><ele>0.0</ele><time>2026-04-23T14:20:03.776Z</time></trkpt><trkpt lat="40.8624833" lon="14.2925583"><ele>0.0</ele><time>2026-04-23T14:20:05.775Z</time></trkpt><trkpt lat="40.86254" lon="14.2926817"><ele>0.0</ele><time>2026-04-23T14:20:07.779Z</time></trkpt><trkpt lat="40.8626117" lon="14.2928083"><ele>0.0</ele><time>2026-04-23T14:20:09.776Z</time></trkpt><trkpt lat="40.8627017" lon="14.29293"><ele>0.0</ele><time>2026-04-23T14:20:11.777Z</time></trkpt><trkpt lat="40.862795" lon="14.2930467"><ele>0.0</ele><time>2026-04-23T14:20:13.776Z</time></trkpt><trkpt lat="40.862835" lon="14.2931117"><ele>0.0</ele><time>2026-04-23T14:20:14.776Z</time></trkpt><trkpt lat="40.8628733" lon="14.2931783"><ele>1.0</ele><time>2026-04-23T14:20:15.776Z</time></trkpt><trkpt lat="40.8629467" lon="14.2933033"><ele>2.0</ele><time>2026-04-23T14:20:17.776Z</time></trkpt><trkpt lat="40.8630183" lon="14.2934317"><ele>3.0</ele><time>2026-04-23T14:20:19.779Z</time></trkpt><trkpt lat="40.8630883" lon="14.293555"><ele>4.0</ele><time>2026-04-23T14:20:21.775Z</time></trkpt><trkpt lat="40.863155" lon="14.29369"><ele>4.0</ele><time>2026-04-23T14:20:23.776Z</time></trkpt><trkpt lat="40.863225" lon="14.2938133"><ele>4.0</ele><time>2026-04-23T14:20:25.776Z</time></trkpt><trkpt lat="40.8632967" lon="14.2939383"><ele>4.0</ele><time>2026-04-23T14:20:27.779Z</time></trkpt><trkpt lat="40.863365" lon="14.2940567"><ele>4.0</ele><time>2026-04-23T14:20:29.776Z</time></trkpt><trkpt lat="40.8634333" lon="14.2941767"><ele>4.6</ele><time>2026-04-23T14:20:31.778Z</time></trkpt><trkpt lat="40.8634967" lon="14.294295"><ele>5.2</ele><time>2026-04-23T14:20:33.779Z</time></trkpt><trkpt lat="40.8635567" lon="14.294415"><ele>5.799999999999999</ele><time>2026-04-23T14:20:35.776Z</time></trkpt><trkpt lat="40.8636083" lon="14.294525"><ele>6.3999999999999995</ele><time>2026-04-23T14:20:37.776Z</time></trkpt><trkpt lat="40.863675" lon="14.2946333"><ele>7.0</ele><time>2026-04-23T14:20:39.775Z</time></trkpt><trkpt lat="40.86375" lon="14.2947367"><ele>7.3999999999999995</ele><time>2026-04-23T14:20:41.776Z</time></trkpt><trkpt lat="40.863845" lon="14.2948067"><ele>7.799999999999999</ele><time>2026-04-23T14:20:43.776Z</time></trkpt><trkpt lat="40.8639417" lon="14.29486"><ele>8.2</ele><time>2026-04-23T14:20:45.776Z</time></trkpt><trkpt lat="40.86405" lon="14.29486"><ele>8.6</ele><time>2026-04-23T14:20:47.777Z</time></trkpt><trkpt lat="40.864135" lon="14.29484"><ele>9.0</ele><time>2026-04-23T14:20:49.776Z</time></trkpt><trkpt lat="40.8642533" lon="14.29481"><ele>8.6</ele><time>2026-04-23T14:20:51.778Z</time></trkpt><trkpt lat="40.8643733" lon="14.2947883"><ele>8.2</ele><time>2026-04-23T14:20:53.776Z</time></trkpt><trkpt lat="40.86448" lon="14.2947633"><ele>7.799999999999999</ele><time>2026-04-23T14:20:55.776Z</time></trkpt><trkpt lat="40.8645883" lon="14.2947367"><ele>7.3999999999999995</ele><time>2026-04-23T14:20:57.776Z</time></trkpt><trkpt lat="40.8646933" lon="14.29472"><ele>7.0</ele><time>2026-04-23T14:20:59.779Z</time></trkpt><trkpt lat="40.8648" lon="14.294685"><ele>7.0</ele><time>2026-04-23T14:21:01.776Z</time></trkpt><trkpt lat="40.864915" lon="14.29467"><ele>6.999999999999999</ele><time>2026-04-23T14:21:03.78Z</time></trkpt><trkpt lat="40.8650283" lon="14.2946733"><ele>6.999999999999999</ele><time>2026-04-23T14:21:05.776Z</time></trkpt><trkpt lat="40.8651317" lon="14.2946867"><ele>7.0</ele><time>2026-04-23T14:21:07.78Z</time></trkpt><trkpt lat="40.8652333" lon="14.2946867"><ele>7.0</ele><time>2026-04-23T14:21:09.779Z</time></trkpt><trkpt lat="40.8653317" lon="14.29469"><ele>7.199999999999999</ele><time>2026-04-23T14:21:11.78Z</time></trkpt><trkpt lat="40.8654367" lon="14.2947083"><ele>7.3999999999999995</ele><time>2026-04-23T14:21:13.878Z</time></trkpt><trkpt lat="40.86553" lon="14.294735"><ele>7.6000000000000005</ele><time>2026-04-23T14:21:15.777Z</time></trkpt><trkpt lat="40.8656233" lon="14.2947617"><ele>7.800000000000001</ele><time>2026-04-23T14:21:17.781Z</time></trkpt><trkpt lat="40.8657083" lon="14.2947717"><ele>8.0</ele><time>2026-04-23T14:21:19.777Z</time></trkpt><trkpt lat="40.8657867" lon="14.2947867"><ele>7.999999999999999</ele><time>2026-04-23T14:21:21.776Z</time></trkpt><trkpt lat="40.8658617" lon="14.2948"><ele>8.0</ele><time>2026-04-23T14:21:23.778Z</time></trkpt><trkpt lat="40.865945" lon="14.2948217"><ele>8.0</ele><time>2026-04-23T14:21:25.778Z</time></trkpt><trkpt lat="40.86602" lon="14.2948433"><ele>8.0</ele><time>2026-04-23T14:21:27.777Z</time></trkpt><trkpt lat="40.866095" lon="14.2948667"><ele>7.999999999999999</ele><time>2026-04-23T14:21:29.78Z</time></trkpt><trkpt lat="40.8661717" lon="14.29489"><ele>8.0</ele><time>2026-04-23T14:21:31.778Z</time></trkpt><trkpt lat="40.8662383" lon="14.2949117"><ele>8.285714285714285</ele><time>2026-04-23T14:21:33.777Z</time></trkpt><trkpt lat="40.8663" lon="14.2949367"><ele>8.571428571428571</ele><time>2026-04-23T14:21:35.778Z</time></trkpt><trkpt lat="40.86639" lon="14.2949667"><ele>8.857142857142858</ele><time>2026-04-23T14:21:38.777Z</time></trkpt><trkpt lat="40.8664717" lon="14.2949917"><ele>9.142857142857142</ele><time>2026-04-23T14:21:41.778Z</time></trkpt><trkpt lat="40.8665333" lon="14.29502"><ele>9.428571428571429</ele><time>2026-04-23T14:21:43.78Z</time></trkpt><trkpt lat="40.8665983" lon="14.2950333"><ele>9.714285714285714</ele><time>2026-04-23T14:21:45.779Z</time></trkpt><trkpt lat="40.86666" lon="14.2950517"><ele>10.0</ele><time>2026-04-23T14:21:47.778Z</time></trkpt><trkpt lat="40.8667333" lon="14.2950683"><ele>10.333333333333334</ele><time>2026-04-23T14:21:49.78Z</time></trkpt><trkpt lat="40.8668133" lon="14.2951017"><ele>10.666666666666668</ele><time>2026-04-23T14:21:51.777Z</time></trkpt><trkpt lat="40.8668933" lon="14.2951467"><ele>11.0</ele><time>2026-04-23T14:21:53.778Z</time></trkpt><trkpt lat="40.866975" lon="14.2951917"><ele>11.333333333333334</ele><time>2026-04-23T14:21:55.779Z</time></trkpt><trkpt lat="40.867055" lon="14.2952483"><ele>11.666666666666666</ele><time>2026-04-23T14:21:57.778Z</time></trkpt><trkpt lat="40.8671283" lon="14.295285"><ele>12.0</ele><time>2026-04-23T14:21:59.778Z</time></trkpt><trkpt lat="40.867195" lon="14.2953317"><ele>12.0</ele><time>2026-04-23T14:22:01.778Z</time></trkpt><trkpt lat="40.8672617" lon="14.29539"><ele>12.0</ele><time>2026-04-23T14:22:03.778Z</time></trkpt><trkpt lat="40.86732" lon="14.29544"><ele>12.0</ele><time>2026-04-23T14:22:05.778Z</time></trkpt><trkpt lat="40.8673917" lon="14.2954867"><ele>12.0</ele><time>2026-04-23T14:22:07.778Z</time></trkpt><trkpt lat="40.8674667" lon="14.2955267"><ele>12.0</ele><time>2026-04-23T14:22:09.779Z</time></trkpt><trkpt lat="40.8675367" lon="14.295555"><ele>12.0</ele><time>2026-04-23T14:22:11.778Z</time></trkpt><trkpt lat="40.86761" lon="14.2955817"><ele>12.333333333333334</ele><time>2026-04-23T14:22:13.781Z</time></trkpt><trkpt lat="40.8676833" lon="14.29563"><ele>12.666666666666668</ele><time>2026-04-23T14:22:15.778Z</time></trkpt><trkpt lat="40.86775" lon="14.2956883"><ele>13.0</ele><time>2026-04-23T14:22:17.777Z</time></trkpt><trkpt lat="40.8678133" lon="14.29575"><ele>13.333333333333334</ele><time>2026-04-23T14:22:19.777Z</time></trkpt><trkpt lat="40.8678817" lon="14.2958183"><ele>13.666666666666668</ele><time>2026-04-23T14:22:21.776Z</time></trkpt><trkpt lat="40.867945" lon="14.295895"><ele>14.0</ele><time>2026-04-23T14:22:23.777Z</time></trkpt><trkpt lat="40.868005" lon="14.2959667"><ele>14.000000000000002</ele><time>2026-04-23T14:22:25.777Z</time></trkpt><trkpt lat="40.8680667" lon="14.2960367"><ele>14.0</ele><time>2026-04-23T14:22:27.775Z</time></trkpt><trkpt lat="40.8681233" lon="14.296095"><ele>14.0</ele><time>2026-04-23T14:22:29.778Z</time></trkpt><trkpt lat="40.8681767" lon="14.2961617"><ele>14.0</ele><time>2026-04-23T14:22:31.776Z</time></trkpt><trkpt lat="40.868235" lon="14.2962217"><ele>14.000000000000002</ele><time>2026-04-23T14:22:33.776Z</time></trkpt><trkpt lat="40.8683033" lon="14.2962733"><ele>14.0</ele><time>2026-04-23T14:22:35.776Z</time></trkpt><trkpt lat="40.8683783" lon="14.2962683"><ele>14.0</ele><time>2026-04-23T14:22:37.782Z</time></trkpt><trkpt lat="40.8684633" lon="14.29628"><ele>13.999999999999998</ele><time>2026-04-23T14:22:39.777Z</time></trkpt><trkpt lat="40.8685317" lon="14.2963517"><ele>13.999999999999998</ele><time>2026-04-23T14:22:41.776Z</time></trkpt><trkpt lat="40.8685883" lon="14.2964533"><ele>14.0</ele><time>2026-04-23T14:22:43.777Z</time></trkpt><trkpt lat="40.8686417" lon="14.296555"><ele>14.0</ele><time>2026-04-23T14:22:45.776Z</time></trkpt><trkpt lat="40.868685" lon="14.29666"><ele>14.000000000000002</ele><time>2026-04-23T14:22:47.777Z</time></trkpt><trkpt lat="40.8687417" lon="14.296755"><ele>14.0</ele><time>2026-04-23T14:22:49.778Z</time></trkpt><trkpt lat="40.8688067" lon="14.29684"><ele>14.0</ele><time>2026-04-23T14:22:51.777Z</time></trkpt><trkpt lat="40.86887" lon="14.296905"><ele>14.0</ele><time>2026-04-23T14:22:53.776Z</time></trkpt><trkpt lat="40.8689417" lon="14.2969683"><ele>14.000000000000002</ele><time>2026-04-23T14:22:55.776Z</time></trkpt><trkpt lat="40.8690217" lon="14.29702"><ele>14.0</ele><time>2026-04-23T14:22:57.775Z</time></trkpt><trkpt lat="40.86922" lon="14.2971617"><ele>14.0</ele><time>2026-04-23T14:23:02.775Z</time></trkpt><trkpt lat="40.86924" lon="14.2972867"><ele>13.999999999999998</ele><time>2026-04-23T14:23:03.775Z</time></trkpt><trkpt lat="40.8692617" lon="14.297375"><ele>13.999999999999998</ele><time>2026-04-23T14:23:04.776Z</time></trkpt><trkpt lat="40.86931" lon="14.2975567"><ele>14.0</ele><time>2026-04-23T14:23:06.776Z</time></trkpt><trkpt lat="40.8693483" lon="14.2976383"><ele>14.0</ele><time>2026-04-23T14:23:07.775Z</time></trkpt><trkpt lat="40.8694217" lon="14.2977517"><ele>14.399999999999999</ele><time>2026-04-23T14:23:09.775Z</time></trkpt><trkpt lat="40.86949" lon="14.2978517"><ele>14.799999999999999</ele><time>2026-04-23T14:23:11.776Z</time></trkpt><trkpt lat="40.8695717" lon="14.297955"><ele>15.200000000000001</ele><time>2026-04-23T14:23:13.778Z</time></trkpt><trkpt lat="40.8696467" lon="14.298065"><ele>15.600000000000001</ele><time>2026-04-23T14:23:15.776Z</time></trkpt><trkpt lat="40.86972" lon="14.29817"><ele>16.0</ele><time>2026-04-23T14:23:17.776Z</time></trkpt><trkpt lat="40.8697867" lon="14.2982717"><ele>16.0</ele><time>2026-04-23T14:23:19.775Z</time></trkpt><trkpt lat="40.8698533" lon="14.2983683"><ele>16.0</ele><time>2026-04-23T14:23:21.775Z</time></trkpt><trkpt lat="40.8699133" lon="14.2984717"><ele>16.0</ele><time>2026-04-23T14:23:23.778Z</time></trkpt><trkpt lat="40.8699783" lon="14.29857"><ele>16.0</ele><time>2026-04-23T14:23:25.775Z</time></trkpt><trkpt lat="40.8700483" lon="14.298665"><ele>16.0</ele><time>2026-04-23T14:23:27.776Z</time></trkpt><trkpt lat="40.87011" lon="14.2987667"><ele>16.2</ele><time>2026-04-23T14:23:29.776Z</time></trkpt><trkpt lat="40.8701733" lon="14.2988583"><ele>16.400000000000002</ele><time>2026-04-23T14:23:31.775Z</time></trkpt><trkpt lat="40.870235" lon="14.2989483"><ele>16.6</ele><time>2026-04-23T14:23:33.776Z</time></trkpt><trkpt lat="40.8702917" lon="14.2990367"><ele>16.8</ele><time>2026-04-23T14:23:35.778Z</time></trkpt><trkpt lat="40.8703633" lon="14.2991383"><ele>17.0</ele><time>2026-04-23T14:23:37.775Z</time></trkpt><trkpt lat="40.8704283" lon="14.29924"><ele>17.0</ele><time>2026-04-23T14:23:39.775Z</time></trkpt><trkpt lat="40.8704967" lon="14.2993367"><ele>17.0</ele><time>2026-04-23T14:23:41.775Z</time></trkpt><trkpt lat="40.8705717" lon="14.2994517"><ele>17.0</ele><time>2026-04-23T14:23:43.779Z</time></trkpt><trkpt lat="40.8706417" lon="14.2995667"><ele>17.0</ele><time>2026-04-23T14:23:45.775Z</time></trkpt><trkpt lat="40.8707117" lon="14.299675"><ele>17.0</ele><time>2026-04-23T14:23:47.775Z</time></trkpt><trkpt lat="40.870785" lon="14.299775"><ele>17.0</ele><time>2026-04-23T14:23:49.776Z</time></trkpt><trkpt lat="40.8708567" lon="14.2998733"><ele>17.0</ele><time>2026-04-23T14:23:51.776Z</time></trkpt><trkpt lat="40.87092" lon="14.29997"><ele>17.0</ele><time>2026-04-23T14:23:53.777Z</time></trkpt><trkpt lat="40.87098" lon="14.3000617"><ele>17.0</ele><time>2026-04-23T14:23:55.776Z</time></trkpt><trkpt lat="40.8710483" lon="14.3001683"><ele>17.0</ele><time>2026-04-23T14:23:57.776Z</time></trkpt><trkpt lat="40.8711283" lon="14.3002733"><ele>17.0</ele><time>2026-04-23T14:23:59.778Z</time></trkpt><trkpt lat="40.8712083" lon="14.3003733"><ele>17.0</ele><time>2026-04-23T14:24:01.776Z</time></trkpt><trkpt lat="40.87129" lon="14.30048"><ele>17.0</ele><time>2026-04-23T14:24:03.776Z</time></trkpt><trkpt lat="40.8713633" lon="14.3005833"><ele>17.0</ele><time>2026-04-23T14:24:05.776Z</time></trkpt><trkpt lat="40.871435" lon="14.300685"><ele>17.0</ele><time>2026-04-23T14:24:07.779Z</time></trkpt><trkpt lat="40.8715083" lon="14.3007767"><ele>17.0</ele><time>2026-04-23T14:24:09.775Z</time></trkpt><trkpt lat="40.87157" lon="14.300875"><ele>17.0</ele><time>2026-04-23T14:24:11.776Z</time></trkpt><trkpt lat="40.8716367" lon="14.3009817"><ele>17.0</ele><time>2026-04-23T14:24:13.775Z</time></trkpt><trkpt lat="40.8717067" lon="14.3010883"><ele>17.0</ele><time>2026-04-23T14:24:15.775Z</time></trkpt><trkpt lat="40.8717867" lon="14.3011917"><ele>17.0</ele><time>2026-04-23T14:24:17.776Z</time></trkpt><trkpt lat="40.8718617" lon="14.3012833"><ele>17.4</ele><time>2026-04-23T14:24:19.775Z</time></trkpt><trkpt lat="40.871935" lon="14.3013917"><ele>17.799999999999997</ele><time>2026-04-23T14:24:21.775Z</time></trkpt><trkpt lat="40.872" lon="14.3014983"><ele>18.2</ele><time>2026-04-23T14:24:23.777Z</time></trkpt><trkpt lat="40.8720633" lon="14.3016"><ele>18.599999999999998</ele><time>2026-04-23T14:24:25.779Z</time></trkpt><trkpt lat="40.8721283" lon="14.3016867"><ele>19.0</ele><time>2026-04-23T14:24:27.776Z</time></trkpt><trkpt lat="40.8721883" lon="14.30176"><ele>19.0</ele><time>2026-04-23T14:24:29.776Z</time></trkpt><trkpt lat="40.872245" lon="14.3018483"><ele>19.0</ele><time>2026-04-23T14:24:31.775Z</time></trkpt><trkpt lat="40.872305" lon="14.3019333"><ele>19.0</ele><time>2026-04-23T14:24:33.775Z</time></trkpt><trkpt lat="40.87236" lon="14.30202"><ele>19.0</ele><time>2026-04-23T14:24:35.775Z</time></trkpt><trkpt lat="40.8724183" lon="14.3021033"><ele>19.0</ele><time>2026-04-23T14:24:37.775Z</time></trkpt><trkpt lat="40.8724667" lon="14.302175"><ele>19.0</ele><time>2026-04-23T14:24:39.775Z</time></trkpt><trkpt lat="40.8725217" lon="14.3022367"><ele>19.0</ele><time>2026-04-23T14:24:41.775Z</time></trkpt><trkpt lat="40.872575" lon="14.302325"><ele>19.0</ele><time>2026-04-23T14:24:43.777Z</time></trkpt><trkpt lat="40.8726383" lon="14.3024017"><ele>19.0</ele><time>2026-04-23T14:24:45.776Z</time></trkpt><trkpt lat="40.872705" lon="14.3024783"><ele>19.0</ele><time>2026-04-23T14:24:47.776Z</time></trkpt><trkpt lat="40.8727633" lon="14.3025583"><ele>19.0</ele><time>2026-04-23T14:24:49.775Z</time></trkpt><trkpt lat="40.8728267" lon="14.3026467"><ele>19.0</ele><time>2026-04-23T14:24:51.776Z</time></trkpt><trkpt lat="40.8728983" lon="14.3027317"><ele>19.0</ele><time>2026-04-23T14:24:53.779Z</time></trkpt><trkpt lat="40.87297" lon="14.30281"><ele>19.0</ele><time>2026-04-23T14:24:55.779Z</time></trkpt><trkpt lat="40.8730417" lon="14.3028933"><ele>19.0</ele><time>2026-04-23T14:24:57.775Z</time></trkpt><trkpt lat="40.8731133" lon="14.3029817"><ele>19.0</ele><time>2026-04-23T14:24:59.775Z</time></trkpt><trkpt lat="40.873185" lon="14.30306"><ele>19.0</ele><time>2026-04-23T14:25:01.775Z</time></trkpt><trkpt lat="40.873255" lon="14.3031467"><ele>19.2</ele><time>2026-04-23T14:25:03.775Z</time></trkpt><trkpt lat="40.8733167" lon="14.3032333"><ele>19.4</ele><time>2026-04-23T14:25:05.775Z</time></trkpt><trkpt lat="40.8733717" lon="14.30333"><ele>19.6</ele><time>2026-04-23T14:25:07.778Z</time></trkpt><trkpt lat="40.87344" lon="14.303415"><ele>19.8</ele><time>2026-04-23T14:25:09.775Z</time></trkpt><trkpt lat="40.8735083" lon="14.3034917"><ele>20.0</ele><time>2026-04-23T14:25:11.779Z</time></trkpt><trkpt lat="40.87358" lon="14.3035817"><ele>19.6</ele><time>2026-04-23T14:25:13.779Z</time></trkpt><trkpt lat="40.8736533" lon="14.3036717"><ele>19.2</ele><time>2026-04-23T14:25:15.776Z</time></trkpt><trkpt lat="40.8737283" lon="14.30376"><ele>18.8</ele><time>2026-04-23T14:25:17.777Z</time></trkpt><trkpt lat="40.8738017" lon="14.3038383"><ele>18.4</ele><time>2026-04-23T14:25:19.776Z</time></trkpt><trkpt lat="40.87388" lon="14.3039167"><ele>18.0</ele><time>2026-04-23T14:25:21.776Z</time></trkpt><trkpt lat="40.87396" lon="14.304"><ele>17.833333333333332</ele><time>2026-04-23T14:25:23.778Z</time></trkpt><trkpt lat="40.87403" lon="14.3040733"><ele>17.666666666666668</ele><time>2026-04-23T14:25:25.775Z</time></trkpt><trkpt lat="40.87409" lon="14.3041167"><ele>17.5</ele><time>2026-04-23T14:25:28.779Z</time></trkpt><trkpt lat="40.8741733" lon="14.30413"><ele>17.333333333333336</ele><time>2026-04-23T14:25:31.776Z</time></trkpt><trkpt lat="40.8742367" lon="14.3040917"><ele>17.166666666666668</ele><time>2026-04-23T14:25:33.776Z</time></trkpt><trkpt lat="40.87431" lon="14.3040167"><ele>17.0</ele><time>2026-04-23T14:25:35.775Z</time></trkpt><trkpt lat="40.874385" lon="14.3039283"><ele>17.8</ele><time>2026-04-23T14:25:37.777Z</time></trkpt><trkpt lat="40.8744617" lon="14.3038367"><ele>18.6</ele><time>2026-04-23T14:25:39.776Z</time></trkpt><trkpt lat="40.8745383" lon="14.30375"><ele>19.400000000000002</ele><time>2026-04-23T14:25:41.776Z</time></trkpt><trkpt lat="40.874615" lon="14.3036667"><ele>20.2</ele><time>2026-04-23T14:25:43.775Z</time></trkpt><trkpt lat="40.874685" lon="14.3035833"><ele>21.0</ele><time>2026-04-23T14:25:45.776Z</time></trkpt><trkpt lat="40.874745" lon="14.303495"><ele>21.0</ele><time>2026-04-23T14:25:47.775Z</time></trkpt><trkpt lat="40.8748133" lon="14.3034217"><ele>21.0</ele><time>2026-04-23T14:25:49.776Z</time></trkpt><trkpt lat="40.8748883" lon="14.30335"><ele>21.0</ele><time>2026-04-23T14:25:51.776Z</time></trkpt><trkpt lat="40.8749717" lon="14.30327"><ele>21.0</ele><time>2026-04-23T14:25:53.775Z</time></trkpt><trkpt lat="40.8750533" lon="14.3032117"><ele>21.0</ele><time>2026-04-23T14:25:55.777Z</time></trkpt><trkpt lat="40.875125" lon="14.3031667"><ele>21.333333333333332</ele><time>2026-04-23T14:25:57.778Z</time></trkpt><trkpt lat="40.8752" lon="14.3031317"><ele>21.666666666666668</ele><time>2026-04-23T14:25:59.779Z</time></trkpt><trkpt lat="40.8752683" lon="14.3030817"><ele>22.0</ele><time>2026-04-23T14:26:01.777Z</time></trkpt><trkpt lat="40.8753267" lon="14.303015"><ele>22.333333333333336</ele><time>2026-04-23T14:26:03.777Z</time></trkpt><trkpt lat="40.87539" lon="14.3029483"><ele>22.666666666666668</ele><time>2026-04-23T14:26:05.776Z</time></trkpt><trkpt lat="40.87546" lon="14.3028983"><ele>23.0</ele><time>2026-04-23T14:26:07.776Z</time></trkpt><trkpt lat="40.8755317" lon="14.3028467"><ele>23.0</ele><time>2026-04-23T14:26:09.777Z</time></trkpt><trkpt lat="40.8756067" lon="14.30281"><ele>23.0</ele><time>2026-04-23T14:26:11.777Z</time></trkpt><trkpt lat="40.8756783" lon="14.302765"><ele>23.0</ele><time>2026-04-23T14:26:13.775Z</time></trkpt><trkpt lat="40.875735" lon="14.3027183"><ele>23.0</ele><time>2026-04-23T14:26:15.776Z</time></trkpt><trkpt lat="40.875795" lon="14.302655"><ele>23.0</ele><time>2026-04-23T14:26:17.775Z</time></trkpt><trkpt lat="40.87585" lon="14.3025817"><ele>23.0</ele><time>2026-04-23T14:26:19.776Z</time></trkpt><trkpt lat="40.8759117" lon="14.302505"><ele>24.0</ele><time>2026-04-23T14:26:21.775Z</time></trkpt><trkpt lat="40.87598" lon="14.30244"><ele>25.0</ele><time>2026-04-23T14:26:23.777Z</time></trkpt><trkpt lat="40.8760567" lon="14.3023717"><ele>26.0</ele><time>2026-04-23T14:26:25.776Z</time></trkpt><trkpt lat="40.8762333" lon="14.3021567"><ele>27.0</ele><time>2026-04-23T14:26:34.775Z</time></trkpt><trkpt lat="40.8763017" lon="14.3021317"><ele>27.166666666666668</ele><time>2026-04-23T14:26:36.776Z</time></trkpt><trkpt lat="40.876385" lon="14.3020967"><ele>27.333333333333336</ele><time>2026-04-23T14:26:38.777Z</time></trkpt><trkpt lat="40.876455" lon="14.3020567"><ele>27.5</ele><time>2026-04-23T14:26:40.779Z</time></trkpt><trkpt lat="40.8765217" lon="14.3020183"><ele>27.666666666666668</ele><time>2026-04-23T14:26:42.777Z</time></trkpt><trkpt lat="40.8765883" lon="14.3019583"><ele>27.833333333333336</ele><time>2026-04-23T14:26:44.78Z</time></trkpt><trkpt lat="40.8766717" lon="14.3018883"><ele>28.0</ele><time>2026-04-23T14:26:46.777Z</time></trkpt><trkpt lat="40.87675" lon="14.3018333"><ele>27.833333333333336</ele><time>2026-04-23T14:26:48.777Z</time></trkpt><trkpt lat="40.8768317" lon="14.3017833"><ele>27.666666666666668</ele><time>2026-04-23T14:26:50.776Z</time></trkpt><trkpt lat="40.8769083" lon="14.30173"><ele>27.5</ele><time>2026-04-23T14:26:52.775Z</time></trkpt><trkpt lat="40.876985" lon="14.30167"><ele>27.333333333333336</ele><time>2026-04-23T14:26:54.777Z</time></trkpt><trkpt lat="40.8770567" lon="14.3016083"><ele>27.166666666666668</ele><time>2026-04-23T14:26:56.776Z</time></trkpt><trkpt lat="40.877135" lon="14.301555"><ele>27.0</ele><time>2026-04-23T14:26:58.782Z</time></trkpt><trkpt lat="40.8772117" lon="14.301505"><ele>27.0</ele><time>2026-04-23T14:27:00.776Z</time></trkpt><trkpt lat="40.8772833" lon="14.30145"><ele>27.0</ele><time>2026-04-23T14:27:02.775Z</time></trkpt><trkpt lat="40.877355" lon="14.3013983"><ele>27.0</ele><time>2026-04-23T14:27:04.776Z</time></trkpt><trkpt lat="40.87743" lon="14.3013533"><ele>27.0</ele><time>2026-04-23T14:27:06.776Z</time></trkpt><trkpt lat="40.877495" lon="14.3013067"><ele>27.0</ele><time>2026-04-23T14:27:08.775Z</time></trkpt><trkpt lat="40.87756" lon="14.3012883"><ele>27.0</ele><time>2026-04-23T14:27:10.776Z</time></trkpt><trkpt lat="40.877625" lon="14.3012617"><ele>27.666666666666668</ele><time>2026-04-23T14:27:12.775Z</time></trkpt><trkpt lat="40.8776917" lon="14.3012167"><ele>28.333333333333336</ele><time>2026-04-23T14:27:14.775Z</time></trkpt><trkpt lat="40.8777567" lon="14.3011667"><ele>29.0</ele><time>2026-04-23T14:27:16.775Z</time></trkpt><trkpt lat="40.877835" lon="14.3011133"><ele>29.666666666666668</ele><time>2026-04-23T14:27:19.775Z</time></trkpt><trkpt lat="40.8779083" lon="14.3010767"><ele>30.333333333333336</ele><time>2026-04-23T14:27:22.776Z</time></trkpt><trkpt lat="40.8779933" lon="14.30104"><ele>31.0</ele><time>2026-04-23T14:27:25.776Z</time></trkpt><trkpt lat="40.8780783" lon="14.3010033"><ele>31.0</ele><time>2026-04-23T14:27:28.777Z</time></trkpt><trkpt lat="40.8781567" lon="14.3009983"><ele>31.000000000000004</ele><time>2026-04-23T14:27:30.777Z</time></trkpt><trkpt lat="40.87822" lon="14.300965"><ele>31.0</ele><time>2026-04-23T14:27:32.776Z</time></trkpt><trkpt lat="40.87829" lon="14.3009367"><ele>31.0</ele><time>2026-04-23T14:27:34.776Z</time></trkpt><trkpt lat="40.87836" lon="14.3009167"><ele>31.000000000000004</ele><time>2026-04-23T14:27:36.777Z</time></trkpt><trkpt lat="40.8784333" lon="14.3009033"><ele>31.0</ele><time>2026-04-23T14:27:38.777Z</time></trkpt><trkpt lat="40.878505" lon="14.3008867"><ele>31.0</ele><time>2026-04-23T14:27:40.777Z</time></trkpt><trkpt lat="40.8785717" lon="14.30086"><ele>32.16666666666667</ele><time>2026-04-23T14:27:42.777Z</time></trkpt><trkpt lat="40.87864" lon="14.30084"><ele>33.333333333333336</ele><time>2026-04-23T14:27:44.776Z</time></trkpt><trkpt lat="40.8787233" lon="14.3008133"><ele>34.5</ele><time>2026-04-23T14:27:47.778Z</time></trkpt><trkpt lat="40.8788117" lon="14.3007867"><ele>35.666666666666664</ele><time>2026-04-23T14:27:50.784Z</time></trkpt><trkpt lat="40.8788733" lon="14.3007617"><ele>36.83333333333333</ele><time>2026-04-23T14:27:52.778Z</time></trkpt><trkpt lat="40.8789367" lon="14.3007317"><ele>38.0</ele><time>2026-04-23T14:27:54.777Z</time></trkpt><trkpt lat="40.87901" lon="14.3006633"><ele>38.0</ele><time>2026-04-23T14:27:57.777Z</time></trkpt><trkpt lat="40.8790933" lon="14.300615"><ele>38.0</ele><time>2026-04-23T14:28:00.776Z</time></trkpt><trkpt lat="40.8791533" lon="14.3005767"><ele>38.0</ele><time>2026-04-23T14:28:02.775Z</time></trkpt><trkpt lat="40.87923" lon="14.3005117"><ele>38.0</ele><time>2026-04-23T14:28:05.776Z</time></trkpt><trkpt lat="40.87929" lon="14.300465"><ele>38.0</ele><time>2026-04-23T14:28:07.778Z</time></trkpt><trkpt lat="40.8793433" lon="14.3004167"><ele>38.0</ele><time>2026-04-23T14:28:09.776Z</time></trkpt><trkpt lat="40.8794217" lon="14.3003683"><ele>39.166666666666664</ele><time>2026-04-23T14:28:12.777Z</time></trkpt><trkpt lat="40.8795033" lon="14.3003033"><ele>40.33333333333333</ele><time>2026-04-23T14:28:15.777Z</time></trkpt><trkpt lat="40.8795733" lon="14.30024"><ele>41.5</ele><time>2026-04-23T14:28:18.776Z</time></trkpt><trkpt lat="40.879645" lon="14.300195"><ele>42.666666666666664</ele><time>2026-04-23T14:28:21.775Z</time></trkpt><trkpt lat="40.8797017" lon="14.3001583"><ele>43.833333333333336</ele><time>2026-04-23T14:28:23.776Z</time></trkpt><trkpt lat="40.87978" lon="14.3001133"><ele>45.0</ele><time>2026-04-23T14:28:26.777Z</time></trkpt><trkpt lat="40.8798633" lon="14.3000633"><ele>45.0</ele><time>2026-04-23T14:28:29.776Z</time></trkpt><trkpt lat="40.8799433" lon="14.30001"><ele>45.0</ele><time>2026-04-23T14:28:32.775Z</time></trkpt><trkpt lat="40.8800233" lon="14.2999517"><ele>45.0</ele><time>2026-04-23T14:28:35.776Z</time></trkpt><trkpt lat="40.8800817" lon="14.2999017"><ele>45.0</ele><time>2026-04-23T14:28:37.776Z</time></trkpt><trkpt lat="40.8801417" lon="14.2998533"><ele>45.0</ele><time>2026-04-23T14:28:39.775Z</time></trkpt><trkpt lat="40.880215" lon="14.2997867"><ele>45.0</ele><time>2026-04-23T14:28:42.776Z</time></trkpt><trkpt lat="40.8802817" lon="14.2997183"><ele>45.166666666666664</ele><time>2026-04-23T14:28:45.775Z</time></trkpt><trkpt lat="40.88033" lon="14.2996617"><ele>45.333333333333336</ele><time>2026-04-23T14:28:47.777Z</time></trkpt><trkpt lat="40.8804" lon="14.2996"><ele>45.5</ele><time>2026-04-23T14:28:49.778Z</time></trkpt><trkpt lat="40.8804517" lon="14.29953"><ele>45.66666666666667</ele><time>2026-04-23T14:28:51.775Z</time></trkpt><trkpt lat="40.880505" lon="14.2994267"><ele>45.833333333333336</ele><time>2026-04-23T14:28:54.776Z</time></trkpt><trkpt lat="40.8805683" lon="14.299345"><ele>46.0</ele><time>2026-04-23T14:28:57.776Z</time></trkpt><trkpt lat="40.880615" lon="14.2992883"><ele>46.0</ele><time>2026-04-23T14:28:59.775Z</time></trkpt><trkpt lat="40.8806717" lon="14.299245"><ele>46.0</ele><time>2026-04-23T14:29:01.778Z</time></trkpt><trkpt lat="40.8807367" lon="14.2991633"><ele>46.0</ele><time>2026-04-23T14:29:04.78Z</time></trkpt><trkpt lat="40.8807767" lon="14.2990983"><ele>46.0</ele><time>2026-04-23T14:29:06.778Z</time></trkpt><trkpt lat="40.880845" lon="14.2990133"><ele>46.0</ele><time>2026-04-23T14:29:09.778Z</time></trkpt><trkpt lat="40.8808767" lon="14.2989317"><ele>46.0</ele><time>2026-04-23T14:29:11.778Z</time></trkpt><trkpt lat="40.880935" lon="14.2988683"><ele>47.16666666666667</ele><time>2026-04-23T14:29:14.778Z</time></trkpt><trkpt lat="40.88102" lon="14.2988233"><ele>48.333333333333336</ele><time>2026-04-23T14:29:17.778Z</time></trkpt><trkpt lat="40.881075" lon="14.29878"><ele>49.5</ele><time>2026-04-23T14:29:19.778Z</time></trkpt><trkpt lat="40.8811333" lon="14.298725"><ele>50.66666666666667</ele><time>2026-04-23T14:29:21.775Z</time></trkpt><trkpt lat="40.8812033" lon="14.2986483"><ele>51.833333333333336</ele><time>2026-04-23T14:29:24.777Z</time></trkpt><trkpt lat="40.8812517" lon="14.2985917"><ele>53.0</ele><time>2026-04-23T14:29:26.777Z</time></trkpt><trkpt lat="40.881325" lon="14.2985217"><ele>53.0</ele><time>2026-04-23T14:29:29.777Z</time></trkpt><trkpt lat="40.8813817" lon="14.298475"><ele>53.0</ele><time>2026-04-23T14:29:32.778Z</time></trkpt><trkpt lat="40.8814417" lon="14.2984233"><ele>53.0</ele><time>2026-04-23T14:29:35.78Z</time></trkpt><trkpt lat="40.8814833" lon="14.298355"><ele>53.0</ele><time>2026-04-23T14:29:39.777Z</time></trkpt><trkpt lat="40.88154" lon="14.2983"><ele>53.0</ele><time>2026-04-23T14:29:42.778Z</time></trkpt><trkpt lat="40.8816" lon="14.298245"><ele>53.0</ele><time>2026-04-23T14:29:45.778Z</time></trkpt><trkpt lat="40.8816617" lon="14.298185"><ele>53.0</ele><time>2026-04-23T14:29:48.778Z</time></trkpt><trkpt lat="40.8817167" lon="14.2981033"><ele>55.00000000000001</ele><time>2026-04-23T14:29:52.778Z</time></trkpt><trkpt lat="40.88177" lon="14.2980233"><ele>57.0</ele><time>2026-04-23T14:29:56.778Z</time></trkpt><trkpt lat="40.8818183" lon="14.2979617"><ele>59.0</ele><time>2026-04-23T14:29:59.778Z</time></trkpt><trkpt lat="40.8818783" lon="14.2978817"><ele>61.0</ele><time>2026-04-23T14:30:03.779Z</time></trkpt><trkpt lat="40.8819217" lon="14.2978117"><ele>63.00000000000001</ele><time>2026-04-23T14:30:06.776Z</time></trkpt><trkpt lat="40.881975" lon="14.2977383"><ele>65.0</ele><time>2026-04-23T14:30:10.776Z</time></trkpt><trkpt lat="40.8820367" lon="14.2976567"><ele>65.0</ele><time>2026-04-23T14:30:14.777Z</time></trkpt><trkpt lat="40.882095" lon="14.29759"><ele>65.0</ele><time>2026-04-23T14:30:18.777Z</time></trkpt><trkpt lat="40.8821533" lon="14.297535"><ele>65.0</ele><time>2026-04-23T14:30:22.776Z</time></trkpt><trkpt lat="40.8822017" lon="14.2974667"><ele>65.0</ele><time>2026-04-23T14:30:26.777Z</time></trkpt><trkpt lat="40.8822567" lon="14.297385"><ele>65.0</ele><time>2026-04-23T14:30:30.776Z</time></trkpt><trkpt lat="40.8822933" lon="14.2973033"><ele>65.0</ele><time>2026-04-23T14:30:35.776Z</time></trkpt><trkpt lat="40.8823683" lon="14.297265"><ele>65.28571428571429</ele><time>2026-04-23T14:30:39.777Z</time></trkpt><trkpt lat="40.88243" lon="14.29722"><ele>65.57142857142857</ele><time>2026-04-23T14:30:43.778Z</time></trkpt><trkpt lat="40.8824817" lon="14.297165"><ele>65.85714285714286</ele><time>2026-04-23T14:30:47.777Z</time></trkpt><trkpt lat="40.8825333" lon="14.2970933"><ele>66.14285714285714</ele><time>2026-04-23T14:30:51.777Z</time></trkpt><trkpt lat="40.88259" lon="14.297055"><ele>66.42857142857143</ele><time>2026-04-23T14:30:54.776Z</time></trkpt><trkpt lat="40.8826367" lon="14.2969733"><ele>66.71428571428572</ele><time>2026-04-23T14:30:58.776Z</time></trkpt><trkpt lat="40.88266" lon="14.2968883"><ele>67.0</ele><time>2026-04-23T14:31:02.776Z</time></trkpt><trkpt lat="40.8826483" lon="14.2967983"><ele>67.0</ele><time>2026-04-23T14:31:06.776Z</time></trkpt><trkpt lat="40.8826033" lon="14.29672"><ele>67.0</ele><time>2026-04-23T14:31:09.776Z</time></trkpt><trkpt lat="40.88257" lon="14.2966483"><ele>67.0</ele><time>2026-04-23T14:31:11.777Z</time></trkpt><trkpt lat="40.882535" lon="14.2965783"><ele>67.0</ele><time>2026-04-23T14:31:13.778Z</time></trkpt><trkpt lat="40.8824817" lon="14.2964917"><ele>67.0</ele><time>2026-04-23T14:31:16.777Z</time></trkpt><trkpt lat="40.8824183" lon="14.2964167"><ele>67.0</ele><time>2026-04-23T14:31:19.777Z</time></trkpt><trkpt lat="40.8823517" lon="14.296335"><ele>68.16666666666666</ele><time>2026-04-23T14:31:22.777Z</time></trkpt><trkpt lat="40.88229" lon="14.2962517"><ele>69.33333333333333</ele><time>2026-04-23T14:31:25.778Z</time></trkpt><trkpt lat="40.8822267" lon="14.29619"><ele>70.5</ele><time>2026-04-23T14:31:28.778Z</time></trkpt><trkpt lat="40.8821717" lon="14.2961333"><ele>71.66666666666667</ele><time>2026-04-23T14:31:31.778Z</time></trkpt><trkpt lat="40.8821067" lon="14.296085"><ele>72.83333333333334</ele><time>2026-04-23T14:31:34.778Z</time></trkpt><trkpt lat="40.8820417" lon="14.2960367"><ele>74.0</ele><time>2026-04-23T14:31:37.777Z</time></trkpt><trkpt lat="40.881975" lon="14.295975"><ele>74.0</ele><time>2026-04-23T14:31:40.776Z</time></trkpt><trkpt lat="40.8819183" lon="14.2958983"><ele>74.0</ele><time>2026-04-23T14:31:43.776Z</time></trkpt><trkpt lat="40.88188" lon="14.295805"><ele>74.0</ele><time>2026-04-23T14:31:46.776Z</time></trkpt><trkpt lat="40.8819183" lon="14.2957117"><ele>74.0</ele><time>2026-04-23T14:31:49.778Z</time></trkpt><trkpt lat="40.881985" lon="14.29564"><ele>74.0</ele><time>2026-04-23T14:31:52.778Z</time></trkpt><trkpt lat="40.88205" lon="14.2955667"><ele>74.0</ele><time>2026-04-23T14:31:55.778Z</time></trkpt><trkpt lat="40.882125" lon="14.2954867"><ele>74.5</ele><time>2026-04-23T14:31:58.776Z</time></trkpt><trkpt lat="40.8821917" lon="14.2954183"><ele>75.0</ele><time>2026-04-23T14:32:01.776Z</time></trkpt><trkpt lat="40.88225" lon="14.2953667"><ele>75.5</ele><time>2026-04-23T14:32:04.775Z</time></trkpt><trkpt lat="40.8823083" lon="14.2953"><ele>76.0</ele><time>2026-04-23T14:32:07.776Z</time></trkpt><trkpt lat="40.882365" lon="14.2952517"><ele>76.5</ele><time>2026-04-23T14:32:09.776Z</time></trkpt><trkpt lat="40.882445" lon="14.2951733"><ele>77.0</ele><time>2026-04-23T14:33:17.775Z</time></trkpt><trkpt lat="40.882515" lon="14.295165"><ele>77.0</ele><time>2026-04-23T14:33:19.775Z</time></trkpt><trkpt lat="40.88258" lon="14.2952333"><ele>77.0</ele><time>2026-04-23T14:33:21.775Z</time></trkpt><trkpt lat="40.8826333" lon="14.2953317"><ele>77.0</ele><time>2026-04-23T14:33:23.776Z</time></trkpt><trkpt lat="40.88269" lon="14.29543"><ele>77.0</ele><time>2026-04-23T14:33:25.776Z</time></trkpt><trkpt lat="40.8827567" lon="14.2955317"><ele>77.0</ele><time>2026-04-23T14:33:27.777Z</time></trkpt><trkpt lat="40.8828217" lon="14.29564"><ele>76.4</ele><time>2026-04-23T14:33:29.775Z</time></trkpt><trkpt lat="40.8828833" lon="14.2957417"><ele>75.80000000000001</ele><time>2026-04-23T14:33:31.775Z</time></trkpt><trkpt lat="40.8829467" lon="14.2958583"><ele>75.2</ele><time>2026-04-23T14:33:33.775Z</time></trkpt><trkpt lat="40.88303" lon="14.295965"><ele>74.60000000000001</ele><time>2026-04-23T14:33:35.775Z</time></trkpt><trkpt lat="40.88311" lon="14.2960483"><ele>74.0</ele><time>2026-04-23T14:33:37.776Z</time></trkpt><trkpt lat="40.8831833" lon="14.29608"><ele>74.0</ele><time>2026-04-23T14:33:39.775Z</time></trkpt><trkpt lat="40.8832533" lon="14.2960267"><ele>74.0</ele><time>2026-04-23T14:33:41.776Z</time></trkpt><trkpt lat="40.8833167" lon="14.2959133"><ele>74.0</ele><time>2026-04-23T14:33:43.776Z</time></trkpt><trkpt lat="40.8833683" lon="14.2957967"><ele>74.0</ele><time>2026-04-23T14:33:45.776Z</time></trkpt><trkpt lat="40.883435" lon="14.2956983"><ele>74.0</ele><time>2026-04-23T14:33:47.775Z</time></trkpt><trkpt lat="40.8835017" lon="14.295635"><ele>74.83333333333334</ele><time>2026-04-23T14:33:49.776Z</time></trkpt><trkpt lat="40.8835567" lon="14.29558"><ele>75.66666666666667</ele><time>2026-04-23T14:33:51.775Z</time></trkpt><trkpt lat="40.8836083" lon="14.29551"><ele>76.5</ele><time>2026-04-23T14:33:53.777Z</time></trkpt><trkpt lat="40.883665" lon="14.295435"><ele>77.33333333333333</ele><time>2026-04-23T14:33:55.776Z</time></trkpt><trkpt lat="40.8837183" lon="14.295345"><ele>78.16666666666666</ele><time>2026-04-23T14:33:57.775Z</time></trkpt><trkpt lat="40.88378" lon="14.2952667"><ele>79.0</ele><time>2026-04-23T14:33:59.775Z</time></trkpt><trkpt lat="40.88384" lon="14.2951983"><ele>79.0</ele><time>2026-04-23T14:34:01.775Z</time></trkpt><trkpt lat="40.8839183" lon="14.2951433"><ele>79.0</ele><time>2026-04-23T14:34:03.775Z</time></trkpt><trkpt lat="40.884" lon="14.2950883"><ele>79.0</ele><time>2026-04-23T14:34:05.776Z</time></trkpt><trkpt lat="40.8840817" lon="14.2950367"><ele>79.0</ele><time>2026-04-23T14:34:07.775Z</time></trkpt><trkpt lat="40.88416" lon="14.294975"><ele>79.0</ele><time>2026-04-23T14:34:09.775Z</time></trkpt><trkpt lat="40.8842433" lon="14.2949183"><ele>79.0</ele><time>2026-04-23T14:34:11.775Z</time></trkpt><trkpt lat="40.884335" lon="14.2948517"><ele>79.0</ele><time>2026-04-23T14:34:13.775Z</time></trkpt><trkpt lat="40.8844333" lon="14.2947967"><ele>79.0</ele><time>2026-04-23T14:34:15.775Z</time></trkpt><trkpt lat="40.884535" lon="14.2948083"><ele>79.0</ele><time>2026-04-23T14:34:17.776Z</time></trkpt><trkpt lat="40.8846233" lon="14.2948783"><ele>79.0</ele><time>2026-04-23T14:34:19.776Z</time></trkpt><trkpt lat="40.8846917" lon="14.2949933"><ele>79.0</ele><time>2026-04-23T14:34:21.777Z</time></trkpt><trkpt lat="40.8847583" lon="14.2951017"><ele>79.0</ele><time>2026-04-23T14:34:23.778Z</time></trkpt><trkpt lat="40.8848317" lon="14.2952083"><ele>79.0</ele><time>2026-04-23T14:34:25.785Z</time></trkpt><trkpt lat="40.8849" lon="14.2953233"><ele>79.0</ele><time>2026-04-23T14:34:27.775Z</time></trkpt><trkpt lat="40.8849717" lon="14.295435"><ele>79.0</ele><time>2026-04-23T14:34:29.775Z</time></trkpt><trkpt lat="40.8850367" lon="14.2955533"><ele>78.0</ele><time>2026-04-23T14:34:31.777Z</time></trkpt><trkpt lat="40.8851183" lon="14.2956667"><ele>77.0</ele><time>2026-04-23T14:34:33.776Z</time></trkpt><trkpt lat="40.885185" lon="14.29578"><ele>76.0</ele><time>2026-04-23T14:34:35.778Z</time></trkpt><trkpt lat="40.8852433" lon="14.2958983"><ele>75.0</ele><time>2026-04-23T14:34:37.777Z</time></trkpt><trkpt lat="40.8853133" lon="14.2960117"><ele>74.0</ele><time>2026-04-23T14:34:39.777Z</time></trkpt><trkpt lat="40.885375" lon="14.2961267"><ele>74.0</ele><time>2026-04-23T14:34:41.777Z</time></trkpt><trkpt lat="40.8854517" lon="14.2962417"><ele>74.0</ele><time>2026-04-23T14:34:43.777Z</time></trkpt><trkpt lat="40.885525" lon="14.2963567"><ele>74.0</ele><time>2026-04-23T14:34:45.776Z</time></trkpt><trkpt lat="40.8855917" lon="14.296465"><ele>74.0</ele><time>2026-04-23T14:34:47.776Z</time></trkpt><trkpt lat="40.8856583" lon="14.296575"><ele>74.0</ele><time>2026-04-23T14:34:49.776Z</time></trkpt><trkpt lat="40.8857167" lon="14.2966883"><ele>74.0</ele><time>2026-04-23T14:34:51.776Z</time></trkpt><trkpt lat="40.8857833" lon="14.2968033"><ele>74.0</ele><time>2026-04-23T14:34:53.777Z</time></trkpt><trkpt lat="40.8858583" lon="14.2969283"><ele>74.0</ele><time>2026-04-23T14:34:55.776Z</time></trkpt><trkpt lat="40.88593" lon="14.2970533"><ele>74.0</ele><time>2026-04-23T14:34:57.775Z</time></trkpt><trkpt lat="40.8860067" lon="14.2971783"><ele>74.0</ele><time>2026-04-23T14:34:59.776Z</time></trkpt><trkpt lat="40.8860883" lon="14.297315"><ele>74.0</ele><time>2026-04-23T14:35:01.775Z</time></trkpt><trkpt lat="40.886125" lon="14.2973833"><ele>74.0</ele><time>2026-04-23T14:35:02.775Z</time></trkpt><trkpt lat="40.8862" lon="14.2975183"><ele>74.0</ele><time>2026-04-23T14:35:04.776Z</time></trkpt><trkpt lat="40.8862367" lon="14.29759"><ele>74.0</ele><time>2026-04-23T14:35:05.777Z</time></trkpt><trkpt lat="40.886305" lon="14.2977233"><ele>74.0</ele><time>2026-04-23T14:35:07.777Z</time></trkpt><trkpt lat="40.886345" lon="14.2977933"><ele>74.0</ele><time>2026-04-23T14:35:08.777Z</time></trkpt><trkpt lat="40.8863883" lon="14.2978633"><ele>74.0</ele><time>2026-04-23T14:35:09.777Z</time></trkpt><trkpt lat="40.8864683" lon="14.29799"><ele>74.0</ele><time>2026-04-23T14:35:11.777Z</time></trkpt><trkpt lat="40.8865083" lon="14.29806"><ele>74.0</ele><time>2026-04-23T14:35:12.776Z</time></trkpt><trkpt lat="40.8865467" lon="14.2981267"><ele>74.0</ele><time>2026-04-23T14:35:13.776Z</time></trkpt><trkpt lat="40.8866217" lon="14.2982583"><ele>73.83333333333334</ele><time>2026-04-23T14:35:15.775Z</time></trkpt><trkpt lat="40.8867" lon="14.29839"><ele>73.66666666666667</ele><time>2026-04-23T14:35:17.777Z</time></trkpt><trkpt lat="40.8867417" lon="14.2984583"><ele>73.5</ele><time>2026-04-23T14:35:18.776Z</time></trkpt><trkpt lat="40.8867833" lon="14.298525"><ele>73.33333333333333</ele><time>2026-04-23T14:35:19.776Z</time></trkpt><trkpt lat="40.8868267" lon="14.2985883"><ele>73.16666666666666</ele><time>2026-04-23T14:35:20.776Z</time></trkpt><trkpt lat="40.88687" lon="14.2986517"><ele>73.0</ele><time>2026-04-23T14:35:21.776Z</time></trkpt><trkpt lat="40.8869117" lon="14.298715"><ele>72.75</ele><time>2026-04-23T14:35:22.775Z</time></trkpt><trkpt lat="40.88699" lon="14.2988417"><ele>72.5</ele><time>2026-04-23T14:35:24.776Z</time></trkpt><trkpt lat="40.8870567" lon="14.2989583"><ele>72.25</ele><time>2026-04-23T14:35:26.776Z</time></trkpt><trkpt lat="40.887125" lon="14.2990833"><ele>72.0</ele><time>2026-04-23T14:35:28.776Z</time></trkpt><trkpt lat="40.8871967" lon="14.2992033"><ele>72.0</ele><time>2026-04-23T14:35:30.776Z</time></trkpt><trkpt lat="40.8872683" lon="14.2993233"><ele>72.0</ele><time>2026-04-23T14:35:32.776Z</time></trkpt><trkpt lat="40.887345" lon="14.2994433"><ele>72.0</ele><time>2026-04-23T14:35:34.778Z</time></trkpt><trkpt lat="40.8874233" lon="14.29956"><ele>72.0</ele><time>2026-04-23T14:35:36.777Z</time></trkpt><trkpt lat="40.8874933" lon="14.2996883"><ele>71.83333333333333</ele><time>2026-04-23T14:35:38.776Z</time></trkpt><trkpt lat="40.88757" lon="14.299825"><ele>71.66666666666667</ele><time>2026-04-23T14:35:40.776Z</time></trkpt><trkpt lat="40.8876067" lon="14.299895"><ele>71.5</ele><time>2026-04-23T14:35:41.776Z</time></trkpt><trkpt lat="40.8876467" lon="14.29997"><ele>71.33333333333334</ele><time>2026-04-23T14:35:42.777Z</time></trkpt><trkpt lat="40.8876867" lon="14.300045"><ele>71.16666666666667</ele><time>2026-04-23T14:35:43.776Z</time></trkpt><trkpt lat="40.8877267" lon="14.3001167"><ele>71.0</ele><time>2026-04-23T14:35:44.777Z</time></trkpt><trkpt lat="40.88777" lon="14.3001867"><ele>71.0</ele><time>2026-04-23T14:35:45.775Z</time></trkpt><trkpt lat="40.8878367" lon="14.3003333"><ele>71.0</ele><time>2026-04-23T14:35:47.776Z</time></trkpt><trkpt lat="40.8878767" lon="14.300405"><ele>71.0</ele><time>2026-04-23T14:35:48.775Z</time></trkpt><trkpt lat="40.887915" lon="14.3004767"><ele>71.0</ele><time>2026-04-23T14:35:49.775Z</time></trkpt><trkpt lat="40.887955" lon="14.3005483"><ele>71.0</ele><time>2026-04-23T14:35:50.775Z</time></trkpt><trkpt lat="40.8879917" lon="14.3006217"><ele>71.0</ele><time>2026-04-23T14:35:51.777Z</time></trkpt><trkpt lat="40.8880317" lon="14.300695"><ele>71.57142857142857</ele><time>2026-04-23T14:35:52.776Z</time></trkpt><trkpt lat="40.8880683" lon="14.3007683"><ele>72.14285714285714</ele><time>2026-04-23T14:35:53.777Z</time></trkpt><trkpt lat="40.88811" lon="14.3008417"><ele>72.71428571428571</ele><time>2026-04-23T14:35:54.777Z</time></trkpt><trkpt lat="40.888155" lon="14.300915"><ele>73.28571428571428</ele><time>2026-04-23T14:35:55.777Z</time></trkpt><trkpt lat="40.8882017" lon="14.3009917"><ele>73.85714285714286</ele><time>2026-04-23T14:35:56.776Z</time></trkpt><trkpt lat="40.8882467" lon="14.301065"><ele>74.42857142857142</ele><time>2026-04-23T14:35:57.776Z</time></trkpt><trkpt lat="40.8882883" lon="14.3011367"><ele>75.0</ele><time>2026-04-23T14:35:58.778Z</time></trkpt><trkpt lat="40.8883317" lon="14.3012067"><ele>74.99999999999999</ele><time>2026-04-23T14:35:59.775Z</time></trkpt><trkpt lat="40.8883733" lon="14.30128"><ele>75.0</ele><time>2026-04-23T14:36:00.775Z</time></trkpt><trkpt lat="40.8884133" lon="14.3013533"><ele>75.0</ele><time>2026-04-23T14:36:01.777Z</time></trkpt><trkpt lat="40.8884533" lon="14.3014233"><ele>75.0</ele><time>2026-04-23T14:36:02.776Z</time></trkpt><trkpt lat="40.8884967" lon="14.3014983"><ele>75.0</ele><time>2026-04-23T14:36:03.781Z</time></trkpt><trkpt lat="40.88854" lon="14.3015733"><ele>74.99999999999999</ele><time>2026-04-23T14:36:04.776Z</time></trkpt><trkpt lat="40.8885817" lon="14.3016467"><ele>75.0</ele><time>2026-04-23T14:36:05.776Z</time></trkpt><trkpt lat="40.8886217" lon="14.301715"><ele>75.0</ele><time>2026-04-23T14:36:06.775Z</time></trkpt><trkpt lat="40.888665" lon="14.301785"><ele>75.0</ele><time>2026-04-23T14:36:07.776Z</time></trkpt><trkpt lat="40.8887383" lon="14.30192"><ele>75.0</ele><time>2026-04-23T14:36:09.775Z</time></trkpt><trkpt lat="40.8888117" lon="14.302045"><ele>75.0</ele><time>2026-04-23T14:36:11.775Z</time></trkpt><trkpt lat="40.8888867" lon="14.3021667"><ele>75.0</ele><time>2026-04-23T14:36:13.777Z</time></trkpt><trkpt lat="40.8889633" lon="14.302285"><ele>74.4</ele><time>2026-04-23T14:36:15.775Z</time></trkpt><trkpt lat="40.8890367" lon="14.3024067"><ele>73.8</ele><time>2026-04-23T14:36:17.776Z</time></trkpt><trkpt lat="40.889105" lon="14.302525"><ele>73.2</ele><time>2026-04-23T14:36:19.775Z</time></trkpt><trkpt lat="40.8891683" lon="14.302645"><ele>72.6</ele><time>2026-04-23T14:36:21.776Z</time></trkpt><trkpt lat="40.8892333" lon="14.3027533"><ele>72.0</ele><time>2026-04-23T14:36:23.776Z</time></trkpt><trkpt lat="40.8892983" lon="14.3028617"><ele>71.2</ele><time>2026-04-23T14:36:25.777Z</time></trkpt><trkpt lat="40.8893617" lon="14.30298"><ele>70.4</ele><time>2026-04-23T14:36:27.776Z</time></trkpt><trkpt lat="40.8894267" lon="14.303095"><ele>69.6</ele><time>2026-04-23T14:36:29.775Z</time></trkpt><trkpt lat="40.889495" lon="14.3032083"><ele>68.8</ele><time>2026-04-23T14:36:31.775Z</time></trkpt><trkpt lat="40.889565" lon="14.3033117"><ele>68.0</ele><time>2026-04-23T14:36:33.775Z</time></trkpt><trkpt lat="40.8896267" lon="14.303425"><ele>68.0</ele><time>2026-04-23T14:36:35.777Z</time></trkpt><trkpt lat="40.8896917" lon="14.3035383"><ele>68.0</ele><time>2026-04-23T14:36:37.775Z</time></trkpt><trkpt lat="40.8897533" lon="14.3036517"><ele>68.0</ele><time>2026-04-23T14:36:39.775Z</time></trkpt><trkpt lat="40.8898183" lon="14.30376"><ele>68.0</ele><time>2026-04-23T14:36:41.776Z</time></trkpt><trkpt lat="40.88988" lon="14.3038717"><ele>68.0</ele><time>2026-04-23T14:36:43.776Z</time></trkpt><trkpt lat="40.8899467" lon="14.3039917"><ele>67.5</ele><time>2026-04-23T14:36:45.776Z</time></trkpt><trkpt lat="40.8900083" lon="14.3041133"><ele>67.0</ele><time>2026-04-23T14:36:47.777Z</time></trkpt><trkpt lat="40.8900767" lon="14.3042333"><ele>66.5</ele><time>2026-04-23T14:36:49.775Z</time></trkpt><trkpt lat="40.8901433" lon="14.30436"><ele>66.0</ele><time>2026-04-23T14:36:51.775Z</time></trkpt><trkpt lat="40.8902067" lon="14.3044783"><ele>65.8</ele><time>2026-04-23T14:36:53.777Z</time></trkpt><trkpt lat="40.8902717" lon="14.3045967"><ele>65.6</ele><time>2026-04-23T14:36:55.781Z</time></trkpt><trkpt lat="40.8903317" lon="14.3047083"><ele>65.4</ele><time>2026-04-23T14:36:57.776Z</time></trkpt><trkpt lat="40.8903633" lon="14.30481"><ele>65.2</ele><time>2026-04-23T14:36:59.775Z</time></trkpt><trkpt lat="40.890365" lon="14.3049167"><ele>65.0</ele><time>2026-04-23T14:37:01.777Z</time></trkpt><trkpt lat="40.8903583" lon="14.3050333"><ele>65.0</ele><time>2026-04-23T14:37:03.776Z</time></trkpt><trkpt lat="40.8903783" lon="14.3051483"><ele>65.0</ele><time>2026-04-23T14:37:05.777Z</time></trkpt><trkpt lat="40.890415" lon="14.3052183"><ele>65.0</ele><time>2026-04-23T14:37:07.777Z</time></trkpt><trkpt lat="40.8905033" lon="14.3052067"><ele>65.0</ele><time>2026-04-23T14:37:09.776Z</time></trkpt><trkpt lat="40.8905983" lon="14.3052033"><ele>65.0</ele><time>2026-04-23T14:37:11.782Z</time></trkpt><trkpt lat="40.8907183" lon="14.30521"><ele>65.0</ele><time>2026-04-23T14:37:13.776Z</time></trkpt><trkpt lat="40.890835" lon="14.3052383"><ele>65.0</ele><time>2026-04-23T14:37:15.775Z</time></trkpt><trkpt lat="40.89095" lon="14.3052767"><ele>65.0</ele><time>2026-04-23T14:37:17.775Z</time></trkpt><trkpt lat="40.8910617" lon="14.3053233"><ele>65.0</ele><time>2026-04-23T14:37:19.778Z</time></trkpt><trkpt lat="40.8911617" lon="14.30538"><ele>65.0</ele><time>2026-04-23T14:37:21.776Z</time></trkpt><trkpt lat="40.8912467" lon="14.3054383"><ele>65.0</ele><time>2026-04-23T14:37:23.775Z</time></trkpt><trkpt lat="40.8913183" lon="14.305485"><ele>65.0</ele><time>2026-04-23T14:37:25.777Z</time></trkpt><trkpt lat="40.89136" lon="14.305565"><ele>65.0</ele><time>2026-04-23T14:37:29.777Z</time></trkpt><trkpt lat="40.8914267" lon="14.3056017"><ele>65.0</ele><time>2026-04-23T14:37:33.778Z</time></trkpt><trkpt lat="40.8915117" lon="14.3056517"><ele>65.0</ele><time>2026-04-23T14:37:36.778Z</time></trkpt><trkpt lat="40.8915767" lon="14.30571"><ele>64.8</ele><time>2026-04-23T14:37:38.776Z</time></trkpt><trkpt lat="40.89165" lon="14.305775"><ele>64.6</ele><time>2026-04-23T14:37:40.777Z</time></trkpt><trkpt lat="40.891735" lon="14.3058533"><ele>64.4</ele><time>2026-04-23T14:37:42.778Z</time></trkpt><trkpt lat="40.8918333" lon="14.3059183"><ele>64.2</ele><time>2026-04-23T14:37:44.777Z</time></trkpt><trkpt lat="40.89194" lon="14.3059867"><ele>64.0</ele><time>2026-04-23T14:37:46.777Z</time></trkpt><trkpt lat="40.8920467" lon="14.3060333"><ele>63.800000000000004</ele><time>2026-04-23T14:37:48.776Z</time></trkpt><trkpt lat="40.892155" lon="14.306065"><ele>63.60000000000001</ele><time>2026-04-23T14:37:50.778Z</time></trkpt><trkpt lat="40.8922533" lon="14.3060917"><ele>63.4</ele><time>2026-04-23T14:37:52.778Z</time></trkpt><trkpt lat="40.8923517" lon="14.3061017"><ele>63.2</ele><time>2026-04-23T14:37:54.776Z</time></trkpt><trkpt lat="40.8924583" lon="14.3060983"><ele>63.0</ele><time>2026-04-23T14:37:56.777Z</time></trkpt><trkpt lat="40.8925617" lon="14.3060683"><ele>63.599999999999994</ele><time>2026-04-23T14:37:58.782Z</time></trkpt><trkpt lat="40.8926583" lon="14.3060233"><ele>64.19999999999999</ele><time>2026-04-23T14:38:00.776Z</time></trkpt><trkpt lat="40.89275" lon="14.3059767"><ele>64.8</ele><time>2026-04-23T14:38:02.776Z</time></trkpt><trkpt lat="40.8928417" lon="14.3059167"><ele>65.39999999999999</ele><time>2026-04-23T14:38:04.777Z</time></trkpt><trkpt lat="40.8929417" lon="14.30585"><ele>66.0</ele><time>2026-04-23T14:38:06.777Z</time></trkpt><trkpt lat="40.8930233" lon="14.3057683"><ele>66.0</ele><time>2026-04-23T14:38:08.775Z</time></trkpt><trkpt lat="40.8931083" lon="14.3056833"><ele>66.0</ele><time>2026-04-23T14:38:10.776Z</time></trkpt><trkpt lat="40.8931917" lon="14.3056083"><ele>66.0</ele><time>2026-04-23T14:38:12.777Z</time></trkpt><trkpt lat="40.8932733" lon="14.3055183"><ele>66.0</ele><time>2026-04-23T14:38:14.776Z</time></trkpt><trkpt lat="40.893355" lon="14.3054267"><ele>66.0</ele><time>2026-04-23T14:38:16.776Z</time></trkpt><trkpt lat="40.89343" lon="14.30531"><ele>66.0</ele><time>2026-04-23T14:38:18.776Z</time></trkpt><trkpt lat="40.8934917" lon="14.3052"><ele>66.0</ele><time>2026-04-23T14:38:20.777Z</time></trkpt><trkpt lat="40.89354" lon="14.3050867"><ele>66.0</ele><time>2026-04-23T14:38:22.777Z</time></trkpt><trkpt lat="40.89357" lon="14.3049567"><ele>66.0</ele><time>2026-04-23T14:38:24.778Z</time></trkpt><trkpt lat="40.8936" lon="14.3048367"><ele>66.0</ele><time>2026-04-23T14:38:26.775Z</time></trkpt><trkpt lat="40.8936217" lon="14.3047183"><ele>66.0</ele><time>2026-04-23T14:38:28.776Z</time></trkpt><trkpt lat="40.8936333" lon="14.30458"><ele>66.0</ele><time>2026-04-23T14:38:30.776Z</time></trkpt><trkpt lat="40.8936283" lon="14.3044367"><ele>66.0</ele><time>2026-04-23T14:38:32.777Z</time></trkpt><trkpt lat="40.89361" lon="14.304305"><ele>66.0</ele><time>2026-04-23T14:38:34.776Z</time></trkpt><trkpt lat="40.89359" lon="14.304165"><ele>66.0</ele><time>2026-04-23T14:38:36.777Z</time></trkpt><trkpt lat="40.893565" lon="14.3040283"><ele>65.8</ele><time>2026-04-23T14:38:38.777Z</time></trkpt><trkpt lat="40.8935333" lon="14.3039017"><ele>65.6</ele><time>2026-04-23T14:38:40.776Z</time></trkpt><trkpt lat="40.8934933" lon="14.303765"><ele>65.4</ele><time>2026-04-23T14:38:42.776Z</time></trkpt><trkpt lat="40.8934583" lon="14.30363"><ele>65.2</ele><time>2026-04-23T14:38:44.777Z</time></trkpt><trkpt lat="40.8934233" lon="14.303505"><ele>65.0</ele><time>2026-04-23T14:38:46.777Z</time></trkpt><trkpt lat="40.8933817" lon="14.30339"><ele>64.75</ele><time>2026-04-23T14:38:48.776Z</time></trkpt><trkpt lat="40.8933483" lon="14.3032583"><ele>64.5</ele><time>2026-04-23T14:38:50.777Z</time></trkpt><trkpt lat="40.8933167" lon="14.3031233"><ele>64.25</ele><time>2026-04-23T14:38:52.777Z</time></trkpt><trkpt lat="40.8932883" lon="14.302975"><ele>64.0</ele><time>2026-04-23T14:38:54.776Z</time></trkpt><trkpt lat="40.8932633" lon="14.3028133"><ele>64.0</ele><time>2026-04-23T14:38:56.777Z</time></trkpt><trkpt lat="40.8932383" lon="14.302655"><ele>64.0</ele><time>2026-04-23T14:38:58.777Z</time></trkpt><trkpt lat="40.893215" lon="14.3025"><ele>64.0</ele><time>2026-04-23T14:39:00.776Z</time></trkpt><trkpt lat="40.8932067" lon="14.3023417"><ele>64.0</ele><time>2026-04-23T14:39:02.777Z</time></trkpt><trkpt lat="40.893215" lon="14.302185"><ele>64.5</ele><time>2026-04-23T14:39:04.776Z</time></trkpt><trkpt lat="40.8932467" lon="14.302025"><ele>65.0</ele><time>2026-04-23T14:39:06.778Z</time></trkpt><trkpt lat="40.8932667" lon="14.301945"><ele>65.5</ele><time>2026-04-23T14:39:07.778Z</time></trkpt><trkpt lat="40.89329" lon="14.3018667"><ele>66.0</ele><time>2026-04-23T14:39:08.777Z</time></trkpt><trkpt lat="40.89332" lon="14.30179"><ele>66.5</ele><time>2026-04-23T14:39:09.775Z</time></trkpt><trkpt lat="40.8933767" lon="14.3016517"><ele>67.0</ele><time>2026-04-23T14:39:11.778Z</time></trkpt><trkpt lat="40.8934367" lon="14.3015133"><ele>67.4</ele><time>2026-04-23T14:39:13.776Z</time></trkpt><trkpt lat="40.8935033" lon="14.3013717"><ele>67.80000000000001</ele><time>2026-04-23T14:39:15.775Z</time></trkpt><trkpt lat="40.8935383" lon="14.3012983"><ele>68.2</ele><time>2026-04-23T14:39:16.776Z</time></trkpt><trkpt lat="40.8935683" lon="14.301225"><ele>68.60000000000001</ele><time>2026-04-23T14:39:17.777Z</time></trkpt><trkpt lat="40.8936283" lon="14.3010883"><ele>69.0</ele><time>2026-04-23T14:39:19.778Z</time></trkpt><trkpt lat="40.8936933" lon="14.3009517"><ele>69.0</ele><time>2026-04-23T14:39:21.776Z</time></trkpt><trkpt lat="40.8937267" lon="14.3008783"><ele>69.0</ele><time>2026-04-23T14:39:22.776Z</time></trkpt><trkpt lat="40.8937933" lon="14.3007383"><ele>69.0</ele><time>2026-04-23T14:39:24.776Z</time></trkpt><trkpt lat="40.8938267" lon="14.300665"><ele>69.0</ele><time>2026-04-23T14:39:25.777Z</time></trkpt><trkpt lat="40.8938983" lon="14.300525"><ele>69.0</ele><time>2026-04-23T14:39:27.776Z</time></trkpt><trkpt lat="40.8939383" lon="14.300455"><ele>69.0</ele><time>2026-04-23T14:39:28.777Z</time></trkpt><trkpt lat="40.8939767" lon="14.3003867"><ele>68.85714285714286</ele><time>2026-04-23T14:39:29.777Z</time></trkpt><trkpt lat="40.8940217" lon="14.3003183"><ele>68.71428571428572</ele><time>2026-04-23T14:39:30.777Z</time></trkpt><trkpt lat="40.8940667" lon="14.3002533"><ele>68.57142857142857</ele><time>2026-04-23T14:39:31.777Z</time></trkpt><trkpt lat="40.89411" lon="14.3001783"><ele>68.42857142857143</ele><time>2026-04-23T14:39:32.777Z</time></trkpt><trkpt lat="40.894155" lon="14.3001117"><ele>68.28571428571428</ele><time>2026-04-23T14:39:33.777Z</time></trkpt><trkpt lat="40.8942017" lon="14.300045"><ele>68.14285714285714</ele><time>2026-04-23T14:39:34.777Z</time></trkpt><trkpt lat="40.8942433" lon="14.2999767"><ele>68.0</ele><time>2026-04-23T14:39:35.779Z</time></trkpt><trkpt lat="40.894285" lon="14.29991"><ele>68.28571428571428</ele><time>2026-04-23T14:39:36.777Z</time></trkpt><trkpt lat="40.8943317" lon="14.299845"><ele>68.57142857142857</ele><time>2026-04-23T14:39:37.777Z</time></trkpt><trkpt lat="40.8943833" lon="14.29978"><ele>68.85714285714286</ele><time>2026-04-23T14:39:38.778Z</time></trkpt><trkpt lat="40.894435" lon="14.299715"><ele>69.14285714285714</ele><time>2026-04-23T14:39:39.776Z</time></trkpt><trkpt lat="40.894485" lon="14.2996517"><ele>69.42857142857143</ele><time>2026-04-23T14:39:40.777Z</time></trkpt><trkpt lat="40.8945317" lon="14.2995883"><ele>69.71428571428571</ele><time>2026-04-23T14:39:41.778Z</time></trkpt><trkpt lat="40.89458" lon="14.2995317"><ele>70.0</ele><time>2026-04-23T14:39:42.777Z</time></trkpt><trkpt lat="40.8946783" lon="14.29942"><ele>70.0</ele><time>2026-04-23T14:39:44.777Z</time></trkpt><trkpt lat="40.8947683" lon="14.2993083"><ele>70.0</ele><time>2026-04-23T14:39:46.777Z</time></trkpt><trkpt lat="40.8948617" lon="14.2992083"><ele>70.0</ele><time>2026-04-23T14:39:48.777Z</time></trkpt><trkpt lat="40.8949433" lon="14.2991283"><ele>70.0</ele><time>2026-04-23T14:39:50.778Z</time></trkpt><trkpt lat="40.8950267" lon="14.29904"><ele>70.0</ele><time>2026-04-23T14:39:52.776Z</time></trkpt><trkpt lat="40.89512" lon="14.298955"><ele>70.0</ele><time>2026-04-23T14:39:54.778Z</time></trkpt><trkpt lat="40.89522" lon="14.2988667"><ele>70.0</ele><time>2026-04-23T14:39:56.777Z</time></trkpt><trkpt lat="40.89531" lon="14.298775"><ele>70.0</ele><time>2026-04-23T14:39:58.776Z</time></trkpt><trkpt lat="40.895405" lon="14.298685"><ele>70.0</ele><time>2026-04-23T14:40:00.785Z</time></trkpt><trkpt lat="40.8955017" lon="14.2985933"><ele>70.0</ele><time>2026-04-23T14:40:02.778Z</time></trkpt><trkpt lat="40.8956" lon="14.2985017"><ele>70.0</ele><time>2026-04-23T14:40:04.776Z</time></trkpt><trkpt lat="40.895695" lon="14.2984117"><ele>70.0</ele><time>2026-04-23T14:40:06.776Z</time></trkpt><trkpt lat="40.8957967" lon="14.2983267"><ele>70.0</ele><time>2026-04-23T14:40:08.778Z</time></trkpt><trkpt lat="40.895905" lon="14.29825"><ele>70.0</ele><time>2026-04-23T14:40:10.776Z</time></trkpt><trkpt lat="40.8960167" lon="14.2981833"><ele>70.0</ele><time>2026-04-23T14:40:12.778Z</time></trkpt><trkpt lat="40.89608" lon="14.2981733"><ele>70.0</ele><time>2026-04-23T14:40:13.777Z</time></trkpt><trkpt lat="40.8961967" lon="14.2981567"><ele>70.0</ele><time>2026-04-23T14:40:15.776Z</time></trkpt><trkpt lat="40.8962917" lon="14.298145"><ele>70.16666666666666</ele><time>2026-04-23T14:40:17.776Z</time></trkpt><trkpt lat="40.89637" lon="14.2981317"><ele>70.33333333333333</ele><time>2026-04-23T14:40:19.776Z</time></trkpt><trkpt lat="40.89645" lon="14.2981317"><ele>70.5</ele><time>2026-04-23T14:40:21.776Z</time></trkpt><trkpt lat="40.8965233" lon="14.298115"><ele>70.66666666666667</ele><time>2026-04-23T14:40:23.776Z</time></trkpt><trkpt lat="40.8965917" lon="14.29807"><ele>70.83333333333334</ele><time>2026-04-23T14:40:25.777Z</time></trkpt><trkpt lat="40.8966683" lon="14.2980133"><ele>71.0</ele><time>2026-04-23T14:40:27.778Z</time></trkpt><trkpt lat="40.8967383" lon="14.297925"><ele>71.2</ele><time>2026-04-23T14:40:29.777Z</time></trkpt><trkpt lat="40.8968283" lon="14.2978383"><ele>71.39999999999999</ele><time>2026-04-23T14:40:31.776Z</time></trkpt><trkpt lat="40.89694" lon="14.297765"><ele>71.6</ele><time>2026-04-23T14:40:33.776Z</time></trkpt><trkpt lat="40.89705" lon="14.2976767"><ele>71.8</ele><time>2026-04-23T14:40:35.781Z</time></trkpt><trkpt lat="40.8971033" lon="14.2976283"><ele>72.0</ele><time>2026-04-23T14:40:36.776Z</time></trkpt><trkpt lat="40.8971567" lon="14.2975667"><ele>72.00000000000001</ele><time>2026-04-23T14:40:37.776Z</time></trkpt><trkpt lat="40.8972067" lon="14.2975033"><ele>72.0</ele><time>2026-04-23T14:40:38.775Z</time></trkpt><trkpt lat="40.8972567" lon="14.2974367"><ele>72.0</ele><time>2026-04-23T14:40:39.777Z</time></trkpt><trkpt lat="40.8973033" lon="14.297375"><ele>72.0</ele><time>2026-04-23T14:40:40.777Z</time></trkpt><trkpt lat="40.8973467" lon="14.29731"><ele>72.0</ele><time>2026-04-23T14:40:41.776Z</time></trkpt><trkpt lat="40.89739" lon="14.2972417"><ele>72.00000000000001</ele><time>2026-04-23T14:40:42.777Z</time></trkpt><trkpt lat="40.8974283" lon="14.2971717"><ele>72.0</ele><time>2026-04-23T14:40:43.779Z</time></trkpt><trkpt lat="40.8974667" lon="14.297095"><ele>72.0</ele><time>2026-04-23T14:40:44.776Z</time></trkpt><trkpt lat="40.8975" lon="14.2970183"><ele>72.0</ele><time>2026-04-23T14:40:45.778Z</time></trkpt><trkpt lat="40.8975267" lon="14.2969383"><ele>72.0</ele><time>2026-04-23T14:40:46.777Z</time></trkpt><trkpt lat="40.89755" lon="14.2968583"><ele>72.0</ele><time>2026-04-23T14:40:47.776Z</time></trkpt><trkpt lat="40.89759" lon="14.2966983"><ele>72.0</ele><time>2026-04-23T14:40:49.776Z</time></trkpt><trkpt lat="40.8976083" lon="14.2966183"><ele>72.0</ele><time>2026-04-23T14:40:50.777Z</time></trkpt><trkpt lat="40.8976233" lon="14.296535"><ele>72.00000000000001</ele><time>2026-04-23T14:40:51.777Z</time></trkpt><trkpt lat="40.8976417" lon="14.2964533"><ele>72.0</ele><time>2026-04-23T14:40:52.776Z</time></trkpt><trkpt lat="40.8976617" lon="14.29637"><ele>72.0</ele><time>2026-04-23T14:40:53.777Z</time></trkpt><trkpt lat="40.8976867" lon="14.2962883"><ele>72.0</ele><time>2026-04-23T14:40:54.776Z</time></trkpt><trkpt lat="40.8977117" lon="14.2962067"><ele>72.0</ele><time>2026-04-23T14:40:55.777Z</time></trkpt><trkpt lat="40.8977383" lon="14.2961283"><ele>72.00000000000001</ele><time>2026-04-23T14:40:56.777Z</time></trkpt><trkpt lat="40.897775" lon="14.2960533"><ele>72.0</ele><time>2026-04-23T14:40:57.777Z</time></trkpt><trkpt lat="40.897815" lon="14.2959767"><ele>72.00000000000001</ele><time>2026-04-23T14:40:58.776Z</time></trkpt><trkpt lat="40.8978567" lon="14.2959083"><ele>72.0</ele><time>2026-04-23T14:40:59.776Z</time></trkpt><trkpt lat="40.8979017" lon="14.29584"><ele>72.0</ele><time>2026-04-23T14:41:00.777Z</time></trkpt><trkpt lat="40.897945" lon="14.29577"><ele>72.0</ele><time>2026-04-23T14:41:01.777Z</time></trkpt><trkpt lat="40.8979917" lon="14.2957067"><ele>72.0</ele><time>2026-04-23T14:41:02.776Z</time></trkpt><trkpt lat="40.8980333" lon="14.29564"><ele>72.00000000000001</ele><time>2026-04-23T14:41:03.775Z</time></trkpt><trkpt lat="40.898075" lon="14.2955717"><ele>72.0</ele><time>2026-04-23T14:41:04.776Z</time></trkpt><trkpt lat="40.8981483" lon="14.2954383"><ele>71.66666666666667</ele><time>2026-04-23T14:41:06.775Z</time></trkpt><trkpt lat="40.89819" lon="14.2953683"><ele>71.33333333333333</ele><time>2026-04-23T14:41:07.776Z</time></trkpt><trkpt lat="40.898235" lon="14.2953033"><ele>71.0</ele><time>2026-04-23T14:41:08.775Z</time></trkpt><trkpt lat="40.8982833" lon="14.2952467"><ele>70.66666666666666</ele><time>2026-04-23T14:41:09.775Z</time></trkpt><trkpt lat="40.8983367" lon="14.2951933"><ele>70.33333333333333</ele><time>2026-04-23T14:41:10.775Z</time></trkpt><trkpt lat="40.8984283" lon="14.2950967"><ele>70.0</ele><time>2026-04-23T14:41:12.775Z</time></trkpt><trkpt lat="40.8985317" lon="14.2950067"><ele>70.8</ele><time>2026-04-23T14:41:14.778Z</time></trkpt><trkpt lat="40.898635" lon="14.294935"><ele>71.6</ele><time>2026-04-23T14:41:16.776Z</time></trkpt><trkpt lat="40.8987417" lon="14.2948517"><ele>72.4</ele><time>2026-04-23T14:41:18.776Z</time></trkpt><trkpt lat="40.8988533" lon="14.2947767"><ele>73.2</ele><time>2026-04-23T14:41:20.776Z</time></trkpt><trkpt lat="40.8989067" lon="14.294725"><ele>74.0</ele><time>2026-04-23T14:41:21.776Z</time></trkpt><trkpt lat="40.898965" lon="14.2946867"><ele>74.0</ele><time>2026-04-23T14:41:22.775Z</time></trkpt><trkpt lat="40.89907" lon="14.29462"><ele>74.0</ele><time>2026-04-23T14:41:24.775Z</time></trkpt><trkpt lat="40.8991783" lon="14.29456"><ele>74.0</ele><time>2026-04-23T14:41:26.776Z</time></trkpt><trkpt lat="40.89928" lon="14.29449"><ele>74.0</ele><time>2026-04-23T14:41:28.776Z</time></trkpt><trkpt lat="40.8993917" lon="14.29445"><ele>73.5</ele><time>2026-04-23T14:41:30.775Z</time></trkpt><trkpt lat="40.8995117" lon="14.2944283"><ele>73.0</ele><time>2026-04-23T14:41:32.775Z</time></trkpt><trkpt lat="40.8996217" lon="14.2944167"><ele>72.5</ele><time>2026-04-23T14:41:34.777Z</time></trkpt><trkpt lat="40.899735" lon="14.2944033"><ele>72.0</ele><time>2026-04-23T14:41:36.778Z</time></trkpt><trkpt lat="40.899845" lon="14.2943867"><ele>72.0</ele><time>2026-04-23T14:41:38.778Z</time></trkpt><trkpt lat="40.89996" lon="14.2943717"><ele>72.0</ele><time>2026-04-23T14:41:40.778Z</time></trkpt><trkpt lat="40.90007" lon="14.2943483"><ele>72.0</ele><time>2026-04-23T14:41:42.776Z</time></trkpt><trkpt lat="40.9001683" lon="14.2943283"><ele>72.0</ele><time>2026-04-23T14:41:44.776Z</time></trkpt><trkpt lat="40.9002667" lon="14.294295"><ele>72.0</ele><time>2026-04-23T14:41:46.778Z</time></trkpt><trkpt lat="40.900365" lon="14.2942683"><ele>72.0</ele><time>2026-04-23T14:41:48.779Z</time></trkpt><trkpt lat="40.9004633" lon="14.294225"><ele>72.0</ele><time>2026-04-23T14:41:50.777Z</time></trkpt><trkpt lat="40.900565" lon="14.2941817"><ele>72.0</ele><time>2026-04-23T14:41:52.776Z</time></trkpt><trkpt lat="40.9006633" lon="14.294135"><ele>72.0</ele><time>2026-04-23T14:41:54.776Z</time></trkpt><trkpt lat="40.9007567" lon="14.294075"><ele>72.0</ele><time>2026-04-23T14:41:56.776Z</time></trkpt><trkpt lat="40.9008567" lon="14.29403"><ele>72.0</ele><time>2026-04-23T14:41:58.776Z</time></trkpt><trkpt lat="40.90096" lon="14.2939833"><ele>72.0</ele><time>2026-04-23T14:42:00.776Z</time></trkpt><trkpt lat="40.9010683" lon="14.2939333"><ele>72.0</ele><time>2026-04-23T14:42:02.777Z</time></trkpt><trkpt lat="40.9011733" lon="14.2938633"><ele>72.0</ele><time>2026-04-23T14:42:04.776Z</time></trkpt><trkpt lat="40.901245" lon="14.2937567"><ele>72.0</ele><time>2026-04-23T14:42:06.777Z</time></trkpt><trkpt lat="40.9012417" lon="14.2936283"><ele>72.0</ele><time>2026-04-23T14:42:08.777Z</time></trkpt><trkpt lat="40.9012083" lon="14.293555"><ele>72.0</ele><time>2026-04-23T14:42:09.776Z</time></trkpt><trkpt lat="40.9011333" lon="14.293435"><ele>72.0</ele><time>2026-04-23T14:42:11.777Z</time></trkpt><trkpt lat="40.90109" lon="14.293365"><ele>72.0</ele><time>2026-04-23T14:42:12.776Z</time></trkpt><trkpt lat="40.90105" lon="14.293295"><ele>72.0</ele><time>2026-04-23T14:42:13.776Z</time></trkpt><trkpt lat="40.9010117" lon="14.2932217"><ele>72.0</ele><time>2026-04-23T14:42:14.776Z</time></trkpt><trkpt lat="40.9009383" lon="14.293085"><ele>72.33333333333333</ele><time>2026-04-23T14:42:16.778Z</time></trkpt><trkpt lat="40.9008983" lon="14.2930083"><ele>72.66666666666667</ele><time>2026-04-23T14:42:17.776Z</time></trkpt><trkpt lat="40.90086" lon="14.2929317"><ele>73.0</ele><time>2026-04-23T14:42:18.777Z</time></trkpt><trkpt lat="40.900825" lon="14.292855"><ele>73.33333333333334</ele><time>2026-04-23T14:42:19.776Z</time></trkpt><trkpt lat="40.90079" lon="14.2927817"><ele>73.66666666666667</ele><time>2026-04-23T14:42:20.776Z</time></trkpt><trkpt lat="40.9007283" lon="14.292635"><ele>74.0</ele><time>2026-04-23T14:42:22.776Z</time></trkpt><trkpt lat="40.9006967" lon="14.2925567"><ele>74.0</ele><time>2026-04-23T14:42:23.777Z</time></trkpt><trkpt lat="40.9006417" lon="14.2924883"><ele>74.0</ele><time>2026-04-23T14:42:24.778Z</time></trkpt><trkpt lat="40.9006067" lon="14.292405"><ele>74.0</ele><time>2026-04-23T14:42:25.776Z</time></trkpt><trkpt lat="40.9005633" lon="14.2923267"><ele>74.0</ele><time>2026-04-23T14:42:26.778Z</time></trkpt><trkpt lat="40.90052" lon="14.2922467"><ele>74.0</ele><time>2026-04-23T14:42:27.777Z</time></trkpt><trkpt lat="40.9004867" lon="14.2921633"><ele>74.0</ele><time>2026-04-23T14:42:28.777Z</time></trkpt><trkpt lat="40.900455" lon="14.2920817"><ele>74.0</ele><time>2026-04-23T14:42:29.777Z</time></trkpt><trkpt lat="40.9004233" lon="14.292005"><ele>74.28571428571429</ele><time>2026-04-23T14:42:30.776Z</time></trkpt><trkpt lat="40.90039" lon="14.2919183"><ele>74.57142857142857</ele><time>2026-04-23T14:42:31.777Z</time></trkpt><trkpt lat="40.900355" lon="14.2918417"><ele>74.85714285714286</ele><time>2026-04-23T14:42:32.777Z</time></trkpt><trkpt lat="40.9003217" lon="14.2917683"><ele>75.14285714285714</ele><time>2026-04-23T14:42:33.776Z</time></trkpt><trkpt lat="40.9002883" lon="14.2916867"><ele>75.42857142857143</ele><time>2026-04-23T14:42:34.776Z</time></trkpt><trkpt lat="40.900255" lon="14.2916067"><ele>75.71428571428571</ele><time>2026-04-23T14:42:35.777Z</time></trkpt><trkpt lat="40.90022" lon="14.2915283"><ele>76.0</ele><time>2026-04-23T14:42:36.776Z</time></trkpt><trkpt lat="40.9001867" lon="14.2914517"><ele>76.14285714285714</ele><time>2026-04-23T14:42:37.778Z</time></trkpt><trkpt lat="40.9001533" lon="14.291375"><ele>76.28571428571429</ele><time>2026-04-23T14:42:38.776Z</time></trkpt><trkpt lat="40.90012" lon="14.2912967"><ele>76.42857142857143</ele><time>2026-04-23T14:42:39.776Z</time></trkpt><trkpt lat="40.90008" lon="14.291215"><ele>76.57142857142857</ele><time>2026-04-23T14:42:40.776Z</time></trkpt><trkpt lat="40.9000433" lon="14.2911433"><ele>76.71428571428572</ele><time>2026-04-23T14:42:41.777Z</time></trkpt><trkpt lat="40.9000067" lon="14.2910583"><ele>76.85714285714286</ele><time>2026-04-23T14:42:42.775Z</time></trkpt><trkpt lat="40.8999583" lon="14.2909683"><ele>77.0</ele><time>2026-04-23T14:42:43.777Z</time></trkpt><trkpt lat="40.899915" lon="14.2908767"><ele>77.16666666666667</ele><time>2026-04-23T14:42:44.775Z</time></trkpt><trkpt lat="40.8998717" lon="14.2907817"><ele>77.33333333333334</ele><time>2026-04-23T14:42:45.775Z</time></trkpt><trkpt lat="40.89983" lon="14.2906883"><ele>77.5</ele><time>2026-04-23T14:42:46.775Z</time></trkpt><trkpt lat="40.89979" lon="14.290605"><ele>77.66666666666667</ele><time>2026-04-23T14:42:47.778Z</time></trkpt><trkpt lat="40.8997517" lon="14.2905183"><ele>77.83333333333333</ele><time>2026-04-23T14:42:48.776Z</time></trkpt><trkpt lat="40.8997217" lon="14.2904333"><ele>78.0</ele><time>2026-04-23T14:42:49.776Z</time></trkpt><trkpt lat="40.8996517" lon="14.2902833"><ele>78.14285714285715</ele><time>2026-04-23T14:42:51.776Z</time></trkpt><trkpt lat="40.899615" lon="14.290215"><ele>78.28571428571428</ele><time>2026-04-23T14:42:52.778Z</time></trkpt><trkpt lat="40.899575" lon="14.2901417"><ele>78.42857142857143</ele><time>2026-04-23T14:42:53.775Z</time></trkpt><trkpt lat="40.8995467" lon="14.290055"><ele>78.57142857142858</ele><time>2026-04-23T14:42:54.776Z</time></trkpt><trkpt lat="40.8995183" lon="14.2899667"><ele>78.71428571428572</ele><time>2026-04-23T14:42:55.776Z</time></trkpt><trkpt lat="40.8994883" lon="14.2898767"><ele>78.85714285714286</ele><time>2026-04-23T14:42:56.775Z</time></trkpt><trkpt lat="40.8994567" lon="14.2898017"><ele>79.0</ele><time>2026-04-23T14:42:57.776Z</time></trkpt><trkpt lat="40.8993883" lon="14.2896633"><ele>79.2</ele><time>2026-04-23T14:42:59.775Z</time></trkpt><trkpt lat="40.8993383" lon="14.2895433"><ele>79.4</ele><time>2026-04-23T14:43:01.775Z</time></trkpt><trkpt lat="40.899305" lon="14.289425"><ele>79.6</ele><time>2026-04-23T14:43:03.776Z</time></trkpt><trkpt lat="40.8992283" lon="14.28937"><ele>79.8</ele><time>2026-04-23T14:43:05.775Z</time></trkpt><trkpt lat="40.8991667" lon="14.2892967"><ele>80.0</ele><time>2026-04-23T14:43:07.777Z</time></trkpt><trkpt lat="40.8990933" lon="14.2892033"><ele>80.2</ele><time>2026-04-23T14:43:09.777Z</time></trkpt><trkpt lat="40.8990183" lon="14.28909"><ele>80.4</ele><time>2026-04-23T14:43:11.775Z</time></trkpt><trkpt lat="40.898955" lon="14.2889917"><ele>80.6</ele><time>2026-04-23T14:43:13.776Z</time></trkpt><trkpt lat="40.8989033" lon="14.2888933"><ele>80.8</ele><time>2026-04-23T14:43:15.776Z</time></trkpt><trkpt lat="40.8988533" lon="14.2888083"><ele>81.0</ele><time>2026-04-23T14:43:17.776Z</time></trkpt><trkpt lat="40.89882" lon="14.2887133"><ele>81.0</ele><time>2026-04-23T14:43:19.776Z</time></trkpt><trkpt lat="40.8987717" lon="14.28863"><ele>81.0</ele><time>2026-04-23T14:43:21.776Z</time></trkpt><trkpt lat="40.8987267" lon="14.2885267"><ele>81.0</ele><time>2026-04-23T14:43:23.776Z</time></trkpt><trkpt lat="40.8986633" lon="14.2884267"><ele>81.0</ele><time>2026-04-23T14:43:25.777Z</time></trkpt><trkpt lat="40.8986183" lon="14.2883"><ele>81.0</ele><time>2026-04-23T14:43:27.776Z</time></trkpt><trkpt lat="40.8985683" lon="14.2881817"><ele>80.8</ele><time>2026-04-23T14:43:29.776Z</time></trkpt><trkpt lat="40.8985383" lon="14.28805"><ele>80.6</ele><time>2026-04-23T14:43:31.776Z</time></trkpt><trkpt lat="40.898525" lon="14.2879233"><ele>80.4</ele><time>2026-04-23T14:43:33.777Z</time></trkpt><trkpt lat="40.8985183" lon="14.287805"><ele>80.2</ele><time>2026-04-23T14:43:35.776Z</time></trkpt><trkpt lat="40.8985167" lon="14.2876833"><ele>80.0</ele><time>2026-04-23T14:43:37.775Z</time></trkpt><trkpt lat="40.8985133" lon="14.2875583"><ele>80.0</ele><time>2026-04-23T14:43:39.775Z</time></trkpt><trkpt lat="40.8985167" lon="14.28743"><ele>80.0</ele><time>2026-04-23T14:43:41.777Z</time></trkpt><trkpt lat="40.8985233" lon="14.28732"><ele>80.0</ele><time>2026-04-23T14:43:43.778Z</time></trkpt><trkpt lat="40.8985283" lon="14.2872283"><ele>80.0</ele><time>2026-04-23T14:43:45.775Z</time></trkpt><trkpt lat="40.8984883" lon="14.287125"><ele>80.0</ele><time>2026-04-23T14:43:48.776Z</time></trkpt><trkpt lat="40.898375" lon="14.2870967"><ele>80.28571428571428</ele><time>2026-04-23T14:43:50.775Z</time></trkpt><trkpt lat="40.8982967" lon="14.2870767"><ele>80.57142857142857</ele><time>2026-04-23T14:43:51.776Z</time></trkpt><trkpt lat="40.898225" lon="14.2870517"><ele>80.85714285714286</ele><time>2026-04-23T14:43:52.776Z</time></trkpt><trkpt lat="40.8981617" lon="14.2870267"><ele>81.14285714285714</ele><time>2026-04-23T14:43:53.776Z</time></trkpt><trkpt lat="40.8980983" lon="14.286985"><ele>81.42857142857143</ele><time>2026-04-23T14:43:54.776Z</time></trkpt><trkpt lat="40.89803" lon="14.2869583"><ele>81.71428571428571</ele><time>2026-04-23T14:43:55.776Z</time></trkpt><trkpt lat="40.8979667" lon="14.2869383"><ele>82.0</ele><time>2026-04-23T14:43:56.778Z</time></trkpt><trkpt lat="40.8979017" lon="14.286915"><ele>81.99999999999999</ele><time>2026-04-23T14:43:57.775Z</time></trkpt><trkpt lat="40.8978383" lon="14.2868833"><ele>82.0</ele><time>2026-04-23T14:43:58.776Z</time></trkpt><trkpt lat="40.8977717" lon="14.2868683"><ele>82.0</ele><time>2026-04-23T14:43:59.777Z</time></trkpt><trkpt lat="40.8976967" lon="14.2868533"><ele>82.0</ele><time>2026-04-23T14:44:00.776Z</time></trkpt><trkpt lat="40.8976233" lon="14.2868383"><ele>82.0</ele><time>2026-04-23T14:44:01.775Z</time></trkpt><trkpt lat="40.89755" lon="14.2868233"><ele>81.99999999999999</ele><time>2026-04-23T14:44:02.776Z</time></trkpt><trkpt lat="40.89748" lon="14.2868067"><ele>82.0</ele><time>2026-04-23T14:44:03.776Z</time></trkpt><trkpt lat="40.897415" lon="14.2867767"><ele>81.66666666666666</ele><time>2026-04-23T14:44:04.775Z</time></trkpt><trkpt lat="40.8973533" lon="14.2867417"><ele>81.33333333333333</ele><time>2026-04-23T14:44:05.775Z</time></trkpt><trkpt lat="40.89729" lon="14.286715"><ele>81.0</ele><time>2026-04-23T14:44:06.775Z</time></trkpt><trkpt lat="40.8972283" lon="14.2866967"><ele>80.66666666666667</ele><time>2026-04-23T14:44:07.776Z</time></trkpt><trkpt lat="40.8971133" lon="14.2866567"><ele>80.33333333333334</ele><time>2026-04-23T14:44:09.775Z</time></trkpt><trkpt lat="40.8970067" lon="14.2866083"><ele>80.0</ele><time>2026-04-23T14:44:11.776Z</time></trkpt><trkpt lat="40.8968967" lon="14.2865533"><ele>80.0</ele><time>2026-04-23T14:44:13.776Z</time></trkpt><trkpt lat="40.8967817" lon="14.286485"><ele>80.0</ele><time>2026-04-23T14:44:15.776Z</time></trkpt><trkpt lat="40.896715" lon="14.286445"><ele>80.0</ele><time>2026-04-23T14:44:16.775Z</time></trkpt><trkpt lat="40.89665" lon="14.2864233"><ele>80.0</ele><time>2026-04-23T14:44:17.777Z</time></trkpt><trkpt lat="40.8965817" lon="14.2864167"><ele>80.0</ele><time>2026-04-23T14:44:18.777Z</time></trkpt><trkpt lat="40.8965117" lon="14.2864117"><ele>80.0</ele><time>2026-04-23T14:44:19.777Z</time></trkpt><trkpt lat="40.89645" lon="14.2863883"><ele>80.0</ele><time>2026-04-23T14:44:20.775Z</time></trkpt><trkpt lat="40.8963883" lon="14.2863667"><ele>80.0</ele><time>2026-04-23T14:44:21.779Z</time></trkpt><trkpt lat="40.8963233" lon="14.28634"><ele>80.0</ele><time>2026-04-23T14:44:22.775Z</time></trkpt><trkpt lat="40.8962583" lon="14.28633"><ele>80.0</ele><time>2026-04-23T14:44:23.778Z</time></trkpt><trkpt lat="40.89619" lon="14.2863133"><ele>80.0</ele><time>2026-04-23T14:44:24.776Z</time></trkpt><trkpt lat="40.8961217" lon="14.2863033"><ele>80.0</ele><time>2026-04-23T14:44:25.777Z</time></trkpt><trkpt lat="40.8960567" lon="14.286295"><ele>80.0</ele><time>2026-04-23T14:44:26.777Z</time></trkpt><trkpt lat="40.8959867" lon="14.2862767"><ele>80.0</ele><time>2026-04-23T14:44:27.776Z</time></trkpt><trkpt lat="40.8959217" lon="14.2862617"><ele>80.0</ele><time>2026-04-23T14:44:28.776Z</time></trkpt><trkpt lat="40.895855" lon="14.2862433"><ele>80.0</ele><time>2026-04-23T14:44:29.78Z</time></trkpt><trkpt lat="40.8957867" lon="14.2862233"><ele>80.0</ele><time>2026-04-23T14:44:30.776Z</time></trkpt><trkpt lat="40.89572" lon="14.2862033"><ele>80.0</ele><time>2026-04-23T14:44:31.776Z</time></trkpt><trkpt lat="40.8956533" lon="14.28619"><ele>80.0</ele><time>2026-04-23T14:44:32.775Z</time></trkpt><trkpt lat="40.8955833" lon="14.2861783"><ele>80.0</ele><time>2026-04-23T14:44:33.775Z</time></trkpt><trkpt lat="40.8955117" lon="14.2861767"><ele>80.0</ele><time>2026-04-23T14:44:34.776Z</time></trkpt><trkpt lat="40.89544" lon="14.2861767"><ele>80.0</ele><time>2026-04-23T14:44:35.776Z</time></trkpt><trkpt lat="40.8953667" lon="14.2861833"><ele>80.0</ele><time>2026-04-23T14:44:36.776Z</time></trkpt><trkpt lat="40.8952917" lon="14.286185"><ele>80.0</ele><time>2026-04-23T14:44:37.775Z</time></trkpt><trkpt lat="40.895215" lon="14.2861867"><ele>80.0</ele><time>2026-04-23T14:44:38.775Z</time></trkpt><trkpt lat="40.8951417" lon="14.2861833"><ele>80.0</ele><time>2026-04-23T14:44:39.775Z</time></trkpt><trkpt lat="40.8950717" lon="14.2861883"><ele>80.0</ele><time>2026-04-23T14:44:40.776Z</time></trkpt><trkpt lat="40.8949983" lon="14.2861933"><ele>80.0</ele><time>2026-04-23T14:44:41.775Z</time></trkpt><trkpt lat="40.894925" lon="14.2861967"><ele>80.0</ele><time>2026-04-23T14:44:42.777Z</time></trkpt><trkpt lat="40.8948567" lon="14.2862033"><ele>80.0</ele><time>2026-04-23T14:44:43.776Z</time></trkpt><trkpt lat="40.8947933" lon="14.2862067"><ele>80.0</ele><time>2026-04-23T14:44:44.775Z</time></trkpt><trkpt lat="40.894725" lon="14.2862117"><ele>80.0</ele><time>2026-04-23T14:44:45.775Z</time></trkpt><trkpt lat="40.89466" lon="14.2862067"><ele>80.0</ele><time>2026-04-23T14:44:46.775Z</time></trkpt><trkpt lat="40.8945917" lon="14.2862017"><ele>80.0</ele><time>2026-04-23T14:44:47.776Z</time></trkpt><trkpt lat="40.8945217" lon="14.2862"><ele>80.0</ele><time>2026-04-23T14:44:48.775Z</time></trkpt><trkpt lat="40.8944167" lon="14.2861717"><ele>80.0</ele><time>2026-04-23T14:44:50.776Z</time></trkpt><trkpt lat="40.8942933" lon="14.2861633"><ele>80.0</ele><time>2026-04-23T14:44:52.775Z</time></trkpt><trkpt lat="40.894225" lon="14.286155"><ele>80.0</ele><time>2026-04-23T14:44:53.776Z</time></trkpt><trkpt lat="40.8941567" lon="14.2861433"><ele>80.0</ele><time>2026-04-23T14:44:54.775Z</time></trkpt><trkpt lat="40.8940883" lon="14.2861317"><ele>80.0</ele><time>2026-04-23T14:44:55.776Z</time></trkpt><trkpt lat="40.8940217" lon="14.286125"><ele>80.2</ele><time>2026-04-23T14:44:56.775Z</time></trkpt><trkpt lat="40.8939533" lon="14.2861067"><ele>80.4</ele><time>2026-04-23T14:44:57.775Z</time></trkpt><trkpt lat="40.89389" lon="14.2860883"><ele>80.6</ele><time>2026-04-23T14:44:58.775Z</time></trkpt><trkpt lat="40.89377" lon="14.2860517"><ele>80.8</ele><time>2026-04-23T14:45:00.778Z</time></trkpt><trkpt lat="40.8936517" lon="14.28601"><ele>81.0</ele><time>2026-04-23T14:45:02.776Z</time></trkpt><trkpt lat="40.8935517" lon="14.2859917"><ele>81.0</ele><time>2026-04-23T14:45:04.777Z</time></trkpt><trkpt lat="40.8934717" lon="14.285985"><ele>81.0</ele><time>2026-04-23T14:45:07.776Z</time></trkpt><trkpt lat="40.8933983" lon="14.2860567"><ele>81.0</ele><time>2026-04-23T14:45:11.775Z</time></trkpt><trkpt lat="40.8933833" lon="14.2862033"><ele>81.0</ele><time>2026-04-23T14:45:13.777Z</time></trkpt><trkpt lat="40.89341" lon="14.2863583"><ele>81.0</ele><time>2026-04-23T14:45:15.775Z</time></trkpt><trkpt lat="40.893445" lon="14.2864483"><ele>80.85714285714286</ele><time>2026-04-23T14:45:16.776Z</time></trkpt><trkpt lat="40.8934783" lon="14.2865383"><ele>80.71428571428571</ele><time>2026-04-23T14:45:17.776Z</time></trkpt><trkpt lat="40.893505" lon="14.2866217"><ele>80.57142857142857</ele><time>2026-04-23T14:45:18.775Z</time></trkpt><trkpt lat="40.893535" lon="14.2867067"><ele>80.42857142857143</ele><time>2026-04-23T14:45:19.775Z</time></trkpt><trkpt lat="40.893565" lon="14.2867883"><ele>80.28571428571429</ele><time>2026-04-23T14:45:20.775Z</time></trkpt><trkpt lat="40.893595" lon="14.28687"><ele>80.14285714285714</ele><time>2026-04-23T14:45:21.778Z</time></trkpt><trkpt lat="40.8936183" lon="14.2869517"><ele>80.0</ele><time>2026-04-23T14:45:22.778Z</time></trkpt><trkpt lat="40.8936483" lon="14.28703"><ele>80.0</ele><time>2026-04-23T14:45:23.776Z</time></trkpt><trkpt lat="40.8936983" lon="14.287175"><ele>80.0</ele><time>2026-04-23T14:45:25.776Z</time></trkpt><trkpt lat="40.893725" lon="14.287255"><ele>80.0</ele><time>2026-04-23T14:45:26.776Z</time></trkpt><trkpt lat="40.89378" lon="14.28739"><ele>80.0</ele><time>2026-04-23T14:45:28.775Z</time></trkpt><trkpt lat="40.89381" lon="14.2875183"><ele>80.0</ele><time>2026-04-23T14:45:30.778Z</time></trkpt><trkpt lat="40.8937767" lon="14.28763"><ele>80.0</ele><time>2026-04-23T14:45:32.775Z</time></trkpt><trkpt lat="40.8936867" lon="14.2877067"><ele>80.0</ele><time>2026-04-23T14:45:34.776Z</time></trkpt><trkpt lat="40.893685" lon="14.2878217"><ele>80.0</ele><time>2026-04-23T14:45:36.777Z</time></trkpt><trkpt lat="40.8937167" lon="14.2879133"><ele>80.0</ele><time>2026-04-23T14:45:38.777Z</time></trkpt><trkpt lat="40.8937467" lon="14.2879883"><ele>80.0</ele><time>2026-04-23T14:45:41.777Z</time></trkpt><trkpt lat="40.89366" lon="14.2879717"><ele>80.0</ele><time>2026-04-23T14:46:35.781Z</time></trkpt><trkpt lat="40.8936" lon="14.2880033"><ele>80.0</ele><time>2026-04-23T14:46:40.779Z</time></trkpt><trkpt lat="40.89354" lon="14.2878267"><ele>80.0</ele><time>2026-04-23T14:46:53.783Z</time></trkpt><trkpt lat="40.8939132" lon="14.287892"><ele>80.0</ele><time>2026-04-23T14:47:10.883Z</time></trkpt><trkpt lat="40.8938297" lon="14.2878283"><ele>80.0</ele><time>2026-04-23T14:48:23.668Z</time></trkpt><trkpt lat="40.8937538" lon="14.2878216"><ele>80.0</ele><time>2026-04-23T14:48:28.71Z</time></trkpt><trkpt lat="40.8936516" lon="14.287831"><ele>80.0</ele><time>2026-04-23T14:48:42.932Z</time></trkpt><trkpt lat="40.8937422" lon="14.2878399"><ele>80.0</ele><time>2026-04-23T14:49:17.15Z</time></trkpt></trkseg></trk></gpx>